<?xml version="1.0" encoding="UTF-8" standalone="no" ?>
<gpx xmlns="http://www.topografix.com/GPX/1/1" xmlns:xsi="http://www.w3.org/2001/XMLSchema-instance" xsi:schemaLocation="http://www.topografix.com/GPX/1/1 http://www.topografix.com/GPX/1/1/gpx.xsd" version="1.1" creator="VisuGPX - https://www.visugpx.com">
  <metadata>
    <name>Saint Laurs - circuit des vallées</name>
    <desc><![CDATA[Circuit des vallées - Saint Laurs 79.
Le parcours 45km de 2013]]></desc>
  </metadata>
  <trk>
    <name><![CDATA[circuit des vallées]]></name>
    <trkseg>
      <trkpt lat="46.52451" lon="-0.5751">
        <ele>46</ele>
        <time>2013-09-15T06:54:07Z</time>
      </trkpt>
      <trkpt lat="46.52452" lon="-0.57509">
        <ele>46</ele>
        <time>2013-09-15T06:54:09Z</time>
      </trkpt>
      <trkpt lat="46.52452" lon="-0.57508">
        <ele>46</ele>
        <time>2013-09-15T06:54:11Z</time>
      </trkpt>
      <trkpt lat="46.5245" lon="-0.57506">
        <ele>46</ele>
        <time>2013-09-15T06:54:13Z</time>
      </trkpt>
      <trkpt lat="46.52446" lon="-0.57498">
        <ele>46</ele>
        <time>2013-09-15T06:54:16Z</time>
      </trkpt>
      <trkpt lat="46.52443" lon="-0.57492">
        <ele>46</ele>
        <time>2013-09-15T06:54:18Z</time>
      </trkpt>
      <trkpt lat="46.52439" lon="-0.57484">
        <ele>46</ele>
        <time>2013-09-15T06:54:21Z</time>
      </trkpt>
      <trkpt lat="46.52437" lon="-0.5748">
        <ele>47</ele>
        <time>2013-09-15T06:54:23Z</time>
      </trkpt>
      <trkpt lat="46.52435" lon="-0.57471">
        <ele>47</ele>
        <time>2013-09-15T06:54:26Z</time>
      </trkpt>
      <trkpt lat="46.52439" lon="-0.57465">
        <ele>47</ele>
        <time>2013-09-15T06:54:28Z</time>
      </trkpt>
      <trkpt lat="46.52446" lon="-0.57456">
        <ele>47</ele>
        <time>2013-09-15T06:54:31Z</time>
      </trkpt>
      <trkpt lat="46.52448" lon="-0.57448">
        <ele>47</ele>
        <time>2013-09-15T06:54:33Z</time>
      </trkpt>
      <trkpt lat="46.52448" lon="-0.57435">
        <ele>46</ele>
        <time>2013-09-15T06:54:36Z</time>
      </trkpt>
      <trkpt lat="46.52447" lon="-0.57425">
        <ele>46</ele>
        <time>2013-09-15T06:54:39Z</time>
      </trkpt>
      <trkpt lat="46.52443" lon="-0.57411">
        <ele>47</ele>
        <time>2013-09-15T06:54:42Z</time>
      </trkpt>
      <trkpt lat="46.52439" lon="-0.57394">
        <ele>47</ele>
        <time>2013-09-15T06:54:45Z</time>
      </trkpt>
      <trkpt lat="46.52436" lon="-0.57382">
        <ele>47</ele>
        <time>2013-09-15T06:54:47Z</time>
      </trkpt>
      <trkpt lat="46.52433" lon="-0.57369">
        <ele>47</ele>
        <time>2013-09-15T06:54:49Z</time>
      </trkpt>
      <trkpt lat="46.5243" lon="-0.57355">
        <ele>47</ele>
        <time>2013-09-15T06:54:51Z</time>
      </trkpt>
      <trkpt lat="46.52426" lon="-0.5734">
        <ele>47</ele>
        <time>2013-09-15T06:54:53Z</time>
      </trkpt>
      <trkpt lat="46.5242" lon="-0.57314">
        <ele>46</ele>
        <time>2013-09-15T06:54:56Z</time>
      </trkpt>
      <trkpt lat="46.52415" lon="-0.57294">
        <ele>46</ele>
        <time>2013-09-15T06:54:58Z</time>
      </trkpt>
      <trkpt lat="46.52409" lon="-0.57272">
        <ele>45</ele>
        <time>2013-09-15T06:55:00Z</time>
      </trkpt>
      <trkpt lat="46.52396" lon="-0.57238">
        <ele>43</ele>
        <time>2013-09-15T06:55:03Z</time>
      </trkpt>
      <trkpt lat="46.52387" lon="-0.57213">
        <ele>42</ele>
        <time>2013-09-15T06:55:05Z</time>
      </trkpt>
      <trkpt lat="46.52377" lon="-0.5719">
        <ele>41</ele>
        <time>2013-09-15T06:55:07Z</time>
      </trkpt>
      <trkpt lat="46.52366" lon="-0.57167">
        <ele>40</ele>
        <time>2013-09-15T06:55:09Z</time>
      </trkpt>
      <trkpt lat="46.52348" lon="-0.57141">
        <ele>38</ele>
        <time>2013-09-15T06:55:12Z</time>
      </trkpt>
      <trkpt lat="46.52337" lon="-0.57127">
        <ele>37</ele>
        <time>2013-09-15T06:55:14Z</time>
      </trkpt>
      <trkpt lat="46.52328" lon="-0.57115">
        <ele>36</ele>
        <time>2013-09-15T06:55:16Z</time>
      </trkpt>
      <trkpt lat="46.52319" lon="-0.57094">
        <ele>35</ele>
        <time>2013-09-15T06:55:19Z</time>
      </trkpt>
      <trkpt lat="46.52316" lon="-0.57078">
        <ele>35</ele>
        <time>2013-09-15T06:55:21Z</time>
      </trkpt>
      <trkpt lat="46.52313" lon="-0.57064">
        <ele>35</ele>
        <time>2013-09-15T06:55:23Z</time>
      </trkpt>
      <trkpt lat="46.5231" lon="-0.57049">
        <ele>35</ele>
        <time>2013-09-15T06:55:25Z</time>
      </trkpt>
      <trkpt lat="46.52306" lon="-0.57026">
        <ele>35</ele>
        <time>2013-09-15T06:55:28Z</time>
      </trkpt>
      <trkpt lat="46.52303" lon="-0.57012">
        <ele>35</ele>
        <time>2013-09-15T06:55:30Z</time>
      </trkpt>
      <trkpt lat="46.52301" lon="-0.56998">
        <ele>35</ele>
        <time>2013-09-15T06:55:32Z</time>
      </trkpt>
      <trkpt lat="46.52301" lon="-0.56977">
        <ele>36</ele>
        <time>2013-09-15T06:55:35Z</time>
      </trkpt>
      <trkpt lat="46.52302" lon="-0.56963">
        <ele>36</ele>
        <time>2013-09-15T06:55:37Z</time>
      </trkpt>
      <trkpt lat="46.52303" lon="-0.5695">
        <ele>37</ele>
        <time>2013-09-15T06:55:39Z</time>
      </trkpt>
      <trkpt lat="46.52302" lon="-0.56931">
        <ele>37</ele>
        <time>2013-09-15T06:55:42Z</time>
      </trkpt>
      <trkpt lat="46.523" lon="-0.56917">
        <ele>38</ele>
        <time>2013-09-15T06:55:44Z</time>
      </trkpt>
      <trkpt lat="46.52296" lon="-0.56903">
        <ele>38</ele>
        <time>2013-09-15T06:55:46Z</time>
      </trkpt>
      <trkpt lat="46.52291" lon="-0.56885">
        <ele>38</ele>
        <time>2013-09-15T06:55:49Z</time>
      </trkpt>
      <trkpt lat="46.52288" lon="-0.56874">
        <ele>38</ele>
        <time>2013-09-15T06:55:51Z</time>
      </trkpt>
      <trkpt lat="46.52287" lon="-0.56852">
        <ele>39</ele>
        <time>2013-09-15T06:55:54Z</time>
      </trkpt>
      <trkpt lat="46.52289" lon="-0.56838">
        <ele>39</ele>
        <time>2013-09-15T06:55:56Z</time>
      </trkpt>
      <trkpt lat="46.52295" lon="-0.56817">
        <ele>39</ele>
        <time>2013-09-15T06:55:59Z</time>
      </trkpt>
      <trkpt lat="46.523" lon="-0.56804">
        <ele>39</ele>
        <time>2013-09-15T06:56:01Z</time>
      </trkpt>
      <trkpt lat="46.52304" lon="-0.56785">
        <ele>40</ele>
        <time>2013-09-15T06:56:04Z</time>
      </trkpt>
      <trkpt lat="46.52307" lon="-0.56774">
        <ele>40</ele>
        <time>2013-09-15T06:56:06Z</time>
      </trkpt>
      <trkpt lat="46.52309" lon="-0.56764">
        <ele>41</ele>
        <time>2013-09-15T06:56:08Z</time>
      </trkpt>
      <trkpt lat="46.52311" lon="-0.56754">
        <ele>41</ele>
        <time>2013-09-15T06:56:10Z</time>
      </trkpt>
      <trkpt lat="46.52314" lon="-0.5674">
        <ele>42</ele>
        <time>2013-09-15T06:56:13Z</time>
      </trkpt>
      <trkpt lat="46.52316" lon="-0.56731">
        <ele>43</ele>
        <time>2013-09-15T06:56:15Z</time>
      </trkpt>
      <trkpt lat="46.52319" lon="-0.56722">
        <ele>44</ele>
        <time>2013-09-15T06:56:17Z</time>
      </trkpt>
      <trkpt lat="46.52323" lon="-0.56708">
        <ele>44</ele>
        <time>2013-09-15T06:56:20Z</time>
      </trkpt>
      <trkpt lat="46.52326" lon="-0.56699">
        <ele>45</ele>
        <time>2013-09-15T06:56:22Z</time>
      </trkpt>
      <trkpt lat="46.5233" lon="-0.5669">
        <ele>46</ele>
        <time>2013-09-15T06:56:24Z</time>
      </trkpt>
      <trkpt lat="46.52337" lon="-0.56678">
        <ele>47</ele>
        <time>2013-09-15T06:56:27Z</time>
      </trkpt>
      <trkpt lat="46.52342" lon="-0.56671">
        <ele>47</ele>
        <time>2013-09-15T06:56:29Z</time>
      </trkpt>
      <trkpt lat="46.52348" lon="-0.56665">
        <ele>48</ele>
        <time>2013-09-15T06:56:31Z</time>
      </trkpt>
      <trkpt lat="46.52356" lon="-0.56655">
        <ele>49</ele>
        <time>2013-09-15T06:56:34Z</time>
      </trkpt>
      <trkpt lat="46.52361" lon="-0.5665">
        <ele>49</ele>
        <time>2013-09-15T06:56:36Z</time>
      </trkpt>
      <trkpt lat="46.52366" lon="-0.56644">
        <ele>50</ele>
        <time>2013-09-15T06:56:38Z</time>
      </trkpt>
      <trkpt lat="46.52375" lon="-0.56635">
        <ele>50</ele>
        <time>2013-09-15T06:56:41Z</time>
      </trkpt>
      <trkpt lat="46.52381" lon="-0.5663">
        <ele>51</ele>
        <time>2013-09-15T06:56:43Z</time>
      </trkpt>
      <trkpt lat="46.52386" lon="-0.56623">
        <ele>52</ele>
        <time>2013-09-15T06:56:45Z</time>
      </trkpt>
      <trkpt lat="46.52396" lon="-0.56614">
        <ele>52</ele>
        <time>2013-09-15T06:56:48Z</time>
      </trkpt>
      <trkpt lat="46.52402" lon="-0.56608">
        <ele>52</ele>
        <time>2013-09-15T06:56:50Z</time>
      </trkpt>
      <trkpt lat="46.52407" lon="-0.56602">
        <ele>52</ele>
        <time>2013-09-15T06:56:52Z</time>
      </trkpt>
      <trkpt lat="46.52413" lon="-0.56596">
        <ele>52</ele>
        <time>2013-09-15T06:56:54Z</time>
      </trkpt>
      <trkpt lat="46.52422" lon="-0.56587">
        <ele>53</ele>
        <time>2013-09-15T06:56:57Z</time>
      </trkpt>
      <trkpt lat="46.52428" lon="-0.56581">
        <ele>54</ele>
        <time>2013-09-15T06:56:59Z</time>
      </trkpt>
      <trkpt lat="46.52438" lon="-0.56574">
        <ele>54</ele>
        <time>2013-09-15T06:57:02Z</time>
      </trkpt>
      <trkpt lat="46.52444" lon="-0.56568">
        <ele>54</ele>
        <time>2013-09-15T06:57:04Z</time>
      </trkpt>
      <trkpt lat="46.52451" lon="-0.56564">
        <ele>55</ele>
        <time>2013-09-15T06:57:06Z</time>
      </trkpt>
      <trkpt lat="46.52462" lon="-0.56556">
        <ele>55</ele>
        <time>2013-09-15T06:57:09Z</time>
      </trkpt>
      <trkpt lat="46.5247" lon="-0.5655">
        <ele>55</ele>
        <time>2013-09-15T06:57:11Z</time>
      </trkpt>
      <trkpt lat="46.52476" lon="-0.56542">
        <ele>55</ele>
        <time>2013-09-15T06:57:13Z</time>
      </trkpt>
      <trkpt lat="46.52485" lon="-0.56529">
        <ele>55</ele>
        <time>2013-09-15T06:57:16Z</time>
      </trkpt>
      <trkpt lat="46.52491" lon="-0.56519">
        <ele>55</ele>
        <time>2013-09-15T06:57:18Z</time>
      </trkpt>
      <trkpt lat="46.52497" lon="-0.5651">
        <ele>55</ele>
        <time>2013-09-15T06:57:20Z</time>
      </trkpt>
      <trkpt lat="46.52506" lon="-0.56497">
        <ele>55</ele>
        <time>2013-09-15T06:57:23Z</time>
      </trkpt>
      <trkpt lat="46.52513" lon="-0.56488">
        <ele>56</ele>
        <time>2013-09-15T06:57:25Z</time>
      </trkpt>
      <trkpt lat="46.5252" lon="-0.56479">
        <ele>55</ele>
        <time>2013-09-15T06:57:27Z</time>
      </trkpt>
      <trkpt lat="46.52532" lon="-0.56466">
        <ele>55</ele>
        <time>2013-09-15T06:57:30Z</time>
      </trkpt>
      <trkpt lat="46.52539" lon="-0.56457">
        <ele>55</ele>
        <time>2013-09-15T06:57:32Z</time>
      </trkpt>
      <trkpt lat="46.52551" lon="-0.56444">
        <ele>55</ele>
        <time>2013-09-15T06:57:35Z</time>
      </trkpt>
      <trkpt lat="46.52558" lon="-0.56436">
        <ele>55</ele>
        <time>2013-09-15T06:57:37Z</time>
      </trkpt>
      <trkpt lat="46.52565" lon="-0.56427">
        <ele>55</ele>
        <time>2013-09-15T06:57:39Z</time>
      </trkpt>
      <trkpt lat="46.52575" lon="-0.56414">
        <ele>55</ele>
        <time>2013-09-15T06:57:42Z</time>
      </trkpt>
      <trkpt lat="46.52585" lon="-0.56404">
        <ele>55</ele>
        <time>2013-09-15T06:57:45Z</time>
      </trkpt>
      <trkpt lat="46.52592" lon="-0.56397">
        <ele>55</ele>
        <time>2013-09-15T06:57:47Z</time>
      </trkpt>
      <trkpt lat="46.52604" lon="-0.56384">
        <ele>55</ele>
        <time>2013-09-15T06:57:50Z</time>
      </trkpt>
      <trkpt lat="46.52613" lon="-0.56375">
        <ele>54</ele>
        <time>2013-09-15T06:57:52Z</time>
      </trkpt>
      <trkpt lat="46.52622" lon="-0.56366">
        <ele>54</ele>
        <time>2013-09-15T06:57:54Z</time>
      </trkpt>
      <trkpt lat="46.52636" lon="-0.56353">
        <ele>54</ele>
        <time>2013-09-15T06:57:57Z</time>
      </trkpt>
      <trkpt lat="46.5265" lon="-0.5634">
        <ele>53</ele>
        <time>2013-09-15T06:58:00Z</time>
      </trkpt>
      <trkpt lat="46.52664" lon="-0.56327">
        <ele>53</ele>
        <time>2013-09-15T06:58:03Z</time>
      </trkpt>
      <trkpt lat="46.52674" lon="-0.56318">
        <ele>53</ele>
        <time>2013-09-15T06:58:05Z</time>
      </trkpt>
      <trkpt lat="46.52683" lon="-0.56309">
        <ele>53</ele>
        <time>2013-09-15T06:58:07Z</time>
      </trkpt>
      <trkpt lat="46.52698" lon="-0.56296">
        <ele>53</ele>
        <time>2013-09-15T06:58:10Z</time>
      </trkpt>
      <trkpt lat="46.52708" lon="-0.56286">
        <ele>53</ele>
        <time>2013-09-15T06:58:12Z</time>
      </trkpt>
      <trkpt lat="46.52723" lon="-0.56273">
        <ele>53</ele>
        <time>2013-09-15T06:58:15Z</time>
      </trkpt>
      <trkpt lat="46.52737" lon="-0.5626">
        <ele>53</ele>
        <time>2013-09-15T06:58:18Z</time>
      </trkpt>
      <trkpt lat="46.52747" lon="-0.56251">
        <ele>53</ele>
        <time>2013-09-15T06:58:20Z</time>
      </trkpt>
      <trkpt lat="46.52762" lon="-0.56238">
        <ele>52</ele>
        <time>2013-09-15T06:58:23Z</time>
      </trkpt>
      <trkpt lat="46.52776" lon="-0.56226">
        <ele>52</ele>
        <time>2013-09-15T06:58:26Z</time>
      </trkpt>
      <trkpt lat="46.52784" lon="-0.56218">
        <ele>52</ele>
        <time>2013-09-15T06:58:28Z</time>
      </trkpt>
      <trkpt lat="46.52796" lon="-0.56208">
        <ele>53</ele>
        <time>2013-09-15T06:58:31Z</time>
      </trkpt>
      <trkpt lat="46.528" lon="-0.562">
        <ele>53</ele>
        <time>2013-09-15T06:58:33Z</time>
      </trkpt>
      <trkpt lat="46.52797" lon="-0.56193">
        <ele>53</ele>
        <time>2013-09-15T06:58:35Z</time>
      </trkpt>
      <trkpt lat="46.52792" lon="-0.5619">
        <ele>53</ele>
        <time>2013-09-15T06:58:37Z</time>
      </trkpt>
      <trkpt lat="46.52782" lon="-0.56183">
        <ele>53</ele>
        <time>2013-09-15T06:58:40Z</time>
      </trkpt>
      <trkpt lat="46.52777" lon="-0.56177">
        <ele>53</ele>
        <time>2013-09-15T06:58:42Z</time>
      </trkpt>
      <trkpt lat="46.52772" lon="-0.56169">
        <ele>53</ele>
        <time>2013-09-15T06:58:44Z</time>
      </trkpt>
      <trkpt lat="46.52768" lon="-0.56161">
        <ele>53</ele>
        <time>2013-09-15T06:58:46Z</time>
      </trkpt>
      <trkpt lat="46.5276" lon="-0.56148">
        <ele>54</ele>
        <time>2013-09-15T06:58:49Z</time>
      </trkpt>
      <trkpt lat="46.52756" lon="-0.56141">
        <ele>54</ele>
        <time>2013-09-15T06:58:51Z</time>
      </trkpt>
      <trkpt lat="46.52749" lon="-0.5613">
        <ele>54</ele>
        <time>2013-09-15T06:58:54Z</time>
      </trkpt>
      <trkpt lat="46.52741" lon="-0.56116">
        <ele>54</ele>
        <time>2013-09-15T06:58:57Z</time>
      </trkpt>
      <trkpt lat="46.52734" lon="-0.56106">
        <ele>55</ele>
        <time>2013-09-15T06:58:59Z</time>
      </trkpt>
      <trkpt lat="46.52726" lon="-0.56091">
        <ele>55</ele>
        <time>2013-09-15T06:59:02Z</time>
      </trkpt>
      <trkpt lat="46.5272" lon="-0.56082">
        <ele>56</ele>
        <time>2013-09-15T06:59:04Z</time>
      </trkpt>
      <trkpt lat="46.52711" lon="-0.56068">
        <ele>56</ele>
        <time>2013-09-15T06:59:07Z</time>
      </trkpt>
      <trkpt lat="46.52704" lon="-0.56056">
        <ele>57</ele>
        <time>2013-09-15T06:59:10Z</time>
      </trkpt>
      <trkpt lat="46.52699" lon="-0.56047">
        <ele>58</ele>
        <time>2013-09-15T06:59:12Z</time>
      </trkpt>
      <trkpt lat="46.52689" lon="-0.56033">
        <ele>59</ele>
        <time>2013-09-15T06:59:15Z</time>
      </trkpt>
      <trkpt lat="46.52684" lon="-0.56023">
        <ele>59</ele>
        <time>2013-09-15T06:59:17Z</time>
      </trkpt>
      <trkpt lat="46.52679" lon="-0.56014">
        <ele>60</ele>
        <time>2013-09-15T06:59:19Z</time>
      </trkpt>
      <trkpt lat="46.52671" lon="-0.56">
        <ele>60</ele>
        <time>2013-09-15T06:59:22Z</time>
      </trkpt>
      <trkpt lat="46.52663" lon="-0.55986">
        <ele>60</ele>
        <time>2013-09-15T06:59:25Z</time>
      </trkpt>
      <trkpt lat="46.52657" lon="-0.55977">
        <ele>61</ele>
        <time>2013-09-15T06:59:27Z</time>
      </trkpt>
      <trkpt lat="46.52647" lon="-0.55963">
        <ele>61</ele>
        <time>2013-09-15T06:59:30Z</time>
      </trkpt>
      <trkpt lat="46.52637" lon="-0.55949">
        <ele>61</ele>
        <time>2013-09-15T06:59:33Z</time>
      </trkpt>
      <trkpt lat="46.52628" lon="-0.55939">
        <ele>61</ele>
        <time>2013-09-15T06:59:36Z</time>
      </trkpt>
      <trkpt lat="46.52618" lon="-0.55939">
        <ele>60</ele>
        <time>2013-09-15T06:59:39Z</time>
      </trkpt>
      <trkpt lat="46.52612" lon="-0.5594">
        <ele>60</ele>
        <time>2013-09-15T06:59:41Z</time>
      </trkpt>
      <trkpt lat="46.52602" lon="-0.5594">
        <ele>60</ele>
        <time>2013-09-15T06:59:43Z</time>
      </trkpt>
      <trkpt lat="46.52587" lon="-0.55942">
        <ele>60</ele>
        <time>2013-09-15T06:59:46Z</time>
      </trkpt>
      <trkpt lat="46.52576" lon="-0.55943">
        <ele>59</ele>
        <time>2013-09-15T06:59:48Z</time>
      </trkpt>
      <trkpt lat="46.52559" lon="-0.55943">
        <ele>59</ele>
        <time>2013-09-15T06:59:51Z</time>
      </trkpt>
      <trkpt lat="46.52548" lon="-0.55942">
        <ele>59</ele>
        <time>2013-09-15T06:59:53Z</time>
      </trkpt>
      <trkpt lat="46.52537" lon="-0.5594">
        <ele>59</ele>
        <time>2013-09-15T06:59:55Z</time>
      </trkpt>
      <trkpt lat="46.52523" lon="-0.55938">
        <ele>58</ele>
        <time>2013-09-15T06:59:58Z</time>
      </trkpt>
      <trkpt lat="46.52512" lon="-0.55938">
        <ele>58</ele>
        <time>2013-09-15T07:00:00Z</time>
      </trkpt>
      <trkpt lat="46.52497" lon="-0.55941">
        <ele>57</ele>
        <time>2013-09-15T07:00:03Z</time>
      </trkpt>
      <trkpt lat="46.52487" lon="-0.55947">
        <ele>56</ele>
        <time>2013-09-15T07:00:05Z</time>
      </trkpt>
      <trkpt lat="46.52472" lon="-0.5596">
        <ele>56</ele>
        <time>2013-09-15T07:00:08Z</time>
      </trkpt>
      <trkpt lat="46.52458" lon="-0.55974">
        <ele>55</ele>
        <time>2013-09-15T07:00:11Z</time>
      </trkpt>
      <trkpt lat="46.52442" lon="-0.55985">
        <ele>55</ele>
        <time>2013-09-15T07:00:14Z</time>
      </trkpt>
      <trkpt lat="46.52431" lon="-0.5599">
        <ele>55</ele>
        <time>2013-09-15T07:00:16Z</time>
      </trkpt>
      <trkpt lat="46.52416" lon="-0.55999">
        <ele>55</ele>
        <time>2013-09-15T07:00:19Z</time>
      </trkpt>
      <trkpt lat="46.524" lon="-0.56006">
        <ele>55</ele>
        <time>2013-09-15T07:00:22Z</time>
      </trkpt>
      <trkpt lat="46.52391" lon="-0.5601">
        <ele>54</ele>
        <time>2013-09-15T07:00:24Z</time>
      </trkpt>
      <trkpt lat="46.52377" lon="-0.56016">
        <ele>54</ele>
        <time>2013-09-15T07:00:27Z</time>
      </trkpt>
      <trkpt lat="46.52369" lon="-0.5602">
        <ele>54</ele>
        <time>2013-09-15T07:00:29Z</time>
      </trkpt>
      <trkpt lat="46.52356" lon="-0.56026">
        <ele>55</ele>
        <time>2013-09-15T07:00:32Z</time>
      </trkpt>
      <trkpt lat="46.52342" lon="-0.56034">
        <ele>54</ele>
        <time>2013-09-15T07:00:35Z</time>
      </trkpt>
      <trkpt lat="46.52333" lon="-0.56039">
        <ele>54</ele>
        <time>2013-09-15T07:00:37Z</time>
      </trkpt>
      <trkpt lat="46.52318" lon="-0.56047">
        <ele>55</ele>
        <time>2013-09-15T07:00:40Z</time>
      </trkpt>
      <trkpt lat="46.52304" lon="-0.56056">
        <ele>55</ele>
        <time>2013-09-15T07:00:43Z</time>
      </trkpt>
      <trkpt lat="46.52291" lon="-0.56066">
        <ele>55</ele>
        <time>2013-09-15T07:00:46Z</time>
      </trkpt>
      <trkpt lat="46.52277" lon="-0.56075">
        <ele>55</ele>
        <time>2013-09-15T07:00:49Z</time>
      </trkpt>
      <trkpt lat="46.52263" lon="-0.56085">
        <ele>55</ele>
        <time>2013-09-15T07:00:52Z</time>
      </trkpt>
      <trkpt lat="46.52249" lon="-0.56094">
        <ele>54</ele>
        <time>2013-09-15T07:00:55Z</time>
      </trkpt>
      <trkpt lat="46.52239" lon="-0.561">
        <ele>54</ele>
        <time>2013-09-15T07:00:57Z</time>
      </trkpt>
      <trkpt lat="46.52224" lon="-0.56111">
        <ele>55</ele>
        <time>2013-09-15T07:01:00Z</time>
      </trkpt>
      <trkpt lat="46.52206" lon="-0.56126">
        <ele>55</ele>
        <time>2013-09-15T07:01:03Z</time>
      </trkpt>
      <trkpt lat="46.52194" lon="-0.56136">
        <ele>55</ele>
        <time>2013-09-15T07:01:05Z</time>
      </trkpt>
      <trkpt lat="46.52177" lon="-0.56151">
        <ele>54</ele>
        <time>2013-09-15T07:01:08Z</time>
      </trkpt>
      <trkpt lat="46.52164" lon="-0.56158">
        <ele>54</ele>
        <time>2013-09-15T07:01:10Z</time>
      </trkpt>
      <trkpt lat="46.52145" lon="-0.56165">
        <ele>53</ele>
        <time>2013-09-15T07:01:13Z</time>
      </trkpt>
      <trkpt lat="46.52132" lon="-0.56169">
        <ele>53</ele>
        <time>2013-09-15T07:01:15Z</time>
      </trkpt>
      <trkpt lat="46.52113" lon="-0.56175">
        <ele>52</ele>
        <time>2013-09-15T07:01:18Z</time>
      </trkpt>
      <trkpt lat="46.52095" lon="-0.56183">
        <ele>52</ele>
        <time>2013-09-15T07:01:21Z</time>
      </trkpt>
      <trkpt lat="46.52084" lon="-0.56189">
        <ele>52</ele>
        <time>2013-09-15T07:01:23Z</time>
      </trkpt>
      <trkpt lat="46.52068" lon="-0.56198">
        <ele>53</ele>
        <time>2013-09-15T07:01:26Z</time>
      </trkpt>
      <trkpt lat="46.52052" lon="-0.56208">
        <ele>53</ele>
        <time>2013-09-15T07:01:29Z</time>
      </trkpt>
      <trkpt lat="46.52035" lon="-0.56216">
        <ele>53</ele>
        <time>2013-09-15T07:01:32Z</time>
      </trkpt>
      <trkpt lat="46.52019" lon="-0.56218">
        <ele>53</ele>
        <time>2013-09-15T07:01:35Z</time>
      </trkpt>
      <trkpt lat="46.52004" lon="-0.56216">
        <ele>53</ele>
        <time>2013-09-15T07:01:38Z</time>
      </trkpt>
      <trkpt lat="46.51993" lon="-0.56216">
        <ele>54</ele>
        <time>2013-09-15T07:01:40Z</time>
      </trkpt>
      <trkpt lat="46.51983" lon="-0.56215">
        <ele>54</ele>
        <time>2013-09-15T07:01:42Z</time>
      </trkpt>
      <trkpt lat="46.51968" lon="-0.56214">
        <ele>55</ele>
        <time>2013-09-15T07:01:45Z</time>
      </trkpt>
      <trkpt lat="46.51959" lon="-0.56214">
        <ele>55</ele>
        <time>2013-09-15T07:01:47Z</time>
      </trkpt>
      <trkpt lat="46.51946" lon="-0.56213">
        <ele>56</ele>
        <time>2013-09-15T07:01:50Z</time>
      </trkpt>
      <trkpt lat="46.51938" lon="-0.56213">
        <ele>56</ele>
        <time>2013-09-15T07:01:52Z</time>
      </trkpt>
      <trkpt lat="46.51927" lon="-0.56211">
        <ele>56</ele>
        <time>2013-09-15T07:01:55Z</time>
      </trkpt>
      <trkpt lat="46.5192" lon="-0.56209">
        <ele>57</ele>
        <time>2013-09-15T07:01:57Z</time>
      </trkpt>
      <trkpt lat="46.51908" lon="-0.56207">
        <ele>57</ele>
        <time>2013-09-15T07:02:00Z</time>
      </trkpt>
      <trkpt lat="46.51896" lon="-0.56206">
        <ele>58</ele>
        <time>2013-09-15T07:02:03Z</time>
      </trkpt>
      <trkpt lat="46.51885" lon="-0.56203">
        <ele>60</ele>
        <time>2013-09-15T07:02:06Z</time>
      </trkpt>
      <trkpt lat="46.51877" lon="-0.562">
        <ele>60</ele>
        <time>2013-09-15T07:02:08Z</time>
      </trkpt>
      <trkpt lat="46.51863" lon="-0.56197">
        <ele>60</ele>
        <time>2013-09-15T07:02:11Z</time>
      </trkpt>
      <trkpt lat="46.51849" lon="-0.56193">
        <ele>60</ele>
        <time>2013-09-15T07:02:14Z</time>
      </trkpt>
      <trkpt lat="46.51839" lon="-0.56191">
        <ele>60</ele>
        <time>2013-09-15T07:02:16Z</time>
      </trkpt>
      <trkpt lat="46.51829" lon="-0.5619">
        <ele>60</ele>
        <time>2013-09-15T07:02:18Z</time>
      </trkpt>
      <trkpt lat="46.51815" lon="-0.56189">
        <ele>60</ele>
        <time>2013-09-15T07:02:21Z</time>
      </trkpt>
      <trkpt lat="46.51806" lon="-0.5619">
        <ele>60</ele>
        <time>2013-09-15T07:02:23Z</time>
      </trkpt>
      <trkpt lat="46.51793" lon="-0.56192">
        <ele>60</ele>
        <time>2013-09-15T07:02:26Z</time>
      </trkpt>
      <trkpt lat="46.51784" lon="-0.56195">
        <ele>60</ele>
        <time>2013-09-15T07:02:28Z</time>
      </trkpt>
      <trkpt lat="46.51773" lon="-0.56198">
        <ele>59</ele>
        <time>2013-09-15T07:02:31Z</time>
      </trkpt>
      <trkpt lat="46.51767" lon="-0.56197">
        <ele>59</ele>
        <time>2013-09-15T07:02:33Z</time>
      </trkpt>
      <trkpt lat="46.51757" lon="-0.5619">
        <ele>60</ele>
        <time>2013-09-15T07:02:36Z</time>
      </trkpt>
      <trkpt lat="46.51751" lon="-0.56183">
        <ele>60</ele>
        <time>2013-09-15T07:02:38Z</time>
      </trkpt>
      <trkpt lat="46.51742" lon="-0.56172">
        <ele>60</ele>
        <time>2013-09-15T07:02:41Z</time>
      </trkpt>
      <trkpt lat="46.51736" lon="-0.56165">
        <ele>61</ele>
        <time>2013-09-15T07:02:43Z</time>
      </trkpt>
      <trkpt lat="46.51731" lon="-0.56157">
        <ele>62</ele>
        <time>2013-09-15T07:02:45Z</time>
      </trkpt>
      <trkpt lat="46.51726" lon="-0.56151">
        <ele>62</ele>
        <time>2013-09-15T07:02:47Z</time>
      </trkpt>
      <trkpt lat="46.5172" lon="-0.56142">
        <ele>63</ele>
        <time>2013-09-15T07:02:50Z</time>
      </trkpt>
      <trkpt lat="46.51713" lon="-0.56134">
        <ele>64</ele>
        <time>2013-09-15T07:02:53Z</time>
      </trkpt>
      <trkpt lat="46.51708" lon="-0.56125">
        <ele>64</ele>
        <time>2013-09-15T07:02:55Z</time>
      </trkpt>
      <trkpt lat="46.51699" lon="-0.56112">
        <ele>65</ele>
        <time>2013-09-15T07:02:58Z</time>
      </trkpt>
      <trkpt lat="46.51689" lon="-0.56099">
        <ele>66</ele>
        <time>2013-09-15T07:03:01Z</time>
      </trkpt>
      <trkpt lat="46.51683" lon="-0.56089">
        <ele>66</ele>
        <time>2013-09-15T07:03:03Z</time>
      </trkpt>
      <trkpt lat="46.51674" lon="-0.56076">
        <ele>66</ele>
        <time>2013-09-15T07:03:06Z</time>
      </trkpt>
      <trkpt lat="46.51661" lon="-0.56066">
        <ele>66</ele>
        <time>2013-09-15T07:03:09Z</time>
      </trkpt>
      <trkpt lat="46.51652" lon="-0.5606">
        <ele>66</ele>
        <time>2013-09-15T07:03:11Z</time>
      </trkpt>
      <trkpt lat="46.51639" lon="-0.56051">
        <ele>66</ele>
        <time>2013-09-15T07:03:14Z</time>
      </trkpt>
      <trkpt lat="46.5163" lon="-0.56044">
        <ele>66</ele>
        <time>2013-09-15T07:03:16Z</time>
      </trkpt>
      <trkpt lat="46.51615" lon="-0.56034">
        <ele>66</ele>
        <time>2013-09-15T07:03:19Z</time>
      </trkpt>
      <trkpt lat="46.51601" lon="-0.56024">
        <ele>66</ele>
        <time>2013-09-15T07:03:22Z</time>
      </trkpt>
      <trkpt lat="46.51592" lon="-0.56017">
        <ele>66</ele>
        <time>2013-09-15T07:03:24Z</time>
      </trkpt>
      <trkpt lat="46.51582" lon="-0.56011">
        <ele>66</ele>
        <time>2013-09-15T07:03:26Z</time>
      </trkpt>
      <trkpt lat="46.51567" lon="-0.56001">
        <ele>66</ele>
        <time>2013-09-15T07:03:29Z</time>
      </trkpt>
      <trkpt lat="46.51551" lon="-0.5599">
        <ele>65</ele>
        <time>2013-09-15T07:03:32Z</time>
      </trkpt>
      <trkpt lat="46.51534" lon="-0.55978">
        <ele>65</ele>
        <time>2013-09-15T07:03:35Z</time>
      </trkpt>
      <trkpt lat="46.51516" lon="-0.55966">
        <ele>65</ele>
        <time>2013-09-15T07:03:38Z</time>
      </trkpt>
      <trkpt lat="46.51505" lon="-0.55958">
        <ele>65</ele>
        <time>2013-09-15T07:03:40Z</time>
      </trkpt>
      <trkpt lat="46.51493" lon="-0.55949">
        <ele>64</ele>
        <time>2013-09-15T07:03:42Z</time>
      </trkpt>
      <trkpt lat="46.51481" lon="-0.5594">
        <ele>64</ele>
        <time>2013-09-15T07:03:44Z</time>
      </trkpt>
      <trkpt lat="46.51469" lon="-0.55929">
        <ele>64</ele>
        <time>2013-09-15T07:03:46Z</time>
      </trkpt>
      <trkpt lat="46.51451" lon="-0.55913">
        <ele>63</ele>
        <time>2013-09-15T07:03:49Z</time>
      </trkpt>
      <trkpt lat="46.51439" lon="-0.55903">
        <ele>63</ele>
        <time>2013-09-15T07:03:51Z</time>
      </trkpt>
      <trkpt lat="46.51418" lon="-0.5589">
        <ele>62</ele>
        <time>2013-09-15T07:03:54Z</time>
      </trkpt>
      <trkpt lat="46.51404" lon="-0.55882">
        <ele>62</ele>
        <time>2013-09-15T07:03:56Z</time>
      </trkpt>
      <trkpt lat="46.51389" lon="-0.55874">
        <ele>61</ele>
        <time>2013-09-15T07:03:58Z</time>
      </trkpt>
      <trkpt lat="46.51373" lon="-0.55866">
        <ele>60</ele>
        <time>2013-09-15T07:04:00Z</time>
      </trkpt>
      <trkpt lat="46.51347" lon="-0.55852">
        <ele>59</ele>
        <time>2013-09-15T07:04:03Z</time>
      </trkpt>
      <trkpt lat="46.51329" lon="-0.55841">
        <ele>59</ele>
        <time>2013-09-15T07:04:05Z</time>
      </trkpt>
      <trkpt lat="46.51312" lon="-0.55831">
        <ele>58</ele>
        <time>2013-09-15T07:04:07Z</time>
      </trkpt>
      <trkpt lat="46.51291" lon="-0.55814">
        <ele>55</ele>
        <time>2013-09-15T07:04:10Z</time>
      </trkpt>
      <trkpt lat="46.5128" lon="-0.55804">
        <ele>53</ele>
        <time>2013-09-15T07:04:12Z</time>
      </trkpt>
      <trkpt lat="46.5126" lon="-0.55793">
        <ele>50</ele>
        <time>2013-09-15T07:04:15Z</time>
      </trkpt>
      <trkpt lat="46.51245" lon="-0.55785">
        <ele>49</ele>
        <time>2013-09-15T07:04:17Z</time>
      </trkpt>
      <trkpt lat="46.51234" lon="-0.55773">
        <ele>48</ele>
        <time>2013-09-15T07:04:19Z</time>
      </trkpt>
      <trkpt lat="46.51222" lon="-0.5576">
        <ele>46</ele>
        <time>2013-09-15T07:04:21Z</time>
      </trkpt>
      <trkpt lat="46.51206" lon="-0.55738">
        <ele>45</ele>
        <time>2013-09-15T07:04:24Z</time>
      </trkpt>
      <trkpt lat="46.51197" lon="-0.55727">
        <ele>44</ele>
        <time>2013-09-15T07:04:26Z</time>
      </trkpt>
      <trkpt lat="46.51188" lon="-0.55718">
        <ele>43</ele>
        <time>2013-09-15T07:04:28Z</time>
      </trkpt>
      <trkpt lat="46.51175" lon="-0.55703">
        <ele>42</ele>
        <time>2013-09-15T07:04:31Z</time>
      </trkpt>
      <trkpt lat="46.51168" lon="-0.55692">
        <ele>41</ele>
        <time>2013-09-15T07:04:33Z</time>
      </trkpt>
      <trkpt lat="46.5116" lon="-0.55682">
        <ele>41</ele>
        <time>2013-09-15T07:04:35Z</time>
      </trkpt>
      <trkpt lat="46.51149" lon="-0.55667">
        <ele>42</ele>
        <time>2013-09-15T07:04:38Z</time>
      </trkpt>
      <trkpt lat="46.51141" lon="-0.55657">
        <ele>42</ele>
        <time>2013-09-15T07:04:40Z</time>
      </trkpt>
      <trkpt lat="46.5113" lon="-0.55646">
        <ele>42</ele>
        <time>2013-09-15T07:04:43Z</time>
      </trkpt>
      <trkpt lat="46.51123" lon="-0.5564">
        <ele>42</ele>
        <time>2013-09-15T07:04:45Z</time>
      </trkpt>
      <trkpt lat="46.51114" lon="-0.55632">
        <ele>42</ele>
        <time>2013-09-15T07:04:48Z</time>
      </trkpt>
      <trkpt lat="46.51107" lon="-0.55627">
        <ele>42</ele>
        <time>2013-09-15T07:04:50Z</time>
      </trkpt>
      <trkpt lat="46.51101" lon="-0.55622">
        <ele>43</ele>
        <time>2013-09-15T07:04:52Z</time>
      </trkpt>
      <trkpt lat="46.51095" lon="-0.55617">
        <ele>43</ele>
        <time>2013-09-15T07:04:54Z</time>
      </trkpt>
      <trkpt lat="46.51085" lon="-0.5561">
        <ele>43</ele>
        <time>2013-09-15T07:04:57Z</time>
      </trkpt>
      <trkpt lat="46.51078" lon="-0.55606">
        <ele>44</ele>
        <time>2013-09-15T07:04:59Z</time>
      </trkpt>
      <trkpt lat="46.51067" lon="-0.556">
        <ele>45</ele>
        <time>2013-09-15T07:05:02Z</time>
      </trkpt>
      <trkpt lat="46.5106" lon="-0.55596">
        <ele>45</ele>
        <time>2013-09-15T07:05:04Z</time>
      </trkpt>
      <trkpt lat="46.51053" lon="-0.55593">
        <ele>46</ele>
        <time>2013-09-15T07:05:06Z</time>
      </trkpt>
      <trkpt lat="46.51042" lon="-0.55589">
        <ele>46</ele>
        <time>2013-09-15T07:05:09Z</time>
      </trkpt>
      <trkpt lat="46.51034" lon="-0.55586">
        <ele>46</ele>
        <time>2013-09-15T07:05:11Z</time>
      </trkpt>
      <trkpt lat="46.51026" lon="-0.55584">
        <ele>47</ele>
        <time>2013-09-15T07:05:13Z</time>
      </trkpt>
      <trkpt lat="46.51015" lon="-0.55582">
        <ele>47</ele>
        <time>2013-09-15T07:05:16Z</time>
      </trkpt>
      <trkpt lat="46.51007" lon="-0.5558">
        <ele>47</ele>
        <time>2013-09-15T07:05:18Z</time>
      </trkpt>
      <trkpt lat="46.50999" lon="-0.55579">
        <ele>47</ele>
        <time>2013-09-15T07:05:20Z</time>
      </trkpt>
      <trkpt lat="46.50991" lon="-0.55577">
        <ele>48</ele>
        <time>2013-09-15T07:05:22Z</time>
      </trkpt>
      <trkpt lat="46.5098" lon="-0.55576">
        <ele>48</ele>
        <time>2013-09-15T07:05:25Z</time>
      </trkpt>
      <trkpt lat="46.50972" lon="-0.55575">
        <ele>48</ele>
        <time>2013-09-15T07:05:27Z</time>
      </trkpt>
      <trkpt lat="46.50963" lon="-0.55572">
        <ele>48</ele>
        <time>2013-09-15T07:05:29Z</time>
      </trkpt>
      <trkpt lat="46.50952" lon="-0.55568">
        <ele>48</ele>
        <time>2013-09-15T07:05:32Z</time>
      </trkpt>
      <trkpt lat="46.50944" lon="-0.55563">
        <ele>48</ele>
        <time>2013-09-15T07:05:34Z</time>
      </trkpt>
      <trkpt lat="46.50932" lon="-0.55556">
        <ele>49</ele>
        <time>2013-09-15T07:05:37Z</time>
      </trkpt>
      <trkpt lat="46.50925" lon="-0.55552">
        <ele>49</ele>
        <time>2013-09-15T07:05:39Z</time>
      </trkpt>
      <trkpt lat="46.50917" lon="-0.55548">
        <ele>50</ele>
        <time>2013-09-15T07:05:41Z</time>
      </trkpt>
      <trkpt lat="46.50906" lon="-0.55543">
        <ele>50</ele>
        <time>2013-09-15T07:05:44Z</time>
      </trkpt>
      <trkpt lat="46.50898" lon="-0.55541">
        <ele>50</ele>
        <time>2013-09-15T07:05:46Z</time>
      </trkpt>
      <trkpt lat="46.5089" lon="-0.55539">
        <ele>50</ele>
        <time>2013-09-15T07:05:48Z</time>
      </trkpt>
      <trkpt lat="46.50878" lon="-0.55536">
        <ele>50</ele>
        <time>2013-09-15T07:05:51Z</time>
      </trkpt>
      <trkpt lat="46.5087" lon="-0.55533">
        <ele>50</ele>
        <time>2013-09-15T07:05:53Z</time>
      </trkpt>
      <trkpt lat="46.50862" lon="-0.55531">
        <ele>51</ele>
        <time>2013-09-15T07:05:55Z</time>
      </trkpt>
      <trkpt lat="46.50854" lon="-0.55528">
        <ele>51</ele>
        <time>2013-09-15T07:05:57Z</time>
      </trkpt>
      <trkpt lat="46.50843" lon="-0.55524">
        <ele>51</ele>
        <time>2013-09-15T07:06:00Z</time>
      </trkpt>
      <trkpt lat="46.50832" lon="-0.55519">
        <ele>51</ele>
        <time>2013-09-15T07:06:03Z</time>
      </trkpt>
      <trkpt lat="46.50824" lon="-0.55527">
        <ele>52</ele>
        <time>2013-09-15T07:06:06Z</time>
      </trkpt>
      <trkpt lat="46.50819" lon="-0.55535">
        <ele>52</ele>
        <time>2013-09-15T07:06:08Z</time>
      </trkpt>
      <trkpt lat="46.50814" lon="-0.55543">
        <ele>52</ele>
        <time>2013-09-15T07:06:10Z</time>
      </trkpt>
      <trkpt lat="46.50807" lon="-0.55556">
        <ele>52</ele>
        <time>2013-09-15T07:06:13Z</time>
      </trkpt>
      <trkpt lat="46.50801" lon="-0.55566">
        <ele>53</ele>
        <time>2013-09-15T07:06:15Z</time>
      </trkpt>
      <trkpt lat="46.50793" lon="-0.55581">
        <ele>53</ele>
        <time>2013-09-15T07:06:18Z</time>
      </trkpt>
      <trkpt lat="46.50787" lon="-0.5559">
        <ele>53</ele>
        <time>2013-09-15T07:06:20Z</time>
      </trkpt>
      <trkpt lat="46.50781" lon="-0.556">
        <ele>53</ele>
        <time>2013-09-15T07:06:22Z</time>
      </trkpt>
      <trkpt lat="46.50771" lon="-0.55615">
        <ele>53</ele>
        <time>2013-09-15T07:06:25Z</time>
      </trkpt>
      <trkpt lat="46.50765" lon="-0.55624">
        <ele>53</ele>
        <time>2013-09-15T07:06:27Z</time>
      </trkpt>
      <trkpt lat="46.50759" lon="-0.55634">
        <ele>53</ele>
        <time>2013-09-15T07:06:29Z</time>
      </trkpt>
      <trkpt lat="46.50753" lon="-0.55644">
        <ele>53</ele>
        <time>2013-09-15T07:06:31Z</time>
      </trkpt>
      <trkpt lat="46.50742" lon="-0.55658">
        <ele>53</ele>
        <time>2013-09-15T07:06:34Z</time>
      </trkpt>
      <trkpt lat="46.5073" lon="-0.55671">
        <ele>53</ele>
        <time>2013-09-15T07:06:37Z</time>
      </trkpt>
      <trkpt lat="46.50722" lon="-0.55677">
        <ele>52</ele>
        <time>2013-09-15T07:06:39Z</time>
      </trkpt>
      <trkpt lat="46.50708" lon="-0.55675">
        <ele>52</ele>
        <time>2013-09-15T07:06:42Z</time>
      </trkpt>
      <trkpt lat="46.50702" lon="-0.55665">
        <ele>52</ele>
        <time>2013-09-15T07:06:44Z</time>
      </trkpt>
      <trkpt lat="46.50692" lon="-0.55645">
        <ele>52</ele>
        <time>2013-09-15T07:06:47Z</time>
      </trkpt>
      <trkpt lat="46.50681" lon="-0.55628">
        <ele>51</ele>
        <time>2013-09-15T07:06:50Z</time>
      </trkpt>
      <trkpt lat="46.50671" lon="-0.55617">
        <ele>50</ele>
        <time>2013-09-15T07:06:52Z</time>
      </trkpt>
      <trkpt lat="46.50659" lon="-0.55602">
        <ele>49</ele>
        <time>2013-09-15T07:06:55Z</time>
      </trkpt>
      <trkpt lat="46.50645" lon="-0.5559">
        <ele>49</ele>
        <time>2013-09-15T07:06:58Z</time>
      </trkpt>
      <trkpt lat="46.50636" lon="-0.55583">
        <ele>48</ele>
        <time>2013-09-15T07:07:00Z</time>
      </trkpt>
      <trkpt lat="46.50622" lon="-0.55576">
        <ele>48</ele>
        <time>2013-09-15T07:07:03Z</time>
      </trkpt>
      <trkpt lat="46.50613" lon="-0.55574">
        <ele>48</ele>
        <time>2013-09-15T07:07:05Z</time>
      </trkpt>
      <trkpt lat="46.50604" lon="-0.55574">
        <ele>49</ele>
        <time>2013-09-15T07:07:07Z</time>
      </trkpt>
      <trkpt lat="46.50591" lon="-0.55573">
        <ele>50</ele>
        <time>2013-09-15T07:07:10Z</time>
      </trkpt>
      <trkpt lat="46.50583" lon="-0.55573">
        <ele>50</ele>
        <time>2013-09-15T07:07:12Z</time>
      </trkpt>
      <trkpt lat="46.50574" lon="-0.55573">
        <ele>50</ele>
        <time>2013-09-15T07:07:14Z</time>
      </trkpt>
      <trkpt lat="46.50565" lon="-0.55572">
        <ele>51</ele>
        <time>2013-09-15T07:07:16Z</time>
      </trkpt>
      <trkpt lat="46.50552" lon="-0.55564">
        <ele>51</ele>
        <time>2013-09-15T07:07:19Z</time>
      </trkpt>
      <trkpt lat="46.5054" lon="-0.55551">
        <ele>52</ele>
        <time>2013-09-15T07:07:22Z</time>
      </trkpt>
      <trkpt lat="46.50532" lon="-0.55542">
        <ele>51</ele>
        <time>2013-09-15T07:07:24Z</time>
      </trkpt>
      <trkpt lat="46.50519" lon="-0.55528">
        <ele>51</ele>
        <time>2013-09-15T07:07:27Z</time>
      </trkpt>
      <trkpt lat="46.50507" lon="-0.55514">
        <ele>50</ele>
        <time>2013-09-15T07:07:30Z</time>
      </trkpt>
      <trkpt lat="46.50498" lon="-0.55495">
        <ele>49</ele>
        <time>2013-09-15T07:07:33Z</time>
      </trkpt>
      <trkpt lat="46.50493" lon="-0.55483">
        <ele>49</ele>
        <time>2013-09-15T07:07:35Z</time>
      </trkpt>
      <trkpt lat="46.50485" lon="-0.55465">
        <ele>49</ele>
        <time>2013-09-15T07:07:38Z</time>
      </trkpt>
      <trkpt lat="46.50479" lon="-0.55454">
        <ele>50</ele>
        <time>2013-09-15T07:07:40Z</time>
      </trkpt>
      <trkpt lat="46.50473" lon="-0.55445">
        <ele>50</ele>
        <time>2013-09-15T07:07:42Z</time>
      </trkpt>
      <trkpt lat="46.50462" lon="-0.55434">
        <ele>50</ele>
        <time>2013-09-15T07:07:45Z</time>
      </trkpt>
      <trkpt lat="46.50452" lon="-0.55423">
        <ele>50</ele>
        <time>2013-09-15T07:07:48Z</time>
      </trkpt>
      <trkpt lat="46.50447" lon="-0.55417">
        <ele>51</ele>
        <time>2013-09-15T07:07:50Z</time>
      </trkpt>
      <trkpt lat="46.50448" lon="-0.55405">
        <ele>51</ele>
        <time>2013-09-15T07:07:53Z</time>
      </trkpt>
      <trkpt lat="46.50448" lon="-0.55397">
        <ele>51</ele>
        <time>2013-09-15T07:07:55Z</time>
      </trkpt>
      <trkpt lat="46.50446" lon="-0.55391">
        <ele>51</ele>
        <time>2013-09-15T07:07:57Z</time>
      </trkpt>
      <trkpt lat="46.50448" lon="-0.55388">
        <ele>51</ele>
        <time>2013-09-15T07:07:59Z</time>
      </trkpt>
      <trkpt lat="46.50449" lon="-0.55384">
        <ele>50</ele>
        <time>2013-09-15T07:08:02Z</time>
      </trkpt>
      <trkpt lat="46.5045" lon="-0.55383">
        <ele>49</ele>
        <time>2013-09-15T07:08:04Z</time>
      </trkpt>
      <trkpt lat="46.50456" lon="-0.55379">
        <ele>47</ele>
        <time>2013-09-15T07:08:07Z</time>
      </trkpt>
      <trkpt lat="46.50462" lon="-0.55375">
        <ele>45</ele>
        <time>2013-09-15T07:08:10Z</time>
      </trkpt>
      <trkpt lat="46.50469" lon="-0.55369">
        <ele>43</ele>
        <time>2013-09-15T07:08:12Z</time>
      </trkpt>
      <trkpt lat="46.50475" lon="-0.55362">
        <ele>41</ele>
        <time>2013-09-15T07:08:14Z</time>
      </trkpt>
      <trkpt lat="46.5048" lon="-0.55351">
        <ele>38</ele>
        <time>2013-09-15T07:08:17Z</time>
      </trkpt>
      <trkpt lat="46.50481" lon="-0.55343">
        <ele>37</ele>
        <time>2013-09-15T07:08:19Z</time>
      </trkpt>
      <trkpt lat="46.50481" lon="-0.55332">
        <ele>37</ele>
        <time>2013-09-15T07:08:21Z</time>
      </trkpt>
      <trkpt lat="46.50477" lon="-0.55313">
        <ele>37</ele>
        <time>2013-09-15T07:08:24Z</time>
      </trkpt>
      <trkpt lat="46.50472" lon="-0.55294">
        <ele>37</ele>
        <time>2013-09-15T07:08:27Z</time>
      </trkpt>
      <trkpt lat="46.50469" lon="-0.55283">
        <ele>37</ele>
        <time>2013-09-15T07:08:29Z</time>
      </trkpt>
      <trkpt lat="46.50465" lon="-0.55269">
        <ele>37</ele>
        <time>2013-09-15T07:08:32Z</time>
      </trkpt>
      <trkpt lat="46.5046" lon="-0.55256">
        <ele>37</ele>
        <time>2013-09-15T07:08:34Z</time>
      </trkpt>
      <trkpt lat="46.50454" lon="-0.5524">
        <ele>36</ele>
        <time>2013-09-15T07:08:37Z</time>
      </trkpt>
      <trkpt lat="46.50449" lon="-0.55226">
        <ele>36</ele>
        <time>2013-09-15T07:08:40Z</time>
      </trkpt>
      <trkpt lat="46.50445" lon="-0.55217">
        <ele>35</ele>
        <time>2013-09-15T07:08:42Z</time>
      </trkpt>
      <trkpt lat="46.50441" lon="-0.55208">
        <ele>35</ele>
        <time>2013-09-15T07:08:44Z</time>
      </trkpt>
      <trkpt lat="46.50438" lon="-0.55194">
        <ele>34</ele>
        <time>2013-09-15T07:08:47Z</time>
      </trkpt>
      <trkpt lat="46.50433" lon="-0.55179">
        <ele>34</ele>
        <time>2013-09-15T07:08:50Z</time>
      </trkpt>
      <trkpt lat="46.5043" lon="-0.55169">
        <ele>34</ele>
        <time>2013-09-15T07:08:52Z</time>
      </trkpt>
      <trkpt lat="46.50428" lon="-0.55159">
        <ele>34</ele>
        <time>2013-09-15T07:08:54Z</time>
      </trkpt>
      <trkpt lat="46.50425" lon="-0.55151">
        <ele>33</ele>
        <time>2013-09-15T07:08:56Z</time>
      </trkpt>
      <trkpt lat="46.50423" lon="-0.55142">
        <ele>33</ele>
        <time>2013-09-15T07:08:58Z</time>
      </trkpt>
      <trkpt lat="46.50423" lon="-0.5513">
        <ele>33</ele>
        <time>2013-09-15T07:09:01Z</time>
      </trkpt>
      <trkpt lat="46.50422" lon="-0.55123">
        <ele>33</ele>
        <time>2013-09-15T07:09:03Z</time>
      </trkpt>
      <trkpt lat="46.50417" lon="-0.55109">
        <ele>33</ele>
        <time>2013-09-15T07:09:06Z</time>
      </trkpt>
      <trkpt lat="46.50414" lon="-0.55098">
        <ele>33</ele>
        <time>2013-09-15T07:09:08Z</time>
      </trkpt>
      <trkpt lat="46.50409" lon="-0.55088">
        <ele>33</ele>
        <time>2013-09-15T07:09:10Z</time>
      </trkpt>
      <trkpt lat="46.50402" lon="-0.55076">
        <ele>33</ele>
        <time>2013-09-15T07:09:13Z</time>
      </trkpt>
      <trkpt lat="46.50392" lon="-0.55059">
        <ele>32</ele>
        <time>2013-09-15T07:09:16Z</time>
      </trkpt>
      <trkpt lat="46.50381" lon="-0.55041">
        <ele>32</ele>
        <time>2013-09-15T07:09:19Z</time>
      </trkpt>
      <trkpt lat="46.50368" lon="-0.55023">
        <ele>32</ele>
        <time>2013-09-15T07:09:22Z</time>
      </trkpt>
      <trkpt lat="46.50358" lon="-0.55006">
        <ele>31</ele>
        <time>2013-09-15T07:09:25Z</time>
      </trkpt>
      <trkpt lat="46.50352" lon="-0.54995">
        <ele>30</ele>
        <time>2013-09-15T07:09:27Z</time>
      </trkpt>
      <trkpt lat="46.50345" lon="-0.54982">
        <ele>29</ele>
        <time>2013-09-15T07:09:29Z</time>
      </trkpt>
      <trkpt lat="46.50338" lon="-0.54963">
        <ele>30</ele>
        <time>2013-09-15T07:09:32Z</time>
      </trkpt>
      <trkpt lat="46.50332" lon="-0.5494">
        <ele>30</ele>
        <time>2013-09-15T07:09:35Z</time>
      </trkpt>
      <trkpt lat="46.50329" lon="-0.54914">
        <ele>30</ele>
        <time>2013-09-15T07:09:38Z</time>
      </trkpt>
      <trkpt lat="46.50328" lon="-0.54899">
        <ele>30</ele>
        <time>2013-09-15T07:09:40Z</time>
      </trkpt>
      <trkpt lat="46.50326" lon="-0.54879">
        <ele>31</ele>
        <time>2013-09-15T07:09:43Z</time>
      </trkpt>
      <trkpt lat="46.50325" lon="-0.54868">
        <ele>32</ele>
        <time>2013-09-15T07:09:45Z</time>
      </trkpt>
      <trkpt lat="46.50324" lon="-0.54857">
        <ele>32</ele>
        <time>2013-09-15T07:09:47Z</time>
      </trkpt>
      <trkpt lat="46.50321" lon="-0.54844">
        <ele>34</ele>
        <time>2013-09-15T07:09:50Z</time>
      </trkpt>
      <trkpt lat="46.5032" lon="-0.54834">
        <ele>34</ele>
        <time>2013-09-15T07:09:52Z</time>
      </trkpt>
      <trkpt lat="46.50319" lon="-0.54819">
        <ele>36</ele>
        <time>2013-09-15T07:09:55Z</time>
      </trkpt>
      <trkpt lat="46.5032" lon="-0.54809">
        <ele>37</ele>
        <time>2013-09-15T07:09:57Z</time>
      </trkpt>
      <trkpt lat="46.50325" lon="-0.54804">
        <ele>37</ele>
        <time>2013-09-15T07:09:59Z</time>
      </trkpt>
      <trkpt lat="46.50332" lon="-0.54797">
        <ele>38</ele>
        <time>2013-09-15T07:10:02Z</time>
      </trkpt>
      <trkpt lat="46.50339" lon="-0.54784">
        <ele>38</ele>
        <time>2013-09-15T07:10:05Z</time>
      </trkpt>
      <trkpt lat="46.50344" lon="-0.54774">
        <ele>38</ele>
        <time>2013-09-15T07:10:07Z</time>
      </trkpt>
      <trkpt lat="46.50351" lon="-0.54763">
        <ele>38</ele>
        <time>2013-09-15T07:10:10Z</time>
      </trkpt>
      <trkpt lat="46.50356" lon="-0.54755">
        <ele>38</ele>
        <time>2013-09-15T07:10:12Z</time>
      </trkpt>
      <trkpt lat="46.50362" lon="-0.54742">
        <ele>38</ele>
        <time>2013-09-15T07:10:15Z</time>
      </trkpt>
      <trkpt lat="46.50367" lon="-0.54734">
        <ele>39</ele>
        <time>2013-09-15T07:10:17Z</time>
      </trkpt>
      <trkpt lat="46.50375" lon="-0.5472">
        <ele>39</ele>
        <time>2013-09-15T07:10:20Z</time>
      </trkpt>
      <trkpt lat="46.50384" lon="-0.54705">
        <ele>40</ele>
        <time>2013-09-15T07:10:23Z</time>
      </trkpt>
      <trkpt lat="46.50393" lon="-0.54691">
        <ele>40</ele>
        <time>2013-09-15T07:10:26Z</time>
      </trkpt>
      <trkpt lat="46.50402" lon="-0.54678">
        <ele>40</ele>
        <time>2013-09-15T07:10:29Z</time>
      </trkpt>
      <trkpt lat="46.50409" lon="-0.54669">
        <ele>41</ele>
        <time>2013-09-15T07:10:31Z</time>
      </trkpt>
      <trkpt lat="46.50418" lon="-0.54655">
        <ele>41</ele>
        <time>2013-09-15T07:10:34Z</time>
      </trkpt>
      <trkpt lat="46.50423" lon="-0.54645">
        <ele>41</ele>
        <time>2013-09-15T07:10:36Z</time>
      </trkpt>
      <trkpt lat="46.50428" lon="-0.54637">
        <ele>41</ele>
        <time>2013-09-15T07:10:38Z</time>
      </trkpt>
      <trkpt lat="46.50436" lon="-0.54624">
        <ele>42</ele>
        <time>2013-09-15T07:10:41Z</time>
      </trkpt>
      <trkpt lat="46.50441" lon="-0.54615">
        <ele>42</ele>
        <time>2013-09-15T07:10:43Z</time>
      </trkpt>
      <trkpt lat="46.50446" lon="-0.54606">
        <ele>43</ele>
        <time>2013-09-15T07:10:45Z</time>
      </trkpt>
      <trkpt lat="46.50454" lon="-0.54592">
        <ele>44</ele>
        <time>2013-09-15T07:10:48Z</time>
      </trkpt>
      <trkpt lat="46.50461" lon="-0.54577">
        <ele>44</ele>
        <time>2013-09-15T07:10:51Z</time>
      </trkpt>
      <trkpt lat="46.50468" lon="-0.54563">
        <ele>44</ele>
        <time>2013-09-15T07:10:54Z</time>
      </trkpt>
      <trkpt lat="46.50475" lon="-0.54549">
        <ele>44</ele>
        <time>2013-09-15T07:10:57Z</time>
      </trkpt>
      <trkpt lat="46.50482" lon="-0.54535">
        <ele>45</ele>
        <time>2013-09-15T07:11:00Z</time>
      </trkpt>
      <trkpt lat="46.50486" lon="-0.54526">
        <ele>45</ele>
        <time>2013-09-15T07:11:02Z</time>
      </trkpt>
      <trkpt lat="46.5049" lon="-0.54516">
        <ele>45</ele>
        <time>2013-09-15T07:11:04Z</time>
      </trkpt>
      <trkpt lat="46.50496" lon="-0.54501">
        <ele>45</ele>
        <time>2013-09-15T07:11:07Z</time>
      </trkpt>
      <trkpt lat="46.50501" lon="-0.54487">
        <ele>46</ele>
        <time>2013-09-15T07:11:10Z</time>
      </trkpt>
      <trkpt lat="46.5051" lon="-0.54481">
        <ele>48</ele>
        <time>2013-09-15T07:11:13Z</time>
      </trkpt>
      <trkpt lat="46.50516" lon="-0.54485">
        <ele>48</ele>
        <time>2013-09-15T07:11:15Z</time>
      </trkpt>
      <trkpt lat="46.50524" lon="-0.54494">
        <ele>49</ele>
        <time>2013-09-15T07:11:18Z</time>
      </trkpt>
      <trkpt lat="46.5053" lon="-0.545">
        <ele>49</ele>
        <time>2013-09-15T07:11:20Z</time>
      </trkpt>
      <trkpt lat="46.50537" lon="-0.54506">
        <ele>49</ele>
        <time>2013-09-15T07:11:22Z</time>
      </trkpt>
      <trkpt lat="46.50546" lon="-0.54515">
        <ele>50</ele>
        <time>2013-09-15T07:11:25Z</time>
      </trkpt>
      <trkpt lat="46.50552" lon="-0.54521">
        <ele>50</ele>
        <time>2013-09-15T07:11:27Z</time>
      </trkpt>
      <trkpt lat="46.50558" lon="-0.54528">
        <ele>51</ele>
        <time>2013-09-15T07:11:29Z</time>
      </trkpt>
      <trkpt lat="46.50566" lon="-0.54538">
        <ele>51</ele>
        <time>2013-09-15T07:11:32Z</time>
      </trkpt>
      <trkpt lat="46.50574" lon="-0.54549">
        <ele>52</ele>
        <time>2013-09-15T07:11:35Z</time>
      </trkpt>
      <trkpt lat="46.50578" lon="-0.54555">
        <ele>52</ele>
        <time>2013-09-15T07:11:37Z</time>
      </trkpt>
      <trkpt lat="46.50585" lon="-0.54565">
        <ele>52</ele>
        <time>2013-09-15T07:11:40Z</time>
      </trkpt>
      <trkpt lat="46.50592" lon="-0.54575">
        <ele>51</ele>
        <time>2013-09-15T07:11:43Z</time>
      </trkpt>
      <trkpt lat="46.50596" lon="-0.54583">
        <ele>51</ele>
        <time>2013-09-15T07:11:45Z</time>
      </trkpt>
      <trkpt lat="46.50605" lon="-0.54596">
        <ele>50</ele>
        <time>2013-09-15T07:11:48Z</time>
      </trkpt>
      <trkpt lat="46.50614" lon="-0.54611">
        <ele>50</ele>
        <time>2013-09-15T07:11:51Z</time>
      </trkpt>
      <trkpt lat="46.50625" lon="-0.54628">
        <ele>50</ele>
        <time>2013-09-15T07:11:54Z</time>
      </trkpt>
      <trkpt lat="46.5064" lon="-0.54653">
        <ele>49</ele>
        <time>2013-09-15T07:11:57Z</time>
      </trkpt>
      <trkpt lat="46.50652" lon="-0.54671">
        <ele>48</ele>
        <time>2013-09-15T07:11:59Z</time>
      </trkpt>
      <trkpt lat="46.50667" lon="-0.54697">
        <ele>46</ele>
        <time>2013-09-15T07:12:02Z</time>
      </trkpt>
      <trkpt lat="46.50681" lon="-0.54718">
        <ele>45</ele>
        <time>2013-09-15T07:12:05Z</time>
      </trkpt>
      <trkpt lat="46.50694" lon="-0.54732">
        <ele>44</ele>
        <time>2013-09-15T07:12:08Z</time>
      </trkpt>
      <trkpt lat="46.50701" lon="-0.54739">
        <ele>44</ele>
        <time>2013-09-15T07:12:10Z</time>
      </trkpt>
      <trkpt lat="46.50711" lon="-0.54749">
        <ele>45</ele>
        <time>2013-09-15T07:12:13Z</time>
      </trkpt>
      <trkpt lat="46.50716" lon="-0.54755">
        <ele>46</ele>
        <time>2013-09-15T07:12:15Z</time>
      </trkpt>
      <trkpt lat="46.50721" lon="-0.5476">
        <ele>47</ele>
        <time>2013-09-15T07:12:17Z</time>
      </trkpt>
      <trkpt lat="46.50725" lon="-0.54766">
        <ele>47</ele>
        <time>2013-09-15T07:12:19Z</time>
      </trkpt>
      <trkpt lat="46.50731" lon="-0.54774">
        <ele>48</ele>
        <time>2013-09-15T07:12:22Z</time>
      </trkpt>
      <trkpt lat="46.50734" lon="-0.5478">
        <ele>49</ele>
        <time>2013-09-15T07:12:24Z</time>
      </trkpt>
      <trkpt lat="46.50741" lon="-0.54789">
        <ele>50</ele>
        <time>2013-09-15T07:12:27Z</time>
      </trkpt>
      <trkpt lat="46.50745" lon="-0.54795">
        <ele>50</ele>
        <time>2013-09-15T07:12:29Z</time>
      </trkpt>
      <trkpt lat="46.50751" lon="-0.54804">
        <ele>50</ele>
        <time>2013-09-15T07:12:32Z</time>
      </trkpt>
      <trkpt lat="46.50758" lon="-0.54814">
        <ele>51</ele>
        <time>2013-09-15T07:12:35Z</time>
      </trkpt>
      <trkpt lat="46.50764" lon="-0.54824">
        <ele>51</ele>
        <time>2013-09-15T07:12:38Z</time>
      </trkpt>
      <trkpt lat="46.5077" lon="-0.54834">
        <ele>52</ele>
        <time>2013-09-15T07:12:41Z</time>
      </trkpt>
      <trkpt lat="46.50773" lon="-0.54841">
        <ele>53</ele>
        <time>2013-09-15T07:12:43Z</time>
      </trkpt>
      <trkpt lat="46.50777" lon="-0.54848">
        <ele>53</ele>
        <time>2013-09-15T07:12:45Z</time>
      </trkpt>
      <trkpt lat="46.50781" lon="-0.54854">
        <ele>53</ele>
        <time>2013-09-15T07:12:47Z</time>
      </trkpt>
      <trkpt lat="46.50785" lon="-0.54864">
        <ele>54</ele>
        <time>2013-09-15T07:12:50Z</time>
      </trkpt>
      <trkpt lat="46.50789" lon="-0.54871">
        <ele>54</ele>
        <time>2013-09-15T07:12:52Z</time>
      </trkpt>
      <trkpt lat="46.50793" lon="-0.54878">
        <ele>55</ele>
        <time>2013-09-15T07:12:54Z</time>
      </trkpt>
      <trkpt lat="46.50797" lon="-0.54885">
        <ele>55</ele>
        <time>2013-09-15T07:12:56Z</time>
      </trkpt>
      <trkpt lat="46.50804" lon="-0.54895">
        <ele>56</ele>
        <time>2013-09-15T07:12:59Z</time>
      </trkpt>
      <trkpt lat="46.50812" lon="-0.54904">
        <ele>56</ele>
        <time>2013-09-15T07:13:02Z</time>
      </trkpt>
      <trkpt lat="46.50817" lon="-0.54911">
        <ele>56</ele>
        <time>2013-09-15T07:13:04Z</time>
      </trkpt>
      <trkpt lat="46.50822" lon="-0.54918">
        <ele>56</ele>
        <time>2013-09-15T07:13:06Z</time>
      </trkpt>
      <trkpt lat="46.50829" lon="-0.54927">
        <ele>56</ele>
        <time>2013-09-15T07:13:09Z</time>
      </trkpt>
      <trkpt lat="46.50834" lon="-0.54934">
        <ele>57</ele>
        <time>2013-09-15T07:13:11Z</time>
      </trkpt>
      <trkpt lat="46.50843" lon="-0.54944">
        <ele>58</ele>
        <time>2013-09-15T07:13:14Z</time>
      </trkpt>
      <trkpt lat="46.50848" lon="-0.5495">
        <ele>58</ele>
        <time>2013-09-15T07:13:16Z</time>
      </trkpt>
      <trkpt lat="46.50857" lon="-0.54961">
        <ele>58</ele>
        <time>2013-09-15T07:13:19Z</time>
      </trkpt>
      <trkpt lat="46.50863" lon="-0.54969">
        <ele>58</ele>
        <time>2013-09-15T07:13:21Z</time>
      </trkpt>
      <trkpt lat="46.50874" lon="-0.5498">
        <ele>59</ele>
        <time>2013-09-15T07:13:24Z</time>
      </trkpt>
      <trkpt lat="46.50884" lon="-0.54992">
        <ele>58</ele>
        <time>2013-09-15T07:13:27Z</time>
      </trkpt>
      <trkpt lat="46.50891" lon="-0.55">
        <ele>59</ele>
        <time>2013-09-15T07:13:29Z</time>
      </trkpt>
      <trkpt lat="46.50901" lon="-0.55014">
        <ele>58</ele>
        <time>2013-09-15T07:13:32Z</time>
      </trkpt>
      <trkpt lat="46.50909" lon="-0.55023">
        <ele>58</ele>
        <time>2013-09-15T07:13:34Z</time>
      </trkpt>
      <trkpt lat="46.50917" lon="-0.55032">
        <ele>58</ele>
        <time>2013-09-15T07:13:36Z</time>
      </trkpt>
      <trkpt lat="46.50925" lon="-0.55042">
        <ele>57</ele>
        <time>2013-09-15T07:13:38Z</time>
      </trkpt>
      <trkpt lat="46.50937" lon="-0.55057">
        <ele>57</ele>
        <time>2013-09-15T07:13:41Z</time>
      </trkpt>
      <trkpt lat="46.50944" lon="-0.55067">
        <ele>57</ele>
        <time>2013-09-15T07:13:43Z</time>
      </trkpt>
      <trkpt lat="46.50955" lon="-0.55082">
        <ele>57</ele>
        <time>2013-09-15T07:13:46Z</time>
      </trkpt>
      <trkpt lat="46.50966" lon="-0.55098">
        <ele>57</ele>
        <time>2013-09-15T07:13:49Z</time>
      </trkpt>
      <trkpt lat="46.50973" lon="-0.55108">
        <ele>56</ele>
        <time>2013-09-15T07:13:51Z</time>
      </trkpt>
      <trkpt lat="46.50983" lon="-0.55123">
        <ele>56</ele>
        <time>2013-09-15T07:13:54Z</time>
      </trkpt>
      <trkpt lat="46.50994" lon="-0.55138">
        <ele>56</ele>
        <time>2013-09-15T07:13:57Z</time>
      </trkpt>
      <trkpt lat="46.51004" lon="-0.55153">
        <ele>57</ele>
        <time>2013-09-15T07:14:00Z</time>
      </trkpt>
      <trkpt lat="46.51013" lon="-0.55167">
        <ele>57</ele>
        <time>2013-09-15T07:14:03Z</time>
      </trkpt>
      <trkpt lat="46.51019" lon="-0.55175">
        <ele>58</ele>
        <time>2013-09-15T07:14:05Z</time>
      </trkpt>
      <trkpt lat="46.51026" lon="-0.55186">
        <ele>58</ele>
        <time>2013-09-15T07:14:08Z</time>
      </trkpt>
      <trkpt lat="46.51028" lon="-0.5519">
        <ele>58</ele>
        <time>2013-09-15T07:14:10Z</time>
      </trkpt>
      <trkpt lat="46.51029" lon="-0.55191">
        <ele>58</ele>
        <time>2013-09-15T07:14:13Z</time>
      </trkpt>
      <trkpt lat="46.51029" lon="-0.55192">
        <ele>58</ele>
        <time>2013-09-15T07:14:16Z</time>
      </trkpt>
      <trkpt lat="46.51029" lon="-0.55192">
        <ele>58</ele>
        <time>2013-09-15T07:14:18Z</time>
      </trkpt>
      <trkpt lat="46.51029" lon="-0.55192">
        <ele>58</ele>
        <time>2013-09-15T07:14:20Z</time>
      </trkpt>
      <trkpt lat="46.5103" lon="-0.55192">
        <ele>58</ele>
        <time>2013-09-15T07:14:22Z</time>
      </trkpt>
      <trkpt lat="46.5103" lon="-0.55193">
        <ele>58</ele>
        <time>2013-09-15T07:14:27Z</time>
      </trkpt>
      <trkpt lat="46.5103" lon="-0.55193">
        <ele>58</ele>
        <time>2013-09-15T07:14:29Z</time>
      </trkpt>
      <trkpt lat="46.5103" lon="-0.55193">
        <ele>58</ele>
        <time>2013-09-15T07:14:31Z</time>
      </trkpt>
      <trkpt lat="46.5103" lon="-0.55193">
        <ele>58</ele>
        <time>2013-09-15T07:14:36Z</time>
      </trkpt>
      <trkpt lat="46.5103" lon="-0.55192">
        <ele>58</ele>
        <time>2013-09-15T07:14:39Z</time>
      </trkpt>
      <trkpt lat="46.5103" lon="-0.55192">
        <ele>58</ele>
        <time>2013-09-15T07:14:41Z</time>
      </trkpt>
      <trkpt lat="46.5103" lon="-0.55192">
        <ele>58</ele>
        <time>2013-09-15T07:14:43Z</time>
      </trkpt>
      <trkpt lat="46.51031" lon="-0.55192">
        <ele>58</ele>
        <time>2013-09-15T07:14:46Z</time>
      </trkpt>
      <trkpt lat="46.51031" lon="-0.55192">
        <ele>58</ele>
        <time>2013-09-15T07:14:48Z</time>
      </trkpt>
      <trkpt lat="46.5103" lon="-0.55191">
        <ele>58</ele>
        <time>2013-09-15T07:14:51Z</time>
      </trkpt>
      <trkpt lat="46.5103" lon="-0.55192">
        <ele>58</ele>
        <time>2013-09-15T07:14:54Z</time>
      </trkpt>
      <trkpt lat="46.5103" lon="-0.55191">
        <ele>58</ele>
        <time>2013-09-15T07:14:56Z</time>
      </trkpt>
      <trkpt lat="46.5103" lon="-0.55191">
        <ele>58</ele>
        <time>2013-09-15T07:14:59Z</time>
      </trkpt>
      <trkpt lat="46.5103" lon="-0.55191">
        <ele>58</ele>
        <time>2013-09-15T07:15:01Z</time>
      </trkpt>
      <trkpt lat="46.5103" lon="-0.55191">
        <ele>58</ele>
        <time>2013-09-15T07:15:08Z</time>
      </trkpt>
      <trkpt lat="46.5103" lon="-0.55191">
        <ele>58</ele>
        <time>2013-09-15T07:15:10Z</time>
      </trkpt>
      <trkpt lat="46.51032" lon="-0.5519">
        <ele>58</ele>
        <time>2013-09-15T07:15:13Z</time>
      </trkpt>
      <trkpt lat="46.51036" lon="-0.55188">
        <ele>58</ele>
        <time>2013-09-15T07:15:16Z</time>
      </trkpt>
      <trkpt lat="46.51043" lon="-0.55176">
        <ele>59</ele>
        <time>2013-09-15T07:15:19Z</time>
      </trkpt>
      <trkpt lat="46.51049" lon="-0.55166">
        <ele>59</ele>
        <time>2013-09-15T07:15:21Z</time>
      </trkpt>
      <trkpt lat="46.51058" lon="-0.55151">
        <ele>60</ele>
        <time>2013-09-15T07:15:24Z</time>
      </trkpt>
      <trkpt lat="46.51064" lon="-0.55139">
        <ele>60</ele>
        <time>2013-09-15T07:15:26Z</time>
      </trkpt>
      <trkpt lat="46.5107" lon="-0.55128">
        <ele>60</ele>
        <time>2013-09-15T07:15:28Z</time>
      </trkpt>
      <trkpt lat="46.51077" lon="-0.55117">
        <ele>61</ele>
        <time>2013-09-15T07:15:30Z</time>
      </trkpt>
      <trkpt lat="46.51087" lon="-0.55099">
        <ele>61</ele>
        <time>2013-09-15T07:15:33Z</time>
      </trkpt>
      <trkpt lat="46.51098" lon="-0.55083">
        <ele>60</ele>
        <time>2013-09-15T07:15:36Z</time>
      </trkpt>
      <trkpt lat="46.51104" lon="-0.55072">
        <ele>60</ele>
        <time>2013-09-15T07:15:38Z</time>
      </trkpt>
      <trkpt lat="46.51112" lon="-0.55057">
        <ele>60</ele>
        <time>2013-09-15T07:15:41Z</time>
      </trkpt>
      <trkpt lat="46.51117" lon="-0.5505">
        <ele>60</ele>
        <time>2013-09-15T07:15:43Z</time>
      </trkpt>
      <trkpt lat="46.51124" lon="-0.55037">
        <ele>60</ele>
        <time>2013-09-15T07:15:46Z</time>
      </trkpt>
      <trkpt lat="46.51133" lon="-0.55028">
        <ele>60</ele>
        <time>2013-09-15T07:15:49Z</time>
      </trkpt>
      <trkpt lat="46.51142" lon="-0.55022">
        <ele>60</ele>
        <time>2013-09-15T07:15:51Z</time>
      </trkpt>
      <trkpt lat="46.51151" lon="-0.5502">
        <ele>61</ele>
        <time>2013-09-15T07:15:53Z</time>
      </trkpt>
      <trkpt lat="46.5116" lon="-0.5502">
        <ele>61</ele>
        <time>2013-09-15T07:15:55Z</time>
      </trkpt>
      <trkpt lat="46.51169" lon="-0.55017">
        <ele>61</ele>
        <time>2013-09-15T07:15:57Z</time>
      </trkpt>
      <trkpt lat="46.51183" lon="-0.55013">
        <ele>61</ele>
        <time>2013-09-15T07:16:00Z</time>
      </trkpt>
      <trkpt lat="46.51198" lon="-0.55007">
        <ele>61</ele>
        <time>2013-09-15T07:16:03Z</time>
      </trkpt>
      <trkpt lat="46.51208" lon="-0.55004">
        <ele>61</ele>
        <time>2013-09-15T07:16:05Z</time>
      </trkpt>
      <trkpt lat="46.5122" lon="-0.55001">
        <ele>61</ele>
        <time>2013-09-15T07:16:07Z</time>
      </trkpt>
      <trkpt lat="46.51236" lon="-0.54994">
        <ele>62</ele>
        <time>2013-09-15T07:16:10Z</time>
      </trkpt>
      <trkpt lat="46.51246" lon="-0.54988">
        <ele>62</ele>
        <time>2013-09-15T07:16:12Z</time>
      </trkpt>
      <trkpt lat="46.51262" lon="-0.54979">
        <ele>63</ele>
        <time>2013-09-15T07:16:15Z</time>
      </trkpt>
      <trkpt lat="46.51272" lon="-0.54973">
        <ele>62</ele>
        <time>2013-09-15T07:16:17Z</time>
      </trkpt>
      <trkpt lat="46.51286" lon="-0.54962">
        <ele>62</ele>
        <time>2013-09-15T07:16:20Z</time>
      </trkpt>
      <trkpt lat="46.51299" lon="-0.5495">
        <ele>62</ele>
        <time>2013-09-15T07:16:23Z</time>
      </trkpt>
      <trkpt lat="46.51311" lon="-0.54936">
        <ele>62</ele>
        <time>2013-09-15T07:16:26Z</time>
      </trkpt>
      <trkpt lat="46.51319" lon="-0.54926">
        <ele>62</ele>
        <time>2013-09-15T07:16:28Z</time>
      </trkpt>
      <trkpt lat="46.51326" lon="-0.54915">
        <ele>62</ele>
        <time>2013-09-15T07:16:30Z</time>
      </trkpt>
      <trkpt lat="46.51334" lon="-0.54903">
        <ele>62</ele>
        <time>2013-09-15T07:16:32Z</time>
      </trkpt>
      <trkpt lat="46.51346" lon="-0.54885">
        <ele>63</ele>
        <time>2013-09-15T07:16:35Z</time>
      </trkpt>
      <trkpt lat="46.51353" lon="-0.54873">
        <ele>63</ele>
        <time>2013-09-15T07:16:37Z</time>
      </trkpt>
      <trkpt lat="46.51362" lon="-0.54861">
        <ele>62</ele>
        <time>2013-09-15T07:16:39Z</time>
      </trkpt>
      <trkpt lat="46.51374" lon="-0.54843">
        <ele>63</ele>
        <time>2013-09-15T07:16:42Z</time>
      </trkpt>
      <trkpt lat="46.51382" lon="-0.54832">
        <ele>63</ele>
        <time>2013-09-15T07:16:44Z</time>
      </trkpt>
      <trkpt lat="46.51392" lon="-0.5482">
        <ele>63</ele>
        <time>2013-09-15T07:16:47Z</time>
      </trkpt>
      <trkpt lat="46.51399" lon="-0.54812">
        <ele>63</ele>
        <time>2013-09-15T07:16:50Z</time>
      </trkpt>
      <trkpt lat="46.51407" lon="-0.548">
        <ele>62</ele>
        <time>2013-09-15T07:16:53Z</time>
      </trkpt>
      <trkpt lat="46.51414" lon="-0.54791">
        <ele>62</ele>
        <time>2013-09-15T07:16:55Z</time>
      </trkpt>
      <trkpt lat="46.51426" lon="-0.54776">
        <ele>62</ele>
        <time>2013-09-15T07:16:58Z</time>
      </trkpt>
      <trkpt lat="46.51434" lon="-0.54766">
        <ele>63</ele>
        <time>2013-09-15T07:17:00Z</time>
      </trkpt>
      <trkpt lat="46.51447" lon="-0.54751">
        <ele>62</ele>
        <time>2013-09-15T07:17:03Z</time>
      </trkpt>
      <trkpt lat="46.5146" lon="-0.54737">
        <ele>62</ele>
        <time>2013-09-15T07:17:06Z</time>
      </trkpt>
      <trkpt lat="46.51469" lon="-0.54727">
        <ele>61</ele>
        <time>2013-09-15T07:17:08Z</time>
      </trkpt>
      <trkpt lat="46.51482" lon="-0.54712">
        <ele>61</ele>
        <time>2013-09-15T07:17:11Z</time>
      </trkpt>
      <trkpt lat="46.51492" lon="-0.54702">
        <ele>60</ele>
        <time>2013-09-15T07:17:13Z</time>
      </trkpt>
      <trkpt lat="46.51508" lon="-0.54687">
        <ele>59</ele>
        <time>2013-09-15T07:17:16Z</time>
      </trkpt>
      <trkpt lat="46.51525" lon="-0.5467">
        <ele>58</ele>
        <time>2013-09-15T07:17:19Z</time>
      </trkpt>
      <trkpt lat="46.51537" lon="-0.54657">
        <ele>57</ele>
        <time>2013-09-15T07:17:21Z</time>
      </trkpt>
      <trkpt lat="46.51548" lon="-0.54642">
        <ele>57</ele>
        <time>2013-09-15T07:17:23Z</time>
      </trkpt>
      <trkpt lat="46.5156" lon="-0.54626">
        <ele>57</ele>
        <time>2013-09-15T07:17:25Z</time>
      </trkpt>
      <trkpt lat="46.51573" lon="-0.54611">
        <ele>56</ele>
        <time>2013-09-15T07:17:27Z</time>
      </trkpt>
      <trkpt lat="46.51591" lon="-0.54588">
        <ele>56</ele>
        <time>2013-09-15T07:17:30Z</time>
      </trkpt>
      <trkpt lat="46.51603" lon="-0.54574">
        <ele>55</ele>
        <time>2013-09-15T07:17:32Z</time>
      </trkpt>
      <trkpt lat="46.51614" lon="-0.54561">
        <ele>55</ele>
        <time>2013-09-15T07:17:34Z</time>
      </trkpt>
      <trkpt lat="46.51626" lon="-0.54548">
        <ele>55</ele>
        <time>2013-09-15T07:17:36Z</time>
      </trkpt>
      <trkpt lat="46.51641" lon="-0.54532">
        <ele>55</ele>
        <time>2013-09-15T07:17:39Z</time>
      </trkpt>
      <trkpt lat="46.51654" lon="-0.54517">
        <ele>55</ele>
        <time>2013-09-15T07:17:42Z</time>
      </trkpt>
      <trkpt lat="46.51661" lon="-0.54509">
        <ele>55</ele>
        <time>2013-09-15T07:17:44Z</time>
      </trkpt>
      <trkpt lat="46.51672" lon="-0.54497">
        <ele>56</ele>
        <time>2013-09-15T07:17:47Z</time>
      </trkpt>
      <trkpt lat="46.51678" lon="-0.54489">
        <ele>57</ele>
        <time>2013-09-15T07:17:49Z</time>
      </trkpt>
      <trkpt lat="46.51683" lon="-0.54484">
        <ele>57</ele>
        <time>2013-09-15T07:17:51Z</time>
      </trkpt>
      <trkpt lat="46.51691" lon="-0.54475">
        <ele>58</ele>
        <time>2013-09-15T07:17:54Z</time>
      </trkpt>
      <trkpt lat="46.51696" lon="-0.54469">
        <ele>59</ele>
        <time>2013-09-15T07:17:56Z</time>
      </trkpt>
      <trkpt lat="46.51701" lon="-0.54463">
        <ele>59</ele>
        <time>2013-09-15T07:17:58Z</time>
      </trkpt>
      <trkpt lat="46.51706" lon="-0.54457">
        <ele>60</ele>
        <time>2013-09-15T07:18:00Z</time>
      </trkpt>
      <trkpt lat="46.51714" lon="-0.54448">
        <ele>60</ele>
        <time>2013-09-15T07:18:03Z</time>
      </trkpt>
      <trkpt lat="46.51722" lon="-0.54439">
        <ele>61</ele>
        <time>2013-09-15T07:18:06Z</time>
      </trkpt>
      <trkpt lat="46.51728" lon="-0.54433">
        <ele>61</ele>
        <time>2013-09-15T07:18:08Z</time>
      </trkpt>
      <trkpt lat="46.51733" lon="-0.54427">
        <ele>62</ele>
        <time>2013-09-15T07:18:10Z</time>
      </trkpt>
      <trkpt lat="46.51742" lon="-0.54418">
        <ele>62</ele>
        <time>2013-09-15T07:18:13Z</time>
      </trkpt>
      <trkpt lat="46.51747" lon="-0.54412">
        <ele>62</ele>
        <time>2013-09-15T07:18:15Z</time>
      </trkpt>
      <trkpt lat="46.51752" lon="-0.54405">
        <ele>63</ele>
        <time>2013-09-15T07:18:17Z</time>
      </trkpt>
      <trkpt lat="46.5176" lon="-0.54395">
        <ele>63</ele>
        <time>2013-09-15T07:18:20Z</time>
      </trkpt>
      <trkpt lat="46.51765" lon="-0.54389">
        <ele>63</ele>
        <time>2013-09-15T07:18:22Z</time>
      </trkpt>
      <trkpt lat="46.5177" lon="-0.54383">
        <ele>63</ele>
        <time>2013-09-15T07:18:24Z</time>
      </trkpt>
      <trkpt lat="46.51776" lon="-0.54376">
        <ele>63</ele>
        <time>2013-09-15T07:18:26Z</time>
      </trkpt>
      <trkpt lat="46.51782" lon="-0.5437">
        <ele>63</ele>
        <time>2013-09-15T07:18:28Z</time>
      </trkpt>
      <trkpt lat="46.51791" lon="-0.5436">
        <ele>63</ele>
        <time>2013-09-15T07:18:31Z</time>
      </trkpt>
      <trkpt lat="46.51801" lon="-0.54349">
        <ele>63</ele>
        <time>2013-09-15T07:18:34Z</time>
      </trkpt>
      <trkpt lat="46.51808" lon="-0.54342">
        <ele>63</ele>
        <time>2013-09-15T07:18:36Z</time>
      </trkpt>
      <trkpt lat="46.5182" lon="-0.54329">
        <ele>63</ele>
        <time>2013-09-15T07:18:39Z</time>
      </trkpt>
      <trkpt lat="46.51835" lon="-0.54314">
        <ele>62</ele>
        <time>2013-09-15T07:18:42Z</time>
      </trkpt>
      <trkpt lat="46.51851" lon="-0.54296">
        <ele>61</ele>
        <time>2013-09-15T07:18:45Z</time>
      </trkpt>
      <trkpt lat="46.51862" lon="-0.54284">
        <ele>60</ele>
        <time>2013-09-15T07:18:47Z</time>
      </trkpt>
      <trkpt lat="46.51877" lon="-0.54268">
        <ele>58</ele>
        <time>2013-09-15T07:18:50Z</time>
      </trkpt>
      <trkpt lat="46.51882" lon="-0.54256">
        <ele>56</ele>
        <time>2013-09-15T07:18:52Z</time>
      </trkpt>
      <trkpt lat="46.51883" lon="-0.5424">
        <ele>55</ele>
        <time>2013-09-15T07:18:55Z</time>
      </trkpt>
      <trkpt lat="46.51883" lon="-0.54231">
        <ele>54</ele>
        <time>2013-09-15T07:18:57Z</time>
      </trkpt>
      <trkpt lat="46.51879" lon="-0.54218">
        <ele>52</ele>
        <time>2013-09-15T07:19:00Z</time>
      </trkpt>
      <trkpt lat="46.51874" lon="-0.5421">
        <ele>53</ele>
        <time>2013-09-15T07:19:02Z</time>
      </trkpt>
      <trkpt lat="46.51866" lon="-0.54198">
        <ele>53</ele>
        <time>2013-09-15T07:19:05Z</time>
      </trkpt>
      <trkpt lat="46.51862" lon="-0.54189">
        <ele>53</ele>
        <time>2013-09-15T07:19:07Z</time>
      </trkpt>
      <trkpt lat="46.51857" lon="-0.54175">
        <ele>53</ele>
        <time>2013-09-15T07:19:10Z</time>
      </trkpt>
      <trkpt lat="46.51856" lon="-0.54164">
        <ele>53</ele>
        <time>2013-09-15T07:19:12Z</time>
      </trkpt>
      <trkpt lat="46.51856" lon="-0.54155">
        <ele>53</ele>
        <time>2013-09-15T07:19:14Z</time>
      </trkpt>
      <trkpt lat="46.51857" lon="-0.54139">
        <ele>53</ele>
        <time>2013-09-15T07:19:17Z</time>
      </trkpt>
      <trkpt lat="46.51859" lon="-0.54125">
        <ele>52</ele>
        <time>2013-09-15T07:19:20Z</time>
      </trkpt>
      <trkpt lat="46.5186" lon="-0.54116">
        <ele>52</ele>
        <time>2013-09-15T07:19:22Z</time>
      </trkpt>
      <trkpt lat="46.51863" lon="-0.54102">
        <ele>52</ele>
        <time>2013-09-15T07:19:25Z</time>
      </trkpt>
      <trkpt lat="46.51865" lon="-0.54093">
        <ele>51</ele>
        <time>2013-09-15T07:19:27Z</time>
      </trkpt>
      <trkpt lat="46.51868" lon="-0.5408">
        <ele>51</ele>
        <time>2013-09-15T07:19:30Z</time>
      </trkpt>
      <trkpt lat="46.5187" lon="-0.54069">
        <ele>52</ele>
        <time>2013-09-15T07:19:33Z</time>
      </trkpt>
      <trkpt lat="46.51873" lon="-0.5406">
        <ele>52</ele>
        <time>2013-09-15T07:19:35Z</time>
      </trkpt>
      <trkpt lat="46.51874" lon="-0.54045">
        <ele>51</ele>
        <time>2013-09-15T07:19:38Z</time>
      </trkpt>
      <trkpt lat="46.51874" lon="-0.54035">
        <ele>52</ele>
        <time>2013-09-15T07:19:40Z</time>
      </trkpt>
      <trkpt lat="46.51875" lon="-0.54021">
        <ele>52</ele>
        <time>2013-09-15T07:19:43Z</time>
      </trkpt>
      <trkpt lat="46.5188" lon="-0.54012">
        <ele>52</ele>
        <time>2013-09-15T07:19:45Z</time>
      </trkpt>
      <trkpt lat="46.51886" lon="-0.54005">
        <ele>51</ele>
        <time>2013-09-15T07:19:47Z</time>
      </trkpt>
      <trkpt lat="46.51894" lon="-0.53996">
        <ele>51</ele>
        <time>2013-09-15T07:19:50Z</time>
      </trkpt>
      <trkpt lat="46.519" lon="-0.5399">
        <ele>51</ele>
        <time>2013-09-15T07:19:52Z</time>
      </trkpt>
      <trkpt lat="46.51912" lon="-0.53981">
        <ele>50</ele>
        <time>2013-09-15T07:19:55Z</time>
      </trkpt>
      <trkpt lat="46.51918" lon="-0.53975">
        <ele>50</ele>
        <time>2013-09-15T07:19:57Z</time>
      </trkpt>
      <trkpt lat="46.5193" lon="-0.53967">
        <ele>48</ele>
        <time>2013-09-15T07:20:00Z</time>
      </trkpt>
      <trkpt lat="46.51939" lon="-0.53962">
        <ele>47</ele>
        <time>2013-09-15T07:20:02Z</time>
      </trkpt>
      <trkpt lat="46.5195" lon="-0.53961">
        <ele>46</ele>
        <time>2013-09-15T07:20:05Z</time>
      </trkpt>
      <trkpt lat="46.51956" lon="-0.53962">
        <ele>45</ele>
        <time>2013-09-15T07:20:07Z</time>
      </trkpt>
      <trkpt lat="46.51963" lon="-0.53961">
        <ele>45</ele>
        <time>2013-09-15T07:20:09Z</time>
      </trkpt>
      <trkpt lat="46.5197" lon="-0.53958">
        <ele>45</ele>
        <time>2013-09-15T07:20:11Z</time>
      </trkpt>
      <trkpt lat="46.51979" lon="-0.53953">
        <ele>44</ele>
        <time>2013-09-15T07:20:13Z</time>
      </trkpt>
      <trkpt lat="46.51991" lon="-0.53945">
        <ele>43</ele>
        <time>2013-09-15T07:20:16Z</time>
      </trkpt>
      <trkpt lat="46.51998" lon="-0.53941">
        <ele>42</ele>
        <time>2013-09-15T07:20:18Z</time>
      </trkpt>
      <trkpt lat="46.52005" lon="-0.53937">
        <ele>42</ele>
        <time>2013-09-15T07:20:20Z</time>
      </trkpt>
      <trkpt lat="46.52015" lon="-0.53932">
        <ele>42</ele>
        <time>2013-09-15T07:20:23Z</time>
      </trkpt>
      <trkpt lat="46.52026" lon="-0.53926">
        <ele>40</ele>
        <time>2013-09-15T07:20:26Z</time>
      </trkpt>
      <trkpt lat="46.52033" lon="-0.53922">
        <ele>39</ele>
        <time>2013-09-15T07:20:29Z</time>
      </trkpt>
      <trkpt lat="46.52037" lon="-0.5392">
        <ele>38</ele>
        <time>2013-09-15T07:20:31Z</time>
      </trkpt>
      <trkpt lat="46.52039" lon="-0.53918">
        <ele>38</ele>
        <time>2013-09-15T07:20:33Z</time>
      </trkpt>
      <trkpt lat="46.52046" lon="-0.53915">
        <ele>38</ele>
        <time>2013-09-15T07:20:36Z</time>
      </trkpt>
      <trkpt lat="46.52052" lon="-0.53912">
        <ele>37</ele>
        <time>2013-09-15T07:20:38Z</time>
      </trkpt>
      <trkpt lat="46.52057" lon="-0.53909">
        <ele>36</ele>
        <time>2013-09-15T07:20:41Z</time>
      </trkpt>
      <trkpt lat="46.5206" lon="-0.53907">
        <ele>35</ele>
        <time>2013-09-15T07:20:43Z</time>
      </trkpt>
      <trkpt lat="46.52065" lon="-0.53903">
        <ele>35</ele>
        <time>2013-09-15T07:20:46Z</time>
      </trkpt>
      <trkpt lat="46.5207" lon="-0.539">
        <ele>35</ele>
        <time>2013-09-15T07:20:48Z</time>
      </trkpt>
      <trkpt lat="46.52075" lon="-0.53897">
        <ele>34</ele>
        <time>2013-09-15T07:20:51Z</time>
      </trkpt>
      <trkpt lat="46.52078" lon="-0.53895">
        <ele>34</ele>
        <time>2013-09-15T07:20:53Z</time>
      </trkpt>
      <trkpt lat="46.52081" lon="-0.53891">
        <ele>33</ele>
        <time>2013-09-15T07:20:56Z</time>
      </trkpt>
      <trkpt lat="46.52084" lon="-0.53888">
        <ele>33</ele>
        <time>2013-09-15T07:20:58Z</time>
      </trkpt>
      <trkpt lat="46.52089" lon="-0.53883">
        <ele>33</ele>
        <time>2013-09-15T07:21:01Z</time>
      </trkpt>
      <trkpt lat="46.52092" lon="-0.53881">
        <ele>32</ele>
        <time>2013-09-15T07:21:04Z</time>
      </trkpt>
      <trkpt lat="46.52094" lon="-0.53879">
        <ele>31</ele>
        <time>2013-09-15T07:21:06Z</time>
      </trkpt>
      <trkpt lat="46.52097" lon="-0.53877">
        <ele>30</ele>
        <time>2013-09-15T07:21:09Z</time>
      </trkpt>
      <trkpt lat="46.52098" lon="-0.53877">
        <ele>30</ele>
        <time>2013-09-15T07:21:11Z</time>
      </trkpt>
      <trkpt lat="46.52099" lon="-0.53877">
        <ele>30</ele>
        <time>2013-09-15T07:21:13Z</time>
      </trkpt>
      <trkpt lat="46.521" lon="-0.53876">
        <ele>29</ele>
        <time>2013-09-15T07:21:15Z</time>
      </trkpt>
      <trkpt lat="46.52102" lon="-0.53874">
        <ele>29</ele>
        <time>2013-09-15T07:21:18Z</time>
      </trkpt>
      <trkpt lat="46.52103" lon="-0.53873">
        <ele>29</ele>
        <time>2013-09-15T07:21:20Z</time>
      </trkpt>
      <trkpt lat="46.52105" lon="-0.53871">
        <ele>29</ele>
        <time>2013-09-15T07:21:22Z</time>
      </trkpt>
      <trkpt lat="46.52107" lon="-0.5387">
        <ele>28</ele>
        <time>2013-09-15T07:21:24Z</time>
      </trkpt>
      <trkpt lat="46.52108" lon="-0.53868">
        <ele>28</ele>
        <time>2013-09-15T07:21:27Z</time>
      </trkpt>
      <trkpt lat="46.5211" lon="-0.53866">
        <ele>27</ele>
        <time>2013-09-15T07:21:30Z</time>
      </trkpt>
      <trkpt lat="46.52111" lon="-0.53865">
        <ele>27</ele>
        <time>2013-09-15T07:21:33Z</time>
      </trkpt>
      <trkpt lat="46.52111" lon="-0.53865">
        <ele>26</ele>
        <time>2013-09-15T07:21:35Z</time>
      </trkpt>
      <trkpt lat="46.52113" lon="-0.53863">
        <ele>26</ele>
        <time>2013-09-15T07:21:38Z</time>
      </trkpt>
      <trkpt lat="46.52115" lon="-0.53861">
        <ele>25</ele>
        <time>2013-09-15T07:21:41Z</time>
      </trkpt>
      <trkpt lat="46.52117" lon="-0.53859">
        <ele>24</ele>
        <time>2013-09-15T07:21:44Z</time>
      </trkpt>
      <trkpt lat="46.52118" lon="-0.53857">
        <ele>23</ele>
        <time>2013-09-15T07:21:46Z</time>
      </trkpt>
      <trkpt lat="46.5212" lon="-0.53852">
        <ele>23</ele>
        <time>2013-09-15T07:21:49Z</time>
      </trkpt>
      <trkpt lat="46.52121" lon="-0.53847">
        <ele>23</ele>
        <time>2013-09-15T07:21:51Z</time>
      </trkpt>
      <trkpt lat="46.5212" lon="-0.53841">
        <ele>23</ele>
        <time>2013-09-15T07:21:53Z</time>
      </trkpt>
      <trkpt lat="46.5212" lon="-0.5383">
        <ele>23</ele>
        <time>2013-09-15T07:21:56Z</time>
      </trkpt>
      <trkpt lat="46.52119" lon="-0.53816">
        <ele>23</ele>
        <time>2013-09-15T07:21:59Z</time>
      </trkpt>
      <trkpt lat="46.5212" lon="-0.53807">
        <ele>23</ele>
        <time>2013-09-15T07:22:01Z</time>
      </trkpt>
      <trkpt lat="46.52121" lon="-0.538">
        <ele>22</ele>
        <time>2013-09-15T07:22:03Z</time>
      </trkpt>
      <trkpt lat="46.52123" lon="-0.5379">
        <ele>21</ele>
        <time>2013-09-15T07:22:06Z</time>
      </trkpt>
      <trkpt lat="46.52123" lon="-0.53781">
        <ele>20</ele>
        <time>2013-09-15T07:22:08Z</time>
      </trkpt>
      <trkpt lat="46.52124" lon="-0.53764">
        <ele>20</ele>
        <time>2013-09-15T07:22:11Z</time>
      </trkpt>
      <trkpt lat="46.52125" lon="-0.53751">
        <ele>20</ele>
        <time>2013-09-15T07:22:13Z</time>
      </trkpt>
      <trkpt lat="46.52129" lon="-0.53733">
        <ele>19</ele>
        <time>2013-09-15T07:22:16Z</time>
      </trkpt>
      <trkpt lat="46.52132" lon="-0.53719">
        <ele>18</ele>
        <time>2013-09-15T07:22:19Z</time>
      </trkpt>
      <trkpt lat="46.52132" lon="-0.53706">
        <ele>18</ele>
        <time>2013-09-15T07:22:22Z</time>
      </trkpt>
      <trkpt lat="46.52132" lon="-0.53695">
        <ele>17</ele>
        <time>2013-09-15T07:22:24Z</time>
      </trkpt>
      <trkpt lat="46.52134" lon="-0.53679">
        <ele>17</ele>
        <time>2013-09-15T07:22:27Z</time>
      </trkpt>
      <trkpt lat="46.52135" lon="-0.53672">
        <ele>16</ele>
        <time>2013-09-15T07:22:29Z</time>
      </trkpt>
      <trkpt lat="46.52135" lon="-0.53669">
        <ele>15</ele>
        <time>2013-09-15T07:22:32Z</time>
      </trkpt>
      <trkpt lat="46.52135" lon="-0.53665">
        <ele>15</ele>
        <time>2013-09-15T07:22:35Z</time>
      </trkpt>
      <trkpt lat="46.52135" lon="-0.53662">
        <ele>15</ele>
        <time>2013-09-15T07:22:38Z</time>
      </trkpt>
      <trkpt lat="46.52135" lon="-0.53661">
        <ele>15</ele>
        <time>2013-09-15T07:22:40Z</time>
      </trkpt>
      <trkpt lat="46.52135" lon="-0.53659">
        <ele>15</ele>
        <time>2013-09-15T07:22:42Z</time>
      </trkpt>
      <trkpt lat="46.52136" lon="-0.53658">
        <ele>15</ele>
        <time>2013-09-15T07:22:44Z</time>
      </trkpt>
      <trkpt lat="46.52137" lon="-0.53656">
        <ele>15</ele>
        <time>2013-09-15T07:22:47Z</time>
      </trkpt>
      <trkpt lat="46.52137" lon="-0.53654">
        <ele>15</ele>
        <time>2013-09-15T07:22:50Z</time>
      </trkpt>
      <trkpt lat="46.52137" lon="-0.53653">
        <ele>15</ele>
        <time>2013-09-15T07:22:52Z</time>
      </trkpt>
      <trkpt lat="46.52138" lon="-0.53652">
        <ele>15</ele>
        <time>2013-09-15T07:22:54Z</time>
      </trkpt>
      <trkpt lat="46.52138" lon="-0.53651">
        <ele>15</ele>
        <time>2013-09-15T07:22:57Z</time>
      </trkpt>
      <trkpt lat="46.52138" lon="-0.5365">
        <ele>15</ele>
        <time>2013-09-15T07:23:00Z</time>
      </trkpt>
      <trkpt lat="46.52139" lon="-0.53649">
        <ele>15</ele>
        <time>2013-09-15T07:23:02Z</time>
      </trkpt>
      <trkpt lat="46.52139" lon="-0.53649">
        <ele>15</ele>
        <time>2013-09-15T07:23:04Z</time>
      </trkpt>
      <trkpt lat="46.52139" lon="-0.53648">
        <ele>15</ele>
        <time>2013-09-15T07:23:07Z</time>
      </trkpt>
      <trkpt lat="46.52139" lon="-0.53648">
        <ele>15</ele>
        <time>2013-09-15T07:23:10Z</time>
      </trkpt>
      <trkpt lat="46.52139" lon="-0.53648">
        <ele>15</ele>
        <time>2013-09-15T07:23:12Z</time>
      </trkpt>
      <trkpt lat="46.5214" lon="-0.53648">
        <ele>15</ele>
        <time>2013-09-15T07:23:16Z</time>
      </trkpt>
      <trkpt lat="46.5214" lon="-0.53648">
        <ele>15</ele>
        <time>2013-09-15T07:23:18Z</time>
      </trkpt>
      <trkpt lat="46.52141" lon="-0.53647">
        <ele>15</ele>
        <time>2013-09-15T07:23:21Z</time>
      </trkpt>
      <trkpt lat="46.52142" lon="-0.53646">
        <ele>15</ele>
        <time>2013-09-15T07:23:24Z</time>
      </trkpt>
      <trkpt lat="46.52142" lon="-0.53646">
        <ele>15</ele>
        <time>2013-09-15T07:23:27Z</time>
      </trkpt>
      <trkpt lat="46.52142" lon="-0.53645">
        <ele>15</ele>
        <time>2013-09-15T07:23:29Z</time>
      </trkpt>
      <trkpt lat="46.52142" lon="-0.53645">
        <ele>15</ele>
        <time>2013-09-15T07:23:31Z</time>
      </trkpt>
      <trkpt lat="46.52142" lon="-0.53644">
        <ele>15</ele>
        <time>2013-09-15T07:23:33Z</time>
      </trkpt>
      <trkpt lat="46.52141" lon="-0.53643">
        <ele>15</ele>
        <time>2013-09-15T07:23:36Z</time>
      </trkpt>
      <trkpt lat="46.52141" lon="-0.53643">
        <ele>15</ele>
        <time>2013-09-15T07:23:39Z</time>
      </trkpt>
      <trkpt lat="46.52141" lon="-0.53642">
        <ele>15</ele>
        <time>2013-09-15T07:23:41Z</time>
      </trkpt>
      <trkpt lat="46.52141" lon="-0.53642">
        <ele>15</ele>
        <time>2013-09-15T07:23:44Z</time>
      </trkpt>
      <trkpt lat="46.52141" lon="-0.53642">
        <ele>15</ele>
        <time>2013-09-15T07:23:47Z</time>
      </trkpt>
      <trkpt lat="46.5214" lon="-0.53641">
        <ele>15</ele>
        <time>2013-09-15T07:23:49Z</time>
      </trkpt>
      <trkpt lat="46.5214" lon="-0.53641">
        <ele>15</ele>
        <time>2013-09-15T07:23:52Z</time>
      </trkpt>
      <trkpt lat="46.5214" lon="-0.53641">
        <ele>15</ele>
        <time>2013-09-15T07:23:54Z</time>
      </trkpt>
      <trkpt lat="46.52139" lon="-0.5364">
        <ele>15</ele>
        <time>2013-09-15T07:23:57Z</time>
      </trkpt>
      <trkpt lat="46.52138" lon="-0.5364">
        <ele>15</ele>
        <time>2013-09-15T07:24:00Z</time>
      </trkpt>
      <trkpt lat="46.52138" lon="-0.5364">
        <ele>15</ele>
        <time>2013-09-15T07:24:02Z</time>
      </trkpt>
      <trkpt lat="46.52137" lon="-0.53637">
        <ele>15</ele>
        <time>2013-09-15T07:24:05Z</time>
      </trkpt>
      <trkpt lat="46.52137" lon="-0.53633">
        <ele>15</ele>
        <time>2013-09-15T07:24:07Z</time>
      </trkpt>
      <trkpt lat="46.52136" lon="-0.53629">
        <ele>15</ele>
        <time>2013-09-15T07:24:09Z</time>
      </trkpt>
      <trkpt lat="46.52136" lon="-0.5362">
        <ele>14</ele>
        <time>2013-09-15T07:24:11Z</time>
      </trkpt>
      <trkpt lat="46.52136" lon="-0.53603">
        <ele>14</ele>
        <time>2013-09-15T07:24:14Z</time>
      </trkpt>
      <trkpt lat="46.52133" lon="-0.53582">
        <ele>13</ele>
        <time>2013-09-15T07:24:17Z</time>
      </trkpt>
      <trkpt lat="46.52133" lon="-0.53563">
        <ele>13</ele>
        <time>2013-09-15T07:24:20Z</time>
      </trkpt>
      <trkpt lat="46.52133" lon="-0.53547">
        <ele>12</ele>
        <time>2013-09-15T07:24:22Z</time>
      </trkpt>
      <trkpt lat="46.52133" lon="-0.53531">
        <ele>12</ele>
        <time>2013-09-15T07:24:24Z</time>
      </trkpt>
      <trkpt lat="46.52134" lon="-0.5351">
        <ele>11</ele>
        <time>2013-09-15T07:24:27Z</time>
      </trkpt>
      <trkpt lat="46.52134" lon="-0.53494">
        <ele>11</ele>
        <time>2013-09-15T07:24:29Z</time>
      </trkpt>
      <trkpt lat="46.52135" lon="-0.53479">
        <ele>11</ele>
        <time>2013-09-15T07:24:31Z</time>
      </trkpt>
      <trkpt lat="46.52135" lon="-0.53464">
        <ele>10</ele>
        <time>2013-09-15T07:24:33Z</time>
      </trkpt>
      <trkpt lat="46.52135" lon="-0.53438">
        <ele>9</ele>
        <time>2013-09-15T07:24:36Z</time>
      </trkpt>
      <trkpt lat="46.52132" lon="-0.53415">
        <ele>8</ele>
        <time>2013-09-15T07:24:39Z</time>
      </trkpt>
      <trkpt lat="46.5213" lon="-0.53403">
        <ele>7</ele>
        <time>2013-09-15T07:24:41Z</time>
      </trkpt>
      <trkpt lat="46.52129" lon="-0.53396">
        <ele>6</ele>
        <time>2013-09-15T07:24:43Z</time>
      </trkpt>
      <trkpt lat="46.52129" lon="-0.5339">
        <ele>5</ele>
        <time>2013-09-15T07:24:46Z</time>
      </trkpt>
      <trkpt lat="46.52129" lon="-0.53386">
        <ele>4</ele>
        <time>2013-09-15T07:24:48Z</time>
      </trkpt>
      <trkpt lat="46.52128" lon="-0.53378">
        <ele>4</ele>
        <time>2013-09-15T07:24:51Z</time>
      </trkpt>
      <trkpt lat="46.52124" lon="-0.53377">
        <ele>4</ele>
        <time>2013-09-15T07:24:53Z</time>
      </trkpt>
      <trkpt lat="46.52119" lon="-0.53376">
        <ele>5</ele>
        <time>2013-09-15T07:24:56Z</time>
      </trkpt>
      <trkpt lat="46.52115" lon="-0.53376">
        <ele>5</ele>
        <time>2013-09-15T07:24:58Z</time>
      </trkpt>
      <trkpt lat="46.52108" lon="-0.53375">
        <ele>6</ele>
        <time>2013-09-15T07:25:01Z</time>
      </trkpt>
      <trkpt lat="46.52103" lon="-0.53376">
        <ele>7</ele>
        <time>2013-09-15T07:25:03Z</time>
      </trkpt>
      <trkpt lat="46.52096" lon="-0.53376">
        <ele>8</ele>
        <time>2013-09-15T07:25:06Z</time>
      </trkpt>
      <trkpt lat="46.52089" lon="-0.53378">
        <ele>9</ele>
        <time>2013-09-15T07:25:09Z</time>
      </trkpt>
      <trkpt lat="46.52084" lon="-0.53379">
        <ele>10</ele>
        <time>2013-09-15T07:25:11Z</time>
      </trkpt>
      <trkpt lat="46.52079" lon="-0.53382">
        <ele>10</ele>
        <time>2013-09-15T07:25:14Z</time>
      </trkpt>
      <trkpt lat="46.52073" lon="-0.53385">
        <ele>12</ele>
        <time>2013-09-15T07:25:17Z</time>
      </trkpt>
      <trkpt lat="46.5207" lon="-0.53387">
        <ele>12</ele>
        <time>2013-09-15T07:25:19Z</time>
      </trkpt>
      <trkpt lat="46.52067" lon="-0.53391">
        <ele>13</ele>
        <time>2013-09-15T07:25:22Z</time>
      </trkpt>
      <trkpt lat="46.52065" lon="-0.53394">
        <ele>14</ele>
        <time>2013-09-15T07:25:24Z</time>
      </trkpt>
      <trkpt lat="46.52063" lon="-0.53398">
        <ele>15</ele>
        <time>2013-09-15T07:25:26Z</time>
      </trkpt>
      <trkpt lat="46.5206" lon="-0.53403">
        <ele>16</ele>
        <time>2013-09-15T07:25:29Z</time>
      </trkpt>
      <trkpt lat="46.52059" lon="-0.53407">
        <ele>17</ele>
        <time>2013-09-15T07:25:31Z</time>
      </trkpt>
      <trkpt lat="46.5206" lon="-0.53412">
        <ele>18</ele>
        <time>2013-09-15T07:25:34Z</time>
      </trkpt>
      <trkpt lat="46.52061" lon="-0.53416">
        <ele>18</ele>
        <time>2013-09-15T07:25:36Z</time>
      </trkpt>
      <trkpt lat="46.52063" lon="-0.5342">
        <ele>19</ele>
        <time>2013-09-15T07:25:39Z</time>
      </trkpt>
      <trkpt lat="46.52065" lon="-0.53422">
        <ele>20</ele>
        <time>2013-09-15T07:25:41Z</time>
      </trkpt>
      <trkpt lat="46.52067" lon="-0.53426">
        <ele>21</ele>
        <time>2013-09-15T07:25:44Z</time>
      </trkpt>
      <trkpt lat="46.52069" lon="-0.5343">
        <ele>21</ele>
        <time>2013-09-15T07:25:47Z</time>
      </trkpt>
      <trkpt lat="46.5207" lon="-0.53433">
        <ele>22</ele>
        <time>2013-09-15T07:25:49Z</time>
      </trkpt>
      <trkpt lat="46.52071" lon="-0.53436">
        <ele>22</ele>
        <time>2013-09-15T07:25:51Z</time>
      </trkpt>
      <trkpt lat="46.52071" lon="-0.53442">
        <ele>23</ele>
        <time>2013-09-15T07:25:54Z</time>
      </trkpt>
      <trkpt lat="46.52072" lon="-0.53448">
        <ele>23</ele>
        <time>2013-09-15T07:25:57Z</time>
      </trkpt>
      <trkpt lat="46.52072" lon="-0.53454">
        <ele>24</ele>
        <time>2013-09-15T07:26:00Z</time>
      </trkpt>
      <trkpt lat="46.52072" lon="-0.53457">
        <ele>25</ele>
        <time>2013-09-15T07:26:02Z</time>
      </trkpt>
      <trkpt lat="46.52071" lon="-0.53461">
        <ele>26</ele>
        <time>2013-09-15T07:26:04Z</time>
      </trkpt>
      <trkpt lat="46.5207" lon="-0.53466">
        <ele>26</ele>
        <time>2013-09-15T07:26:07Z</time>
      </trkpt>
      <trkpt lat="46.52069" lon="-0.5347">
        <ele>27</ele>
        <time>2013-09-15T07:26:09Z</time>
      </trkpt>
      <trkpt lat="46.52067" lon="-0.53475">
        <ele>27</ele>
        <time>2013-09-15T07:26:12Z</time>
      </trkpt>
      <trkpt lat="46.52066" lon="-0.53478">
        <ele>28</ele>
        <time>2013-09-15T07:26:14Z</time>
      </trkpt>
      <trkpt lat="46.52065" lon="-0.5348">
        <ele>28</ele>
        <time>2013-09-15T07:26:16Z</time>
      </trkpt>
      <trkpt lat="46.52064" lon="-0.53484">
        <ele>28</ele>
        <time>2013-09-15T07:26:18Z</time>
      </trkpt>
      <trkpt lat="46.52063" lon="-0.53487">
        <ele>29</ele>
        <time>2013-09-15T07:26:20Z</time>
      </trkpt>
      <trkpt lat="46.52061" lon="-0.5349">
        <ele>29</ele>
        <time>2013-09-15T07:26:22Z</time>
      </trkpt>
      <trkpt lat="46.5206" lon="-0.53493">
        <ele>30</ele>
        <time>2013-09-15T07:26:24Z</time>
      </trkpt>
      <trkpt lat="46.52058" lon="-0.53499">
        <ele>30</ele>
        <time>2013-09-15T07:26:27Z</time>
      </trkpt>
      <trkpt lat="46.52056" lon="-0.53502">
        <ele>30</ele>
        <time>2013-09-15T07:26:29Z</time>
      </trkpt>
      <trkpt lat="46.52054" lon="-0.53506">
        <ele>31</ele>
        <time>2013-09-15T07:26:32Z</time>
      </trkpt>
      <trkpt lat="46.52053" lon="-0.53509">
        <ele>31</ele>
        <time>2013-09-15T07:26:34Z</time>
      </trkpt>
      <trkpt lat="46.52052" lon="-0.53511">
        <ele>32</ele>
        <time>2013-09-15T07:26:36Z</time>
      </trkpt>
      <trkpt lat="46.5205" lon="-0.53514">
        <ele>32</ele>
        <time>2013-09-15T07:26:38Z</time>
      </trkpt>
      <trkpt lat="46.52048" lon="-0.53516">
        <ele>33</ele>
        <time>2013-09-15T07:26:40Z</time>
      </trkpt>
      <trkpt lat="46.52046" lon="-0.5352">
        <ele>33</ele>
        <time>2013-09-15T07:26:43Z</time>
      </trkpt>
      <trkpt lat="46.52043" lon="-0.53523">
        <ele>34</ele>
        <time>2013-09-15T07:26:45Z</time>
      </trkpt>
      <trkpt lat="46.52039" lon="-0.53526">
        <ele>34</ele>
        <time>2013-09-15T07:26:48Z</time>
      </trkpt>
      <trkpt lat="46.52037" lon="-0.53528">
        <ele>35</ele>
        <time>2013-09-15T07:26:50Z</time>
      </trkpt>
      <trkpt lat="46.52034" lon="-0.53532">
        <ele>35</ele>
        <time>2013-09-15T07:26:53Z</time>
      </trkpt>
      <trkpt lat="46.52029" lon="-0.53536">
        <ele>35</ele>
        <time>2013-09-15T07:26:56Z</time>
      </trkpt>
      <trkpt lat="46.52024" lon="-0.53542">
        <ele>36</ele>
        <time>2013-09-15T07:26:59Z</time>
      </trkpt>
      <trkpt lat="46.52018" lon="-0.53546">
        <ele>37</ele>
        <time>2013-09-15T07:27:02Z</time>
      </trkpt>
      <trkpt lat="46.52014" lon="-0.5355">
        <ele>38</ele>
        <time>2013-09-15T07:27:04Z</time>
      </trkpt>
      <trkpt lat="46.52009" lon="-0.53557">
        <ele>38</ele>
        <time>2013-09-15T07:27:07Z</time>
      </trkpt>
      <trkpt lat="46.52004" lon="-0.53563">
        <ele>38</ele>
        <time>2013-09-15T07:27:10Z</time>
      </trkpt>
      <trkpt lat="46.52001" lon="-0.53567">
        <ele>38</ele>
        <time>2013-09-15T07:27:12Z</time>
      </trkpt>
      <trkpt lat="46.51996" lon="-0.53574">
        <ele>39</ele>
        <time>2013-09-15T07:27:15Z</time>
      </trkpt>
      <trkpt lat="46.51992" lon="-0.53578">
        <ele>39</ele>
        <time>2013-09-15T07:27:17Z</time>
      </trkpt>
      <trkpt lat="46.51987" lon="-0.53584">
        <ele>39</ele>
        <time>2013-09-15T07:27:20Z</time>
      </trkpt>
      <trkpt lat="46.51984" lon="-0.53588">
        <ele>40</ele>
        <time>2013-09-15T07:27:22Z</time>
      </trkpt>
      <trkpt lat="46.51981" lon="-0.53592">
        <ele>40</ele>
        <time>2013-09-15T07:27:24Z</time>
      </trkpt>
      <trkpt lat="46.51977" lon="-0.53597">
        <ele>41</ele>
        <time>2013-09-15T07:27:26Z</time>
      </trkpt>
      <trkpt lat="46.51972" lon="-0.53604">
        <ele>41</ele>
        <time>2013-09-15T07:27:29Z</time>
      </trkpt>
      <trkpt lat="46.51968" lon="-0.53608">
        <ele>42</ele>
        <time>2013-09-15T07:27:31Z</time>
      </trkpt>
      <trkpt lat="46.51961" lon="-0.53616">
        <ele>42</ele>
        <time>2013-09-15T07:27:34Z</time>
      </trkpt>
      <trkpt lat="46.51955" lon="-0.53621">
        <ele>43</ele>
        <time>2013-09-15T07:27:37Z</time>
      </trkpt>
      <trkpt lat="46.5195" lon="-0.53625">
        <ele>43</ele>
        <time>2013-09-15T07:27:39Z</time>
      </trkpt>
      <trkpt lat="46.51943" lon="-0.53631">
        <ele>43</ele>
        <time>2013-09-15T07:27:42Z</time>
      </trkpt>
      <trkpt lat="46.51938" lon="-0.53634">
        <ele>43</ele>
        <time>2013-09-15T07:27:44Z</time>
      </trkpt>
      <trkpt lat="46.51934" lon="-0.5363">
        <ele>43</ele>
        <time>2013-09-15T07:27:46Z</time>
      </trkpt>
      <trkpt lat="46.5193" lon="-0.5362">
        <ele>43</ele>
        <time>2013-09-15T07:27:49Z</time>
      </trkpt>
      <trkpt lat="46.51927" lon="-0.53612">
        <ele>43</ele>
        <time>2013-09-15T07:27:51Z</time>
      </trkpt>
      <trkpt lat="46.51923" lon="-0.53604">
        <ele>43</ele>
        <time>2013-09-15T07:27:53Z</time>
      </trkpt>
      <trkpt lat="46.51921" lon="-0.53597">
        <ele>42</ele>
        <time>2013-09-15T07:27:55Z</time>
      </trkpt>
      <trkpt lat="46.51917" lon="-0.53585">
        <ele>42</ele>
        <time>2013-09-15T07:27:58Z</time>
      </trkpt>
      <trkpt lat="46.51911" lon="-0.5357">
        <ele>41</ele>
        <time>2013-09-15T07:28:01Z</time>
      </trkpt>
      <trkpt lat="46.51906" lon="-0.53557">
        <ele>40</ele>
        <time>2013-09-15T07:28:03Z</time>
      </trkpt>
      <trkpt lat="46.51897" lon="-0.53537">
        <ele>39</ele>
        <time>2013-09-15T07:28:06Z</time>
      </trkpt>
      <trkpt lat="46.51889" lon="-0.53521">
        <ele>38</ele>
        <time>2013-09-15T07:28:09Z</time>
      </trkpt>
      <trkpt lat="46.51883" lon="-0.53517">
        <ele>37</ele>
        <time>2013-09-15T07:28:11Z</time>
      </trkpt>
      <trkpt lat="46.51874" lon="-0.53517">
        <ele>36</ele>
        <time>2013-09-15T07:28:13Z</time>
      </trkpt>
      <trkpt lat="46.51862" lon="-0.53516">
        <ele>35</ele>
        <time>2013-09-15T07:28:15Z</time>
      </trkpt>
      <trkpt lat="46.51848" lon="-0.53515">
        <ele>35</ele>
        <time>2013-09-15T07:28:17Z</time>
      </trkpt>
      <trkpt lat="46.51831" lon="-0.53512">
        <ele>33</ele>
        <time>2013-09-15T07:28:20Z</time>
      </trkpt>
      <trkpt lat="46.51823" lon="-0.53509">
        <ele>33</ele>
        <time>2013-09-15T07:28:23Z</time>
      </trkpt>
      <trkpt lat="46.5182" lon="-0.53508">
        <ele>33</ele>
        <time>2013-09-15T07:28:25Z</time>
      </trkpt>
      <trkpt lat="46.51814" lon="-0.53505">
        <ele>35</ele>
        <time>2013-09-15T07:28:28Z</time>
      </trkpt>
      <trkpt lat="46.51808" lon="-0.53504">
        <ele>35</ele>
        <time>2013-09-15T07:28:30Z</time>
      </trkpt>
      <trkpt lat="46.51798" lon="-0.53506">
        <ele>36</ele>
        <time>2013-09-15T07:28:33Z</time>
      </trkpt>
      <trkpt lat="46.51792" lon="-0.53509">
        <ele>37</ele>
        <time>2013-09-15T07:28:35Z</time>
      </trkpt>
      <trkpt lat="46.51781" lon="-0.53514">
        <ele>37</ele>
        <time>2013-09-15T07:28:38Z</time>
      </trkpt>
      <trkpt lat="46.51773" lon="-0.53515">
        <ele>37</ele>
        <time>2013-09-15T07:28:40Z</time>
      </trkpt>
      <trkpt lat="46.51766" lon="-0.53515">
        <ele>36</ele>
        <time>2013-09-15T07:28:42Z</time>
      </trkpt>
      <trkpt lat="46.5176" lon="-0.53516">
        <ele>36</ele>
        <time>2013-09-15T07:28:44Z</time>
      </trkpt>
      <trkpt lat="46.51751" lon="-0.53517">
        <ele>36</ele>
        <time>2013-09-15T07:28:47Z</time>
      </trkpt>
      <trkpt lat="46.51745" lon="-0.53516">
        <ele>37</ele>
        <time>2013-09-15T07:28:49Z</time>
      </trkpt>
      <trkpt lat="46.51739" lon="-0.53514">
        <ele>37</ele>
        <time>2013-09-15T07:28:51Z</time>
      </trkpt>
      <trkpt lat="46.51733" lon="-0.53512">
        <ele>37</ele>
        <time>2013-09-15T07:28:53Z</time>
      </trkpt>
      <trkpt lat="46.51727" lon="-0.5351">
        <ele>38</ele>
        <time>2013-09-15T07:28:55Z</time>
      </trkpt>
      <trkpt lat="46.5172" lon="-0.53508">
        <ele>38</ele>
        <time>2013-09-15T07:28:58Z</time>
      </trkpt>
      <trkpt lat="46.51715" lon="-0.53507">
        <ele>39</ele>
        <time>2013-09-15T07:29:00Z</time>
      </trkpt>
      <trkpt lat="46.51708" lon="-0.53505">
        <ele>39</ele>
        <time>2013-09-15T07:29:03Z</time>
      </trkpt>
      <trkpt lat="46.51704" lon="-0.53505">
        <ele>40</ele>
        <time>2013-09-15T07:29:05Z</time>
      </trkpt>
      <trkpt lat="46.51698" lon="-0.53505">
        <ele>41</ele>
        <time>2013-09-15T07:29:08Z</time>
      </trkpt>
      <trkpt lat="46.51693" lon="-0.53506">
        <ele>41</ele>
        <time>2013-09-15T07:29:11Z</time>
      </trkpt>
      <trkpt lat="46.51689" lon="-0.53505">
        <ele>42</ele>
        <time>2013-09-15T07:29:13Z</time>
      </trkpt>
      <trkpt lat="46.51685" lon="-0.53503">
        <ele>42</ele>
        <time>2013-09-15T07:29:16Z</time>
      </trkpt>
      <trkpt lat="46.51683" lon="-0.53503">
        <ele>42</ele>
        <time>2013-09-15T07:29:18Z</time>
      </trkpt>
      <trkpt lat="46.51678" lon="-0.535">
        <ele>42</ele>
        <time>2013-09-15T07:29:21Z</time>
      </trkpt>
      <trkpt lat="46.5167" lon="-0.53496">
        <ele>42</ele>
        <time>2013-09-15T07:29:24Z</time>
      </trkpt>
      <trkpt lat="46.51664" lon="-0.53493">
        <ele>43</ele>
        <time>2013-09-15T07:29:26Z</time>
      </trkpt>
      <trkpt lat="46.51654" lon="-0.53487">
        <ele>43</ele>
        <time>2013-09-15T07:29:29Z</time>
      </trkpt>
      <trkpt lat="46.51647" lon="-0.53482">
        <ele>43</ele>
        <time>2013-09-15T07:29:31Z</time>
      </trkpt>
      <trkpt lat="46.5164" lon="-0.53479">
        <ele>43</ele>
        <time>2013-09-15T07:29:33Z</time>
      </trkpt>
      <trkpt lat="46.51631" lon="-0.53474">
        <ele>43</ele>
        <time>2013-09-15T07:29:36Z</time>
      </trkpt>
      <trkpt lat="46.51626" lon="-0.53471">
        <ele>43</ele>
        <time>2013-09-15T07:29:38Z</time>
      </trkpt>
      <trkpt lat="46.51619" lon="-0.53471">
        <ele>43</ele>
        <time>2013-09-15T07:29:41Z</time>
      </trkpt>
      <trkpt lat="46.51613" lon="-0.53469">
        <ele>43</ele>
        <time>2013-09-15T07:29:43Z</time>
      </trkpt>
      <trkpt lat="46.51606" lon="-0.53466">
        <ele>43</ele>
        <time>2013-09-15T07:29:46Z</time>
      </trkpt>
      <trkpt lat="46.51598" lon="-0.53465">
        <ele>43</ele>
        <time>2013-09-15T07:29:49Z</time>
      </trkpt>
      <trkpt lat="46.51591" lon="-0.53463">
        <ele>43</ele>
        <time>2013-09-15T07:29:52Z</time>
      </trkpt>
      <trkpt lat="46.51585" lon="-0.53461">
        <ele>42</ele>
        <time>2013-09-15T07:29:54Z</time>
      </trkpt>
      <trkpt lat="46.51575" lon="-0.53459">
        <ele>42</ele>
        <time>2013-09-15T07:29:57Z</time>
      </trkpt>
      <trkpt lat="46.5157" lon="-0.53456">
        <ele>41</ele>
        <time>2013-09-15T07:29:59Z</time>
      </trkpt>
      <trkpt lat="46.51559" lon="-0.53452">
        <ele>41</ele>
        <time>2013-09-15T07:30:02Z</time>
      </trkpt>
      <trkpt lat="46.51548" lon="-0.53447">
        <ele>41</ele>
        <time>2013-09-15T07:30:05Z</time>
      </trkpt>
      <trkpt lat="46.51541" lon="-0.53446">
        <ele>40</ele>
        <time>2013-09-15T07:30:07Z</time>
      </trkpt>
      <trkpt lat="46.51535" lon="-0.53446">
        <ele>40</ele>
        <time>2013-09-15T07:30:09Z</time>
      </trkpt>
      <trkpt lat="46.51529" lon="-0.53446">
        <ele>39</ele>
        <time>2013-09-15T07:30:12Z</time>
      </trkpt>
      <trkpt lat="46.51523" lon="-0.53446">
        <ele>38</ele>
        <time>2013-09-15T07:30:15Z</time>
      </trkpt>
      <trkpt lat="46.51519" lon="-0.53445">
        <ele>37</ele>
        <time>2013-09-15T07:30:18Z</time>
      </trkpt>
      <trkpt lat="46.51518" lon="-0.53444">
        <ele>37</ele>
        <time>2013-09-15T07:30:20Z</time>
      </trkpt>
      <trkpt lat="46.51515" lon="-0.53447">
        <ele>37</ele>
        <time>2013-09-15T07:30:23Z</time>
      </trkpt>
      <trkpt lat="46.51511" lon="-0.53446">
        <ele>37</ele>
        <time>2013-09-15T07:30:26Z</time>
      </trkpt>
      <trkpt lat="46.51505" lon="-0.53444">
        <ele>37</ele>
        <time>2013-09-15T07:30:29Z</time>
      </trkpt>
      <trkpt lat="46.51495" lon="-0.53443">
        <ele>36</ele>
        <time>2013-09-15T07:30:32Z</time>
      </trkpt>
      <trkpt lat="46.51488" lon="-0.53441">
        <ele>36</ele>
        <time>2013-09-15T07:30:34Z</time>
      </trkpt>
      <trkpt lat="46.51482" lon="-0.53439">
        <ele>36</ele>
        <time>2013-09-15T07:30:36Z</time>
      </trkpt>
      <trkpt lat="46.51472" lon="-0.53432">
        <ele>35</ele>
        <time>2013-09-15T07:30:39Z</time>
      </trkpt>
      <trkpt lat="46.51464" lon="-0.53429">
        <ele>35</ele>
        <time>2013-09-15T07:30:41Z</time>
      </trkpt>
      <trkpt lat="46.51456" lon="-0.53425">
        <ele>34</ele>
        <time>2013-09-15T07:30:43Z</time>
      </trkpt>
      <trkpt lat="46.51446" lon="-0.53422">
        <ele>33</ele>
        <time>2013-09-15T07:30:46Z</time>
      </trkpt>
      <trkpt lat="46.51437" lon="-0.53419">
        <ele>31</ele>
        <time>2013-09-15T07:30:48Z</time>
      </trkpt>
      <trkpt lat="46.51427" lon="-0.53414">
        <ele>30</ele>
        <time>2013-09-15T07:30:50Z</time>
      </trkpt>
      <trkpt lat="46.51418" lon="-0.5341">
        <ele>30</ele>
        <time>2013-09-15T07:30:52Z</time>
      </trkpt>
      <trkpt lat="46.51406" lon="-0.53409">
        <ele>29</ele>
        <time>2013-09-15T07:30:54Z</time>
      </trkpt>
      <trkpt lat="46.51389" lon="-0.53414">
        <ele>29</ele>
        <time>2013-09-15T07:30:57Z</time>
      </trkpt>
      <trkpt lat="46.51378" lon="-0.53421">
        <ele>27</ele>
        <time>2013-09-15T07:30:59Z</time>
      </trkpt>
      <trkpt lat="46.51366" lon="-0.53431">
        <ele>24</ele>
        <time>2013-09-15T07:31:02Z</time>
      </trkpt>
      <trkpt lat="46.5136" lon="-0.53439">
        <ele>23</ele>
        <time>2013-09-15T07:31:04Z</time>
      </trkpt>
      <trkpt lat="46.51351" lon="-0.53445">
        <ele>21</ele>
        <time>2013-09-15T07:31:06Z</time>
      </trkpt>
      <trkpt lat="46.51342" lon="-0.53442">
        <ele>20</ele>
        <time>2013-09-15T07:31:08Z</time>
      </trkpt>
      <trkpt lat="46.51331" lon="-0.53439">
        <ele>19</ele>
        <time>2013-09-15T07:31:10Z</time>
      </trkpt>
      <trkpt lat="46.51313" lon="-0.53435">
        <ele>18</ele>
        <time>2013-09-15T07:31:13Z</time>
      </trkpt>
      <trkpt lat="46.51298" lon="-0.53436">
        <ele>17</ele>
        <time>2013-09-15T07:31:15Z</time>
      </trkpt>
      <trkpt lat="46.51284" lon="-0.53433">
        <ele>15</ele>
        <time>2013-09-15T07:31:17Z</time>
      </trkpt>
      <trkpt lat="46.51268" lon="-0.53427">
        <ele>14</ele>
        <time>2013-09-15T07:31:20Z</time>
      </trkpt>
      <trkpt lat="46.51259" lon="-0.53428">
        <ele>13</ele>
        <time>2013-09-15T07:31:22Z</time>
      </trkpt>
      <trkpt lat="46.51252" lon="-0.53432">
        <ele>14</ele>
        <time>2013-09-15T07:31:24Z</time>
      </trkpt>
      <trkpt lat="46.51242" lon="-0.5344">
        <ele>14</ele>
        <time>2013-09-15T07:31:27Z</time>
      </trkpt>
      <trkpt lat="46.51234" lon="-0.53448">
        <ele>15</ele>
        <time>2013-09-15T07:31:30Z</time>
      </trkpt>
      <trkpt lat="46.51226" lon="-0.53454">
        <ele>16</ele>
        <time>2013-09-15T07:31:33Z</time>
      </trkpt>
      <trkpt lat="46.5122" lon="-0.53457">
        <ele>16</ele>
        <time>2013-09-15T07:31:35Z</time>
      </trkpt>
      <trkpt lat="46.51211" lon="-0.5346">
        <ele>17</ele>
        <time>2013-09-15T07:31:38Z</time>
      </trkpt>
      <trkpt lat="46.51207" lon="-0.53458">
        <ele>18</ele>
        <time>2013-09-15T07:31:40Z</time>
      </trkpt>
      <trkpt lat="46.512" lon="-0.53453">
        <ele>19</ele>
        <time>2013-09-15T07:31:43Z</time>
      </trkpt>
      <trkpt lat="46.51198" lon="-0.5345">
        <ele>19</ele>
        <time>2013-09-15T07:31:45Z</time>
      </trkpt>
      <trkpt lat="46.51192" lon="-0.53445">
        <ele>20</ele>
        <time>2013-09-15T07:31:48Z</time>
      </trkpt>
      <trkpt lat="46.51188" lon="-0.53439">
        <ele>21</ele>
        <time>2013-09-15T07:31:51Z</time>
      </trkpt>
      <trkpt lat="46.51184" lon="-0.53434">
        <ele>21</ele>
        <time>2013-09-15T07:31:54Z</time>
      </trkpt>
      <trkpt lat="46.51181" lon="-0.5343">
        <ele>22</ele>
        <time>2013-09-15T07:31:56Z</time>
      </trkpt>
      <trkpt lat="46.51176" lon="-0.53425">
        <ele>23</ele>
        <time>2013-09-15T07:31:59Z</time>
      </trkpt>
      <trkpt lat="46.51172" lon="-0.53421">
        <ele>24</ele>
        <time>2013-09-15T07:32:02Z</time>
      </trkpt>
      <trkpt lat="46.51166" lon="-0.53415">
        <ele>25</ele>
        <time>2013-09-15T07:32:05Z</time>
      </trkpt>
      <trkpt lat="46.51162" lon="-0.53412">
        <ele>25</ele>
        <time>2013-09-15T07:32:07Z</time>
      </trkpt>
      <trkpt lat="46.51156" lon="-0.53409">
        <ele>26</ele>
        <time>2013-09-15T07:32:10Z</time>
      </trkpt>
      <trkpt lat="46.51151" lon="-0.5341">
        <ele>26</ele>
        <time>2013-09-15T07:32:12Z</time>
      </trkpt>
      <trkpt lat="46.51146" lon="-0.5341">
        <ele>27</ele>
        <time>2013-09-15T07:32:14Z</time>
      </trkpt>
      <trkpt lat="46.51138" lon="-0.53412">
        <ele>27</ele>
        <time>2013-09-15T07:32:17Z</time>
      </trkpt>
      <trkpt lat="46.51132" lon="-0.53416">
        <ele>28</ele>
        <time>2013-09-15T07:32:20Z</time>
      </trkpt>
      <trkpt lat="46.51128" lon="-0.53419">
        <ele>29</ele>
        <time>2013-09-15T07:32:22Z</time>
      </trkpt>
      <trkpt lat="46.51123" lon="-0.53422">
        <ele>29</ele>
        <time>2013-09-15T07:32:24Z</time>
      </trkpt>
      <trkpt lat="46.51117" lon="-0.53426">
        <ele>30</ele>
        <time>2013-09-15T07:32:27Z</time>
      </trkpt>
      <trkpt lat="46.51112" lon="-0.53429">
        <ele>30</ele>
        <time>2013-09-15T07:32:29Z</time>
      </trkpt>
      <trkpt lat="46.51106" lon="-0.53433">
        <ele>31</ele>
        <time>2013-09-15T07:32:32Z</time>
      </trkpt>
      <trkpt lat="46.51102" lon="-0.53435">
        <ele>31</ele>
        <time>2013-09-15T07:32:34Z</time>
      </trkpt>
      <trkpt lat="46.51096" lon="-0.53439">
        <ele>32</ele>
        <time>2013-09-15T07:32:37Z</time>
      </trkpt>
      <trkpt lat="46.51091" lon="-0.53443">
        <ele>33</ele>
        <time>2013-09-15T07:32:40Z</time>
      </trkpt>
      <trkpt lat="46.51087" lon="-0.53448">
        <ele>33</ele>
        <time>2013-09-15T07:32:43Z</time>
      </trkpt>
      <trkpt lat="46.51084" lon="-0.53451">
        <ele>34</ele>
        <time>2013-09-15T07:32:45Z</time>
      </trkpt>
      <trkpt lat="46.51079" lon="-0.53457">
        <ele>34</ele>
        <time>2013-09-15T07:32:48Z</time>
      </trkpt>
      <trkpt lat="46.51077" lon="-0.53461">
        <ele>35</ele>
        <time>2013-09-15T07:32:50Z</time>
      </trkpt>
      <trkpt lat="46.51076" lon="-0.53466">
        <ele>35</ele>
        <time>2013-09-15T07:32:52Z</time>
      </trkpt>
      <trkpt lat="46.51074" lon="-0.5347">
        <ele>36</ele>
        <time>2013-09-15T07:32:54Z</time>
      </trkpt>
      <trkpt lat="46.51073" lon="-0.53477">
        <ele>36</ele>
        <time>2013-09-15T07:32:57Z</time>
      </trkpt>
      <trkpt lat="46.51072" lon="-0.53482">
        <ele>37</ele>
        <time>2013-09-15T07:32:59Z</time>
      </trkpt>
      <trkpt lat="46.51071" lon="-0.53487">
        <ele>37</ele>
        <time>2013-09-15T07:33:01Z</time>
      </trkpt>
      <trkpt lat="46.5107" lon="-0.53495">
        <ele>37</ele>
        <time>2013-09-15T07:33:04Z</time>
      </trkpt>
      <trkpt lat="46.51069" lon="-0.53499">
        <ele>38</ele>
        <time>2013-09-15T07:33:06Z</time>
      </trkpt>
      <trkpt lat="46.51068" lon="-0.53504">
        <ele>38</ele>
        <time>2013-09-15T07:33:08Z</time>
      </trkpt>
      <trkpt lat="46.51068" lon="-0.53509">
        <ele>39</ele>
        <time>2013-09-15T07:33:10Z</time>
      </trkpt>
      <trkpt lat="46.51068" lon="-0.53516">
        <ele>39</ele>
        <time>2013-09-15T07:33:13Z</time>
      </trkpt>
      <trkpt lat="46.51067" lon="-0.53521">
        <ele>39</ele>
        <time>2013-09-15T07:33:15Z</time>
      </trkpt>
      <trkpt lat="46.51067" lon="-0.53526">
        <ele>40</ele>
        <time>2013-09-15T07:33:17Z</time>
      </trkpt>
      <trkpt lat="46.51067" lon="-0.53531">
        <ele>40</ele>
        <time>2013-09-15T07:33:19Z</time>
      </trkpt>
      <trkpt lat="46.51066" lon="-0.53536">
        <ele>41</ele>
        <time>2013-09-15T07:33:21Z</time>
      </trkpt>
      <trkpt lat="46.51065" lon="-0.53544">
        <ele>41</ele>
        <time>2013-09-15T07:33:24Z</time>
      </trkpt>
      <trkpt lat="46.51064" lon="-0.53548">
        <ele>42</ele>
        <time>2013-09-15T07:33:26Z</time>
      </trkpt>
      <trkpt lat="46.51063" lon="-0.53553">
        <ele>42</ele>
        <time>2013-09-15T07:33:28Z</time>
      </trkpt>
      <trkpt lat="46.51062" lon="-0.53557">
        <ele>43</ele>
        <time>2013-09-15T07:33:30Z</time>
      </trkpt>
      <trkpt lat="46.5106" lon="-0.53564">
        <ele>43</ele>
        <time>2013-09-15T07:33:33Z</time>
      </trkpt>
      <trkpt lat="46.51057" lon="-0.53571">
        <ele>44</ele>
        <time>2013-09-15T07:33:36Z</time>
      </trkpt>
      <trkpt lat="46.51054" lon="-0.53575">
        <ele>44</ele>
        <time>2013-09-15T07:33:38Z</time>
      </trkpt>
      <trkpt lat="46.51051" lon="-0.53582">
        <ele>44</ele>
        <time>2013-09-15T07:33:41Z</time>
      </trkpt>
      <trkpt lat="46.51048" lon="-0.53588">
        <ele>45</ele>
        <time>2013-09-15T07:33:43Z</time>
      </trkpt>
      <trkpt lat="46.51045" lon="-0.53592">
        <ele>45</ele>
        <time>2013-09-15T07:33:45Z</time>
      </trkpt>
      <trkpt lat="46.51042" lon="-0.53597">
        <ele>45</ele>
        <time>2013-09-15T07:33:47Z</time>
      </trkpt>
      <trkpt lat="46.51037" lon="-0.53605">
        <ele>46</ele>
        <time>2013-09-15T07:33:50Z</time>
      </trkpt>
      <trkpt lat="46.51033" lon="-0.5361">
        <ele>46</ele>
        <time>2013-09-15T07:33:52Z</time>
      </trkpt>
      <trkpt lat="46.5103" lon="-0.53615">
        <ele>46</ele>
        <time>2013-09-15T07:33:54Z</time>
      </trkpt>
      <trkpt lat="46.51027" lon="-0.53621">
        <ele>47</ele>
        <time>2013-09-15T07:33:56Z</time>
      </trkpt>
      <trkpt lat="46.51021" lon="-0.53629">
        <ele>47</ele>
        <time>2013-09-15T07:33:59Z</time>
      </trkpt>
      <trkpt lat="46.51018" lon="-0.53634">
        <ele>47</ele>
        <time>2013-09-15T07:34:01Z</time>
      </trkpt>
      <trkpt lat="46.51014" lon="-0.53639">
        <ele>48</ele>
        <time>2013-09-15T07:34:03Z</time>
      </trkpt>
      <trkpt lat="46.51007" lon="-0.53645">
        <ele>49</ele>
        <time>2013-09-15T07:34:06Z</time>
      </trkpt>
      <trkpt lat="46.51003" lon="-0.53649">
        <ele>49</ele>
        <time>2013-09-15T07:34:08Z</time>
      </trkpt>
      <trkpt lat="46.50996" lon="-0.53655">
        <ele>50</ele>
        <time>2013-09-15T07:34:11Z</time>
      </trkpt>
      <trkpt lat="46.50991" lon="-0.5366">
        <ele>50</ele>
        <time>2013-09-15T07:34:13Z</time>
      </trkpt>
      <trkpt lat="46.50983" lon="-0.53669">
        <ele>51</ele>
        <time>2013-09-15T07:34:16Z</time>
      </trkpt>
      <trkpt lat="46.50975" lon="-0.53677">
        <ele>51</ele>
        <time>2013-09-15T07:34:19Z</time>
      </trkpt>
      <trkpt lat="46.50969" lon="-0.53682">
        <ele>51</ele>
        <time>2013-09-15T07:34:21Z</time>
      </trkpt>
      <trkpt lat="46.50961" lon="-0.5369">
        <ele>52</ele>
        <time>2013-09-15T07:34:24Z</time>
      </trkpt>
      <trkpt lat="46.50955" lon="-0.53695">
        <ele>52</ele>
        <time>2013-09-15T07:34:26Z</time>
      </trkpt>
      <trkpt lat="46.50948" lon="-0.53701">
        <ele>52</ele>
        <time>2013-09-15T07:34:28Z</time>
      </trkpt>
      <trkpt lat="46.50941" lon="-0.53707">
        <ele>52</ele>
        <time>2013-09-15T07:34:30Z</time>
      </trkpt>
      <trkpt lat="46.50931" lon="-0.53716">
        <ele>52</ele>
        <time>2013-09-15T07:34:33Z</time>
      </trkpt>
      <trkpt lat="46.50925" lon="-0.53723">
        <ele>53</ele>
        <time>2013-09-15T07:34:35Z</time>
      </trkpt>
      <trkpt lat="46.50918" lon="-0.53729">
        <ele>53</ele>
        <time>2013-09-15T07:34:37Z</time>
      </trkpt>
      <trkpt lat="46.50908" lon="-0.53738">
        <ele>54</ele>
        <time>2013-09-15T07:34:40Z</time>
      </trkpt>
      <trkpt lat="46.50901" lon="-0.53745">
        <ele>53</ele>
        <time>2013-09-15T07:34:42Z</time>
      </trkpt>
      <trkpt lat="46.5089" lon="-0.53757">
        <ele>53</ele>
        <time>2013-09-15T07:34:45Z</time>
      </trkpt>
      <trkpt lat="46.50883" lon="-0.53765">
        <ele>54</ele>
        <time>2013-09-15T07:34:47Z</time>
      </trkpt>
      <trkpt lat="46.50872" lon="-0.53777">
        <ele>54</ele>
        <time>2013-09-15T07:34:50Z</time>
      </trkpt>
      <trkpt lat="46.50862" lon="-0.53791">
        <ele>54</ele>
        <time>2013-09-15T07:34:53Z</time>
      </trkpt>
      <trkpt lat="46.50857" lon="-0.53801">
        <ele>55</ele>
        <time>2013-09-15T07:34:55Z</time>
      </trkpt>
      <trkpt lat="46.50846" lon="-0.53816">
        <ele>55</ele>
        <time>2013-09-15T07:34:58Z</time>
      </trkpt>
      <trkpt lat="46.50839" lon="-0.53826">
        <ele>54</ele>
        <time>2013-09-15T07:35:00Z</time>
      </trkpt>
      <trkpt lat="46.50829" lon="-0.53842">
        <ele>54</ele>
        <time>2013-09-15T07:35:03Z</time>
      </trkpt>
      <trkpt lat="46.50822" lon="-0.53852">
        <ele>54</ele>
        <time>2013-09-15T07:35:05Z</time>
      </trkpt>
      <trkpt lat="46.5081" lon="-0.53867">
        <ele>55</ele>
        <time>2013-09-15T07:35:08Z</time>
      </trkpt>
      <trkpt lat="46.50802" lon="-0.53875">
        <ele>55</ele>
        <time>2013-09-15T07:35:10Z</time>
      </trkpt>
      <trkpt lat="46.50794" lon="-0.53883">
        <ele>55</ele>
        <time>2013-09-15T07:35:12Z</time>
      </trkpt>
      <trkpt lat="46.50781" lon="-0.53895">
        <ele>56</ele>
        <time>2013-09-15T07:35:15Z</time>
      </trkpt>
      <trkpt lat="46.5077" lon="-0.53907">
        <ele>56</ele>
        <time>2013-09-15T07:35:18Z</time>
      </trkpt>
      <trkpt lat="46.50762" lon="-0.53914">
        <ele>56</ele>
        <time>2013-09-15T07:35:20Z</time>
      </trkpt>
      <trkpt lat="46.5075" lon="-0.53927">
        <ele>56</ele>
        <time>2013-09-15T07:35:23Z</time>
      </trkpt>
      <trkpt lat="46.5074" lon="-0.5394">
        <ele>57</ele>
        <time>2013-09-15T07:35:26Z</time>
      </trkpt>
      <trkpt lat="46.50732" lon="-0.53949">
        <ele>57</ele>
        <time>2013-09-15T07:35:28Z</time>
      </trkpt>
      <trkpt lat="46.50725" lon="-0.53958">
        <ele>57</ele>
        <time>2013-09-15T07:35:30Z</time>
      </trkpt>
      <trkpt lat="46.50714" lon="-0.53975">
        <ele>58</ele>
        <time>2013-09-15T07:35:33Z</time>
      </trkpt>
      <trkpt lat="46.50704" lon="-0.53991">
        <ele>58</ele>
        <time>2013-09-15T07:35:36Z</time>
      </trkpt>
      <trkpt lat="46.50698" lon="-0.54001">
        <ele>57</ele>
        <time>2013-09-15T07:35:38Z</time>
      </trkpt>
      <trkpt lat="46.50691" lon="-0.54009">
        <ele>57</ele>
        <time>2013-09-15T07:35:40Z</time>
      </trkpt>
      <trkpt lat="46.50684" lon="-0.54017">
        <ele>57</ele>
        <time>2013-09-15T07:35:42Z</time>
      </trkpt>
      <trkpt lat="46.50674" lon="-0.54029">
        <ele>57</ele>
        <time>2013-09-15T07:35:45Z</time>
      </trkpt>
      <trkpt lat="46.50662" lon="-0.54044">
        <ele>57</ele>
        <time>2013-09-15T07:35:48Z</time>
      </trkpt>
      <trkpt lat="46.50653" lon="-0.54055">
        <ele>58</ele>
        <time>2013-09-15T07:35:50Z</time>
      </trkpt>
      <trkpt lat="46.50645" lon="-0.54067">
        <ele>58</ele>
        <time>2013-09-15T07:35:52Z</time>
      </trkpt>
      <trkpt lat="46.50632" lon="-0.54085">
        <ele>58</ele>
        <time>2013-09-15T07:35:55Z</time>
      </trkpt>
      <trkpt lat="46.50621" lon="-0.54104">
        <ele>58</ele>
        <time>2013-09-15T07:35:58Z</time>
      </trkpt>
      <trkpt lat="46.50615" lon="-0.54118">
        <ele>57</ele>
        <time>2013-09-15T07:36:00Z</time>
      </trkpt>
      <trkpt lat="46.50602" lon="-0.54137">
        <ele>57</ele>
        <time>2013-09-15T07:36:03Z</time>
      </trkpt>
      <trkpt lat="46.50588" lon="-0.54155">
        <ele>57</ele>
        <time>2013-09-15T07:36:06Z</time>
      </trkpt>
      <trkpt lat="46.50579" lon="-0.54167">
        <ele>56</ele>
        <time>2013-09-15T07:36:08Z</time>
      </trkpt>
      <trkpt lat="46.5057" lon="-0.54179">
        <ele>56</ele>
        <time>2013-09-15T07:36:10Z</time>
      </trkpt>
      <trkpt lat="46.50556" lon="-0.54196">
        <ele>56</ele>
        <time>2013-09-15T07:36:13Z</time>
      </trkpt>
      <trkpt lat="46.50549" lon="-0.54204">
        <ele>56</ele>
        <time>2013-09-15T07:36:15Z</time>
      </trkpt>
      <trkpt lat="46.50538" lon="-0.54198">
        <ele>55</ele>
        <time>2013-09-15T07:36:18Z</time>
      </trkpt>
      <trkpt lat="46.50526" lon="-0.54181">
        <ele>55</ele>
        <time>2013-09-15T07:36:21Z</time>
      </trkpt>
      <trkpt lat="46.50519" lon="-0.54168">
        <ele>54</ele>
        <time>2013-09-15T07:36:23Z</time>
      </trkpt>
      <trkpt lat="46.50509" lon="-0.54146">
        <ele>54</ele>
        <time>2013-09-15T07:36:26Z</time>
      </trkpt>
      <trkpt lat="46.50502" lon="-0.54131">
        <ele>54</ele>
        <time>2013-09-15T07:36:28Z</time>
      </trkpt>
      <trkpt lat="46.50496" lon="-0.54114">
        <ele>53</ele>
        <time>2013-09-15T07:36:30Z</time>
      </trkpt>
      <trkpt lat="46.5049" lon="-0.54095">
        <ele>53</ele>
        <time>2013-09-15T07:36:32Z</time>
      </trkpt>
      <trkpt lat="46.50483" lon="-0.54064">
        <ele>54</ele>
        <time>2013-09-15T07:36:35Z</time>
      </trkpt>
      <trkpt lat="46.50476" lon="-0.54031">
        <ele>54</ele>
        <time>2013-09-15T07:36:38Z</time>
      </trkpt>
      <trkpt lat="46.5047" lon="-0.54009">
        <ele>53</ele>
        <time>2013-09-15T07:36:40Z</time>
      </trkpt>
      <trkpt lat="46.50462" lon="-0.53975">
        <ele>53</ele>
        <time>2013-09-15T07:36:43Z</time>
      </trkpt>
      <trkpt lat="46.50456" lon="-0.53942">
        <ele>54</ele>
        <time>2013-09-15T07:36:46Z</time>
      </trkpt>
      <trkpt lat="46.50452" lon="-0.53907">
        <ele>54</ele>
        <time>2013-09-15T07:36:49Z</time>
      </trkpt>
      <trkpt lat="46.5045" lon="-0.53885">
        <ele>53</ele>
        <time>2013-09-15T07:36:51Z</time>
      </trkpt>
      <trkpt lat="46.50448" lon="-0.53863">
        <ele>52</ele>
        <time>2013-09-15T07:36:53Z</time>
      </trkpt>
      <trkpt lat="46.50448" lon="-0.53831">
        <ele>51</ele>
        <time>2013-09-15T07:36:56Z</time>
      </trkpt>
      <trkpt lat="46.50453" lon="-0.53799">
        <ele>51</ele>
        <time>2013-09-15T07:36:59Z</time>
      </trkpt>
      <trkpt lat="46.50459" lon="-0.5378">
        <ele>51</ele>
        <time>2013-09-15T07:37:01Z</time>
      </trkpt>
      <trkpt lat="46.50464" lon="-0.53761">
        <ele>51</ele>
        <time>2013-09-15T07:37:03Z</time>
      </trkpt>
      <trkpt lat="46.50473" lon="-0.53734">
        <ele>51</ele>
        <time>2013-09-15T07:37:06Z</time>
      </trkpt>
      <trkpt lat="46.50484" lon="-0.53707">
        <ele>52</ele>
        <time>2013-09-15T07:37:09Z</time>
      </trkpt>
      <trkpt lat="46.50496" lon="-0.53682">
        <ele>53</ele>
        <time>2013-09-15T07:37:12Z</time>
      </trkpt>
      <trkpt lat="46.50509" lon="-0.53659">
        <ele>53</ele>
        <time>2013-09-15T07:37:15Z</time>
      </trkpt>
      <trkpt lat="46.50518" lon="-0.53639">
        <ele>53</ele>
        <time>2013-09-15T07:37:17Z</time>
      </trkpt>
      <trkpt lat="46.50525" lon="-0.53615">
        <ele>53</ele>
        <time>2013-09-15T07:37:19Z</time>
      </trkpt>
      <trkpt lat="46.50529" lon="-0.53577">
        <ele>52</ele>
        <time>2013-09-15T07:37:22Z</time>
      </trkpt>
      <trkpt lat="46.50529" lon="-0.53537">
        <ele>51</ele>
        <time>2013-09-15T07:37:25Z</time>
      </trkpt>
      <trkpt lat="46.50529" lon="-0.53509">
        <ele>51</ele>
        <time>2013-09-15T07:37:27Z</time>
      </trkpt>
      <trkpt lat="46.50528" lon="-0.53479">
        <ele>50</ele>
        <time>2013-09-15T07:37:29Z</time>
      </trkpt>
      <trkpt lat="46.50533" lon="-0.53434">
        <ele>48</ele>
        <time>2013-09-15T07:37:32Z</time>
      </trkpt>
      <trkpt lat="46.50541" lon="-0.53406">
        <ele>47</ele>
        <time>2013-09-15T07:37:34Z</time>
      </trkpt>
      <trkpt lat="46.50553" lon="-0.53381">
        <ele>45</ele>
        <time>2013-09-15T07:37:36Z</time>
      </trkpt>
      <trkpt lat="46.50573" lon="-0.53346">
        <ele>44</ele>
        <time>2013-09-15T07:37:39Z</time>
      </trkpt>
      <trkpt lat="46.50584" lon="-0.53322">
        <ele>43</ele>
        <time>2013-09-15T07:37:41Z</time>
      </trkpt>
      <trkpt lat="46.50589" lon="-0.53295">
        <ele>42</ele>
        <time>2013-09-15T07:37:43Z</time>
      </trkpt>
      <trkpt lat="46.50594" lon="-0.53254">
        <ele>41</ele>
        <time>2013-09-15T07:37:46Z</time>
      </trkpt>
      <trkpt lat="46.50597" lon="-0.53226">
        <ele>40</ele>
        <time>2013-09-15T07:37:48Z</time>
      </trkpt>
      <trkpt lat="46.50595" lon="-0.53184">
        <ele>38</ele>
        <time>2013-09-15T07:37:51Z</time>
      </trkpt>
      <trkpt lat="46.50588" lon="-0.53141">
        <ele>37</ele>
        <time>2013-09-15T07:37:54Z</time>
      </trkpt>
      <trkpt lat="46.50584" lon="-0.53113">
        <ele>36</ele>
        <time>2013-09-15T07:37:56Z</time>
      </trkpt>
      <trkpt lat="46.50579" lon="-0.53078">
        <ele>35</ele>
        <time>2013-09-15T07:37:59Z</time>
      </trkpt>
      <trkpt lat="46.50578" lon="-0.53054">
        <ele>33</ele>
        <time>2013-09-15T07:38:01Z</time>
      </trkpt>
      <trkpt lat="46.5058" lon="-0.53029">
        <ele>31</ele>
        <time>2013-09-15T07:38:03Z</time>
      </trkpt>
      <trkpt lat="46.50587" lon="-0.52995">
        <ele>29</ele>
        <time>2013-09-15T07:38:06Z</time>
      </trkpt>
      <trkpt lat="46.5059" lon="-0.52975">
        <ele>26</ele>
        <time>2013-09-15T07:38:09Z</time>
      </trkpt>
      <trkpt lat="46.50591" lon="-0.52974">
        <ele>24</ele>
        <time>2013-09-15T07:38:12Z</time>
      </trkpt>
      <trkpt lat="46.50589" lon="-0.52966">
        <ele>23</ele>
        <time>2013-09-15T07:38:14Z</time>
      </trkpt>
      <trkpt lat="46.50586" lon="-0.52954">
        <ele>23</ele>
        <time>2013-09-15T07:38:16Z</time>
      </trkpt>
      <trkpt lat="46.50582" lon="-0.52937">
        <ele>23</ele>
        <time>2013-09-15T07:38:18Z</time>
      </trkpt>
      <trkpt lat="46.50576" lon="-0.52905">
        <ele>22</ele>
        <time>2013-09-15T07:38:21Z</time>
      </trkpt>
      <trkpt lat="46.50573" lon="-0.5287">
        <ele>21</ele>
        <time>2013-09-15T07:38:24Z</time>
      </trkpt>
      <trkpt lat="46.50574" lon="-0.52846">
        <ele>20</ele>
        <time>2013-09-15T07:38:26Z</time>
      </trkpt>
      <trkpt lat="46.50579" lon="-0.52823">
        <ele>19</ele>
        <time>2013-09-15T07:38:28Z</time>
      </trkpt>
      <trkpt lat="46.50588" lon="-0.52786">
        <ele>17</ele>
        <time>2013-09-15T07:38:31Z</time>
      </trkpt>
      <trkpt lat="46.50588" lon="-0.5276">
        <ele>16</ele>
        <time>2013-09-15T07:38:33Z</time>
      </trkpt>
      <trkpt lat="46.50578" lon="-0.52723">
        <ele>14</ele>
        <time>2013-09-15T07:38:36Z</time>
      </trkpt>
      <trkpt lat="46.50568" lon="-0.527">
        <ele>12</ele>
        <time>2013-09-15T07:38:38Z</time>
      </trkpt>
      <trkpt lat="46.50554" lon="-0.52667">
        <ele>10</ele>
        <time>2013-09-15T07:38:41Z</time>
      </trkpt>
      <trkpt lat="46.50542" lon="-0.52648">
        <ele>8</ele>
        <time>2013-09-15T07:38:44Z</time>
      </trkpt>
      <trkpt lat="46.50533" lon="-0.52649">
        <ele>7</ele>
        <time>2013-09-15T07:38:46Z</time>
      </trkpt>
      <trkpt lat="46.50526" lon="-0.52654">
        <ele>6</ele>
        <time>2013-09-15T07:38:48Z</time>
      </trkpt>
      <trkpt lat="46.50514" lon="-0.52658">
        <ele>6</ele>
        <time>2013-09-15T07:38:51Z</time>
      </trkpt>
      <trkpt lat="46.50504" lon="-0.52653">
        <ele>6</ele>
        <time>2013-09-15T07:38:53Z</time>
      </trkpt>
      <trkpt lat="46.50486" lon="-0.52642">
        <ele>5</ele>
        <time>2013-09-15T07:38:56Z</time>
      </trkpt>
      <trkpt lat="46.50468" lon="-0.52625">
        <ele>5</ele>
        <time>2013-09-15T07:38:59Z</time>
      </trkpt>
      <trkpt lat="46.50454" lon="-0.52601">
        <ele>3</ele>
        <time>2013-09-15T07:39:02Z</time>
      </trkpt>
      <trkpt lat="46.50449" lon="-0.5258">
        <ele>2</ele>
        <time>2013-09-15T07:39:04Z</time>
      </trkpt>
      <trkpt lat="46.50436" lon="-0.52547">
        <ele>1</ele>
        <time>2013-09-15T07:39:07Z</time>
      </trkpt>
      <trkpt lat="46.50421" lon="-0.5252">
        <ele>-1</ele>
        <time>2013-09-15T07:39:10Z</time>
      </trkpt>
      <trkpt lat="46.50409" lon="-0.52515">
        <ele>-3</ele>
        <time>2013-09-15T07:39:12Z</time>
      </trkpt>
      <trkpt lat="46.50391" lon="-0.52509">
        <ele>-5</ele>
        <time>2013-09-15T07:39:15Z</time>
      </trkpt>
      <trkpt lat="46.50373" lon="-0.52504">
        <ele>-6</ele>
        <time>2013-09-15T07:39:18Z</time>
      </trkpt>
      <trkpt lat="46.50357" lon="-0.52507">
        <ele>-7</ele>
        <time>2013-09-15T07:39:21Z</time>
      </trkpt>
      <trkpt lat="46.50341" lon="-0.5251">
        <ele>-7</ele>
        <time>2013-09-15T07:39:24Z</time>
      </trkpt>
      <trkpt lat="46.50328" lon="-0.52513">
        <ele>-7</ele>
        <time>2013-09-15T07:39:27Z</time>
      </trkpt>
      <trkpt lat="46.50319" lon="-0.52514">
        <ele>-8</ele>
        <time>2013-09-15T07:39:30Z</time>
      </trkpt>
      <trkpt lat="46.50311" lon="-0.52515">
        <ele>-8</ele>
        <time>2013-09-15T07:39:33Z</time>
      </trkpt>
      <trkpt lat="46.50306" lon="-0.52517">
        <ele>-8</ele>
        <time>2013-09-15T07:39:35Z</time>
      </trkpt>
      <trkpt lat="46.50298" lon="-0.5252">
        <ele>-8</ele>
        <time>2013-09-15T07:39:38Z</time>
      </trkpt>
      <trkpt lat="46.5029" lon="-0.52525">
        <ele>-8</ele>
        <time>2013-09-15T07:39:41Z</time>
      </trkpt>
      <trkpt lat="46.5028" lon="-0.52533">
        <ele>-8</ele>
        <time>2013-09-15T07:39:44Z</time>
      </trkpt>
      <trkpt lat="46.50268" lon="-0.52541">
        <ele>-8</ele>
        <time>2013-09-15T07:39:47Z</time>
      </trkpt>
      <trkpt lat="46.50261" lon="-0.52546">
        <ele>-8</ele>
        <time>2013-09-15T07:39:49Z</time>
      </trkpt>
      <trkpt lat="46.5025" lon="-0.52555">
        <ele>-7</ele>
        <time>2013-09-15T07:39:52Z</time>
      </trkpt>
      <trkpt lat="46.50242" lon="-0.52561">
        <ele>-7</ele>
        <time>2013-09-15T07:39:54Z</time>
      </trkpt>
      <trkpt lat="46.50235" lon="-0.52567">
        <ele>-7</ele>
        <time>2013-09-15T07:39:56Z</time>
      </trkpt>
      <trkpt lat="46.50226" lon="-0.52573">
        <ele>-8</ele>
        <time>2013-09-15T07:39:58Z</time>
      </trkpt>
      <trkpt lat="46.50215" lon="-0.52581">
        <ele>-8</ele>
        <time>2013-09-15T07:40:01Z</time>
      </trkpt>
      <trkpt lat="46.50203" lon="-0.5259">
        <ele>-8</ele>
        <time>2013-09-15T07:40:04Z</time>
      </trkpt>
      <trkpt lat="46.50191" lon="-0.52598">
        <ele>-8</ele>
        <time>2013-09-15T07:40:07Z</time>
      </trkpt>
      <trkpt lat="46.50185" lon="-0.52603">
        <ele>-8</ele>
        <time>2013-09-15T07:40:09Z</time>
      </trkpt>
      <trkpt lat="46.50178" lon="-0.52606">
        <ele>-8</ele>
        <time>2013-09-15T07:40:11Z</time>
      </trkpt>
      <trkpt lat="46.50167" lon="-0.52613">
        <ele>-8</ele>
        <time>2013-09-15T07:40:14Z</time>
      </trkpt>
      <trkpt lat="46.50156" lon="-0.52618">
        <ele>-8</ele>
        <time>2013-09-15T07:40:17Z</time>
      </trkpt>
      <trkpt lat="46.50148" lon="-0.52621">
        <ele>-8</ele>
        <time>2013-09-15T07:40:19Z</time>
      </trkpt>
      <trkpt lat="46.5014" lon="-0.52626">
        <ele>-8</ele>
        <time>2013-09-15T07:40:21Z</time>
      </trkpt>
      <trkpt lat="46.50131" lon="-0.52631">
        <ele>-9</ele>
        <time>2013-09-15T07:40:24Z</time>
      </trkpt>
      <trkpt lat="46.50128" lon="-0.52633">
        <ele>-9</ele>
        <time>2013-09-15T07:40:26Z</time>
      </trkpt>
      <trkpt lat="46.50121" lon="-0.52637">
        <ele>-9</ele>
        <time>2013-09-15T07:40:29Z</time>
      </trkpt>
      <trkpt lat="46.50118" lon="-0.52639">
        <ele>-10</ele>
        <time>2013-09-15T07:40:31Z</time>
      </trkpt>
      <trkpt lat="46.50115" lon="-0.5264">
        <ele>-10</ele>
        <time>2013-09-15T07:40:33Z</time>
      </trkpt>
      <trkpt lat="46.50112" lon="-0.52642">
        <ele>-11</ele>
        <time>2013-09-15T07:40:36Z</time>
      </trkpt>
      <trkpt lat="46.50111" lon="-0.52643">
        <ele>-11</ele>
        <time>2013-09-15T07:40:38Z</time>
      </trkpt>
      <trkpt lat="46.50111" lon="-0.52643">
        <ele>-11</ele>
        <time>2013-09-15T07:40:40Z</time>
      </trkpt>
      <trkpt lat="46.50109" lon="-0.52644">
        <ele>-11</ele>
        <time>2013-09-15T07:40:43Z</time>
      </trkpt>
      <trkpt lat="46.50108" lon="-0.52644">
        <ele>-11</ele>
        <time>2013-09-15T07:40:45Z</time>
      </trkpt>
      <trkpt lat="46.50108" lon="-0.52645">
        <ele>-10</ele>
        <time>2013-09-15T07:40:47Z</time>
      </trkpt>
      <trkpt lat="46.50105" lon="-0.52647">
        <ele>-10</ele>
        <time>2013-09-15T07:40:50Z</time>
      </trkpt>
      <trkpt lat="46.50103" lon="-0.52649">
        <ele>-11</ele>
        <time>2013-09-15T07:40:52Z</time>
      </trkpt>
      <trkpt lat="46.50102" lon="-0.52649">
        <ele>-11</ele>
        <time>2013-09-15T07:40:55Z</time>
      </trkpt>
      <trkpt lat="46.50099" lon="-0.52648">
        <ele>-11</ele>
        <time>2013-09-15T07:40:58Z</time>
      </trkpt>
      <trkpt lat="46.50098" lon="-0.52646">
        <ele>-11</ele>
        <time>2013-09-15T07:41:00Z</time>
      </trkpt>
      <trkpt lat="46.50094" lon="-0.52643">
        <ele>-10</ele>
        <time>2013-09-15T07:41:03Z</time>
      </trkpt>
      <trkpt lat="46.50093" lon="-0.52643">
        <ele>-10</ele>
        <time>2013-09-15T07:41:06Z</time>
      </trkpt>
      <trkpt lat="46.50092" lon="-0.52643">
        <ele>-10</ele>
        <time>2013-09-15T07:41:08Z</time>
      </trkpt>
      <trkpt lat="46.50092" lon="-0.52643">
        <ele>-10</ele>
        <time>2013-09-15T07:41:11Z</time>
      </trkpt>
      <trkpt lat="46.50091" lon="-0.52643">
        <ele>-10</ele>
        <time>2013-09-15T07:41:13Z</time>
      </trkpt>
      <trkpt lat="46.5009" lon="-0.52643">
        <ele>-10</ele>
        <time>2013-09-15T07:41:15Z</time>
      </trkpt>
      <trkpt lat="46.5009" lon="-0.52643">
        <ele>-10</ele>
        <time>2013-09-15T07:41:17Z</time>
      </trkpt>
      <trkpt lat="46.50089" lon="-0.52643">
        <ele>-10</ele>
        <time>2013-09-15T07:41:20Z</time>
      </trkpt>
      <trkpt lat="46.50089" lon="-0.52643">
        <ele>-10</ele>
        <time>2013-09-15T07:41:23Z</time>
      </trkpt>
      <trkpt lat="46.50089" lon="-0.52643">
        <ele>-10</ele>
        <time>2013-09-15T07:41:27Z</time>
      </trkpt>
      <trkpt lat="46.50089" lon="-0.52643">
        <ele>-10</ele>
        <time>2013-09-15T07:41:33Z</time>
      </trkpt>
      <trkpt lat="46.50089" lon="-0.52643">
        <ele>-10</ele>
        <time>2013-09-15T07:41:39Z</time>
      </trkpt>
      <trkpt lat="46.50089" lon="-0.52643">
        <ele>-10</ele>
        <time>2013-09-15T07:41:41Z</time>
      </trkpt>
      <trkpt lat="46.50088" lon="-0.52643">
        <ele>-10</ele>
        <time>2013-09-15T07:41:44Z</time>
      </trkpt>
      <trkpt lat="46.50089" lon="-0.52644">
        <ele>-10</ele>
        <time>2013-09-15T07:41:46Z</time>
      </trkpt>
      <trkpt lat="46.50089" lon="-0.52644">
        <ele>-10</ele>
        <time>2013-09-15T07:41:56Z</time>
      </trkpt>
      <trkpt lat="46.50089" lon="-0.52644">
        <ele>-10</ele>
        <time>2013-09-15T07:42:01Z</time>
      </trkpt>
      <trkpt lat="46.50089" lon="-0.52644">
        <ele>-11</ele>
        <time>2013-09-15T07:42:05Z</time>
      </trkpt>
      <trkpt lat="46.50089" lon="-0.52644">
        <ele>-11</ele>
        <time>2013-09-15T07:42:07Z</time>
      </trkpt>
      <trkpt lat="46.50087" lon="-0.52644">
        <ele>-10</ele>
        <time>2013-09-15T07:42:09Z</time>
      </trkpt>
      <trkpt lat="46.50085" lon="-0.52643">
        <ele>-10</ele>
        <time>2013-09-15T07:42:11Z</time>
      </trkpt>
      <trkpt lat="46.5008" lon="-0.52641">
        <ele>-10</ele>
        <time>2013-09-15T07:42:13Z</time>
      </trkpt>
      <trkpt lat="46.50073" lon="-0.52638">
        <ele>-10</ele>
        <time>2013-09-15T07:42:16Z</time>
      </trkpt>
      <trkpt lat="46.50065" lon="-0.52635">
        <ele>-10</ele>
        <time>2013-09-15T07:42:19Z</time>
      </trkpt>
      <trkpt lat="46.50061" lon="-0.52631">
        <ele>-10</ele>
        <time>2013-09-15T07:42:22Z</time>
      </trkpt>
      <trkpt lat="46.50057" lon="-0.52629">
        <ele>-10</ele>
        <time>2013-09-15T07:42:25Z</time>
      </trkpt>
      <trkpt lat="46.50054" lon="-0.52627">
        <ele>-10</ele>
        <time>2013-09-15T07:42:27Z</time>
      </trkpt>
      <trkpt lat="46.5005" lon="-0.52625">
        <ele>-10</ele>
        <time>2013-09-15T07:42:30Z</time>
      </trkpt>
      <trkpt lat="46.50044" lon="-0.52621">
        <ele>-10</ele>
        <time>2013-09-15T07:42:33Z</time>
      </trkpt>
      <trkpt lat="46.50038" lon="-0.52617">
        <ele>-10</ele>
        <time>2013-09-15T07:42:36Z</time>
      </trkpt>
      <trkpt lat="46.50033" lon="-0.52614">
        <ele>-10</ele>
        <time>2013-09-15T07:42:39Z</time>
      </trkpt>
      <trkpt lat="46.50029" lon="-0.52612">
        <ele>-10</ele>
        <time>2013-09-15T07:42:41Z</time>
      </trkpt>
      <trkpt lat="46.50024" lon="-0.52609">
        <ele>-10</ele>
        <time>2013-09-15T07:42:44Z</time>
      </trkpt>
      <trkpt lat="46.5002" lon="-0.52606">
        <ele>-10</ele>
        <time>2013-09-15T07:42:47Z</time>
      </trkpt>
      <trkpt lat="46.50014" lon="-0.52603">
        <ele>-10</ele>
        <time>2013-09-15T07:42:50Z</time>
      </trkpt>
      <trkpt lat="46.50008" lon="-0.52601">
        <ele>-10</ele>
        <time>2013-09-15T07:42:53Z</time>
      </trkpt>
      <trkpt lat="46.50003" lon="-0.52599">
        <ele>-10</ele>
        <time>2013-09-15T07:42:55Z</time>
      </trkpt>
      <trkpt lat="46.49995" lon="-0.52598">
        <ele>-10</ele>
        <time>2013-09-15T07:42:58Z</time>
      </trkpt>
      <trkpt lat="46.49984" lon="-0.52597">
        <ele>-9</ele>
        <time>2013-09-15T07:43:01Z</time>
      </trkpt>
      <trkpt lat="46.49973" lon="-0.52595">
        <ele>-9</ele>
        <time>2013-09-15T07:43:04Z</time>
      </trkpt>
      <trkpt lat="46.49961" lon="-0.52595">
        <ele>-9</ele>
        <time>2013-09-15T07:43:07Z</time>
      </trkpt>
      <trkpt lat="46.49953" lon="-0.52596">
        <ele>-9</ele>
        <time>2013-09-15T07:43:09Z</time>
      </trkpt>
      <trkpt lat="46.49942" lon="-0.52596">
        <ele>-9</ele>
        <time>2013-09-15T07:43:12Z</time>
      </trkpt>
      <trkpt lat="46.49934" lon="-0.52597">
        <ele>-9</ele>
        <time>2013-09-15T07:43:15Z</time>
      </trkpt>
      <trkpt lat="46.49932" lon="-0.52597">
        <ele>-9</ele>
        <time>2013-09-15T07:43:17Z</time>
      </trkpt>
      <trkpt lat="46.4993" lon="-0.52597">
        <ele>-9</ele>
        <time>2013-09-15T07:43:20Z</time>
      </trkpt>
      <trkpt lat="46.49926" lon="-0.52596">
        <ele>-9</ele>
        <time>2013-09-15T07:43:23Z</time>
      </trkpt>
      <trkpt lat="46.49922" lon="-0.52596">
        <ele>-9</ele>
        <time>2013-09-15T07:43:26Z</time>
      </trkpt>
      <trkpt lat="46.49918" lon="-0.52596">
        <ele>-9</ele>
        <time>2013-09-15T07:43:29Z</time>
      </trkpt>
      <trkpt lat="46.49915" lon="-0.52596">
        <ele>-9</ele>
        <time>2013-09-15T07:43:31Z</time>
      </trkpt>
      <trkpt lat="46.49912" lon="-0.52596">
        <ele>-9</ele>
        <time>2013-09-15T07:43:33Z</time>
      </trkpt>
      <trkpt lat="46.4991" lon="-0.52595">
        <ele>-9</ele>
        <time>2013-09-15T07:43:36Z</time>
      </trkpt>
      <trkpt lat="46.49909" lon="-0.52595">
        <ele>-9</ele>
        <time>2013-09-15T07:43:39Z</time>
      </trkpt>
      <trkpt lat="46.49908" lon="-0.52595">
        <ele>-9</ele>
        <time>2013-09-15T07:43:42Z</time>
      </trkpt>
      <trkpt lat="46.49904" lon="-0.52591">
        <ele>-9</ele>
        <time>2013-09-15T07:43:45Z</time>
      </trkpt>
      <trkpt lat="46.499" lon="-0.52582">
        <ele>-9</ele>
        <time>2013-09-15T07:43:48Z</time>
      </trkpt>
      <trkpt lat="46.49899" lon="-0.52572">
        <ele>-8</ele>
        <time>2013-09-15T07:43:50Z</time>
      </trkpt>
      <trkpt lat="46.49897" lon="-0.52563">
        <ele>-8</ele>
        <time>2013-09-15T07:43:52Z</time>
      </trkpt>
      <trkpt lat="46.49895" lon="-0.52553">
        <ele>-8</ele>
        <time>2013-09-15T07:43:54Z</time>
      </trkpt>
      <trkpt lat="46.49892" lon="-0.52539">
        <ele>-8</ele>
        <time>2013-09-15T07:43:57Z</time>
      </trkpt>
      <trkpt lat="46.49888" lon="-0.52526">
        <ele>-8</ele>
        <time>2013-09-15T07:44:00Z</time>
      </trkpt>
      <trkpt lat="46.49882" lon="-0.52523">
        <ele>-7</ele>
        <time>2013-09-15T07:44:02Z</time>
      </trkpt>
      <trkpt lat="46.49871" lon="-0.52524">
        <ele>-7</ele>
        <time>2013-09-15T07:44:05Z</time>
      </trkpt>
      <trkpt lat="46.49858" lon="-0.52525">
        <ele>-7</ele>
        <time>2013-09-15T07:44:08Z</time>
      </trkpt>
      <trkpt lat="46.49849" lon="-0.52527">
        <ele>-7</ele>
        <time>2013-09-15T07:44:10Z</time>
      </trkpt>
      <trkpt lat="46.49842" lon="-0.52532">
        <ele>-8</ele>
        <time>2013-09-15T07:44:12Z</time>
      </trkpt>
      <trkpt lat="46.49839" lon="-0.5254">
        <ele>-8</ele>
        <time>2013-09-15T07:44:14Z</time>
      </trkpt>
      <trkpt lat="46.4984" lon="-0.52556">
        <ele>-8</ele>
        <time>2013-09-15T07:44:17Z</time>
      </trkpt>
      <trkpt lat="46.49842" lon="-0.52574">
        <ele>-8</ele>
        <time>2013-09-15T07:44:20Z</time>
      </trkpt>
      <trkpt lat="46.49844" lon="-0.52592">
        <ele>-8</ele>
        <time>2013-09-15T07:44:23Z</time>
      </trkpt>
      <trkpt lat="46.49839" lon="-0.5261">
        <ele>-9</ele>
        <time>2013-09-15T07:44:26Z</time>
      </trkpt>
      <trkpt lat="46.49834" lon="-0.52621">
        <ele>-9</ele>
        <time>2013-09-15T07:44:28Z</time>
      </trkpt>
      <trkpt lat="46.49826" lon="-0.52636">
        <ele>-9</ele>
        <time>2013-09-15T07:44:31Z</time>
      </trkpt>
      <trkpt lat="46.4982" lon="-0.52645">
        <ele>-9</ele>
        <time>2013-09-15T07:44:33Z</time>
      </trkpt>
      <trkpt lat="46.4981" lon="-0.52658">
        <ele>-10</ele>
        <time>2013-09-15T07:44:36Z</time>
      </trkpt>
      <trkpt lat="46.49803" lon="-0.52666">
        <ele>-10</ele>
        <time>2013-09-15T07:44:38Z</time>
      </trkpt>
      <trkpt lat="46.49792" lon="-0.52676">
        <ele>-10</ele>
        <time>2013-09-15T07:44:41Z</time>
      </trkpt>
      <trkpt lat="46.49782" lon="-0.52686">
        <ele>-10</ele>
        <time>2013-09-15T07:44:44Z</time>
      </trkpt>
      <trkpt lat="46.49775" lon="-0.52693">
        <ele>-10</ele>
        <time>2013-09-15T07:44:46Z</time>
      </trkpt>
      <trkpt lat="46.49767" lon="-0.52699">
        <ele>-10</ele>
        <time>2013-09-15T07:44:48Z</time>
      </trkpt>
      <trkpt lat="46.49756" lon="-0.52707">
        <ele>-10</ele>
        <time>2013-09-15T07:44:51Z</time>
      </trkpt>
      <trkpt lat="46.49744" lon="-0.52715">
        <ele>-10</ele>
        <time>2013-09-15T07:44:54Z</time>
      </trkpt>
      <trkpt lat="46.49735" lon="-0.52721">
        <ele>-11</ele>
        <time>2013-09-15T07:44:56Z</time>
      </trkpt>
      <trkpt lat="46.49729" lon="-0.52725">
        <ele>-11</ele>
        <time>2013-09-15T07:44:59Z</time>
      </trkpt>
      <trkpt lat="46.49723" lon="-0.5273">
        <ele>-12</ele>
        <time>2013-09-15T07:45:02Z</time>
      </trkpt>
      <trkpt lat="46.49715" lon="-0.52735">
        <ele>-12</ele>
        <time>2013-09-15T07:45:05Z</time>
      </trkpt>
      <trkpt lat="46.49709" lon="-0.52739">
        <ele>-12</ele>
        <time>2013-09-15T07:45:07Z</time>
      </trkpt>
      <trkpt lat="46.49701" lon="-0.52745">
        <ele>-11</ele>
        <time>2013-09-15T07:45:10Z</time>
      </trkpt>
      <trkpt lat="46.49698" lon="-0.52747">
        <ele>-12</ele>
        <time>2013-09-15T07:45:12Z</time>
      </trkpt>
      <trkpt lat="46.49695" lon="-0.5275">
        <ele>-12</ele>
        <time>2013-09-15T07:45:14Z</time>
      </trkpt>
      <trkpt lat="46.49691" lon="-0.52753">
        <ele>-12</ele>
        <time>2013-09-15T07:45:17Z</time>
      </trkpt>
      <trkpt lat="46.49689" lon="-0.52756">
        <ele>-12</ele>
        <time>2013-09-15T07:45:19Z</time>
      </trkpt>
      <trkpt lat="46.49686" lon="-0.52759">
        <ele>-12</ele>
        <time>2013-09-15T07:45:21Z</time>
      </trkpt>
      <trkpt lat="46.49684" lon="-0.52764">
        <ele>-12</ele>
        <time>2013-09-15T07:45:24Z</time>
      </trkpt>
      <trkpt lat="46.49683" lon="-0.5277">
        <ele>-13</ele>
        <time>2013-09-15T07:45:26Z</time>
      </trkpt>
      <trkpt lat="46.49683" lon="-0.52776">
        <ele>-12</ele>
        <time>2013-09-15T07:45:28Z</time>
      </trkpt>
      <trkpt lat="46.49678" lon="-0.52778">
        <ele>-12</ele>
        <time>2013-09-15T07:45:31Z</time>
      </trkpt>
      <trkpt lat="46.49669" lon="-0.52777">
        <ele>-11</ele>
        <time>2013-09-15T07:45:34Z</time>
      </trkpt>
      <trkpt lat="46.49659" lon="-0.52777">
        <ele>-11</ele>
        <time>2013-09-15T07:45:37Z</time>
      </trkpt>
      <trkpt lat="46.49648" lon="-0.52778">
        <ele>-11</ele>
        <time>2013-09-15T07:45:40Z</time>
      </trkpt>
      <trkpt lat="46.49637" lon="-0.52779">
        <ele>-11</ele>
        <time>2013-09-15T07:45:43Z</time>
      </trkpt>
      <trkpt lat="46.49624" lon="-0.52781">
        <ele>-11</ele>
        <time>2013-09-15T07:45:46Z</time>
      </trkpt>
      <trkpt lat="46.49616" lon="-0.52781">
        <ele>-10</ele>
        <time>2013-09-15T07:45:48Z</time>
      </trkpt>
      <trkpt lat="46.49602" lon="-0.52784">
        <ele>-10</ele>
        <time>2013-09-15T07:45:51Z</time>
      </trkpt>
      <trkpt lat="46.49587" lon="-0.52789">
        <ele>-10</ele>
        <time>2013-09-15T07:45:54Z</time>
      </trkpt>
      <trkpt lat="46.49573" lon="-0.52793">
        <ele>-10</ele>
        <time>2013-09-15T07:45:57Z</time>
      </trkpt>
      <trkpt lat="46.49559" lon="-0.52794">
        <ele>-10</ele>
        <time>2013-09-15T07:46:00Z</time>
      </trkpt>
      <trkpt lat="46.49551" lon="-0.52794">
        <ele>-11</ele>
        <time>2013-09-15T07:46:02Z</time>
      </trkpt>
      <trkpt lat="46.49537" lon="-0.52795">
        <ele>-11</ele>
        <time>2013-09-15T07:46:05Z</time>
      </trkpt>
      <trkpt lat="46.49523" lon="-0.52797">
        <ele>-11</ele>
        <time>2013-09-15T07:46:08Z</time>
      </trkpt>
      <trkpt lat="46.49511" lon="-0.52799">
        <ele>-10</ele>
        <time>2013-09-15T07:46:11Z</time>
      </trkpt>
      <trkpt lat="46.495" lon="-0.52801">
        <ele>-10</ele>
        <time>2013-09-15T07:46:14Z</time>
      </trkpt>
      <trkpt lat="46.49492" lon="-0.52801">
        <ele>-10</ele>
        <time>2013-09-15T07:46:16Z</time>
      </trkpt>
      <trkpt lat="46.49481" lon="-0.52801">
        <ele>-10</ele>
        <time>2013-09-15T07:46:19Z</time>
      </trkpt>
      <trkpt lat="46.49471" lon="-0.52798">
        <ele>-10</ele>
        <time>2013-09-15T07:46:22Z</time>
      </trkpt>
      <trkpt lat="46.49461" lon="-0.52793">
        <ele>-10</ele>
        <time>2013-09-15T07:46:25Z</time>
      </trkpt>
      <trkpt lat="46.49451" lon="-0.52788">
        <ele>-10</ele>
        <time>2013-09-15T07:46:28Z</time>
      </trkpt>
      <trkpt lat="46.49443" lon="-0.52784">
        <ele>-10</ele>
        <time>2013-09-15T07:46:30Z</time>
      </trkpt>
      <trkpt lat="46.49436" lon="-0.52778">
        <ele>-10</ele>
        <time>2013-09-15T07:46:32Z</time>
      </trkpt>
      <trkpt lat="46.49429" lon="-0.52773">
        <ele>-10</ele>
        <time>2013-09-15T07:46:34Z</time>
      </trkpt>
      <trkpt lat="46.4942" lon="-0.52762">
        <ele>-11</ele>
        <time>2013-09-15T07:46:37Z</time>
      </trkpt>
      <trkpt lat="46.49415" lon="-0.52754">
        <ele>-12</ele>
        <time>2013-09-15T07:46:39Z</time>
      </trkpt>
      <trkpt lat="46.49408" lon="-0.52748">
        <ele>-12</ele>
        <time>2013-09-15T07:46:42Z</time>
      </trkpt>
      <trkpt lat="46.49403" lon="-0.52742">
        <ele>-12</ele>
        <time>2013-09-15T07:46:44Z</time>
      </trkpt>
      <trkpt lat="46.49396" lon="-0.52736">
        <ele>-11</ele>
        <time>2013-09-15T07:46:46Z</time>
      </trkpt>
      <trkpt lat="46.49386" lon="-0.52726">
        <ele>-10</ele>
        <time>2013-09-15T07:46:49Z</time>
      </trkpt>
      <trkpt lat="46.49373" lon="-0.52715">
        <ele>-10</ele>
        <time>2013-09-15T07:46:52Z</time>
      </trkpt>
      <trkpt lat="46.49365" lon="-0.52706">
        <ele>-11</ele>
        <time>2013-09-15T07:46:54Z</time>
      </trkpt>
      <trkpt lat="46.49357" lon="-0.52698">
        <ele>-11</ele>
        <time>2013-09-15T07:46:56Z</time>
      </trkpt>
      <trkpt lat="46.49344" lon="-0.52686">
        <ele>-11</ele>
        <time>2013-09-15T07:46:59Z</time>
      </trkpt>
      <trkpt lat="46.49334" lon="-0.52676">
        <ele>-11</ele>
        <time>2013-09-15T07:47:02Z</time>
      </trkpt>
      <trkpt lat="46.49324" lon="-0.52666">
        <ele>-10</ele>
        <time>2013-09-15T07:47:05Z</time>
      </trkpt>
      <trkpt lat="46.49313" lon="-0.52658">
        <ele>-10</ele>
        <time>2013-09-15T07:47:08Z</time>
      </trkpt>
      <trkpt lat="46.49303" lon="-0.5265">
        <ele>-11</ele>
        <time>2013-09-15T07:47:11Z</time>
      </trkpt>
      <trkpt lat="46.4929" lon="-0.52645">
        <ele>-11</ele>
        <time>2013-09-15T07:47:14Z</time>
      </trkpt>
      <trkpt lat="46.49275" lon="-0.52642">
        <ele>-11</ele>
        <time>2013-09-15T07:47:17Z</time>
      </trkpt>
      <trkpt lat="46.4926" lon="-0.52641">
        <ele>-11</ele>
        <time>2013-09-15T07:47:19Z</time>
      </trkpt>
      <trkpt lat="46.4925" lon="-0.52638">
        <ele>-11</ele>
        <time>2013-09-15T07:47:22Z</time>
      </trkpt>
      <trkpt lat="46.49237" lon="-0.52635">
        <ele>-10</ele>
        <time>2013-09-15T07:47:25Z</time>
      </trkpt>
      <trkpt lat="46.49232" lon="-0.52633">
        <ele>-10</ele>
        <time>2013-09-15T07:47:28Z</time>
      </trkpt>
      <trkpt lat="46.49231" lon="-0.52632">
        <ele>-10</ele>
        <time>2013-09-15T07:47:30Z</time>
      </trkpt>
      <trkpt lat="46.49229" lon="-0.5263">
        <ele>-11</ele>
        <time>2013-09-15T07:47:32Z</time>
      </trkpt>
      <trkpt lat="46.49228" lon="-0.52628">
        <ele>-11</ele>
        <time>2013-09-15T07:47:34Z</time>
      </trkpt>
      <trkpt lat="46.49224" lon="-0.52627">
        <ele>-11</ele>
        <time>2013-09-15T07:47:37Z</time>
      </trkpt>
      <trkpt lat="46.49222" lon="-0.52627">
        <ele>-11</ele>
        <time>2013-09-15T07:47:39Z</time>
      </trkpt>
      <trkpt lat="46.49218" lon="-0.52627">
        <ele>-11</ele>
        <time>2013-09-15T07:47:42Z</time>
      </trkpt>
      <trkpt lat="46.49215" lon="-0.52626">
        <ele>-11</ele>
        <time>2013-09-15T07:47:44Z</time>
      </trkpt>
      <trkpt lat="46.49208" lon="-0.52625">
        <ele>-11</ele>
        <time>2013-09-15T07:47:47Z</time>
      </trkpt>
      <trkpt lat="46.49202" lon="-0.52624">
        <ele>-10</ele>
        <time>2013-09-15T07:47:50Z</time>
      </trkpt>
      <trkpt lat="46.49197" lon="-0.52622">
        <ele>-10</ele>
        <time>2013-09-15T07:47:52Z</time>
      </trkpt>
      <trkpt lat="46.49187" lon="-0.5262">
        <ele>-10</ele>
        <time>2013-09-15T07:47:55Z</time>
      </trkpt>
      <trkpt lat="46.49181" lon="-0.5262">
        <ele>-10</ele>
        <time>2013-09-15T07:47:57Z</time>
      </trkpt>
      <trkpt lat="46.49169" lon="-0.52619">
        <ele>-10</ele>
        <time>2013-09-15T07:48:00Z</time>
      </trkpt>
      <trkpt lat="46.4916" lon="-0.52621">
        <ele>-10</ele>
        <time>2013-09-15T07:48:02Z</time>
      </trkpt>
      <trkpt lat="46.49146" lon="-0.52622">
        <ele>-10</ele>
        <time>2013-09-15T07:48:05Z</time>
      </trkpt>
      <trkpt lat="46.49133" lon="-0.52623">
        <ele>-10</ele>
        <time>2013-09-15T07:48:08Z</time>
      </trkpt>
      <trkpt lat="46.49119" lon="-0.52628">
        <ele>-9</ele>
        <time>2013-09-15T07:48:11Z</time>
      </trkpt>
      <trkpt lat="46.49105" lon="-0.52635">
        <ele>-10</ele>
        <time>2013-09-15T07:48:14Z</time>
      </trkpt>
      <trkpt lat="46.49092" lon="-0.52642">
        <ele>-10</ele>
        <time>2013-09-15T07:48:17Z</time>
      </trkpt>
      <trkpt lat="46.49081" lon="-0.52648">
        <ele>-10</ele>
        <time>2013-09-15T07:48:20Z</time>
      </trkpt>
      <trkpt lat="46.49068" lon="-0.52653">
        <ele>-10</ele>
        <time>2013-09-15T07:48:23Z</time>
      </trkpt>
      <trkpt lat="46.49055" lon="-0.52658">
        <ele>-10</ele>
        <time>2013-09-15T07:48:26Z</time>
      </trkpt>
      <trkpt lat="46.49046" lon="-0.52661">
        <ele>-10</ele>
        <time>2013-09-15T07:48:28Z</time>
      </trkpt>
      <trkpt lat="46.49039" lon="-0.52663">
        <ele>-10</ele>
        <time>2013-09-15T07:48:30Z</time>
      </trkpt>
      <trkpt lat="46.49026" lon="-0.52668">
        <ele>-10</ele>
        <time>2013-09-15T07:48:33Z</time>
      </trkpt>
      <trkpt lat="46.49015" lon="-0.52673">
        <ele>-11</ele>
        <time>2013-09-15T07:48:36Z</time>
      </trkpt>
      <trkpt lat="46.49004" lon="-0.52678">
        <ele>-11</ele>
        <time>2013-09-15T07:48:39Z</time>
      </trkpt>
      <trkpt lat="46.48991" lon="-0.52684">
        <ele>-12</ele>
        <time>2013-09-15T07:48:42Z</time>
      </trkpt>
      <trkpt lat="46.48982" lon="-0.52689">
        <ele>-12</ele>
        <time>2013-09-15T07:48:45Z</time>
      </trkpt>
      <trkpt lat="46.48982" lon="-0.52689">
        <ele>-13</ele>
        <time>2013-09-15T07:48:48Z</time>
      </trkpt>
      <trkpt lat="46.48982" lon="-0.52689">
        <ele>-13</ele>
        <time>2013-09-15T07:48:50Z</time>
      </trkpt>
      <trkpt lat="46.48982" lon="-0.52688">
        <ele>-13</ele>
        <time>2013-09-15T07:48:52Z</time>
      </trkpt>
      <trkpt lat="46.48982" lon="-0.52687">
        <ele>-13</ele>
        <time>2013-09-15T07:48:54Z</time>
      </trkpt>
      <trkpt lat="46.48984" lon="-0.52685">
        <ele>-13</ele>
        <time>2013-09-15T07:48:56Z</time>
      </trkpt>
      <trkpt lat="46.48985" lon="-0.52684">
        <ele>-13</ele>
        <time>2013-09-15T07:48:59Z</time>
      </trkpt>
      <trkpt lat="46.48985" lon="-0.52683">
        <ele>-13</ele>
        <time>2013-09-15T07:49:01Z</time>
      </trkpt>
      <trkpt lat="46.48987" lon="-0.5268">
        <ele>-14</ele>
        <time>2013-09-15T07:49:03Z</time>
      </trkpt>
      <trkpt lat="46.48987" lon="-0.52679">
        <ele>-15</ele>
        <time>2013-09-15T07:49:06Z</time>
      </trkpt>
      <trkpt lat="46.48989" lon="-0.52676">
        <ele>-16</ele>
        <time>2013-09-15T07:49:08Z</time>
      </trkpt>
      <trkpt lat="46.48991" lon="-0.52674">
        <ele>-16</ele>
        <time>2013-09-15T07:49:11Z</time>
      </trkpt>
      <trkpt lat="46.48994" lon="-0.52671">
        <ele>-15</ele>
        <time>2013-09-15T07:49:14Z</time>
      </trkpt>
      <trkpt lat="46.48997" lon="-0.52669">
        <ele>-15</ele>
        <time>2013-09-15T07:49:16Z</time>
      </trkpt>
      <trkpt lat="46.49" lon="-0.5267">
        <ele>-15</ele>
        <time>2013-09-15T07:49:19Z</time>
      </trkpt>
      <trkpt lat="46.49001" lon="-0.5267">
        <ele>-15</ele>
        <time>2013-09-15T07:49:22Z</time>
      </trkpt>
      <trkpt lat="46.49002" lon="-0.5267">
        <ele>-15</ele>
        <time>2013-09-15T07:49:24Z</time>
      </trkpt>
      <trkpt lat="46.49005" lon="-0.52669">
        <ele>-15</ele>
        <time>2013-09-15T07:49:26Z</time>
      </trkpt>
      <trkpt lat="46.49007" lon="-0.52669">
        <ele>-15</ele>
        <time>2013-09-15T07:49:29Z</time>
      </trkpt>
      <trkpt lat="46.49008" lon="-0.5267">
        <ele>-15</ele>
        <time>2013-09-15T07:49:31Z</time>
      </trkpt>
      <trkpt lat="46.49009" lon="-0.52669">
        <ele>-15</ele>
        <time>2013-09-15T07:49:34Z</time>
      </trkpt>
      <trkpt lat="46.4901" lon="-0.5267">
        <ele>-15</ele>
        <time>2013-09-15T07:49:36Z</time>
      </trkpt>
      <trkpt lat="46.49011" lon="-0.52669">
        <ele>-15</ele>
        <time>2013-09-15T07:49:38Z</time>
      </trkpt>
      <trkpt lat="46.49011" lon="-0.52669">
        <ele>-15</ele>
        <time>2013-09-15T07:49:41Z</time>
      </trkpt>
      <trkpt lat="46.49012" lon="-0.52669">
        <ele>-15</ele>
        <time>2013-09-15T07:49:43Z</time>
      </trkpt>
      <trkpt lat="46.49011" lon="-0.52669">
        <ele>-15</ele>
        <time>2013-09-15T07:49:45Z</time>
      </trkpt>
      <trkpt lat="46.49011" lon="-0.52668">
        <ele>-15</ele>
        <time>2013-09-15T07:49:47Z</time>
      </trkpt>
      <trkpt lat="46.49012" lon="-0.52668">
        <ele>-16</ele>
        <time>2013-09-15T07:49:50Z</time>
      </trkpt>
      <trkpt lat="46.49014" lon="-0.52667">
        <ele>-16</ele>
        <time>2013-09-15T07:49:53Z</time>
      </trkpt>
      <trkpt lat="46.49015" lon="-0.52665">
        <ele>-15</ele>
        <time>2013-09-15T07:49:55Z</time>
      </trkpt>
      <trkpt lat="46.49014" lon="-0.52663">
        <ele>-15</ele>
        <time>2013-09-15T07:49:58Z</time>
      </trkpt>
      <trkpt lat="46.49015" lon="-0.52661">
        <ele>-15</ele>
        <time>2013-09-15T07:50:01Z</time>
      </trkpt>
      <trkpt lat="46.49015" lon="-0.52659">
        <ele>-15</ele>
        <time>2013-09-15T07:50:03Z</time>
      </trkpt>
      <trkpt lat="46.49015" lon="-0.52657">
        <ele>-15</ele>
        <time>2013-09-15T07:50:05Z</time>
      </trkpt>
      <trkpt lat="46.49016" lon="-0.52657">
        <ele>-14</ele>
        <time>2013-09-15T07:50:08Z</time>
      </trkpt>
      <trkpt lat="46.49016" lon="-0.52656">
        <ele>-14</ele>
        <time>2013-09-15T07:50:10Z</time>
      </trkpt>
      <trkpt lat="46.49016" lon="-0.52656">
        <ele>-15</ele>
        <time>2013-09-15T07:50:13Z</time>
      </trkpt>
      <trkpt lat="46.49015" lon="-0.52656">
        <ele>-15</ele>
        <time>2013-09-15T07:50:20Z</time>
      </trkpt>
      <trkpt lat="46.49015" lon="-0.52656">
        <ele>-15</ele>
        <time>2013-09-15T07:50:22Z</time>
      </trkpt>
      <trkpt lat="46.49016" lon="-0.52655">
        <ele>-15</ele>
        <time>2013-09-15T07:50:25Z</time>
      </trkpt>
      <trkpt lat="46.49016" lon="-0.52654">
        <ele>-15</ele>
        <time>2013-09-15T07:50:27Z</time>
      </trkpt>
      <trkpt lat="46.49016" lon="-0.52653">
        <ele>-15</ele>
        <time>2013-09-15T07:50:30Z</time>
      </trkpt>
      <trkpt lat="46.49016" lon="-0.52652">
        <ele>-15</ele>
        <time>2013-09-15T07:50:33Z</time>
      </trkpt>
      <trkpt lat="46.49017" lon="-0.52651">
        <ele>-15</ele>
        <time>2013-09-15T07:50:35Z</time>
      </trkpt>
      <trkpt lat="46.49017" lon="-0.52651">
        <ele>-15</ele>
        <time>2013-09-15T07:50:38Z</time>
      </trkpt>
      <trkpt lat="46.49017" lon="-0.52649">
        <ele>-15</ele>
        <time>2013-09-15T07:50:40Z</time>
      </trkpt>
      <trkpt lat="46.49017" lon="-0.52647">
        <ele>-15</ele>
        <time>2013-09-15T07:50:43Z</time>
      </trkpt>
      <trkpt lat="46.49017" lon="-0.52644">
        <ele>-14</ele>
        <time>2013-09-15T07:50:45Z</time>
      </trkpt>
      <trkpt lat="46.49016" lon="-0.52642">
        <ele>-14</ele>
        <time>2013-09-15T07:50:49Z</time>
      </trkpt>
      <trkpt lat="46.49015" lon="-0.52642">
        <ele>-14</ele>
        <time>2013-09-15T07:50:52Z</time>
      </trkpt>
      <trkpt lat="46.49015" lon="-0.52642">
        <ele>-14</ele>
        <time>2013-09-15T07:50:54Z</time>
      </trkpt>
      <trkpt lat="46.49015" lon="-0.52642">
        <ele>-14</ele>
        <time>2013-09-15T07:50:57Z</time>
      </trkpt>
      <trkpt lat="46.49015" lon="-0.52642">
        <ele>-14</ele>
        <time>2013-09-15T07:50:59Z</time>
      </trkpt>
      <trkpt lat="46.49014" lon="-0.52642">
        <ele>-14</ele>
        <time>2013-09-15T07:51:03Z</time>
      </trkpt>
      <trkpt lat="46.49014" lon="-0.52642">
        <ele>-14</ele>
        <time>2013-09-15T07:51:05Z</time>
      </trkpt>
      <trkpt lat="46.49014" lon="-0.52641">
        <ele>-15</ele>
        <time>2013-09-15T07:51:07Z</time>
      </trkpt>
      <trkpt lat="46.49014" lon="-0.52641">
        <ele>-14</ele>
        <time>2013-09-15T07:51:10Z</time>
      </trkpt>
      <trkpt lat="46.49013" lon="-0.52641">
        <ele>-15</ele>
        <time>2013-09-15T07:51:13Z</time>
      </trkpt>
      <trkpt lat="46.49012" lon="-0.52641">
        <ele>-14</ele>
        <time>2013-09-15T07:51:15Z</time>
      </trkpt>
      <trkpt lat="46.49012" lon="-0.52641">
        <ele>-14</ele>
        <time>2013-09-15T07:51:18Z</time>
      </trkpt>
      <trkpt lat="46.49011" lon="-0.52641">
        <ele>-15</ele>
        <time>2013-09-15T07:51:20Z</time>
      </trkpt>
      <trkpt lat="46.49011" lon="-0.52641">
        <ele>-15</ele>
        <time>2013-09-15T07:51:22Z</time>
      </trkpt>
      <trkpt lat="46.4901" lon="-0.52641">
        <ele>-15</ele>
        <time>2013-09-15T07:51:24Z</time>
      </trkpt>
      <trkpt lat="46.4901" lon="-0.52641">
        <ele>-15</ele>
        <time>2013-09-15T07:51:26Z</time>
      </trkpt>
      <trkpt lat="46.49009" lon="-0.52641">
        <ele>-15</ele>
        <time>2013-09-15T07:51:29Z</time>
      </trkpt>
      <trkpt lat="46.49009" lon="-0.52641">
        <ele>-15</ele>
        <time>2013-09-15T07:51:31Z</time>
      </trkpt>
      <trkpt lat="46.49008" lon="-0.52642">
        <ele>-15</ele>
        <time>2013-09-15T07:51:34Z</time>
      </trkpt>
      <trkpt lat="46.49008" lon="-0.52642">
        <ele>-14</ele>
        <time>2013-09-15T07:51:36Z</time>
      </trkpt>
      <trkpt lat="46.49007" lon="-0.52642">
        <ele>-15</ele>
        <time>2013-09-15T07:51:38Z</time>
      </trkpt>
      <trkpt lat="46.49007" lon="-0.52642">
        <ele>-15</ele>
        <time>2013-09-15T07:51:40Z</time>
      </trkpt>
      <trkpt lat="46.49007" lon="-0.52642">
        <ele>-14</ele>
        <time>2013-09-15T07:51:43Z</time>
      </trkpt>
      <trkpt lat="46.49007" lon="-0.5264">
        <ele>-15</ele>
        <time>2013-09-15T07:51:45Z</time>
      </trkpt>
      <trkpt lat="46.49007" lon="-0.5264">
        <ele>-15</ele>
        <time>2013-09-15T07:51:49Z</time>
      </trkpt>
      <trkpt lat="46.49006" lon="-0.52639">
        <ele>-15</ele>
        <time>2013-09-15T07:51:51Z</time>
      </trkpt>
      <trkpt lat="46.49006" lon="-0.52637">
        <ele>-14</ele>
        <time>2013-09-15T07:51:53Z</time>
      </trkpt>
      <trkpt lat="46.49005" lon="-0.52636">
        <ele>-14</ele>
        <time>2013-09-15T07:51:56Z</time>
      </trkpt>
      <trkpt lat="46.49005" lon="-0.52634">
        <ele>-14</ele>
        <time>2013-09-15T07:51:59Z</time>
      </trkpt>
      <trkpt lat="46.49004" lon="-0.52632">
        <ele>-14</ele>
        <time>2013-09-15T07:52:01Z</time>
      </trkpt>
      <trkpt lat="46.49004" lon="-0.52631">
        <ele>-14</ele>
        <time>2013-09-15T07:52:04Z</time>
      </trkpt>
      <trkpt lat="46.49003" lon="-0.5263">
        <ele>-14</ele>
        <time>2013-09-15T07:52:06Z</time>
      </trkpt>
      <trkpt lat="46.49003" lon="-0.5263">
        <ele>-14</ele>
        <time>2013-09-15T07:52:09Z</time>
      </trkpt>
      <trkpt lat="46.49002" lon="-0.52629">
        <ele>-15</ele>
        <time>2013-09-15T07:52:11Z</time>
      </trkpt>
      <trkpt lat="46.49001" lon="-0.52629">
        <ele>-15</ele>
        <time>2013-09-15T07:52:14Z</time>
      </trkpt>
      <trkpt lat="46.49001" lon="-0.52629">
        <ele>-15</ele>
        <time>2013-09-15T07:52:17Z</time>
      </trkpt>
      <trkpt lat="46.49001" lon="-0.52629">
        <ele>-15</ele>
        <time>2013-09-15T07:52:20Z</time>
      </trkpt>
      <trkpt lat="46.49" lon="-0.52629">
        <ele>-15</ele>
        <time>2013-09-15T07:52:22Z</time>
      </trkpt>
      <trkpt lat="46.48999" lon="-0.52629">
        <ele>-15</ele>
        <time>2013-09-15T07:52:25Z</time>
      </trkpt>
      <trkpt lat="46.48999" lon="-0.5263">
        <ele>-15</ele>
        <time>2013-09-15T07:52:27Z</time>
      </trkpt>
      <trkpt lat="46.48998" lon="-0.5263">
        <ele>-15</ele>
        <time>2013-09-15T07:52:30Z</time>
      </trkpt>
      <trkpt lat="46.48998" lon="-0.5263">
        <ele>-15</ele>
        <time>2013-09-15T07:52:32Z</time>
      </trkpt>
      <trkpt lat="46.48997" lon="-0.5263">
        <ele>-15</ele>
        <time>2013-09-15T07:52:34Z</time>
      </trkpt>
      <trkpt lat="46.48997" lon="-0.52629">
        <ele>-15</ele>
        <time>2013-09-15T07:52:37Z</time>
      </trkpt>
      <trkpt lat="46.48996" lon="-0.52629">
        <ele>-15</ele>
        <time>2013-09-15T07:52:39Z</time>
      </trkpt>
      <trkpt lat="46.48996" lon="-0.52628">
        <ele>-15</ele>
        <time>2013-09-15T07:52:42Z</time>
      </trkpt>
      <trkpt lat="46.48996" lon="-0.52627">
        <ele>-15</ele>
        <time>2013-09-15T07:52:44Z</time>
      </trkpt>
      <trkpt lat="46.48996" lon="-0.52627">
        <ele>-15</ele>
        <time>2013-09-15T07:52:47Z</time>
      </trkpt>
      <trkpt lat="46.48997" lon="-0.52627">
        <ele>-14</ele>
        <time>2013-09-15T07:52:50Z</time>
      </trkpt>
      <trkpt lat="46.48997" lon="-0.52627">
        <ele>-15</ele>
        <time>2013-09-15T07:52:52Z</time>
      </trkpt>
      <trkpt lat="46.48998" lon="-0.52628">
        <ele>-15</ele>
        <time>2013-09-15T07:52:55Z</time>
      </trkpt>
      <trkpt lat="46.48999" lon="-0.52629">
        <ele>-15</ele>
        <time>2013-09-15T07:52:59Z</time>
      </trkpt>
      <trkpt lat="46.49" lon="-0.5263">
        <ele>-15</ele>
        <time>2013-09-15T07:53:02Z</time>
      </trkpt>
      <trkpt lat="46.49001" lon="-0.52631">
        <ele>-15</ele>
        <time>2013-09-15T07:53:04Z</time>
      </trkpt>
      <trkpt lat="46.49004" lon="-0.52633">
        <ele>-15</ele>
        <time>2013-09-15T07:53:07Z</time>
      </trkpt>
      <trkpt lat="46.49006" lon="-0.52634">
        <ele>-15</ele>
        <time>2013-09-15T07:53:10Z</time>
      </trkpt>
      <trkpt lat="46.49008" lon="-0.52635">
        <ele>-15</ele>
        <time>2013-09-15T07:53:13Z</time>
      </trkpt>
      <trkpt lat="46.49009" lon="-0.52635">
        <ele>-15</ele>
        <time>2013-09-15T07:53:16Z</time>
      </trkpt>
      <trkpt lat="46.4901" lon="-0.52636">
        <ele>-15</ele>
        <time>2013-09-15T07:53:19Z</time>
      </trkpt>
      <trkpt lat="46.49012" lon="-0.52636">
        <ele>-15</ele>
        <time>2013-09-15T07:53:21Z</time>
      </trkpt>
      <trkpt lat="46.49013" lon="-0.52637">
        <ele>-15</ele>
        <time>2013-09-15T07:53:24Z</time>
      </trkpt>
      <trkpt lat="46.49014" lon="-0.52637">
        <ele>-15</ele>
        <time>2013-09-15T07:53:26Z</time>
      </trkpt>
      <trkpt lat="46.49014" lon="-0.52637">
        <ele>-15</ele>
        <time>2013-09-15T07:53:28Z</time>
      </trkpt>
      <trkpt lat="46.49015" lon="-0.52636">
        <ele>-15</ele>
        <time>2013-09-15T07:53:31Z</time>
      </trkpt>
      <trkpt lat="46.49017" lon="-0.52635">
        <ele>-15</ele>
        <time>2013-09-15T07:53:33Z</time>
      </trkpt>
      <trkpt lat="46.49018" lon="-0.52634">
        <ele>-15</ele>
        <time>2013-09-15T07:53:36Z</time>
      </trkpt>
      <trkpt lat="46.49019" lon="-0.52631">
        <ele>-15</ele>
        <time>2013-09-15T07:53:38Z</time>
      </trkpt>
      <trkpt lat="46.49021" lon="-0.52627">
        <ele>-15</ele>
        <time>2013-09-15T07:53:40Z</time>
      </trkpt>
      <trkpt lat="46.49022" lon="-0.52624">
        <ele>-15</ele>
        <time>2013-09-15T07:53:42Z</time>
      </trkpt>
      <trkpt lat="46.49023" lon="-0.52619">
        <ele>-15</ele>
        <time>2013-09-15T07:53:45Z</time>
      </trkpt>
      <trkpt lat="46.49025" lon="-0.52614">
        <ele>-15</ele>
        <time>2013-09-15T07:53:48Z</time>
      </trkpt>
      <trkpt lat="46.49026" lon="-0.52609">
        <ele>-15</ele>
        <time>2013-09-15T07:53:51Z</time>
      </trkpt>
      <trkpt lat="46.49026" lon="-0.52606">
        <ele>-15</ele>
        <time>2013-09-15T07:53:54Z</time>
      </trkpt>
      <trkpt lat="46.49026" lon="-0.52604">
        <ele>-15</ele>
        <time>2013-09-15T07:53:57Z</time>
      </trkpt>
      <trkpt lat="46.49025" lon="-0.52598">
        <ele>-15</ele>
        <time>2013-09-15T07:54:00Z</time>
      </trkpt>
      <trkpt lat="46.49025" lon="-0.52593">
        <ele>-15</ele>
        <time>2013-09-15T07:54:02Z</time>
      </trkpt>
      <trkpt lat="46.49027" lon="-0.52587">
        <ele>-15</ele>
        <time>2013-09-15T07:54:05Z</time>
      </trkpt>
      <trkpt lat="46.49029" lon="-0.52578">
        <ele>-15</ele>
        <time>2013-09-15T07:54:07Z</time>
      </trkpt>
      <trkpt lat="46.49031" lon="-0.52571">
        <ele>-14</ele>
        <time>2013-09-15T07:54:10Z</time>
      </trkpt>
      <trkpt lat="46.49033" lon="-0.52558">
        <ele>-14</ele>
        <time>2013-09-15T07:54:12Z</time>
      </trkpt>
      <trkpt lat="46.49036" lon="-0.52549">
        <ele>-14</ele>
        <time>2013-09-15T07:54:14Z</time>
      </trkpt>
      <trkpt lat="46.49038" lon="-0.52536">
        <ele>-14</ele>
        <time>2013-09-15T07:54:18Z</time>
      </trkpt>
      <trkpt lat="46.49033" lon="-0.52527">
        <ele>-14</ele>
        <time>2013-09-15T07:54:20Z</time>
      </trkpt>
      <trkpt lat="46.49025" lon="-0.52525">
        <ele>-14</ele>
        <time>2013-09-15T07:54:24Z</time>
      </trkpt>
      <trkpt lat="46.49018" lon="-0.52526">
        <ele>-14</ele>
        <time>2013-09-15T07:54:26Z</time>
      </trkpt>
      <trkpt lat="46.4901" lon="-0.52525">
        <ele>-14</ele>
        <time>2013-09-15T07:54:28Z</time>
      </trkpt>
      <trkpt lat="46.49002" lon="-0.52524">
        <ele>-14</ele>
        <time>2013-09-15T07:54:30Z</time>
      </trkpt>
      <trkpt lat="46.48996" lon="-0.52522">
        <ele>-13</ele>
        <time>2013-09-15T07:54:32Z</time>
      </trkpt>
      <trkpt lat="46.48988" lon="-0.52522">
        <ele>-13</ele>
        <time>2013-09-15T07:54:35Z</time>
      </trkpt>
      <trkpt lat="46.48978" lon="-0.5252">
        <ele>-12</ele>
        <time>2013-09-15T07:54:37Z</time>
      </trkpt>
      <trkpt lat="46.48967" lon="-0.52521">
        <ele>-12</ele>
        <time>2013-09-15T07:54:40Z</time>
      </trkpt>
      <trkpt lat="46.48958" lon="-0.52521">
        <ele>-11</ele>
        <time>2013-09-15T07:54:42Z</time>
      </trkpt>
      <trkpt lat="46.48944" lon="-0.52522">
        <ele>-11</ele>
        <time>2013-09-15T07:54:46Z</time>
      </trkpt>
      <trkpt lat="46.48931" lon="-0.52524">
        <ele>-11</ele>
        <time>2013-09-15T07:54:49Z</time>
      </trkpt>
      <trkpt lat="46.48917" lon="-0.52525">
        <ele>-11</ele>
        <time>2013-09-15T07:54:51Z</time>
      </trkpt>
      <trkpt lat="46.48904" lon="-0.52529">
        <ele>-11</ele>
        <time>2013-09-15T07:54:54Z</time>
      </trkpt>
      <trkpt lat="46.48892" lon="-0.52538">
        <ele>-11</ele>
        <time>2013-09-15T07:54:57Z</time>
      </trkpt>
      <trkpt lat="46.48878" lon="-0.52551">
        <ele>-10</ele>
        <time>2013-09-15T07:55:00Z</time>
      </trkpt>
      <trkpt lat="46.48869" lon="-0.52558">
        <ele>-10</ele>
        <time>2013-09-15T07:55:03Z</time>
      </trkpt>
      <trkpt lat="46.48856" lon="-0.52569">
        <ele>-10</ele>
        <time>2013-09-15T07:55:05Z</time>
      </trkpt>
      <trkpt lat="46.48847" lon="-0.52577">
        <ele>-10</ele>
        <time>2013-09-15T07:55:07Z</time>
      </trkpt>
      <trkpt lat="46.48837" lon="-0.52583">
        <ele>-10</ele>
        <time>2013-09-15T07:55:09Z</time>
      </trkpt>
      <trkpt lat="46.48827" lon="-0.52589">
        <ele>-10</ele>
        <time>2013-09-15T07:55:12Z</time>
      </trkpt>
      <trkpt lat="46.48811" lon="-0.52597">
        <ele>-11</ele>
        <time>2013-09-15T07:55:15Z</time>
      </trkpt>
      <trkpt lat="46.48795" lon="-0.52605">
        <ele>-11</ele>
        <time>2013-09-15T07:55:17Z</time>
      </trkpt>
      <trkpt lat="46.4878" lon="-0.52611">
        <ele>-11</ele>
        <time>2013-09-15T07:55:20Z</time>
      </trkpt>
      <trkpt lat="46.48767" lon="-0.52617">
        <ele>-10</ele>
        <time>2013-09-15T07:55:23Z</time>
      </trkpt>
      <trkpt lat="46.48752" lon="-0.52624">
        <ele>-10</ele>
        <time>2013-09-15T07:55:26Z</time>
      </trkpt>
      <trkpt lat="46.48743" lon="-0.5263">
        <ele>-10</ele>
        <time>2013-09-15T07:55:29Z</time>
      </trkpt>
      <trkpt lat="46.48729" lon="-0.52642">
        <ele>-11</ele>
        <time>2013-09-15T07:55:31Z</time>
      </trkpt>
      <trkpt lat="46.48714" lon="-0.52652">
        <ele>-12</ele>
        <time>2013-09-15T07:55:34Z</time>
      </trkpt>
      <trkpt lat="46.48701" lon="-0.52662">
        <ele>-12</ele>
        <time>2013-09-15T07:55:37Z</time>
      </trkpt>
      <trkpt lat="46.48689" lon="-0.52669">
        <ele>-12</ele>
        <time>2013-09-15T07:55:40Z</time>
      </trkpt>
      <trkpt lat="46.4868" lon="-0.52673">
        <ele>-12</ele>
        <time>2013-09-15T07:55:43Z</time>
      </trkpt>
      <trkpt lat="46.48668" lon="-0.52677">
        <ele>-12</ele>
        <time>2013-09-15T07:55:45Z</time>
      </trkpt>
      <trkpt lat="46.4866" lon="-0.5268">
        <ele>-12</ele>
        <time>2013-09-15T07:55:47Z</time>
      </trkpt>
      <trkpt lat="46.48653" lon="-0.52681">
        <ele>-12</ele>
        <time>2013-09-15T07:55:49Z</time>
      </trkpt>
      <trkpt lat="46.48641" lon="-0.52684">
        <ele>-11</ele>
        <time>2013-09-15T07:55:52Z</time>
      </trkpt>
      <trkpt lat="46.48631" lon="-0.52689">
        <ele>-11</ele>
        <time>2013-09-15T07:55:55Z</time>
      </trkpt>
      <trkpt lat="46.48619" lon="-0.52693">
        <ele>-11</ele>
        <time>2013-09-15T07:55:59Z</time>
      </trkpt>
      <trkpt lat="46.48604" lon="-0.52693">
        <ele>-11</ele>
        <time>2013-09-15T07:56:01Z</time>
      </trkpt>
      <trkpt lat="46.48596" lon="-0.52691">
        <ele>-11</ele>
        <time>2013-09-15T07:56:03Z</time>
      </trkpt>
      <trkpt lat="46.48592" lon="-0.52689">
        <ele>-11</ele>
        <time>2013-09-15T07:56:05Z</time>
      </trkpt>
      <trkpt lat="46.48583" lon="-0.52688">
        <ele>-10</ele>
        <time>2013-09-15T07:56:08Z</time>
      </trkpt>
      <trkpt lat="46.48574" lon="-0.52697">
        <ele>-9</ele>
        <time>2013-09-15T07:56:11Z</time>
      </trkpt>
      <trkpt lat="46.48569" lon="-0.52704">
        <ele>-9</ele>
        <time>2013-09-15T07:56:14Z</time>
      </trkpt>
      <trkpt lat="46.48567" lon="-0.52712">
        <ele>-9</ele>
        <time>2013-09-15T07:56:16Z</time>
      </trkpt>
      <trkpt lat="46.48566" lon="-0.52718">
        <ele>-9</ele>
        <time>2013-09-15T07:56:18Z</time>
      </trkpt>
      <trkpt lat="46.48563" lon="-0.52728">
        <ele>-10</ele>
        <time>2013-09-15T07:56:21Z</time>
      </trkpt>
      <trkpt lat="46.48555" lon="-0.52743">
        <ele>-12</ele>
        <time>2013-09-15T07:56:24Z</time>
      </trkpt>
      <trkpt lat="46.48548" lon="-0.52756">
        <ele>-13</ele>
        <time>2013-09-15T07:56:27Z</time>
      </trkpt>
      <trkpt lat="46.48545" lon="-0.52763">
        <ele>-13</ele>
        <time>2013-09-15T07:56:30Z</time>
      </trkpt>
      <trkpt lat="46.48541" lon="-0.52772">
        <ele>-13</ele>
        <time>2013-09-15T07:56:32Z</time>
      </trkpt>
      <trkpt lat="46.48536" lon="-0.52779">
        <ele>-13</ele>
        <time>2013-09-15T07:56:34Z</time>
      </trkpt>
      <trkpt lat="46.48527" lon="-0.52784">
        <ele>-13</ele>
        <time>2013-09-15T07:56:37Z</time>
      </trkpt>
      <trkpt lat="46.48521" lon="-0.5279">
        <ele>-12</ele>
        <time>2013-09-15T07:56:40Z</time>
      </trkpt>
      <trkpt lat="46.48515" lon="-0.52793">
        <ele>-12</ele>
        <time>2013-09-15T07:56:42Z</time>
      </trkpt>
      <trkpt lat="46.48509" lon="-0.52797">
        <ele>-11</ele>
        <time>2013-09-15T07:56:44Z</time>
      </trkpt>
      <trkpt lat="46.48503" lon="-0.52801">
        <ele>-11</ele>
        <time>2013-09-15T07:56:47Z</time>
      </trkpt>
      <trkpt lat="46.48497" lon="-0.52806">
        <ele>-11</ele>
        <time>2013-09-15T07:56:49Z</time>
      </trkpt>
      <trkpt lat="46.48485" lon="-0.52814">
        <ele>-12</ele>
        <time>2013-09-15T07:56:51Z</time>
      </trkpt>
      <trkpt lat="46.48476" lon="-0.52827">
        <ele>-12</ele>
        <time>2013-09-15T07:56:54Z</time>
      </trkpt>
      <trkpt lat="46.48471" lon="-0.52837">
        <ele>-13</ele>
        <time>2013-09-15T07:56:56Z</time>
      </trkpt>
      <trkpt lat="46.48462" lon="-0.52843">
        <ele>-14</ele>
        <time>2013-09-15T07:56:59Z</time>
      </trkpt>
      <trkpt lat="46.48457" lon="-0.52847">
        <ele>-15</ele>
        <time>2013-09-15T07:57:01Z</time>
      </trkpt>
      <trkpt lat="46.48451" lon="-0.52861">
        <ele>-16</ele>
        <time>2013-09-15T07:57:04Z</time>
      </trkpt>
      <trkpt lat="46.48446" lon="-0.52869">
        <ele>-16</ele>
        <time>2013-09-15T07:57:07Z</time>
      </trkpt>
      <trkpt lat="46.48436" lon="-0.52879">
        <ele>-16</ele>
        <time>2013-09-15T07:57:09Z</time>
      </trkpt>
      <trkpt lat="46.48425" lon="-0.5289">
        <ele>-16</ele>
        <time>2013-09-15T07:57:12Z</time>
      </trkpt>
      <trkpt lat="46.48416" lon="-0.52895">
        <ele>-16</ele>
        <time>2013-09-15T07:57:15Z</time>
      </trkpt>
      <trkpt lat="46.48406" lon="-0.52896">
        <ele>-16</ele>
        <time>2013-09-15T07:57:18Z</time>
      </trkpt>
      <trkpt lat="46.48401" lon="-0.52895">
        <ele>-16</ele>
        <time>2013-09-15T07:57:21Z</time>
      </trkpt>
      <trkpt lat="46.48399" lon="-0.52895">
        <ele>-16</ele>
        <time>2013-09-15T07:57:24Z</time>
      </trkpt>
      <trkpt lat="46.48397" lon="-0.52895">
        <ele>-15</ele>
        <time>2013-09-15T07:57:26Z</time>
      </trkpt>
      <trkpt lat="46.48395" lon="-0.52896">
        <ele>-14</ele>
        <time>2013-09-15T07:57:28Z</time>
      </trkpt>
      <trkpt lat="46.48393" lon="-0.52894">
        <ele>-14</ele>
        <time>2013-09-15T07:57:31Z</time>
      </trkpt>
      <trkpt lat="46.48391" lon="-0.52893">
        <ele>-14</ele>
        <time>2013-09-15T07:57:34Z</time>
      </trkpt>
      <trkpt lat="46.48389" lon="-0.52891">
        <ele>-14</ele>
        <time>2013-09-15T07:57:37Z</time>
      </trkpt>
      <trkpt lat="46.48389" lon="-0.5289">
        <ele>-13</ele>
        <time>2013-09-15T07:57:40Z</time>
      </trkpt>
      <trkpt lat="46.48387" lon="-0.5289">
        <ele>-13</ele>
        <time>2013-09-15T07:57:42Z</time>
      </trkpt>
      <trkpt lat="46.48386" lon="-0.52888">
        <ele>-13</ele>
        <time>2013-09-15T07:57:45Z</time>
      </trkpt>
      <trkpt lat="46.48385" lon="-0.52887">
        <ele>-12</ele>
        <time>2013-09-15T07:57:47Z</time>
      </trkpt>
      <trkpt lat="46.48382" lon="-0.52883">
        <ele>-12</ele>
        <time>2013-09-15T07:57:50Z</time>
      </trkpt>
      <trkpt lat="46.48381" lon="-0.52876">
        <ele>-12</ele>
        <time>2013-09-15T07:57:53Z</time>
      </trkpt>
      <trkpt lat="46.4838" lon="-0.52869">
        <ele>-11</ele>
        <time>2013-09-15T07:57:56Z</time>
      </trkpt>
      <trkpt lat="46.4838" lon="-0.52862">
        <ele>-10</ele>
        <time>2013-09-15T07:57:59Z</time>
      </trkpt>
      <trkpt lat="46.4838" lon="-0.52855">
        <ele>-9</ele>
        <time>2013-09-15T07:58:02Z</time>
      </trkpt>
      <trkpt lat="46.48378" lon="-0.52846">
        <ele>-8</ele>
        <time>2013-09-15T07:58:05Z</time>
      </trkpt>
      <trkpt lat="46.48376" lon="-0.52839">
        <ele>-8</ele>
        <time>2013-09-15T07:58:07Z</time>
      </trkpt>
      <trkpt lat="46.48374" lon="-0.52833">
        <ele>-7</ele>
        <time>2013-09-15T07:58:10Z</time>
      </trkpt>
      <trkpt lat="46.4837" lon="-0.52822">
        <ele>-7</ele>
        <time>2013-09-15T07:58:12Z</time>
      </trkpt>
      <trkpt lat="46.48365" lon="-0.52811">
        <ele>-6</ele>
        <time>2013-09-15T07:58:15Z</time>
      </trkpt>
      <trkpt lat="46.48359" lon="-0.528">
        <ele>-6</ele>
        <time>2013-09-15T07:58:18Z</time>
      </trkpt>
      <trkpt lat="46.48354" lon="-0.5279">
        <ele>-5</ele>
        <time>2013-09-15T07:58:21Z</time>
      </trkpt>
      <trkpt lat="46.4835" lon="-0.52782">
        <ele>-5</ele>
        <time>2013-09-15T07:58:24Z</time>
      </trkpt>
      <trkpt lat="46.48348" lon="-0.52775">
        <ele>-4</ele>
        <time>2013-09-15T07:58:26Z</time>
      </trkpt>
      <trkpt lat="46.48344" lon="-0.52765">
        <ele>-4</ele>
        <time>2013-09-15T07:58:29Z</time>
      </trkpt>
      <trkpt lat="46.48338" lon="-0.52757">
        <ele>-4</ele>
        <time>2013-09-15T07:58:32Z</time>
      </trkpt>
      <trkpt lat="46.48334" lon="-0.52749">
        <ele>-3</ele>
        <time>2013-09-15T07:58:35Z</time>
      </trkpt>
      <trkpt lat="46.4833" lon="-0.52742">
        <ele>-3</ele>
        <time>2013-09-15T07:58:38Z</time>
      </trkpt>
      <trkpt lat="46.48325" lon="-0.52737">
        <ele>-2</ele>
        <time>2013-09-15T07:58:41Z</time>
      </trkpt>
      <trkpt lat="46.48322" lon="-0.52733">
        <ele>-2</ele>
        <time>2013-09-15T07:58:43Z</time>
      </trkpt>
      <trkpt lat="46.48318" lon="-0.52728">
        <ele>-1</ele>
        <time>2013-09-15T07:58:47Z</time>
      </trkpt>
      <trkpt lat="46.48313" lon="-0.52723">
        <ele>-1</ele>
        <time>2013-09-15T07:58:49Z</time>
      </trkpt>
      <trkpt lat="46.4831" lon="-0.52719">
        <ele>-1</ele>
        <time>2013-09-15T07:58:51Z</time>
      </trkpt>
      <trkpt lat="46.48304" lon="-0.52713">
        <ele>59.2</ele>
        <time>2013-09-15T07:58:54Z</time>
      </trkpt>
      <trkpt lat="46.48298" lon="-0.52709">
        <ele>60</ele>
        <time>2013-09-15T07:58:57Z</time>
      </trkpt>
      <trkpt lat="46.48291" lon="-0.52701">
        <ele>1</ele>
        <time>2013-09-15T07:59:00Z</time>
      </trkpt>
      <trkpt lat="46.48286" lon="-0.52698">
        <ele>1</ele>
        <time>2013-09-15T07:59:02Z</time>
      </trkpt>
      <trkpt lat="46.48278" lon="-0.52696">
        <ele>1</ele>
        <time>2013-09-15T07:59:05Z</time>
      </trkpt>
      <trkpt lat="46.48274" lon="-0.52694">
        <ele>61.6</ele>
        <time>2013-09-15T07:59:07Z</time>
      </trkpt>
      <trkpt lat="46.4827" lon="-0.52692">
        <ele>62.2</ele>
        <time>2013-09-15T07:59:09Z</time>
      </trkpt>
      <trkpt lat="46.48266" lon="-0.52688">
        <ele>1</ele>
        <time>2013-09-15T07:59:11Z</time>
      </trkpt>
      <trkpt lat="46.48262" lon="-0.52683">
        <ele>1</ele>
        <time>2013-09-15T07:59:14Z</time>
      </trkpt>
      <trkpt lat="46.48257" lon="-0.52678">
        <ele>2</ele>
        <time>2013-09-15T07:59:17Z</time>
      </trkpt>
      <trkpt lat="46.48256" lon="-0.52675">
        <ele>2</ele>
        <time>2013-09-15T07:59:20Z</time>
      </trkpt>
      <trkpt lat="46.48253" lon="-0.52671">
        <ele>3</ele>
        <time>2013-09-15T07:59:22Z</time>
      </trkpt>
      <trkpt lat="46.4825" lon="-0.52665">
        <ele>3</ele>
        <time>2013-09-15T07:59:24Z</time>
      </trkpt>
      <trkpt lat="46.48248" lon="-0.52661">
        <ele>3</ele>
        <time>2013-09-15T07:59:26Z</time>
      </trkpt>
      <trkpt lat="46.48245" lon="-0.52656">
        <ele>4</ele>
        <time>2013-09-15T07:59:29Z</time>
      </trkpt>
      <trkpt lat="46.48241" lon="-0.52649">
        <ele>5</ele>
        <time>2013-09-15T07:59:32Z</time>
      </trkpt>
      <trkpt lat="46.48239" lon="-0.52646">
        <ele>6</ele>
        <time>2013-09-15T07:59:34Z</time>
      </trkpt>
      <trkpt lat="46.48238" lon="-0.52643">
        <ele>6</ele>
        <time>2013-09-15T07:59:36Z</time>
      </trkpt>
      <trkpt lat="46.48235" lon="-0.52638">
        <ele>7</ele>
        <time>2013-09-15T07:59:39Z</time>
      </trkpt>
      <trkpt lat="46.48234" lon="-0.52634">
        <ele>7</ele>
        <time>2013-09-15T07:59:41Z</time>
      </trkpt>
      <trkpt lat="46.48232" lon="-0.52632">
        <ele>7</ele>
        <time>2013-09-15T07:59:44Z</time>
      </trkpt>
      <trkpt lat="46.48231" lon="-0.52628">
        <ele>8</ele>
        <time>2013-09-15T07:59:46Z</time>
      </trkpt>
      <trkpt lat="46.48229" lon="-0.52622">
        <ele>8</ele>
        <time>2013-09-15T07:59:48Z</time>
      </trkpt>
      <trkpt lat="46.48227" lon="-0.52616">
        <ele>9</ele>
        <time>2013-09-15T07:59:51Z</time>
      </trkpt>
      <trkpt lat="46.48226" lon="-0.52611">
        <ele>9</ele>
        <time>2013-09-15T07:59:53Z</time>
      </trkpt>
      <trkpt lat="46.48225" lon="-0.52606">
        <ele>9</ele>
        <time>2013-09-15T07:59:55Z</time>
      </trkpt>
      <trkpt lat="46.48222" lon="-0.52598">
        <ele>10</ele>
        <time>2013-09-15T07:59:58Z</time>
      </trkpt>
      <trkpt lat="46.48219" lon="-0.52588">
        <ele>10</ele>
        <time>2013-09-15T08:00:01Z</time>
      </trkpt>
      <trkpt lat="46.48216" lon="-0.52582">
        <ele>10</ele>
        <time>2013-09-15T08:00:03Z</time>
      </trkpt>
      <trkpt lat="46.48214" lon="-0.52575">
        <ele>11</ele>
        <time>2013-09-15T08:00:05Z</time>
      </trkpt>
      <trkpt lat="46.4821" lon="-0.52567">
        <ele>12</ele>
        <time>2013-09-15T08:00:08Z</time>
      </trkpt>
      <trkpt lat="46.48207" lon="-0.5256">
        <ele>12</ele>
        <time>2013-09-15T08:00:10Z</time>
      </trkpt>
      <trkpt lat="46.48206" lon="-0.52553">
        <ele>12</ele>
        <time>2013-09-15T08:00:12Z</time>
      </trkpt>
      <trkpt lat="46.48203" lon="-0.52543">
        <ele>12</ele>
        <time>2013-09-15T08:00:15Z</time>
      </trkpt>
      <trkpt lat="46.48201" lon="-0.52537">
        <ele>12</ele>
        <time>2013-09-15T08:00:17Z</time>
      </trkpt>
      <trkpt lat="46.48198" lon="-0.52531">
        <ele>12</ele>
        <time>2013-09-15T08:00:19Z</time>
      </trkpt>
      <trkpt lat="46.48196" lon="-0.52522">
        <ele>12</ele>
        <time>2013-09-15T08:00:22Z</time>
      </trkpt>
      <trkpt lat="46.48194" lon="-0.52516">
        <ele>12</ele>
        <time>2013-09-15T08:00:24Z</time>
      </trkpt>
      <trkpt lat="46.48193" lon="-0.52508">
        <ele>13</ele>
        <time>2013-09-15T08:00:27Z</time>
      </trkpt>
      <trkpt lat="46.48191" lon="-0.52502">
        <ele>13</ele>
        <time>2013-09-15T08:00:30Z</time>
      </trkpt>
      <trkpt lat="46.48188" lon="-0.52494">
        <ele>13</ele>
        <time>2013-09-15T08:00:32Z</time>
      </trkpt>
      <trkpt lat="46.48187" lon="-0.52488">
        <ele>13</ele>
        <time>2013-09-15T08:00:34Z</time>
      </trkpt>
      <trkpt lat="46.48185" lon="-0.52482">
        <ele>14</ele>
        <time>2013-09-15T08:00:36Z</time>
      </trkpt>
      <trkpt lat="46.48181" lon="-0.52473">
        <ele>14</ele>
        <time>2013-09-15T08:00:39Z</time>
      </trkpt>
      <trkpt lat="46.48179" lon="-0.52466">
        <ele>14</ele>
        <time>2013-09-15T08:00:41Z</time>
      </trkpt>
      <trkpt lat="46.48176" lon="-0.52458">
        <ele>15</ele>
        <time>2013-09-15T08:00:44Z</time>
      </trkpt>
      <trkpt lat="46.48173" lon="-0.52452">
        <ele>15</ele>
        <time>2013-09-15T08:00:46Z</time>
      </trkpt>
      <trkpt lat="46.48172" lon="-0.52448">
        <ele>15</ele>
        <time>2013-09-15T08:00:49Z</time>
      </trkpt>
      <trkpt lat="46.48169" lon="-0.5244">
        <ele>16</ele>
        <time>2013-09-15T08:00:51Z</time>
      </trkpt>
      <trkpt lat="46.48166" lon="-0.52431">
        <ele>16</ele>
        <time>2013-09-15T08:00:54Z</time>
      </trkpt>
      <trkpt lat="46.48163" lon="-0.52426">
        <ele>16</ele>
        <time>2013-09-15T08:00:56Z</time>
      </trkpt>
      <trkpt lat="46.48159" lon="-0.52416">
        <ele>17</ele>
        <time>2013-09-15T08:00:59Z</time>
      </trkpt>
      <trkpt lat="46.48154" lon="-0.52407">
        <ele>17</ele>
        <time>2013-09-15T08:01:02Z</time>
      </trkpt>
      <trkpt lat="46.4815" lon="-0.52397">
        <ele>17</ele>
        <time>2013-09-15T08:01:05Z</time>
      </trkpt>
      <trkpt lat="46.48146" lon="-0.52386">
        <ele>17</ele>
        <time>2013-09-15T08:01:08Z</time>
      </trkpt>
      <trkpt lat="46.48144" lon="-0.52381">
        <ele>17</ele>
        <time>2013-09-15T08:01:10Z</time>
      </trkpt>
      <trkpt lat="46.4814" lon="-0.52372">
        <ele>18</ele>
        <time>2013-09-15T08:01:13Z</time>
      </trkpt>
      <trkpt lat="46.48137" lon="-0.52363">
        <ele>19</ele>
        <time>2013-09-15T08:01:16Z</time>
      </trkpt>
      <trkpt lat="46.48133" lon="-0.52354">
        <ele>19</ele>
        <time>2013-09-15T08:01:19Z</time>
      </trkpt>
      <trkpt lat="46.48129" lon="-0.52343">
        <ele>19</ele>
        <time>2013-09-15T08:01:22Z</time>
      </trkpt>
      <trkpt lat="46.48125" lon="-0.52333">
        <ele>20</ele>
        <time>2013-09-15T08:01:25Z</time>
      </trkpt>
      <trkpt lat="46.48121" lon="-0.52322">
        <ele>20</ele>
        <time>2013-09-15T08:01:28Z</time>
      </trkpt>
      <trkpt lat="46.48118" lon="-0.5231">
        <ele>20</ele>
        <time>2013-09-15T08:01:31Z</time>
      </trkpt>
      <trkpt lat="46.48115" lon="-0.52302">
        <ele>20</ele>
        <time>2013-09-15T08:01:34Z</time>
      </trkpt>
      <trkpt lat="46.48112" lon="-0.52291">
        <ele>21</ele>
        <time>2013-09-15T08:01:36Z</time>
      </trkpt>
      <trkpt lat="46.48109" lon="-0.52281">
        <ele>21</ele>
        <time>2013-09-15T08:01:39Z</time>
      </trkpt>
      <trkpt lat="46.48105" lon="-0.52269">
        <ele>21</ele>
        <time>2013-09-15T08:01:42Z</time>
      </trkpt>
      <trkpt lat="46.48103" lon="-0.5226">
        <ele>21</ele>
        <time>2013-09-15T08:01:44Z</time>
      </trkpt>
      <trkpt lat="46.481" lon="-0.52251">
        <ele>22</ele>
        <time>2013-09-15T08:01:47Z</time>
      </trkpt>
      <trkpt lat="46.48095" lon="-0.52236">
        <ele>22</ele>
        <time>2013-09-15T08:01:49Z</time>
      </trkpt>
      <trkpt lat="46.4809" lon="-0.52222">
        <ele>22</ele>
        <time>2013-09-15T08:01:52Z</time>
      </trkpt>
      <trkpt lat="46.48087" lon="-0.52213">
        <ele>22</ele>
        <time>2013-09-15T08:01:54Z</time>
      </trkpt>
      <trkpt lat="46.48083" lon="-0.52199">
        <ele>22</ele>
        <time>2013-09-15T08:01:57Z</time>
      </trkpt>
      <trkpt lat="46.48076" lon="-0.52183">
        <ele>22</ele>
        <time>2013-09-15T08:02:00Z</time>
      </trkpt>
      <trkpt lat="46.48071" lon="-0.52173">
        <ele>22</ele>
        <time>2013-09-15T08:02:02Z</time>
      </trkpt>
      <trkpt lat="46.48067" lon="-0.52162">
        <ele>23</ele>
        <time>2013-09-15T08:02:05Z</time>
      </trkpt>
      <trkpt lat="46.48063" lon="-0.52152">
        <ele>23</ele>
        <time>2013-09-15T08:02:07Z</time>
      </trkpt>
      <trkpt lat="46.48056" lon="-0.52139">
        <ele>23</ele>
        <time>2013-09-15T08:02:09Z</time>
      </trkpt>
      <trkpt lat="46.48049" lon="-0.52127">
        <ele>24</ele>
        <time>2013-09-15T08:02:12Z</time>
      </trkpt>
      <trkpt lat="46.48042" lon="-0.52118">
        <ele>24</ele>
        <time>2013-09-15T08:02:15Z</time>
      </trkpt>
      <trkpt lat="46.48036" lon="-0.52114">
        <ele>24</ele>
        <time>2013-09-15T08:02:17Z</time>
      </trkpt>
      <trkpt lat="46.48026" lon="-0.52113">
        <ele>25</ele>
        <time>2013-09-15T08:02:20Z</time>
      </trkpt>
      <trkpt lat="46.48018" lon="-0.52112">
        <ele>25</ele>
        <time>2013-09-15T08:02:22Z</time>
      </trkpt>
      <trkpt lat="46.48011" lon="-0.52111">
        <ele>25</ele>
        <time>2013-09-15T08:02:24Z</time>
      </trkpt>
      <trkpt lat="46.48003" lon="-0.5211">
        <ele>24</ele>
        <time>2013-09-15T08:02:27Z</time>
      </trkpt>
      <trkpt lat="46.47995" lon="-0.52109">
        <ele>25</ele>
        <time>2013-09-15T08:02:29Z</time>
      </trkpt>
      <trkpt lat="46.47982" lon="-0.52109">
        <ele>25</ele>
        <time>2013-09-15T08:02:31Z</time>
      </trkpt>
      <trkpt lat="46.47969" lon="-0.52109">
        <ele>25</ele>
        <time>2013-09-15T08:02:34Z</time>
      </trkpt>
      <trkpt lat="46.47961" lon="-0.52106">
        <ele>26</ele>
        <time>2013-09-15T08:02:36Z</time>
      </trkpt>
      <trkpt lat="46.47955" lon="-0.52102">
        <ele>26</ele>
        <time>2013-09-15T08:02:38Z</time>
      </trkpt>
      <trkpt lat="46.47946" lon="-0.52097">
        <ele>26</ele>
        <time>2013-09-15T08:02:41Z</time>
      </trkpt>
      <trkpt lat="46.47939" lon="-0.5209">
        <ele>27</ele>
        <time>2013-09-15T08:02:44Z</time>
      </trkpt>
      <trkpt lat="46.47931" lon="-0.52082">
        <ele>27</ele>
        <time>2013-09-15T08:02:47Z</time>
      </trkpt>
      <trkpt lat="46.47923" lon="-0.52074">
        <ele>28</ele>
        <time>2013-09-15T08:02:50Z</time>
      </trkpt>
      <trkpt lat="46.47915" lon="-0.52067">
        <ele>28</ele>
        <time>2013-09-15T08:02:53Z</time>
      </trkpt>
      <trkpt lat="46.47909" lon="-0.52062">
        <ele>28</ele>
        <time>2013-09-15T08:02:55Z</time>
      </trkpt>
      <trkpt lat="46.47901" lon="-0.52056">
        <ele>29</ele>
        <time>2013-09-15T08:02:58Z</time>
      </trkpt>
      <trkpt lat="46.47896" lon="-0.52051">
        <ele>30</ele>
        <time>2013-09-15T08:03:00Z</time>
      </trkpt>
      <trkpt lat="46.4789" lon="-0.52046">
        <ele>30</ele>
        <time>2013-09-15T08:03:02Z</time>
      </trkpt>
      <trkpt lat="46.47882" lon="-0.52038">
        <ele>31</ele>
        <time>2013-09-15T08:03:05Z</time>
      </trkpt>
      <trkpt lat="46.47873" lon="-0.52028">
        <ele>30</ele>
        <time>2013-09-15T08:03:08Z</time>
      </trkpt>
      <trkpt lat="46.47863" lon="-0.52019">
        <ele>31</ele>
        <time>2013-09-15T08:03:11Z</time>
      </trkpt>
      <trkpt lat="46.47855" lon="-0.52009">
        <ele>31</ele>
        <time>2013-09-15T08:03:14Z</time>
      </trkpt>
      <trkpt lat="46.47845" lon="-0.51999">
        <ele>31</ele>
        <time>2013-09-15T08:03:17Z</time>
      </trkpt>
      <trkpt lat="46.47836" lon="-0.5199">
        <ele>31</ele>
        <time>2013-09-15T08:03:20Z</time>
      </trkpt>
      <trkpt lat="46.4783" lon="-0.51984">
        <ele>31</ele>
        <time>2013-09-15T08:03:22Z</time>
      </trkpt>
      <trkpt lat="46.47823" lon="-0.51978">
        <ele>30</ele>
        <time>2013-09-15T08:03:24Z</time>
      </trkpt>
      <trkpt lat="46.47812" lon="-0.51973">
        <ele>30</ele>
        <time>2013-09-15T08:03:27Z</time>
      </trkpt>
      <trkpt lat="46.47801" lon="-0.51965">
        <ele>30</ele>
        <time>2013-09-15T08:03:30Z</time>
      </trkpt>
      <trkpt lat="46.47794" lon="-0.51961">
        <ele>31</ele>
        <time>2013-09-15T08:03:32Z</time>
      </trkpt>
      <trkpt lat="46.47787" lon="-0.51957">
        <ele>31</ele>
        <time>2013-09-15T08:03:34Z</time>
      </trkpt>
      <trkpt lat="46.47781" lon="-0.51953">
        <ele>31</ele>
        <time>2013-09-15T08:03:36Z</time>
      </trkpt>
      <trkpt lat="46.47773" lon="-0.51947">
        <ele>31</ele>
        <time>2013-09-15T08:03:39Z</time>
      </trkpt>
      <trkpt lat="46.47765" lon="-0.51942">
        <ele>31</ele>
        <time>2013-09-15T08:03:42Z</time>
      </trkpt>
      <trkpt lat="46.47759" lon="-0.51937">
        <ele>31</ele>
        <time>2013-09-15T08:03:44Z</time>
      </trkpt>
      <trkpt lat="46.47752" lon="-0.51932">
        <ele>32</ele>
        <time>2013-09-15T08:03:46Z</time>
      </trkpt>
      <trkpt lat="46.47745" lon="-0.51926">
        <ele>32</ele>
        <time>2013-09-15T08:03:48Z</time>
      </trkpt>
      <trkpt lat="46.47734" lon="-0.51918">
        <ele>33</ele>
        <time>2013-09-15T08:03:51Z</time>
      </trkpt>
      <trkpt lat="46.47723" lon="-0.5191">
        <ele>33</ele>
        <time>2013-09-15T08:03:54Z</time>
      </trkpt>
      <trkpt lat="46.47713" lon="-0.51902">
        <ele>34</ele>
        <time>2013-09-15T08:03:57Z</time>
      </trkpt>
      <trkpt lat="46.47703" lon="-0.51894">
        <ele>34</ele>
        <time>2013-09-15T08:04:00Z</time>
      </trkpt>
      <trkpt lat="46.47692" lon="-0.51886">
        <ele>34</ele>
        <time>2013-09-15T08:04:03Z</time>
      </trkpt>
      <trkpt lat="46.47686" lon="-0.5188">
        <ele>34</ele>
        <time>2013-09-15T08:04:05Z</time>
      </trkpt>
      <trkpt lat="46.47678" lon="-0.51875">
        <ele>33</ele>
        <time>2013-09-15T08:04:07Z</time>
      </trkpt>
      <trkpt lat="46.47672" lon="-0.51868">
        <ele>34</ele>
        <time>2013-09-15T08:04:09Z</time>
      </trkpt>
      <trkpt lat="46.47662" lon="-0.51859">
        <ele>34</ele>
        <time>2013-09-15T08:04:12Z</time>
      </trkpt>
      <trkpt lat="46.47656" lon="-0.51852">
        <ele>34</ele>
        <time>2013-09-15T08:04:14Z</time>
      </trkpt>
      <trkpt lat="46.47646" lon="-0.51841">
        <ele>35</ele>
        <time>2013-09-15T08:04:17Z</time>
      </trkpt>
      <trkpt lat="46.47638" lon="-0.5183">
        <ele>35</ele>
        <time>2013-09-15T08:04:20Z</time>
      </trkpt>
      <trkpt lat="46.4763" lon="-0.51822">
        <ele>35</ele>
        <time>2013-09-15T08:04:23Z</time>
      </trkpt>
      <trkpt lat="46.47621" lon="-0.51816">
        <ele>36</ele>
        <time>2013-09-15T08:04:26Z</time>
      </trkpt>
      <trkpt lat="46.47617" lon="-0.51819">
        <ele>36</ele>
        <time>2013-09-15T08:04:28Z</time>
      </trkpt>
      <trkpt lat="46.47616" lon="-0.51825">
        <ele>36</ele>
        <time>2013-09-15T08:04:30Z</time>
      </trkpt>
      <trkpt lat="46.47619" lon="-0.51838">
        <ele>37</ele>
        <time>2013-09-15T08:04:33Z</time>
      </trkpt>
      <trkpt lat="46.47622" lon="-0.51852">
        <ele>37</ele>
        <time>2013-09-15T08:04:36Z</time>
      </trkpt>
      <trkpt lat="46.47625" lon="-0.51862">
        <ele>37</ele>
        <time>2013-09-15T08:04:38Z</time>
      </trkpt>
      <trkpt lat="46.47629" lon="-0.51878">
        <ele>37</ele>
        <time>2013-09-15T08:04:41Z</time>
      </trkpt>
      <trkpt lat="46.47635" lon="-0.51895">
        <ele>37</ele>
        <time>2013-09-15T08:04:44Z</time>
      </trkpt>
      <trkpt lat="46.4764" lon="-0.51913">
        <ele>37</ele>
        <time>2013-09-15T08:04:47Z</time>
      </trkpt>
      <trkpt lat="46.47646" lon="-0.51931">
        <ele>37</ele>
        <time>2013-09-15T08:04:50Z</time>
      </trkpt>
      <trkpt lat="46.47651" lon="-0.51952">
        <ele>37</ele>
        <time>2013-09-15T08:04:53Z</time>
      </trkpt>
      <trkpt lat="46.47657" lon="-0.51972">
        <ele>37</ele>
        <time>2013-09-15T08:04:56Z</time>
      </trkpt>
      <trkpt lat="46.47663" lon="-0.51992">
        <ele>37</ele>
        <time>2013-09-15T08:04:59Z</time>
      </trkpt>
      <trkpt lat="46.47667" lon="-0.52005">
        <ele>37</ele>
        <time>2013-09-15T08:05:01Z</time>
      </trkpt>
      <trkpt lat="46.47671" lon="-0.52018">
        <ele>37</ele>
        <time>2013-09-15T08:05:03Z</time>
      </trkpt>
      <trkpt lat="46.47677" lon="-0.52038">
        <ele>37</ele>
        <time>2013-09-15T08:05:06Z</time>
      </trkpt>
      <trkpt lat="46.47682" lon="-0.52051">
        <ele>38</ele>
        <time>2013-09-15T08:05:08Z</time>
      </trkpt>
      <trkpt lat="46.47686" lon="-0.52064">
        <ele>38</ele>
        <time>2013-09-15T08:05:10Z</time>
      </trkpt>
      <trkpt lat="46.47691" lon="-0.52085">
        <ele>38</ele>
        <time>2013-09-15T08:05:13Z</time>
      </trkpt>
      <trkpt lat="46.47696" lon="-0.52106">
        <ele>38</ele>
        <time>2013-09-15T08:05:16Z</time>
      </trkpt>
      <trkpt lat="46.47699" lon="-0.52128">
        <ele>39</ele>
        <time>2013-09-15T08:05:19Z</time>
      </trkpt>
      <trkpt lat="46.47703" lon="-0.5215">
        <ele>39</ele>
        <time>2013-09-15T08:05:22Z</time>
      </trkpt>
      <trkpt lat="46.47705" lon="-0.52165">
        <ele>38</ele>
        <time>2013-09-15T08:05:24Z</time>
      </trkpt>
      <trkpt lat="46.47707" lon="-0.52179">
        <ele>38</ele>
        <time>2013-09-15T08:05:26Z</time>
      </trkpt>
      <trkpt lat="46.47712" lon="-0.52201">
        <ele>37</ele>
        <time>2013-09-15T08:05:29Z</time>
      </trkpt>
      <trkpt lat="46.47717" lon="-0.52224">
        <ele>37</ele>
        <time>2013-09-15T08:05:32Z</time>
      </trkpt>
      <trkpt lat="46.4772" lon="-0.5224">
        <ele>38</ele>
        <time>2013-09-15T08:05:34Z</time>
      </trkpt>
      <trkpt lat="46.47726" lon="-0.52262">
        <ele>37</ele>
        <time>2013-09-15T08:05:37Z</time>
      </trkpt>
      <trkpt lat="46.4773" lon="-0.52276">
        <ele>37</ele>
        <time>2013-09-15T08:05:39Z</time>
      </trkpt>
      <trkpt lat="46.47734" lon="-0.52289">
        <ele>37</ele>
        <time>2013-09-15T08:05:41Z</time>
      </trkpt>
      <trkpt lat="46.4774" lon="-0.52302">
        <ele>37</ele>
        <time>2013-09-15T08:05:43Z</time>
      </trkpt>
      <trkpt lat="46.47748" lon="-0.52323">
        <ele>37</ele>
        <time>2013-09-15T08:05:46Z</time>
      </trkpt>
      <trkpt lat="46.47757" lon="-0.52341">
        <ele>37</ele>
        <time>2013-09-15T08:05:49Z</time>
      </trkpt>
      <trkpt lat="46.47766" lon="-0.52358">
        <ele>37</ele>
        <time>2013-09-15T08:05:52Z</time>
      </trkpt>
      <trkpt lat="46.47773" lon="-0.5237">
        <ele>38</ele>
        <time>2013-09-15T08:05:54Z</time>
      </trkpt>
      <trkpt lat="46.47784" lon="-0.52387">
        <ele>38</ele>
        <time>2013-09-15T08:05:57Z</time>
      </trkpt>
      <trkpt lat="46.47791" lon="-0.52397">
        <ele>38</ele>
        <time>2013-09-15T08:05:59Z</time>
      </trkpt>
      <trkpt lat="46.47803" lon="-0.5241">
        <ele>37</ele>
        <time>2013-09-15T08:06:02Z</time>
      </trkpt>
      <trkpt lat="46.4781" lon="-0.52418">
        <ele>36</ele>
        <time>2013-09-15T08:06:04Z</time>
      </trkpt>
      <trkpt lat="46.47821" lon="-0.52431">
        <ele>36</ele>
        <time>2013-09-15T08:06:07Z</time>
      </trkpt>
      <trkpt lat="46.47831" lon="-0.52446">
        <ele>35</ele>
        <time>2013-09-15T08:06:10Z</time>
      </trkpt>
      <trkpt lat="46.47843" lon="-0.5246">
        <ele>35</ele>
        <time>2013-09-15T08:06:13Z</time>
      </trkpt>
      <trkpt lat="46.4785" lon="-0.52469">
        <ele>35</ele>
        <time>2013-09-15T08:06:15Z</time>
      </trkpt>
      <trkpt lat="46.47859" lon="-0.52478">
        <ele>35</ele>
        <time>2013-09-15T08:06:17Z</time>
      </trkpt>
      <trkpt lat="46.47872" lon="-0.52492">
        <ele>34</ele>
        <time>2013-09-15T08:06:20Z</time>
      </trkpt>
      <trkpt lat="46.47887" lon="-0.52504">
        <ele>34</ele>
        <time>2013-09-15T08:06:23Z</time>
      </trkpt>
      <trkpt lat="46.47902" lon="-0.52515">
        <ele>33</ele>
        <time>2013-09-15T08:06:26Z</time>
      </trkpt>
      <trkpt lat="46.47913" lon="-0.52522">
        <ele>33</ele>
        <time>2013-09-15T08:06:28Z</time>
      </trkpt>
      <trkpt lat="46.47929" lon="-0.52533">
        <ele>33</ele>
        <time>2013-09-15T08:06:31Z</time>
      </trkpt>
      <trkpt lat="46.47946" lon="-0.52546">
        <ele>32</ele>
        <time>2013-09-15T08:06:34Z</time>
      </trkpt>
      <trkpt lat="46.47957" lon="-0.52553">
        <ele>32</ele>
        <time>2013-09-15T08:06:36Z</time>
      </trkpt>
      <trkpt lat="46.47973" lon="-0.52565">
        <ele>31</ele>
        <time>2013-09-15T08:06:39Z</time>
      </trkpt>
      <trkpt lat="46.47983" lon="-0.52572">
        <ele>31</ele>
        <time>2013-09-15T08:06:41Z</time>
      </trkpt>
      <trkpt lat="46.47999" lon="-0.52584">
        <ele>30</ele>
        <time>2013-09-15T08:06:44Z</time>
      </trkpt>
      <trkpt lat="46.48009" lon="-0.52593">
        <ele>30</ele>
        <time>2013-09-15T08:06:46Z</time>
      </trkpt>
      <trkpt lat="46.48022" lon="-0.52612">
        <ele>30</ele>
        <time>2013-09-15T08:06:49Z</time>
      </trkpt>
      <trkpt lat="46.48032" lon="-0.52633">
        <ele>30</ele>
        <time>2013-09-15T08:06:52Z</time>
      </trkpt>
      <trkpt lat="46.48043" lon="-0.52654">
        <ele>29</ele>
        <time>2013-09-15T08:06:55Z</time>
      </trkpt>
      <trkpt lat="46.48053" lon="-0.52677">
        <ele>29</ele>
        <time>2013-09-15T08:06:58Z</time>
      </trkpt>
      <trkpt lat="46.48064" lon="-0.52698">
        <ele>28</ele>
        <time>2013-09-15T08:07:01Z</time>
      </trkpt>
      <trkpt lat="46.48072" lon="-0.52711">
        <ele>28</ele>
        <time>2013-09-15T08:07:03Z</time>
      </trkpt>
      <trkpt lat="46.4808" lon="-0.52723">
        <ele>28</ele>
        <time>2013-09-15T08:07:05Z</time>
      </trkpt>
      <trkpt lat="46.48093" lon="-0.52739">
        <ele>27</ele>
        <time>2013-09-15T08:07:09Z</time>
      </trkpt>
      <trkpt lat="46.48104" lon="-0.52755">
        <ele>26</ele>
        <time>2013-09-15T08:07:11Z</time>
      </trkpt>
      <trkpt lat="46.48117" lon="-0.52772">
        <ele>25</ele>
        <time>2013-09-15T08:07:14Z</time>
      </trkpt>
      <trkpt lat="46.48123" lon="-0.52785">
        <ele>25</ele>
        <time>2013-09-15T08:07:16Z</time>
      </trkpt>
      <trkpt lat="46.48134" lon="-0.52811">
        <ele>24</ele>
        <time>2013-09-15T08:07:19Z</time>
      </trkpt>
      <trkpt lat="46.4814" lon="-0.5283">
        <ele>23</ele>
        <time>2013-09-15T08:07:21Z</time>
      </trkpt>
      <trkpt lat="46.48147" lon="-0.52852">
        <ele>20</ele>
        <time>2013-09-15T08:07:24Z</time>
      </trkpt>
      <trkpt lat="46.48147" lon="-0.52865">
        <ele>19</ele>
        <time>2013-09-15T08:07:26Z</time>
      </trkpt>
      <trkpt lat="46.48142" lon="-0.52884">
        <ele>17</ele>
        <time>2013-09-15T08:07:29Z</time>
      </trkpt>
      <trkpt lat="46.48136" lon="-0.52905">
        <ele>17</ele>
        <time>2013-09-15T08:07:32Z</time>
      </trkpt>
      <trkpt lat="46.48132" lon="-0.52919">
        <ele>17</ele>
        <time>2013-09-15T08:07:34Z</time>
      </trkpt>
      <trkpt lat="46.48123" lon="-0.52938">
        <ele>17</ele>
        <time>2013-09-15T08:07:37Z</time>
      </trkpt>
      <trkpt lat="46.48117" lon="-0.52952">
        <ele>17</ele>
        <time>2013-09-15T08:07:39Z</time>
      </trkpt>
      <trkpt lat="46.48109" lon="-0.52966">
        <ele>16</ele>
        <time>2013-09-15T08:07:41Z</time>
      </trkpt>
      <trkpt lat="46.48104" lon="-0.52978">
        <ele>16</ele>
        <time>2013-09-15T08:07:43Z</time>
      </trkpt>
      <trkpt lat="46.48093" lon="-0.52999">
        <ele>15</ele>
        <time>2013-09-15T08:07:46Z</time>
      </trkpt>
      <trkpt lat="46.4808" lon="-0.53017">
        <ele>14</ele>
        <time>2013-09-15T08:07:49Z</time>
      </trkpt>
      <trkpt lat="46.48066" lon="-0.53034">
        <ele>14</ele>
        <time>2013-09-15T08:07:52Z</time>
      </trkpt>
      <trkpt lat="46.48053" lon="-0.53054">
        <ele>12</ele>
        <time>2013-09-15T08:07:55Z</time>
      </trkpt>
      <trkpt lat="46.48039" lon="-0.53075">
        <ele>11</ele>
        <time>2013-09-15T08:07:58Z</time>
      </trkpt>
      <trkpt lat="46.48032" lon="-0.53085">
        <ele>10</ele>
        <time>2013-09-15T08:08:00Z</time>
      </trkpt>
      <trkpt lat="46.48024" lon="-0.53105">
        <ele>8</ele>
        <time>2013-09-15T08:08:03Z</time>
      </trkpt>
      <trkpt lat="46.48023" lon="-0.53122">
        <ele>6</ele>
        <time>2013-09-15T08:08:05Z</time>
      </trkpt>
      <trkpt lat="46.48024" lon="-0.5315">
        <ele>3</ele>
        <time>2013-09-15T08:08:08Z</time>
      </trkpt>
      <trkpt lat="46.48027" lon="-0.53166">
        <ele>1</ele>
        <time>2013-09-15T08:08:10Z</time>
      </trkpt>
      <trkpt lat="46.48032" lon="-0.53181">
        <ele>58.7</ele>
        <time>2013-09-15T08:08:12Z</time>
      </trkpt>
      <trkpt lat="46.48034" lon="-0.53197">
        <ele>-2</ele>
        <time>2013-09-15T08:08:14Z</time>
      </trkpt>
      <trkpt lat="46.48026" lon="-0.53218">
        <ele>-5</ele>
        <time>2013-09-15T08:08:17Z</time>
      </trkpt>
      <trkpt lat="46.48016" lon="-0.53223">
        <ele>-6</ele>
        <time>2013-09-15T08:08:19Z</time>
      </trkpt>
      <trkpt lat="46.48006" lon="-0.53234">
        <ele>-8</ele>
        <time>2013-09-15T08:08:22Z</time>
      </trkpt>
      <trkpt lat="46.48001" lon="-0.53244">
        <ele>-9</ele>
        <time>2013-09-15T08:08:24Z</time>
      </trkpt>
      <trkpt lat="46.47996" lon="-0.53256">
        <ele>-8</ele>
        <time>2013-09-15T08:08:27Z</time>
      </trkpt>
      <trkpt lat="46.47994" lon="-0.53262">
        <ele>-7</ele>
        <time>2013-09-15T08:08:29Z</time>
      </trkpt>
      <trkpt lat="46.47991" lon="-0.5327">
        <ele>-6</ele>
        <time>2013-09-15T08:08:32Z</time>
      </trkpt>
      <trkpt lat="46.47989" lon="-0.53275">
        <ele>-6</ele>
        <time>2013-09-15T08:08:34Z</time>
      </trkpt>
      <trkpt lat="46.47988" lon="-0.53279">
        <ele>-5</ele>
        <time>2013-09-15T08:08:36Z</time>
      </trkpt>
      <trkpt lat="46.47985" lon="-0.53286">
        <ele>-4</ele>
        <time>2013-09-15T08:08:39Z</time>
      </trkpt>
      <trkpt lat="46.47982" lon="-0.53292">
        <ele>-3</ele>
        <time>2013-09-15T08:08:42Z</time>
      </trkpt>
      <trkpt lat="46.4798" lon="-0.53296">
        <ele>-2</ele>
        <time>2013-09-15T08:08:44Z</time>
      </trkpt>
      <trkpt lat="46.47978" lon="-0.53301">
        <ele>-2</ele>
        <time>2013-09-15T08:08:46Z</time>
      </trkpt>
      <trkpt lat="46.47975" lon="-0.53308">
        <ele>-1</ele>
        <time>2013-09-15T08:08:49Z</time>
      </trkpt>
      <trkpt lat="46.47973" lon="-0.53313">
        <ele>-1</ele>
        <time>2013-09-15T08:08:51Z</time>
      </trkpt>
      <trkpt lat="46.47971" lon="-0.53317">
        <ele>62.3</ele>
        <time>2013-09-15T08:08:53Z</time>
      </trkpt>
      <trkpt lat="46.47968" lon="-0.53322">
        <ele>63.1</ele>
        <time>2013-09-15T08:08:56Z</time>
      </trkpt>
      <trkpt lat="46.47964" lon="-0.53326">
        <ele>1</ele>
        <time>2013-09-15T08:08:59Z</time>
      </trkpt>
      <trkpt lat="46.4796" lon="-0.5333">
        <ele>1</ele>
        <time>2013-09-15T08:09:02Z</time>
      </trkpt>
      <trkpt lat="46.47957" lon="-0.53332">
        <ele>2</ele>
        <time>2013-09-15T08:09:04Z</time>
      </trkpt>
      <trkpt lat="46.47954" lon="-0.53334">
        <ele>3</ele>
        <time>2013-09-15T08:09:07Z</time>
      </trkpt>
      <trkpt lat="46.47951" lon="-0.53336">
        <ele>3</ele>
        <time>2013-09-15T08:09:10Z</time>
      </trkpt>
      <trkpt lat="46.47948" lon="-0.53337">
        <ele>4</ele>
        <time>2013-09-15T08:09:13Z</time>
      </trkpt>
      <trkpt lat="46.47944" lon="-0.53337">
        <ele>4</ele>
        <time>2013-09-15T08:09:16Z</time>
      </trkpt>
      <trkpt lat="46.47942" lon="-0.53337">
        <ele>4</ele>
        <time>2013-09-15T08:09:18Z</time>
      </trkpt>
      <trkpt lat="46.47939" lon="-0.53336">
        <ele>5</ele>
        <time>2013-09-15T08:09:21Z</time>
      </trkpt>
      <trkpt lat="46.47937" lon="-0.53336">
        <ele>6</ele>
        <time>2013-09-15T08:09:23Z</time>
      </trkpt>
      <trkpt lat="46.47934" lon="-0.53334">
        <ele>6</ele>
        <time>2013-09-15T08:09:25Z</time>
      </trkpt>
      <trkpt lat="46.47931" lon="-0.53333">
        <ele>7</ele>
        <time>2013-09-15T08:09:28Z</time>
      </trkpt>
      <trkpt lat="46.47928" lon="-0.53332">
        <ele>8</ele>
        <time>2013-09-15T08:09:31Z</time>
      </trkpt>
      <trkpt lat="46.47926" lon="-0.53331">
        <ele>8</ele>
        <time>2013-09-15T08:09:33Z</time>
      </trkpt>
      <trkpt lat="46.47923" lon="-0.5333">
        <ele>9</ele>
        <time>2013-09-15T08:09:36Z</time>
      </trkpt>
      <trkpt lat="46.4792" lon="-0.53329">
        <ele>10</ele>
        <time>2013-09-15T08:09:38Z</time>
      </trkpt>
      <trkpt lat="46.47915" lon="-0.53328">
        <ele>10</ele>
        <time>2013-09-15T08:09:41Z</time>
      </trkpt>
      <trkpt lat="46.47911" lon="-0.53326">
        <ele>11</ele>
        <time>2013-09-15T08:09:44Z</time>
      </trkpt>
      <trkpt lat="46.47906" lon="-0.53324">
        <ele>11</ele>
        <time>2013-09-15T08:09:47Z</time>
      </trkpt>
      <trkpt lat="46.47903" lon="-0.53323">
        <ele>12</ele>
        <time>2013-09-15T08:09:49Z</time>
      </trkpt>
      <trkpt lat="46.479" lon="-0.53322">
        <ele>12</ele>
        <time>2013-09-15T08:09:51Z</time>
      </trkpt>
      <trkpt lat="46.47895" lon="-0.53321">
        <ele>13</ele>
        <time>2013-09-15T08:09:54Z</time>
      </trkpt>
      <trkpt lat="46.47892" lon="-0.5332">
        <ele>14</ele>
        <time>2013-09-15T08:09:56Z</time>
      </trkpt>
      <trkpt lat="46.47889" lon="-0.5332">
        <ele>14</ele>
        <time>2013-09-15T08:09:58Z</time>
      </trkpt>
      <trkpt lat="46.47885" lon="-0.53319">
        <ele>15</ele>
        <time>2013-09-15T08:10:00Z</time>
      </trkpt>
      <trkpt lat="46.4788" lon="-0.5332">
        <ele>16</ele>
        <time>2013-09-15T08:10:03Z</time>
      </trkpt>
      <trkpt lat="46.47877" lon="-0.53321">
        <ele>16</ele>
        <time>2013-09-15T08:10:05Z</time>
      </trkpt>
      <trkpt lat="46.47872" lon="-0.53324">
        <ele>17</ele>
        <time>2013-09-15T08:10:08Z</time>
      </trkpt>
      <trkpt lat="46.47869" lon="-0.53326">
        <ele>17</ele>
        <time>2013-09-15T08:10:10Z</time>
      </trkpt>
      <trkpt lat="46.47865" lon="-0.5333">
        <ele>18</ele>
        <time>2013-09-15T08:10:13Z</time>
      </trkpt>
      <trkpt lat="46.47863" lon="-0.53333">
        <ele>19</ele>
        <time>2013-09-15T08:10:15Z</time>
      </trkpt>
      <trkpt lat="46.4786" lon="-0.53336">
        <ele>19</ele>
        <time>2013-09-15T08:10:17Z</time>
      </trkpt>
      <trkpt lat="46.47856" lon="-0.5334">
        <ele>20</ele>
        <time>2013-09-15T08:10:20Z</time>
      </trkpt>
      <trkpt lat="46.47852" lon="-0.53344">
        <ele>20</ele>
        <time>2013-09-15T08:10:23Z</time>
      </trkpt>
      <trkpt lat="46.47848" lon="-0.5335">
        <ele>21</ele>
        <time>2013-09-15T08:10:26Z</time>
      </trkpt>
      <trkpt lat="46.47843" lon="-0.53355">
        <ele>21</ele>
        <time>2013-09-15T08:10:29Z</time>
      </trkpt>
      <trkpt lat="46.47839" lon="-0.53363">
        <ele>21</ele>
        <time>2013-09-15T08:10:32Z</time>
      </trkpt>
      <trkpt lat="46.47835" lon="-0.53369">
        <ele>22</ele>
        <time>2013-09-15T08:10:35Z</time>
      </trkpt>
      <trkpt lat="46.47829" lon="-0.53376">
        <ele>22</ele>
        <time>2013-09-15T08:10:38Z</time>
      </trkpt>
      <trkpt lat="46.47824" lon="-0.5338">
        <ele>22</ele>
        <time>2013-09-15T08:10:40Z</time>
      </trkpt>
      <trkpt lat="46.4782" lon="-0.53385">
        <ele>22</ele>
        <time>2013-09-15T08:10:42Z</time>
      </trkpt>
      <trkpt lat="46.47814" lon="-0.53391">
        <ele>23</ele>
        <time>2013-09-15T08:10:44Z</time>
      </trkpt>
      <trkpt lat="46.47806" lon="-0.53399">
        <ele>23</ele>
        <time>2013-09-15T08:10:47Z</time>
      </trkpt>
      <trkpt lat="46.47797" lon="-0.53408">
        <ele>23</ele>
        <time>2013-09-15T08:10:50Z</time>
      </trkpt>
      <trkpt lat="46.47791" lon="-0.53413">
        <ele>23</ele>
        <time>2013-09-15T08:10:52Z</time>
      </trkpt>
      <trkpt lat="46.47783" lon="-0.53422">
        <ele>23</ele>
        <time>2013-09-15T08:10:55Z</time>
      </trkpt>
      <trkpt lat="46.47783" lon="-0.53433">
        <ele>23</ele>
        <time>2013-09-15T08:10:57Z</time>
      </trkpt>
      <trkpt lat="46.47788" lon="-0.53446">
        <ele>23</ele>
        <time>2013-09-15T08:11:00Z</time>
      </trkpt>
      <trkpt lat="46.47792" lon="-0.53459">
        <ele>22</ele>
        <time>2013-09-15T08:11:03Z</time>
      </trkpt>
      <trkpt lat="46.47798" lon="-0.53472">
        <ele>22</ele>
        <time>2013-09-15T08:11:06Z</time>
      </trkpt>
      <trkpt lat="46.47802" lon="-0.53481">
        <ele>23</ele>
        <time>2013-09-15T08:11:08Z</time>
      </trkpt>
      <trkpt lat="46.47807" lon="-0.53495">
        <ele>23</ele>
        <time>2013-09-15T08:11:11Z</time>
      </trkpt>
      <trkpt lat="46.47814" lon="-0.5351">
        <ele>23</ele>
        <time>2013-09-15T08:11:14Z</time>
      </trkpt>
      <trkpt lat="46.4782" lon="-0.53525">
        <ele>23</ele>
        <time>2013-09-15T08:11:17Z</time>
      </trkpt>
      <trkpt lat="46.47826" lon="-0.53537">
        <ele>22</ele>
        <time>2013-09-15T08:11:20Z</time>
      </trkpt>
      <trkpt lat="46.47829" lon="-0.53544">
        <ele>22</ele>
        <time>2013-09-15T08:11:22Z</time>
      </trkpt>
      <trkpt lat="46.47834" lon="-0.53555">
        <ele>22</ele>
        <time>2013-09-15T08:11:25Z</time>
      </trkpt>
      <trkpt lat="46.47838" lon="-0.53565">
        <ele>22</ele>
        <time>2013-09-15T08:11:28Z</time>
      </trkpt>
      <trkpt lat="46.4784" lon="-0.53574">
        <ele>22</ele>
        <time>2013-09-15T08:11:31Z</time>
      </trkpt>
      <trkpt lat="46.47844" lon="-0.5358">
        <ele>21</ele>
        <time>2013-09-15T08:11:34Z</time>
      </trkpt>
      <trkpt lat="46.47847" lon="-0.53586">
        <ele>22</ele>
        <time>2013-09-15T08:11:37Z</time>
      </trkpt>
      <trkpt lat="46.47847" lon="-0.5359">
        <ele>21</ele>
        <time>2013-09-15T08:11:39Z</time>
      </trkpt>
      <trkpt lat="46.47849" lon="-0.53596">
        <ele>21</ele>
        <time>2013-09-15T08:11:42Z</time>
      </trkpt>
      <trkpt lat="46.47851" lon="-0.536">
        <ele>21</ele>
        <time>2013-09-15T08:11:45Z</time>
      </trkpt>
      <trkpt lat="46.47851" lon="-0.536">
        <ele>21</ele>
        <time>2013-09-15T08:11:48Z</time>
      </trkpt>
      <trkpt lat="46.47851" lon="-0.536">
        <ele>21</ele>
        <time>2013-09-15T08:11:51Z</time>
      </trkpt>
      <trkpt lat="46.47851" lon="-0.536">
        <ele>21</ele>
        <time>2013-09-15T08:11:54Z</time>
      </trkpt>
      <trkpt lat="46.47851" lon="-0.536">
        <ele>21</ele>
        <time>2013-09-15T08:11:59Z</time>
      </trkpt>
      <trkpt lat="46.4785" lon="-0.53601">
        <ele>21</ele>
        <time>2013-09-15T08:12:02Z</time>
      </trkpt>
      <trkpt lat="46.4785" lon="-0.53601">
        <ele>21</ele>
        <time>2013-09-15T08:12:04Z</time>
      </trkpt>
      <trkpt lat="46.4785" lon="-0.53601">
        <ele>21</ele>
        <time>2013-09-15T08:12:06Z</time>
      </trkpt>
      <trkpt lat="46.47851" lon="-0.53602">
        <ele>21</ele>
        <time>2013-09-15T08:12:09Z</time>
      </trkpt>
      <trkpt lat="46.47851" lon="-0.53602">
        <ele>21</ele>
        <time>2013-09-15T08:12:11Z</time>
      </trkpt>
      <trkpt lat="46.47851" lon="-0.53602">
        <ele>21</ele>
        <time>2013-09-15T08:12:13Z</time>
      </trkpt>
      <trkpt lat="46.47852" lon="-0.53602">
        <ele>22</ele>
        <time>2013-09-15T08:12:16Z</time>
      </trkpt>
      <trkpt lat="46.47852" lon="-0.53602">
        <ele>21</ele>
        <time>2013-09-15T08:12:19Z</time>
      </trkpt>
      <trkpt lat="46.47852" lon="-0.53602">
        <ele>21</ele>
        <time>2013-09-15T08:12:21Z</time>
      </trkpt>
      <trkpt lat="46.47853" lon="-0.53602">
        <ele>21</ele>
        <time>2013-09-15T08:12:23Z</time>
      </trkpt>
      <trkpt lat="46.47853" lon="-0.53602">
        <ele>21</ele>
        <time>2013-09-15T08:12:27Z</time>
      </trkpt>
      <trkpt lat="46.47854" lon="-0.53602">
        <ele>21</ele>
        <time>2013-09-15T08:12:29Z</time>
      </trkpt>
      <trkpt lat="46.47854" lon="-0.53602">
        <ele>21</ele>
        <time>2013-09-15T08:12:32Z</time>
      </trkpt>
      <trkpt lat="46.47855" lon="-0.53602">
        <ele>21</ele>
        <time>2013-09-15T08:12:35Z</time>
      </trkpt>
      <trkpt lat="46.47855" lon="-0.53602">
        <ele>21</ele>
        <time>2013-09-15T08:12:37Z</time>
      </trkpt>
      <trkpt lat="46.47855" lon="-0.53602">
        <ele>21</ele>
        <time>2013-09-15T08:12:40Z</time>
      </trkpt>
      <trkpt lat="46.47855" lon="-0.53602">
        <ele>21</ele>
        <time>2013-09-15T08:12:43Z</time>
      </trkpt>
      <trkpt lat="46.47856" lon="-0.53602">
        <ele>21</ele>
        <time>2013-09-15T08:12:47Z</time>
      </trkpt>
      <trkpt lat="46.47856" lon="-0.53602">
        <ele>21</ele>
        <time>2013-09-15T08:12:50Z</time>
      </trkpt>
      <trkpt lat="46.47856" lon="-0.53602">
        <ele>21</ele>
        <time>2013-09-15T08:12:52Z</time>
      </trkpt>
      <trkpt lat="46.47857" lon="-0.53602">
        <ele>21</ele>
        <time>2013-09-15T08:12:56Z</time>
      </trkpt>
      <trkpt lat="46.47857" lon="-0.53603">
        <ele>21</ele>
        <time>2013-09-15T08:13:00Z</time>
      </trkpt>
      <trkpt lat="46.47857" lon="-0.53603">
        <ele>21</ele>
        <time>2013-09-15T08:13:04Z</time>
      </trkpt>
      <trkpt lat="46.47857" lon="-0.53602">
        <ele>21</ele>
        <time>2013-09-15T08:13:06Z</time>
      </trkpt>
      <trkpt lat="46.47857" lon="-0.53602">
        <ele>21</ele>
        <time>2013-09-15T08:13:18Z</time>
      </trkpt>
      <trkpt lat="46.47857" lon="-0.53602">
        <ele>20</ele>
        <time>2013-09-15T08:13:22Z</time>
      </trkpt>
      <trkpt lat="46.47857" lon="-0.53602">
        <ele>20</ele>
        <time>2013-09-15T08:13:27Z</time>
      </trkpt>
      <trkpt lat="46.47857" lon="-0.53602">
        <ele>21</ele>
        <time>2013-09-15T08:13:35Z</time>
      </trkpt>
      <trkpt lat="46.47857" lon="-0.53602">
        <ele>21</ele>
        <time>2013-09-15T08:13:39Z</time>
      </trkpt>
      <trkpt lat="46.47857" lon="-0.53602">
        <ele>21</ele>
        <time>2013-09-15T08:13:47Z</time>
      </trkpt>
      <trkpt lat="46.47857" lon="-0.53602">
        <ele>21</ele>
        <time>2013-09-15T08:13:50Z</time>
      </trkpt>
      <trkpt lat="46.47857" lon="-0.53602">
        <ele>21</ele>
        <time>2013-09-15T08:13:53Z</time>
      </trkpt>
      <trkpt lat="46.47858" lon="-0.53602">
        <ele>21</ele>
        <time>2013-09-15T08:13:55Z</time>
      </trkpt>
      <trkpt lat="46.47858" lon="-0.53602">
        <ele>21</ele>
        <time>2013-09-15T08:14:00Z</time>
      </trkpt>
      <trkpt lat="46.47858" lon="-0.53603">
        <ele>21</ele>
        <time>2013-09-15T08:14:03Z</time>
      </trkpt>
      <trkpt lat="46.47858" lon="-0.53603">
        <ele>21</ele>
        <time>2013-09-15T08:14:06Z</time>
      </trkpt>
      <trkpt lat="46.47858" lon="-0.53603">
        <ele>21</ele>
        <time>2013-09-15T08:14:09Z</time>
      </trkpt>
      <trkpt lat="46.47859" lon="-0.53603">
        <ele>21</ele>
        <time>2013-09-15T08:14:12Z</time>
      </trkpt>
      <trkpt lat="46.47859" lon="-0.53604">
        <ele>21</ele>
        <time>2013-09-15T08:14:17Z</time>
      </trkpt>
      <trkpt lat="46.47859" lon="-0.53604">
        <ele>21</ele>
        <time>2013-09-15T08:14:20Z</time>
      </trkpt>
      <trkpt lat="46.47859" lon="-0.53604">
        <ele>21</ele>
        <time>2013-09-15T08:14:22Z</time>
      </trkpt>
      <trkpt lat="46.47859" lon="-0.53604">
        <ele>21</ele>
        <time>2013-09-15T08:14:25Z</time>
      </trkpt>
      <trkpt lat="46.47859" lon="-0.53604">
        <ele>21</ele>
        <time>2013-09-15T08:14:29Z</time>
      </trkpt>
      <trkpt lat="46.47859" lon="-0.53604">
        <ele>21</ele>
        <time>2013-09-15T08:14:37Z</time>
      </trkpt>
      <trkpt lat="46.47859" lon="-0.53604">
        <ele>21</ele>
        <time>2013-09-15T08:14:42Z</time>
      </trkpt>
      <trkpt lat="46.47859" lon="-0.53604">
        <ele>21</ele>
        <time>2013-09-15T08:14:45Z</time>
      </trkpt>
      <trkpt lat="46.47859" lon="-0.53604">
        <ele>21</ele>
        <time>2013-09-15T08:14:49Z</time>
      </trkpt>
      <trkpt lat="46.47858" lon="-0.53604">
        <ele>21</ele>
        <time>2013-09-15T08:14:52Z</time>
      </trkpt>
      <trkpt lat="46.47858" lon="-0.53604">
        <ele>21</ele>
        <time>2013-09-15T08:14:57Z</time>
      </trkpt>
      <trkpt lat="46.47858" lon="-0.53604">
        <ele>21</ele>
        <time>2013-09-15T08:15:00Z</time>
      </trkpt>
      <trkpt lat="46.47858" lon="-0.53604">
        <ele>21</ele>
        <time>2013-09-15T08:15:04Z</time>
      </trkpt>
      <trkpt lat="46.47858" lon="-0.53604">
        <ele>21</ele>
        <time>2013-09-15T08:15:08Z</time>
      </trkpt>
      <trkpt lat="46.47858" lon="-0.53604">
        <ele>21</ele>
        <time>2013-09-15T08:15:11Z</time>
      </trkpt>
      <trkpt lat="46.47858" lon="-0.53604">
        <ele>20</ele>
        <time>2013-09-15T08:15:18Z</time>
      </trkpt>
      <trkpt lat="46.47858" lon="-0.53604">
        <ele>21</ele>
        <time>2013-09-15T08:15:21Z</time>
      </trkpt>
      <trkpt lat="46.47858" lon="-0.53604">
        <ele>21</ele>
        <time>2013-09-15T08:15:26Z</time>
      </trkpt>
      <trkpt lat="46.47857" lon="-0.53604">
        <ele>20</ele>
        <time>2013-09-15T08:15:33Z</time>
      </trkpt>
      <trkpt lat="46.47857" lon="-0.53604">
        <ele>20</ele>
        <time>2013-09-15T08:15:36Z</time>
      </trkpt>
      <trkpt lat="46.47858" lon="-0.53604">
        <ele>20</ele>
        <time>2013-09-15T08:15:40Z</time>
      </trkpt>
      <trkpt lat="46.47858" lon="-0.53605">
        <ele>21</ele>
        <time>2013-09-15T08:15:46Z</time>
      </trkpt>
      <trkpt lat="46.47858" lon="-0.53605">
        <ele>21</ele>
        <time>2013-09-15T08:15:49Z</time>
      </trkpt>
      <trkpt lat="46.47858" lon="-0.53605">
        <ele>21</ele>
        <time>2013-09-15T08:15:58Z</time>
      </trkpt>
      <trkpt lat="46.47858" lon="-0.53605">
        <ele>21</ele>
        <time>2013-09-15T08:16:00Z</time>
      </trkpt>
      <trkpt lat="46.47858" lon="-0.53605">
        <ele>21</ele>
        <time>2013-09-15T08:16:06Z</time>
      </trkpt>
      <trkpt lat="46.47857" lon="-0.53605">
        <ele>21</ele>
        <time>2013-09-15T08:16:10Z</time>
      </trkpt>
      <trkpt lat="46.47857" lon="-0.53605">
        <ele>21</ele>
        <time>2013-09-15T08:16:14Z</time>
      </trkpt>
      <trkpt lat="46.47857" lon="-0.53605">
        <ele>21</ele>
        <time>2013-09-15T08:16:17Z</time>
      </trkpt>
      <trkpt lat="46.47857" lon="-0.53604">
        <ele>20</ele>
        <time>2013-09-15T08:16:23Z</time>
      </trkpt>
      <trkpt lat="46.47857" lon="-0.53605">
        <ele>21</ele>
        <time>2013-09-15T08:16:29Z</time>
      </trkpt>
      <trkpt lat="46.47857" lon="-0.53605">
        <ele>21</ele>
        <time>2013-09-15T08:16:35Z</time>
      </trkpt>
      <trkpt lat="46.47857" lon="-0.53605">
        <ele>21</ele>
        <time>2013-09-15T08:16:38Z</time>
      </trkpt>
      <trkpt lat="46.47857" lon="-0.53605">
        <ele>21</ele>
        <time>2013-09-15T08:16:40Z</time>
      </trkpt>
      <trkpt lat="46.47858" lon="-0.53605">
        <ele>21</ele>
        <time>2013-09-15T08:16:44Z</time>
      </trkpt>
      <trkpt lat="46.47858" lon="-0.53605">
        <ele>21</ele>
        <time>2013-09-15T08:16:46Z</time>
      </trkpt>
      <trkpt lat="46.47858" lon="-0.53605">
        <ele>21</ele>
        <time>2013-09-15T08:16:49Z</time>
      </trkpt>
      <trkpt lat="46.47858" lon="-0.53605">
        <ele>21</ele>
        <time>2013-09-15T08:16:51Z</time>
      </trkpt>
      <trkpt lat="46.47858" lon="-0.53605">
        <ele>21</ele>
        <time>2013-09-15T08:16:53Z</time>
      </trkpt>
      <trkpt lat="46.47858" lon="-0.53605">
        <ele>21</ele>
        <time>2013-09-15T08:16:58Z</time>
      </trkpt>
      <trkpt lat="46.47859" lon="-0.53605">
        <ele>21</ele>
        <time>2013-09-15T08:17:01Z</time>
      </trkpt>
      <trkpt lat="46.47859" lon="-0.53605">
        <ele>21</ele>
        <time>2013-09-15T08:17:04Z</time>
      </trkpt>
      <trkpt lat="46.47859" lon="-0.53605">
        <ele>21</ele>
        <time>2013-09-15T08:17:06Z</time>
      </trkpt>
      <trkpt lat="46.47858" lon="-0.53605">
        <ele>21</ele>
        <time>2013-09-15T08:17:08Z</time>
      </trkpt>
      <trkpt lat="46.47858" lon="-0.53605">
        <ele>21</ele>
        <time>2013-09-15T08:17:11Z</time>
      </trkpt>
      <trkpt lat="46.47858" lon="-0.53604">
        <ele>21</ele>
        <time>2013-09-15T08:17:14Z</time>
      </trkpt>
      <trkpt lat="46.47857" lon="-0.53604">
        <ele>21</ele>
        <time>2013-09-15T08:17:16Z</time>
      </trkpt>
      <trkpt lat="46.47857" lon="-0.53604">
        <ele>21</ele>
        <time>2013-09-15T08:17:18Z</time>
      </trkpt>
      <trkpt lat="46.47856" lon="-0.53603">
        <ele>21</ele>
        <time>2013-09-15T08:17:21Z</time>
      </trkpt>
      <trkpt lat="46.47857" lon="-0.53604">
        <ele>21</ele>
        <time>2013-09-15T08:17:23Z</time>
      </trkpt>
      <trkpt lat="46.47858" lon="-0.53606">
        <ele>22</ele>
        <time>2013-09-15T08:17:26Z</time>
      </trkpt>
      <trkpt lat="46.4786" lon="-0.53609">
        <ele>22</ele>
        <time>2013-09-15T08:17:28Z</time>
      </trkpt>
      <trkpt lat="46.47862" lon="-0.53616">
        <ele>21</ele>
        <time>2013-09-15T08:17:31Z</time>
      </trkpt>
      <trkpt lat="46.47864" lon="-0.53623">
        <ele>21</ele>
        <time>2013-09-15T08:17:34Z</time>
      </trkpt>
      <trkpt lat="46.47867" lon="-0.53629">
        <ele>21</ele>
        <time>2013-09-15T08:17:36Z</time>
      </trkpt>
      <trkpt lat="46.4787" lon="-0.5364">
        <ele>21</ele>
        <time>2013-09-15T08:17:39Z</time>
      </trkpt>
      <trkpt lat="46.4787" lon="-0.53649">
        <ele>21</ele>
        <time>2013-09-15T08:17:41Z</time>
      </trkpt>
      <trkpt lat="46.47871" lon="-0.53658">
        <ele>21</ele>
        <time>2013-09-15T08:17:43Z</time>
      </trkpt>
      <trkpt lat="46.47873" lon="-0.53669">
        <ele>21</ele>
        <time>2013-09-15T08:17:45Z</time>
      </trkpt>
      <trkpt lat="46.47874" lon="-0.53681">
        <ele>21</ele>
        <time>2013-09-15T08:17:47Z</time>
      </trkpt>
      <trkpt lat="46.47875" lon="-0.53692">
        <ele>21</ele>
        <time>2013-09-15T08:17:49Z</time>
      </trkpt>
      <trkpt lat="46.47876" lon="-0.53712">
        <ele>20</ele>
        <time>2013-09-15T08:17:52Z</time>
      </trkpt>
      <trkpt lat="46.47877" lon="-0.53726">
        <ele>19</ele>
        <time>2013-09-15T08:17:54Z</time>
      </trkpt>
      <trkpt lat="46.47878" lon="-0.5374">
        <ele>19</ele>
        <time>2013-09-15T08:17:56Z</time>
      </trkpt>
      <trkpt lat="46.4788" lon="-0.53755">
        <ele>17</ele>
        <time>2013-09-15T08:17:58Z</time>
      </trkpt>
      <trkpt lat="46.47881" lon="-0.53771">
        <ele>17</ele>
        <time>2013-09-15T08:18:00Z</time>
      </trkpt>
      <trkpt lat="46.47882" lon="-0.53786">
        <ele>15</ele>
        <time>2013-09-15T08:18:02Z</time>
      </trkpt>
      <trkpt lat="46.47882" lon="-0.53797">
        <ele>14</ele>
        <time>2013-09-15T08:18:04Z</time>
      </trkpt>
      <trkpt lat="46.47881" lon="-0.53816">
        <ele>13</ele>
        <time>2013-09-15T08:18:07Z</time>
      </trkpt>
      <trkpt lat="46.47881" lon="-0.5383">
        <ele>12</ele>
        <time>2013-09-15T08:18:09Z</time>
      </trkpt>
      <trkpt lat="46.4788" lon="-0.53846">
        <ele>10</ele>
        <time>2013-09-15T08:18:11Z</time>
      </trkpt>
      <trkpt lat="46.4788" lon="-0.53868">
        <ele>9</ele>
        <time>2013-09-15T08:18:14Z</time>
      </trkpt>
      <trkpt lat="46.4788" lon="-0.53885">
        <ele>7</ele>
        <time>2013-09-15T08:18:16Z</time>
      </trkpt>
      <trkpt lat="46.47881" lon="-0.53908">
        <ele>6</ele>
        <time>2013-09-15T08:18:19Z</time>
      </trkpt>
      <trkpt lat="46.47881" lon="-0.53923">
        <ele>4</ele>
        <time>2013-09-15T08:18:21Z</time>
      </trkpt>
      <trkpt lat="46.47882" lon="-0.53947">
        <ele>3</ele>
        <time>2013-09-15T08:18:24Z</time>
      </trkpt>
      <trkpt lat="46.47882" lon="-0.53959">
        <ele>1</ele>
        <time>2013-09-15T08:18:26Z</time>
      </trkpt>
      <trkpt lat="46.47881" lon="-0.53971">
        <ele>60.2</ele>
        <time>2013-09-15T08:18:28Z</time>
      </trkpt>
      <trkpt lat="46.47878" lon="-0.53986">
        <ele>-1</ele>
        <time>2013-09-15T08:18:30Z</time>
      </trkpt>
      <trkpt lat="46.47872" lon="-0.54014">
        <ele>-3</ele>
        <time>2013-09-15T08:18:33Z</time>
      </trkpt>
      <trkpt lat="46.47866" lon="-0.54031">
        <ele>-3</ele>
        <time>2013-09-15T08:18:35Z</time>
      </trkpt>
      <trkpt lat="46.47854" lon="-0.54056">
        <ele>-5</ele>
        <time>2013-09-15T08:18:38Z</time>
      </trkpt>
      <trkpt lat="46.47846" lon="-0.5407">
        <ele>-6</ele>
        <time>2013-09-15T08:18:40Z</time>
      </trkpt>
      <trkpt lat="46.47839" lon="-0.54097">
        <ele>-8</ele>
        <time>2013-09-15T08:18:43Z</time>
      </trkpt>
      <trkpt lat="46.47834" lon="-0.54118">
        <ele>-10</ele>
        <time>2013-09-15T08:18:45Z</time>
      </trkpt>
      <trkpt lat="46.47829" lon="-0.54137">
        <ele>-11</ele>
        <time>2013-09-15T08:18:47Z</time>
      </trkpt>
      <trkpt lat="46.47822" lon="-0.54154">
        <ele>-13</ele>
        <time>2013-09-15T08:18:49Z</time>
      </trkpt>
      <trkpt lat="46.47812" lon="-0.54177">
        <ele>-13</ele>
        <time>2013-09-15T08:18:52Z</time>
      </trkpt>
      <trkpt lat="46.47806" lon="-0.54187">
        <ele>-15</ele>
        <time>2013-09-15T08:18:54Z</time>
      </trkpt>
      <trkpt lat="46.47802" lon="-0.54191">
        <ele>-15</ele>
        <time>2013-09-15T08:18:56Z</time>
      </trkpt>
      <trkpt lat="46.47798" lon="-0.54197">
        <ele>-16</ele>
        <time>2013-09-15T08:18:58Z</time>
      </trkpt>
      <trkpt lat="46.47794" lon="-0.54205">
        <ele>-17</ele>
        <time>2013-09-15T08:19:00Z</time>
      </trkpt>
      <trkpt lat="46.47793" lon="-0.54213">
        <ele>-18</ele>
        <time>2013-09-15T08:19:02Z</time>
      </trkpt>
      <trkpt lat="46.47791" lon="-0.54225">
        <ele>-19</ele>
        <time>2013-09-15T08:19:05Z</time>
      </trkpt>
      <trkpt lat="46.47789" lon="-0.54229">
        <ele>-20</ele>
        <time>2013-09-15T08:19:07Z</time>
      </trkpt>
      <trkpt lat="46.47787" lon="-0.54234">
        <ele>-21</ele>
        <time>2013-09-15T08:19:10Z</time>
      </trkpt>
      <trkpt lat="46.47786" lon="-0.54238">
        <ele>-21</ele>
        <time>2013-09-15T08:19:12Z</time>
      </trkpt>
      <trkpt lat="46.47784" lon="-0.54241">
        <ele>-21</ele>
        <time>2013-09-15T08:19:14Z</time>
      </trkpt>
      <trkpt lat="46.47782" lon="-0.54244">
        <ele>-21</ele>
        <time>2013-09-15T08:19:17Z</time>
      </trkpt>
      <trkpt lat="46.47783" lon="-0.54247">
        <ele>-20</ele>
        <time>2013-09-15T08:19:19Z</time>
      </trkpt>
      <trkpt lat="46.47783" lon="-0.54248">
        <ele>-20</ele>
        <time>2013-09-15T08:19:21Z</time>
      </trkpt>
      <trkpt lat="46.47783" lon="-0.54249">
        <ele>-19</ele>
        <time>2013-09-15T08:19:23Z</time>
      </trkpt>
      <trkpt lat="46.47782" lon="-0.54252">
        <ele>-19</ele>
        <time>2013-09-15T08:19:26Z</time>
      </trkpt>
      <trkpt lat="46.47781" lon="-0.54254">
        <ele>-19</ele>
        <time>2013-09-15T08:19:28Z</time>
      </trkpt>
      <trkpt lat="46.47781" lon="-0.54258">
        <ele>-19</ele>
        <time>2013-09-15T08:19:31Z</time>
      </trkpt>
      <trkpt lat="46.47781" lon="-0.54261">
        <ele>-19</ele>
        <time>2013-09-15T08:19:34Z</time>
      </trkpt>
      <trkpt lat="46.47781" lon="-0.54263">
        <ele>-19</ele>
        <time>2013-09-15T08:19:36Z</time>
      </trkpt>
      <trkpt lat="46.47781" lon="-0.54266">
        <ele>-19</ele>
        <time>2013-09-15T08:19:39Z</time>
      </trkpt>
      <trkpt lat="46.47781" lon="-0.54269">
        <ele>-19</ele>
        <time>2013-09-15T08:19:42Z</time>
      </trkpt>
      <trkpt lat="46.47779" lon="-0.54271">
        <ele>-19</ele>
        <time>2013-09-15T08:19:45Z</time>
      </trkpt>
      <trkpt lat="46.47779" lon="-0.54273">
        <ele>-20</ele>
        <time>2013-09-15T08:19:47Z</time>
      </trkpt>
      <trkpt lat="46.47779" lon="-0.54275">
        <ele>-20</ele>
        <time>2013-09-15T08:19:49Z</time>
      </trkpt>
      <trkpt lat="46.4778" lon="-0.54278">
        <ele>-21</ele>
        <time>2013-09-15T08:19:52Z</time>
      </trkpt>
      <trkpt lat="46.47781" lon="-0.54279">
        <ele>-21</ele>
        <time>2013-09-15T08:19:54Z</time>
      </trkpt>
      <trkpt lat="46.47782" lon="-0.54279">
        <ele>-21</ele>
        <time>2013-09-15T08:19:56Z</time>
      </trkpt>
      <trkpt lat="46.47782" lon="-0.5428">
        <ele>-21</ele>
        <time>2013-09-15T08:19:58Z</time>
      </trkpt>
      <trkpt lat="46.47782" lon="-0.5428">
        <ele>-21</ele>
        <time>2013-09-15T08:20:01Z</time>
      </trkpt>
      <trkpt lat="46.47782" lon="-0.5428">
        <ele>-21</ele>
        <time>2013-09-15T08:20:03Z</time>
      </trkpt>
      <trkpt lat="46.47781" lon="-0.5428">
        <ele>-21</ele>
        <time>2013-09-15T08:20:05Z</time>
      </trkpt>
      <trkpt lat="46.47781" lon="-0.54281">
        <ele>-21</ele>
        <time>2013-09-15T08:20:08Z</time>
      </trkpt>
      <trkpt lat="46.47781" lon="-0.54282">
        <ele>-21</ele>
        <time>2013-09-15T08:20:11Z</time>
      </trkpt>
      <trkpt lat="46.47781" lon="-0.54283">
        <ele>-22</ele>
        <time>2013-09-15T08:20:14Z</time>
      </trkpt>
      <trkpt lat="46.4778" lon="-0.54283">
        <ele>-21</ele>
        <time>2013-09-15T08:20:16Z</time>
      </trkpt>
      <trkpt lat="46.47779" lon="-0.54283">
        <ele>-21</ele>
        <time>2013-09-15T08:20:18Z</time>
      </trkpt>
      <trkpt lat="46.47779" lon="-0.54284">
        <ele>-21</ele>
        <time>2013-09-15T08:20:21Z</time>
      </trkpt>
      <trkpt lat="46.47779" lon="-0.54285">
        <ele>-21</ele>
        <time>2013-09-15T08:20:23Z</time>
      </trkpt>
      <trkpt lat="46.47779" lon="-0.54285">
        <ele>-21</ele>
        <time>2013-09-15T08:20:25Z</time>
      </trkpt>
      <trkpt lat="46.47778" lon="-0.54286">
        <ele>-21</ele>
        <time>2013-09-15T08:20:28Z</time>
      </trkpt>
      <trkpt lat="46.47779" lon="-0.54286">
        <ele>-22</ele>
        <time>2013-09-15T08:20:31Z</time>
      </trkpt>
      <trkpt lat="46.47779" lon="-0.54286">
        <ele>-22</ele>
        <time>2013-09-15T08:20:33Z</time>
      </trkpt>
      <trkpt lat="46.4778" lon="-0.54287">
        <ele>-22</ele>
        <time>2013-09-15T08:20:36Z</time>
      </trkpt>
      <trkpt lat="46.4778" lon="-0.54287">
        <ele>-22</ele>
        <time>2013-09-15T08:20:39Z</time>
      </trkpt>
      <trkpt lat="46.47781" lon="-0.54287">
        <ele>-22</ele>
        <time>2013-09-15T08:20:41Z</time>
      </trkpt>
      <trkpt lat="46.47781" lon="-0.54287">
        <ele>-22</ele>
        <time>2013-09-15T08:20:44Z</time>
      </trkpt>
      <trkpt lat="46.47781" lon="-0.54288">
        <ele>-22</ele>
        <time>2013-09-15T08:20:47Z</time>
      </trkpt>
      <trkpt lat="46.47782" lon="-0.54288">
        <ele>-22</ele>
        <time>2013-09-15T08:20:50Z</time>
      </trkpt>
      <trkpt lat="46.47782" lon="-0.54288">
        <ele>-22</ele>
        <time>2013-09-15T08:20:55Z</time>
      </trkpt>
      <trkpt lat="46.47782" lon="-0.54288">
        <ele>-22</ele>
        <time>2013-09-15T08:20:57Z</time>
      </trkpt>
      <trkpt lat="46.47783" lon="-0.54289">
        <ele>-22</ele>
        <time>2013-09-15T08:21:00Z</time>
      </trkpt>
      <trkpt lat="46.47783" lon="-0.54291">
        <ele>-21</ele>
        <time>2013-09-15T08:21:03Z</time>
      </trkpt>
      <trkpt lat="46.47783" lon="-0.54292">
        <ele>-21</ele>
        <time>2013-09-15T08:21:06Z</time>
      </trkpt>
      <trkpt lat="46.47784" lon="-0.54296">
        <ele>-21</ele>
        <time>2013-09-15T08:21:08Z</time>
      </trkpt>
      <trkpt lat="46.47783" lon="-0.54306">
        <ele>-21</ele>
        <time>2013-09-15T08:21:11Z</time>
      </trkpt>
      <trkpt lat="46.47779" lon="-0.54316">
        <ele>-20</ele>
        <time>2013-09-15T08:21:14Z</time>
      </trkpt>
      <trkpt lat="46.47778" lon="-0.54324">
        <ele>-20</ele>
        <time>2013-09-15T08:21:16Z</time>
      </trkpt>
      <trkpt lat="46.4778" lon="-0.54334">
        <ele>-20</ele>
        <time>2013-09-15T08:21:18Z</time>
      </trkpt>
      <trkpt lat="46.47783" lon="-0.54345">
        <ele>-19</ele>
        <time>2013-09-15T08:21:20Z</time>
      </trkpt>
      <trkpt lat="46.47787" lon="-0.54363">
        <ele>-20</ele>
        <time>2013-09-15T08:21:23Z</time>
      </trkpt>
      <trkpt lat="46.47791" lon="-0.54381">
        <ele>-20</ele>
        <time>2013-09-15T08:21:26Z</time>
      </trkpt>
      <trkpt lat="46.47794" lon="-0.54391">
        <ele>-20</ele>
        <time>2013-09-15T08:21:28Z</time>
      </trkpt>
      <trkpt lat="46.47797" lon="-0.54403">
        <ele>-20</ele>
        <time>2013-09-15T08:21:30Z</time>
      </trkpt>
      <trkpt lat="46.47803" lon="-0.54414">
        <ele>-20</ele>
        <time>2013-09-15T08:21:32Z</time>
      </trkpt>
      <trkpt lat="46.4781" lon="-0.54423">
        <ele>-20</ele>
        <time>2013-09-15T08:21:34Z</time>
      </trkpt>
      <trkpt lat="46.47815" lon="-0.54431">
        <ele>-19</ele>
        <time>2013-09-15T08:21:36Z</time>
      </trkpt>
      <trkpt lat="46.47826" lon="-0.54444">
        <ele>-19</ele>
        <time>2013-09-15T08:21:39Z</time>
      </trkpt>
      <trkpt lat="46.47832" lon="-0.54453">
        <ele>-19</ele>
        <time>2013-09-15T08:21:41Z</time>
      </trkpt>
      <trkpt lat="46.47838" lon="-0.54461">
        <ele>-19</ele>
        <time>2013-09-15T08:21:43Z</time>
      </trkpt>
      <trkpt lat="46.47847" lon="-0.54471">
        <ele>-20</ele>
        <time>2013-09-15T08:21:46Z</time>
      </trkpt>
      <trkpt lat="46.4785" lon="-0.54481">
        <ele>-20</ele>
        <time>2013-09-15T08:21:49Z</time>
      </trkpt>
      <trkpt lat="46.47848" lon="-0.54485">
        <ele>-20</ele>
        <time>2013-09-15T08:21:51Z</time>
      </trkpt>
      <trkpt lat="46.47846" lon="-0.54487">
        <ele>-20</ele>
        <time>2013-09-15T08:21:53Z</time>
      </trkpt>
      <trkpt lat="46.47842" lon="-0.5449">
        <ele>-20</ele>
        <time>2013-09-15T08:21:55Z</time>
      </trkpt>
      <trkpt lat="46.47836" lon="-0.54492">
        <ele>-20</ele>
        <time>2013-09-15T08:21:57Z</time>
      </trkpt>
      <trkpt lat="46.47828" lon="-0.54497">
        <ele>-20</ele>
        <time>2013-09-15T08:22:00Z</time>
      </trkpt>
      <trkpt lat="46.47823" lon="-0.54499">
        <ele>-20</ele>
        <time>2013-09-15T08:22:02Z</time>
      </trkpt>
      <trkpt lat="46.47815" lon="-0.54502">
        <ele>-20</ele>
        <time>2013-09-15T08:22:05Z</time>
      </trkpt>
      <trkpt lat="46.47808" lon="-0.54505">
        <ele>-20</ele>
        <time>2013-09-15T08:22:08Z</time>
      </trkpt>
      <trkpt lat="46.47802" lon="-0.54506">
        <ele>-21</ele>
        <time>2013-09-15T08:22:10Z</time>
      </trkpt>
      <trkpt lat="46.47791" lon="-0.54509">
        <ele>-21</ele>
        <time>2013-09-15T08:22:13Z</time>
      </trkpt>
      <trkpt lat="46.47782" lon="-0.54511">
        <ele>-21</ele>
        <time>2013-09-15T08:22:15Z</time>
      </trkpt>
      <trkpt lat="46.47774" lon="-0.54514">
        <ele>-20</ele>
        <time>2013-09-15T08:22:17Z</time>
      </trkpt>
      <trkpt lat="46.47762" lon="-0.54517">
        <ele>-20</ele>
        <time>2013-09-15T08:22:20Z</time>
      </trkpt>
      <trkpt lat="46.47749" lon="-0.5452">
        <ele>-21</ele>
        <time>2013-09-15T08:22:23Z</time>
      </trkpt>
      <trkpt lat="46.47738" lon="-0.54524">
        <ele>-20</ele>
        <time>2013-09-15T08:22:26Z</time>
      </trkpt>
      <trkpt lat="46.47734" lon="-0.54532">
        <ele>-20</ele>
        <time>2013-09-15T08:22:28Z</time>
      </trkpt>
      <trkpt lat="46.4773" lon="-0.54547">
        <ele>-20</ele>
        <time>2013-09-15T08:22:31Z</time>
      </trkpt>
      <trkpt lat="46.47726" lon="-0.54562">
        <ele>-21</ele>
        <time>2013-09-15T08:22:34Z</time>
      </trkpt>
      <trkpt lat="46.47724" lon="-0.54571">
        <ele>-21</ele>
        <time>2013-09-15T08:22:36Z</time>
      </trkpt>
      <trkpt lat="46.47722" lon="-0.54577">
        <ele>-21</ele>
        <time>2013-09-15T08:22:38Z</time>
      </trkpt>
      <trkpt lat="46.4772" lon="-0.54582">
        <ele>-21</ele>
        <time>2013-09-15T08:22:40Z</time>
      </trkpt>
      <trkpt lat="46.47717" lon="-0.54593">
        <ele>-21</ele>
        <time>2013-09-15T08:22:43Z</time>
      </trkpt>
      <trkpt lat="46.47714" lon="-0.54607">
        <ele>-21</ele>
        <time>2013-09-15T08:22:46Z</time>
      </trkpt>
      <trkpt lat="46.47713" lon="-0.54617">
        <ele>-20</ele>
        <time>2013-09-15T08:22:48Z</time>
      </trkpt>
      <trkpt lat="46.47713" lon="-0.5463">
        <ele>-20</ele>
        <time>2013-09-15T08:22:51Z</time>
      </trkpt>
      <trkpt lat="46.47713" lon="-0.54637">
        <ele>-20</ele>
        <time>2013-09-15T08:22:53Z</time>
      </trkpt>
      <trkpt lat="46.47712" lon="-0.54647">
        <ele>-19</ele>
        <time>2013-09-15T08:22:56Z</time>
      </trkpt>
      <trkpt lat="46.47712" lon="-0.54657">
        <ele>-19</ele>
        <time>2013-09-15T08:22:59Z</time>
      </trkpt>
      <trkpt lat="46.47712" lon="-0.54661">
        <ele>-18</ele>
        <time>2013-09-15T08:23:01Z</time>
      </trkpt>
      <trkpt lat="46.47712" lon="-0.54665">
        <ele>-18</ele>
        <time>2013-09-15T08:23:03Z</time>
      </trkpt>
      <trkpt lat="46.47711" lon="-0.54671">
        <ele>-17</ele>
        <time>2013-09-15T08:23:06Z</time>
      </trkpt>
      <trkpt lat="46.4771" lon="-0.54675">
        <ele>-17</ele>
        <time>2013-09-15T08:23:08Z</time>
      </trkpt>
      <trkpt lat="46.47707" lon="-0.54679">
        <ele>-17</ele>
        <time>2013-09-15T08:23:11Z</time>
      </trkpt>
      <trkpt lat="46.47703" lon="-0.54682">
        <ele>-16</ele>
        <time>2013-09-15T08:23:14Z</time>
      </trkpt>
      <trkpt lat="46.47701" lon="-0.54684">
        <ele>-15</ele>
        <time>2013-09-15T08:23:16Z</time>
      </trkpt>
      <trkpt lat="46.47697" lon="-0.54688">
        <ele>-15</ele>
        <time>2013-09-15T08:23:19Z</time>
      </trkpt>
      <trkpt lat="46.47695" lon="-0.5469">
        <ele>-14</ele>
        <time>2013-09-15T08:23:21Z</time>
      </trkpt>
      <trkpt lat="46.47694" lon="-0.54691">
        <ele>-13</ele>
        <time>2013-09-15T08:23:23Z</time>
      </trkpt>
      <trkpt lat="46.47692" lon="-0.54694">
        <ele>-12</ele>
        <time>2013-09-15T08:23:25Z</time>
      </trkpt>
      <trkpt lat="46.47688" lon="-0.54698">
        <ele>-12</ele>
        <time>2013-09-15T08:23:28Z</time>
      </trkpt>
      <trkpt lat="46.47686" lon="-0.547">
        <ele>-12</ele>
        <time>2013-09-15T08:23:30Z</time>
      </trkpt>
      <trkpt lat="46.47684" lon="-0.54703">
        <ele>-12</ele>
        <time>2013-09-15T08:23:32Z</time>
      </trkpt>
      <trkpt lat="46.47681" lon="-0.54707">
        <ele>-11</ele>
        <time>2013-09-15T08:23:35Z</time>
      </trkpt>
      <trkpt lat="46.4768" lon="-0.54709">
        <ele>-10</ele>
        <time>2013-09-15T08:23:37Z</time>
      </trkpt>
      <trkpt lat="46.47678" lon="-0.54711">
        <ele>-10</ele>
        <time>2013-09-15T08:23:39Z</time>
      </trkpt>
      <trkpt lat="46.47676" lon="-0.54714">
        <ele>-9</ele>
        <time>2013-09-15T08:23:42Z</time>
      </trkpt>
      <trkpt lat="46.47675" lon="-0.54716">
        <ele>-9</ele>
        <time>2013-09-15T08:23:45Z</time>
      </trkpt>
      <trkpt lat="46.47674" lon="-0.54719">
        <ele>-9</ele>
        <time>2013-09-15T08:23:48Z</time>
      </trkpt>
      <trkpt lat="46.47673" lon="-0.54722">
        <ele>-8</ele>
        <time>2013-09-15T08:23:50Z</time>
      </trkpt>
      <trkpt lat="46.47672" lon="-0.54726">
        <ele>-7</ele>
        <time>2013-09-15T08:23:53Z</time>
      </trkpt>
      <trkpt lat="46.4767" lon="-0.54733">
        <ele>-7</ele>
        <time>2013-09-15T08:23:56Z</time>
      </trkpt>
      <trkpt lat="46.47667" lon="-0.54739">
        <ele>-6</ele>
        <time>2013-09-15T08:23:59Z</time>
      </trkpt>
      <trkpt lat="46.47666" lon="-0.54743">
        <ele>-6</ele>
        <time>2013-09-15T08:24:01Z</time>
      </trkpt>
      <trkpt lat="46.47663" lon="-0.5475">
        <ele>-5</ele>
        <time>2013-09-15T08:24:04Z</time>
      </trkpt>
      <trkpt lat="46.47662" lon="-0.54757">
        <ele>-4</ele>
        <time>2013-09-15T08:24:07Z</time>
      </trkpt>
      <trkpt lat="46.47662" lon="-0.54763">
        <ele>-4</ele>
        <time>2013-09-15T08:24:09Z</time>
      </trkpt>
      <trkpt lat="46.47664" lon="-0.54772">
        <ele>-3</ele>
        <time>2013-09-15T08:24:12Z</time>
      </trkpt>
      <trkpt lat="46.47668" lon="-0.5478">
        <ele>-3</ele>
        <time>2013-09-15T08:24:15Z</time>
      </trkpt>
      <trkpt lat="46.47671" lon="-0.54788">
        <ele>-2</ele>
        <time>2013-09-15T08:24:18Z</time>
      </trkpt>
      <trkpt lat="46.47673" lon="-0.54794">
        <ele>-2</ele>
        <time>2013-09-15T08:24:20Z</time>
      </trkpt>
      <trkpt lat="46.47677" lon="-0.54803">
        <ele>-2</ele>
        <time>2013-09-15T08:24:23Z</time>
      </trkpt>
      <trkpt lat="46.47679" lon="-0.54809">
        <ele>-2</ele>
        <time>2013-09-15T08:24:25Z</time>
      </trkpt>
      <trkpt lat="46.47681" lon="-0.54814">
        <ele>-1</ele>
        <time>2013-09-15T08:24:27Z</time>
      </trkpt>
      <trkpt lat="46.47684" lon="-0.5482">
        <ele>-1</ele>
        <time>2013-09-15T08:24:29Z</time>
      </trkpt>
      <trkpt lat="46.47686" lon="-0.54826">
        <ele>-1</ele>
        <time>2013-09-15T08:24:31Z</time>
      </trkpt>
      <trkpt lat="46.47689" lon="-0.54831">
        <ele>62.7</ele>
        <time>2013-09-15T08:24:33Z</time>
      </trkpt>
      <trkpt lat="46.47691" lon="-0.54838">
        <ele>63.1</ele>
        <time>2013-09-15T08:24:35Z</time>
      </trkpt>
      <trkpt lat="46.47693" lon="-0.54843">
        <ele>63.3</ele>
        <time>2013-09-15T08:24:37Z</time>
      </trkpt>
      <trkpt lat="46.47696" lon="-0.54849">
        <ele>63.6</ele>
        <time>2013-09-15T08:24:39Z</time>
      </trkpt>
      <trkpt lat="46.47699" lon="-0.54858">
        <ele>63.9</ele>
        <time>2013-09-15T08:24:42Z</time>
      </trkpt>
      <trkpt lat="46.47701" lon="-0.54864">
        <ele>64.2</ele>
        <time>2013-09-15T08:24:44Z</time>
      </trkpt>
      <trkpt lat="46.47703" lon="-0.54869">
        <ele>1</ele>
        <time>2013-09-15T08:24:46Z</time>
      </trkpt>
      <trkpt lat="46.47705" lon="-0.54875">
        <ele>1</ele>
        <time>2013-09-15T08:24:48Z</time>
      </trkpt>
      <trkpt lat="46.47706" lon="-0.54882">
        <ele>1</ele>
        <time>2013-09-15T08:24:50Z</time>
      </trkpt>
      <trkpt lat="46.47707" lon="-0.54888">
        <ele>2</ele>
        <time>2013-09-15T08:24:52Z</time>
      </trkpt>
      <trkpt lat="46.47708" lon="-0.54895">
        <ele>2</ele>
        <time>2013-09-15T08:24:54Z</time>
      </trkpt>
      <trkpt lat="46.47707" lon="-0.54902">
        <ele>2</ele>
        <time>2013-09-15T08:24:56Z</time>
      </trkpt>
      <trkpt lat="46.47706" lon="-0.54912">
        <ele>2</ele>
        <time>2013-09-15T08:24:59Z</time>
      </trkpt>
      <trkpt lat="46.47704" lon="-0.54923">
        <ele>3</ele>
        <time>2013-09-15T08:25:02Z</time>
      </trkpt>
      <trkpt lat="46.47702" lon="-0.54932">
        <ele>3</ele>
        <time>2013-09-15T08:25:04Z</time>
      </trkpt>
      <trkpt lat="46.477" lon="-0.54944">
        <ele>4</ele>
        <time>2013-09-15T08:25:07Z</time>
      </trkpt>
      <trkpt lat="46.47699" lon="-0.54953">
        <ele>4</ele>
        <time>2013-09-15T08:25:09Z</time>
      </trkpt>
      <trkpt lat="46.47698" lon="-0.54967">
        <ele>5</ele>
        <time>2013-09-15T08:25:12Z</time>
      </trkpt>
      <trkpt lat="46.47699" lon="-0.54978">
        <ele>5</ele>
        <time>2013-09-15T08:25:14Z</time>
      </trkpt>
      <trkpt lat="46.47701" lon="-0.54988">
        <ele>5</ele>
        <time>2013-09-15T08:25:16Z</time>
      </trkpt>
      <trkpt lat="46.47703" lon="-0.54999">
        <ele>6</ele>
        <time>2013-09-15T08:25:18Z</time>
      </trkpt>
      <trkpt lat="46.47705" lon="-0.5501">
        <ele>6</ele>
        <time>2013-09-15T08:25:20Z</time>
      </trkpt>
      <trkpt lat="46.4771" lon="-0.55027">
        <ele>6</ele>
        <time>2013-09-15T08:25:23Z</time>
      </trkpt>
      <trkpt lat="46.47712" lon="-0.55037">
        <ele>6</ele>
        <time>2013-09-15T08:25:25Z</time>
      </trkpt>
      <trkpt lat="46.47717" lon="-0.55054">
        <ele>6</ele>
        <time>2013-09-15T08:25:28Z</time>
      </trkpt>
      <trkpt lat="46.47721" lon="-0.55064">
        <ele>6</ele>
        <time>2013-09-15T08:25:30Z</time>
      </trkpt>
      <trkpt lat="46.47724" lon="-0.55076">
        <ele>6</ele>
        <time>2013-09-15T08:25:32Z</time>
      </trkpt>
      <trkpt lat="46.47728" lon="-0.55088">
        <ele>6</ele>
        <time>2013-09-15T08:25:34Z</time>
      </trkpt>
      <trkpt lat="46.47731" lon="-0.55099">
        <ele>6</ele>
        <time>2013-09-15T08:25:36Z</time>
      </trkpt>
      <trkpt lat="46.47735" lon="-0.55111">
        <ele>6</ele>
        <time>2013-09-15T08:25:38Z</time>
      </trkpt>
      <trkpt lat="46.47735" lon="-0.5512">
        <ele>6</ele>
        <time>2013-09-15T08:25:40Z</time>
      </trkpt>
      <trkpt lat="46.47739" lon="-0.55138">
        <ele>6</ele>
        <time>2013-09-15T08:25:43Z</time>
      </trkpt>
      <trkpt lat="46.47744" lon="-0.55148">
        <ele>6</ele>
        <time>2013-09-15T08:25:45Z</time>
      </trkpt>
      <trkpt lat="46.4775" lon="-0.55159">
        <ele>6</ele>
        <time>2013-09-15T08:25:47Z</time>
      </trkpt>
      <trkpt lat="46.47756" lon="-0.5517">
        <ele>6</ele>
        <time>2013-09-15T08:25:49Z</time>
      </trkpt>
      <trkpt lat="46.47764" lon="-0.55189">
        <ele>6</ele>
        <time>2013-09-15T08:25:52Z</time>
      </trkpt>
      <trkpt lat="46.4777" lon="-0.55202">
        <ele>6</ele>
        <time>2013-09-15T08:25:54Z</time>
      </trkpt>
      <trkpt lat="46.47778" lon="-0.5522">
        <ele>6</ele>
        <time>2013-09-15T08:25:57Z</time>
      </trkpt>
      <trkpt lat="46.47786" lon="-0.55238">
        <ele>6</ele>
        <time>2013-09-15T08:26:00Z</time>
      </trkpt>
      <trkpt lat="46.47795" lon="-0.55255">
        <ele>7</ele>
        <time>2013-09-15T08:26:03Z</time>
      </trkpt>
      <trkpt lat="46.47801" lon="-0.55267">
        <ele>7</ele>
        <time>2013-09-15T08:26:05Z</time>
      </trkpt>
      <trkpt lat="46.4781" lon="-0.55285">
        <ele>7</ele>
        <time>2013-09-15T08:26:08Z</time>
      </trkpt>
      <trkpt lat="46.47816" lon="-0.55297">
        <ele>7</ele>
        <time>2013-09-15T08:26:10Z</time>
      </trkpt>
      <trkpt lat="46.47825" lon="-0.55315">
        <ele>7</ele>
        <time>2013-09-15T08:26:13Z</time>
      </trkpt>
      <trkpt lat="46.47834" lon="-0.55334">
        <ele>7</ele>
        <time>2013-09-15T08:26:16Z</time>
      </trkpt>
      <trkpt lat="46.47842" lon="-0.55352">
        <ele>7</ele>
        <time>2013-09-15T08:26:19Z</time>
      </trkpt>
      <trkpt lat="46.47848" lon="-0.5537">
        <ele>8</ele>
        <time>2013-09-15T08:26:22Z</time>
      </trkpt>
      <trkpt lat="46.47854" lon="-0.55386">
        <ele>8</ele>
        <time>2013-09-15T08:26:25Z</time>
      </trkpt>
      <trkpt lat="46.4786" lon="-0.55402">
        <ele>8</ele>
        <time>2013-09-15T08:26:28Z</time>
      </trkpt>
      <trkpt lat="46.47859" lon="-0.55415">
        <ele>8</ele>
        <time>2013-09-15T08:26:31Z</time>
      </trkpt>
      <trkpt lat="46.47857" lon="-0.55432">
        <ele>8</ele>
        <time>2013-09-15T08:26:34Z</time>
      </trkpt>
      <trkpt lat="46.47858" lon="-0.55446">
        <ele>8</ele>
        <time>2013-09-15T08:26:36Z</time>
      </trkpt>
      <trkpt lat="46.47858" lon="-0.5547">
        <ele>8</ele>
        <time>2013-09-15T08:26:39Z</time>
      </trkpt>
      <trkpt lat="46.47858" lon="-0.55485">
        <ele>8</ele>
        <time>2013-09-15T08:26:41Z</time>
      </trkpt>
      <trkpt lat="46.4786" lon="-0.55501">
        <ele>7</ele>
        <time>2013-09-15T08:26:43Z</time>
      </trkpt>
      <trkpt lat="46.47862" lon="-0.55526">
        <ele>7</ele>
        <time>2013-09-15T08:26:46Z</time>
      </trkpt>
      <trkpt lat="46.47865" lon="-0.55545">
        <ele>7</ele>
        <time>2013-09-15T08:26:48Z</time>
      </trkpt>
      <trkpt lat="46.47867" lon="-0.55576">
        <ele>5</ele>
        <time>2013-09-15T08:26:51Z</time>
      </trkpt>
      <trkpt lat="46.47866" lon="-0.55597">
        <ele>4</ele>
        <time>2013-09-15T08:26:53Z</time>
      </trkpt>
      <trkpt lat="46.47863" lon="-0.55629">
        <ele>2</ele>
        <time>2013-09-15T08:26:56Z</time>
      </trkpt>
      <trkpt lat="46.47855" lon="-0.55663">
        <ele>58.3</ele>
        <time>2013-09-15T08:26:59Z</time>
      </trkpt>
      <trkpt lat="46.47849" lon="-0.55686">
        <ele>-1</ele>
        <time>2013-09-15T08:27:01Z</time>
      </trkpt>
      <trkpt lat="46.47842" lon="-0.55722">
        <ele>-3</ele>
        <time>2013-09-15T08:27:04Z</time>
      </trkpt>
      <trkpt lat="46.47839" lon="-0.55747">
        <ele>-3</ele>
        <time>2013-09-15T08:27:06Z</time>
      </trkpt>
      <trkpt lat="46.47843" lon="-0.5578">
        <ele>-5</ele>
        <time>2013-09-15T08:27:09Z</time>
      </trkpt>
      <trkpt lat="46.47848" lon="-0.55799">
        <ele>-6</ele>
        <time>2013-09-15T08:27:11Z</time>
      </trkpt>
      <trkpt lat="46.47854" lon="-0.55823">
        <ele>-7</ele>
        <time>2013-09-15T08:27:14Z</time>
      </trkpt>
      <trkpt lat="46.4786" lon="-0.55844">
        <ele>-6</ele>
        <time>2013-09-15T08:27:17Z</time>
      </trkpt>
      <trkpt lat="46.47863" lon="-0.55856">
        <ele>-6</ele>
        <time>2013-09-15T08:27:19Z</time>
      </trkpt>
      <trkpt lat="46.47866" lon="-0.5587">
        <ele>-5</ele>
        <time>2013-09-15T08:27:22Z</time>
      </trkpt>
      <trkpt lat="46.47868" lon="-0.55879">
        <ele>-4</ele>
        <time>2013-09-15T08:27:24Z</time>
      </trkpt>
      <trkpt lat="46.4787" lon="-0.55891">
        <ele>-2</ele>
        <time>2013-09-15T08:27:27Z</time>
      </trkpt>
      <trkpt lat="46.47871" lon="-0.55899">
        <ele>-2</ele>
        <time>2013-09-15T08:27:29Z</time>
      </trkpt>
      <trkpt lat="46.47873" lon="-0.55907">
        <ele>-1</ele>
        <time>2013-09-15T08:27:31Z</time>
      </trkpt>
      <trkpt lat="46.47875" lon="-0.55918">
        <ele>-1</ele>
        <time>2013-09-15T08:27:34Z</time>
      </trkpt>
      <trkpt lat="46.47878" lon="-0.55924">
        <ele>64.2</ele>
        <time>2013-09-15T08:27:36Z</time>
      </trkpt>
      <trkpt lat="46.47879" lon="-0.55936">
        <ele>65</ele>
        <time>2013-09-15T08:27:39Z</time>
      </trkpt>
      <trkpt lat="46.47881" lon="-0.55946">
        <ele>65.9</ele>
        <time>2013-09-15T08:27:42Z</time>
      </trkpt>
      <trkpt lat="46.47882" lon="-0.55953">
        <ele>1</ele>
        <time>2013-09-15T08:27:44Z</time>
      </trkpt>
      <trkpt lat="46.47883" lon="-0.55963">
        <ele>2</ele>
        <time>2013-09-15T08:27:47Z</time>
      </trkpt>
      <trkpt lat="46.47885" lon="-0.55972">
        <ele>3</ele>
        <time>2013-09-15T08:27:50Z</time>
      </trkpt>
      <trkpt lat="46.47886" lon="-0.55978">
        <ele>4</ele>
        <time>2013-09-15T08:27:52Z</time>
      </trkpt>
      <trkpt lat="46.47888" lon="-0.55987">
        <ele>4</ele>
        <time>2013-09-15T08:27:55Z</time>
      </trkpt>
      <trkpt lat="46.4789" lon="-0.55997">
        <ele>4</ele>
        <time>2013-09-15T08:27:58Z</time>
      </trkpt>
      <trkpt lat="46.47892" lon="-0.56006">
        <ele>5</ele>
        <time>2013-09-15T08:28:01Z</time>
      </trkpt>
      <trkpt lat="46.47894" lon="-0.56013">
        <ele>5</ele>
        <time>2013-09-15T08:28:03Z</time>
      </trkpt>
      <trkpt lat="46.47895" lon="-0.56019">
        <ele>5</ele>
        <time>2013-09-15T08:28:05Z</time>
      </trkpt>
      <trkpt lat="46.47897" lon="-0.56029">
        <ele>6</ele>
        <time>2013-09-15T08:28:08Z</time>
      </trkpt>
      <trkpt lat="46.47899" lon="-0.56039">
        <ele>7</ele>
        <time>2013-09-15T08:28:11Z</time>
      </trkpt>
      <trkpt lat="46.47902" lon="-0.56049">
        <ele>7</ele>
        <time>2013-09-15T08:28:14Z</time>
      </trkpt>
      <trkpt lat="46.47904" lon="-0.56058">
        <ele>8</ele>
        <time>2013-09-15T08:28:17Z</time>
      </trkpt>
      <trkpt lat="46.47905" lon="-0.56065">
        <ele>9</ele>
        <time>2013-09-15T08:28:19Z</time>
      </trkpt>
      <trkpt lat="46.47907" lon="-0.56072">
        <ele>9</ele>
        <time>2013-09-15T08:28:21Z</time>
      </trkpt>
      <trkpt lat="46.47909" lon="-0.56082">
        <ele>9</ele>
        <time>2013-09-15T08:28:24Z</time>
      </trkpt>
      <trkpt lat="46.47911" lon="-0.56089">
        <ele>9</ele>
        <time>2013-09-15T08:28:26Z</time>
      </trkpt>
      <trkpt lat="46.47913" lon="-0.56098">
        <ele>10</ele>
        <time>2013-09-15T08:28:29Z</time>
      </trkpt>
      <trkpt lat="46.47915" lon="-0.56106">
        <ele>10</ele>
        <time>2013-09-15T08:28:32Z</time>
      </trkpt>
      <trkpt lat="46.47916" lon="-0.56112">
        <ele>11</ele>
        <time>2013-09-15T08:28:34Z</time>
      </trkpt>
      <trkpt lat="46.47918" lon="-0.56121">
        <ele>11</ele>
        <time>2013-09-15T08:28:37Z</time>
      </trkpt>
      <trkpt lat="46.47919" lon="-0.56128">
        <ele>11</ele>
        <time>2013-09-15T08:28:39Z</time>
      </trkpt>
      <trkpt lat="46.47921" lon="-0.56138">
        <ele>12</ele>
        <time>2013-09-15T08:28:42Z</time>
      </trkpt>
      <trkpt lat="46.47923" lon="-0.56144">
        <ele>13</ele>
        <time>2013-09-15T08:28:44Z</time>
      </trkpt>
      <trkpt lat="46.47925" lon="-0.56153">
        <ele>14</ele>
        <time>2013-09-15T08:28:47Z</time>
      </trkpt>
      <trkpt lat="46.47926" lon="-0.56159">
        <ele>14</ele>
        <time>2013-09-15T08:28:49Z</time>
      </trkpt>
      <trkpt lat="46.47929" lon="-0.56169">
        <ele>14</ele>
        <time>2013-09-15T08:28:52Z</time>
      </trkpt>
      <trkpt lat="46.47931" lon="-0.56176">
        <ele>15</ele>
        <time>2013-09-15T08:28:54Z</time>
      </trkpt>
      <trkpt lat="46.47933" lon="-0.56186">
        <ele>15</ele>
        <time>2013-09-15T08:28:57Z</time>
      </trkpt>
      <trkpt lat="46.47934" lon="-0.56193">
        <ele>16</ele>
        <time>2013-09-15T08:28:59Z</time>
      </trkpt>
      <trkpt lat="46.47936" lon="-0.56204">
        <ele>16</ele>
        <time>2013-09-15T08:29:02Z</time>
      </trkpt>
      <trkpt lat="46.47939" lon="-0.56217">
        <ele>16</ele>
        <time>2013-09-15T08:29:05Z</time>
      </trkpt>
      <trkpt lat="46.47941" lon="-0.56232">
        <ele>17</ele>
        <time>2013-09-15T08:29:08Z</time>
      </trkpt>
      <trkpt lat="46.47943" lon="-0.56242">
        <ele>17</ele>
        <time>2013-09-15T08:29:10Z</time>
      </trkpt>
      <trkpt lat="46.47946" lon="-0.56251">
        <ele>18</ele>
        <time>2013-09-15T08:29:12Z</time>
      </trkpt>
      <trkpt lat="46.47948" lon="-0.56261">
        <ele>18</ele>
        <time>2013-09-15T08:29:14Z</time>
      </trkpt>
      <trkpt lat="46.4795" lon="-0.56275">
        <ele>18</ele>
        <time>2013-09-15T08:29:17Z</time>
      </trkpt>
      <trkpt lat="46.47952" lon="-0.56292">
        <ele>18</ele>
        <time>2013-09-15T08:29:20Z</time>
      </trkpt>
      <trkpt lat="46.47954" lon="-0.56304">
        <ele>19</ele>
        <time>2013-09-15T08:29:22Z</time>
      </trkpt>
      <trkpt lat="46.47958" lon="-0.56322">
        <ele>19</ele>
        <time>2013-09-15T08:29:25Z</time>
      </trkpt>
      <trkpt lat="46.4796" lon="-0.56336">
        <ele>19</ele>
        <time>2013-09-15T08:29:27Z</time>
      </trkpt>
      <trkpt lat="46.47964" lon="-0.56354">
        <ele>18</ele>
        <time>2013-09-15T08:29:30Z</time>
      </trkpt>
      <trkpt lat="46.47967" lon="-0.56373">
        <ele>17</ele>
        <time>2013-09-15T08:29:33Z</time>
      </trkpt>
      <trkpt lat="46.47968" lon="-0.56385">
        <ele>16</ele>
        <time>2013-09-15T08:29:35Z</time>
      </trkpt>
      <trkpt lat="46.47971" lon="-0.56403">
        <ele>16</ele>
        <time>2013-09-15T08:29:38Z</time>
      </trkpt>
      <trkpt lat="46.47977" lon="-0.56409">
        <ele>16</ele>
        <time>2013-09-15T08:29:40Z</time>
      </trkpt>
      <trkpt lat="46.47981" lon="-0.56406">
        <ele>16</ele>
        <time>2013-09-15T08:29:42Z</time>
      </trkpt>
      <trkpt lat="46.47986" lon="-0.56398">
        <ele>16</ele>
        <time>2013-09-15T08:29:44Z</time>
      </trkpt>
      <trkpt lat="46.47996" lon="-0.56384">
        <ele>16</ele>
        <time>2013-09-15T08:29:47Z</time>
      </trkpt>
      <trkpt lat="46.48007" lon="-0.56372">
        <ele>17</ele>
        <time>2013-09-15T08:29:50Z</time>
      </trkpt>
      <trkpt lat="46.48018" lon="-0.56361">
        <ele>17</ele>
        <time>2013-09-15T08:29:53Z</time>
      </trkpt>
      <trkpt lat="46.48026" lon="-0.56353">
        <ele>17</ele>
        <time>2013-09-15T08:29:55Z</time>
      </trkpt>
      <trkpt lat="46.48039" lon="-0.56344">
        <ele>18</ele>
        <time>2013-09-15T08:29:58Z</time>
      </trkpt>
      <trkpt lat="46.48048" lon="-0.56338">
        <ele>18</ele>
        <time>2013-09-15T08:30:00Z</time>
      </trkpt>
      <trkpt lat="46.48057" lon="-0.56332">
        <ele>18</ele>
        <time>2013-09-15T08:30:02Z</time>
      </trkpt>
      <trkpt lat="46.48069" lon="-0.5632">
        <ele>17</ele>
        <time>2013-09-15T08:30:05Z</time>
      </trkpt>
      <trkpt lat="46.48077" lon="-0.56308">
        <ele>16</ele>
        <time>2013-09-15T08:30:07Z</time>
      </trkpt>
      <trkpt lat="46.4809" lon="-0.56289">
        <ele>15</ele>
        <time>2013-09-15T08:30:10Z</time>
      </trkpt>
      <trkpt lat="46.48107" lon="-0.56275">
        <ele>14</ele>
        <time>2013-09-15T08:30:13Z</time>
      </trkpt>
      <trkpt lat="46.48119" lon="-0.56268">
        <ele>14</ele>
        <time>2013-09-15T08:30:15Z</time>
      </trkpt>
      <trkpt lat="46.48131" lon="-0.56262">
        <ele>13</ele>
        <time>2013-09-15T08:30:17Z</time>
      </trkpt>
      <trkpt lat="46.48143" lon="-0.56258">
        <ele>13</ele>
        <time>2013-09-15T08:30:19Z</time>
      </trkpt>
      <trkpt lat="46.48154" lon="-0.56253">
        <ele>13</ele>
        <time>2013-09-15T08:30:21Z</time>
      </trkpt>
      <trkpt lat="46.48166" lon="-0.56245">
        <ele>13</ele>
        <time>2013-09-15T08:30:23Z</time>
      </trkpt>
      <trkpt lat="46.48177" lon="-0.56238">
        <ele>13</ele>
        <time>2013-09-15T08:30:25Z</time>
      </trkpt>
      <trkpt lat="46.48188" lon="-0.5623">
        <ele>12</ele>
        <time>2013-09-15T08:30:27Z</time>
      </trkpt>
      <trkpt lat="46.48203" lon="-0.56215">
        <ele>12</ele>
        <time>2013-09-15T08:30:30Z</time>
      </trkpt>
      <trkpt lat="46.48216" lon="-0.56196">
        <ele>12</ele>
        <time>2013-09-15T08:30:33Z</time>
      </trkpt>
      <trkpt lat="46.48222" lon="-0.56183">
        <ele>11</ele>
        <time>2013-09-15T08:30:35Z</time>
      </trkpt>
      <trkpt lat="46.48225" lon="-0.56168">
        <ele>10</ele>
        <time>2013-09-15T08:30:37Z</time>
      </trkpt>
      <trkpt lat="46.48224" lon="-0.56152">
        <ele>9</ele>
        <time>2013-09-15T08:30:39Z</time>
      </trkpt>
      <trkpt lat="46.48221" lon="-0.56129">
        <ele>9</ele>
        <time>2013-09-15T08:30:42Z</time>
      </trkpt>
      <trkpt lat="46.48217" lon="-0.56113">
        <ele>9</ele>
        <time>2013-09-15T08:30:44Z</time>
      </trkpt>
      <trkpt lat="46.48214" lon="-0.56099">
        <ele>9</ele>
        <time>2013-09-15T08:30:46Z</time>
      </trkpt>
      <trkpt lat="46.48216" lon="-0.56088">
        <ele>8</ele>
        <time>2013-09-15T08:30:48Z</time>
      </trkpt>
      <trkpt lat="46.48223" lon="-0.56081">
        <ele>8</ele>
        <time>2013-09-15T08:30:50Z</time>
      </trkpt>
      <trkpt lat="46.48234" lon="-0.56073">
        <ele>8</ele>
        <time>2013-09-15T08:30:53Z</time>
      </trkpt>
      <trkpt lat="46.48245" lon="-0.5606">
        <ele>7</ele>
        <time>2013-09-15T08:30:56Z</time>
      </trkpt>
      <trkpt lat="46.48253" lon="-0.56049">
        <ele>6</ele>
        <time>2013-09-15T08:30:58Z</time>
      </trkpt>
      <trkpt lat="46.4826" lon="-0.56039">
        <ele>6</ele>
        <time>2013-09-15T08:31:00Z</time>
      </trkpt>
      <trkpt lat="46.48271" lon="-0.56025">
        <ele>5</ele>
        <time>2013-09-15T08:31:03Z</time>
      </trkpt>
      <trkpt lat="46.48286" lon="-0.56008">
        <ele>5</ele>
        <time>2013-09-15T08:31:06Z</time>
      </trkpt>
      <trkpt lat="46.48301" lon="-0.55987">
        <ele>4</ele>
        <time>2013-09-15T08:31:09Z</time>
      </trkpt>
      <trkpt lat="46.48309" lon="-0.55971">
        <ele>3</ele>
        <time>2013-09-15T08:31:11Z</time>
      </trkpt>
      <trkpt lat="46.48317" lon="-0.55946">
        <ele>1</ele>
        <time>2013-09-15T08:31:14Z</time>
      </trkpt>
      <trkpt lat="46.48321" lon="-0.5592">
        <ele>62.7</ele>
        <time>2013-09-15T08:31:17Z</time>
      </trkpt>
      <trkpt lat="46.48322" lon="-0.55905">
        <ele>-1</ele>
        <time>2013-09-15T08:31:19Z</time>
      </trkpt>
      <trkpt lat="46.48325" lon="-0.55885">
        <ele>-1</ele>
        <time>2013-09-15T08:31:22Z</time>
      </trkpt>
      <trkpt lat="46.48325" lon="-0.55877">
        <ele>-3</ele>
        <time>2013-09-15T08:31:24Z</time>
      </trkpt>
      <trkpt lat="46.48323" lon="-0.55869">
        <ele>-3</ele>
        <time>2013-09-15T08:31:27Z</time>
      </trkpt>
      <trkpt lat="46.4832" lon="-0.55864">
        <ele>-4</ele>
        <time>2013-09-15T08:31:29Z</time>
      </trkpt>
      <trkpt lat="46.48313" lon="-0.55857">
        <ele>-5</ele>
        <time>2013-09-15T08:31:31Z</time>
      </trkpt>
      <trkpt lat="46.48309" lon="-0.55848">
        <ele>-5</ele>
        <time>2013-09-15T08:31:33Z</time>
      </trkpt>
      <trkpt lat="46.48314" lon="-0.55837">
        <ele>-5</ele>
        <time>2013-09-15T08:31:36Z</time>
      </trkpt>
      <trkpt lat="46.4832" lon="-0.55832">
        <ele>-5</ele>
        <time>2013-09-15T08:31:38Z</time>
      </trkpt>
      <trkpt lat="46.48327" lon="-0.55827">
        <ele>-5</ele>
        <time>2013-09-15T08:31:40Z</time>
      </trkpt>
      <trkpt lat="46.48335" lon="-0.55825">
        <ele>-5</ele>
        <time>2013-09-15T08:31:42Z</time>
      </trkpt>
      <trkpt lat="46.48344" lon="-0.55826">
        <ele>-5</ele>
        <time>2013-09-15T08:31:44Z</time>
      </trkpt>
      <trkpt lat="46.48353" lon="-0.55826">
        <ele>-6</ele>
        <time>2013-09-15T08:31:46Z</time>
      </trkpt>
      <trkpt lat="46.48366" lon="-0.55824">
        <ele>-6</ele>
        <time>2013-09-15T08:31:49Z</time>
      </trkpt>
      <trkpt lat="46.48375" lon="-0.55823">
        <ele>-6</ele>
        <time>2013-09-15T08:31:51Z</time>
      </trkpt>
      <trkpt lat="46.48389" lon="-0.55821">
        <ele>-5</ele>
        <time>2013-09-15T08:31:54Z</time>
      </trkpt>
      <trkpt lat="46.48398" lon="-0.5582">
        <ele>-5</ele>
        <time>2013-09-15T08:31:56Z</time>
      </trkpt>
      <trkpt lat="46.48412" lon="-0.55816">
        <ele>-5</ele>
        <time>2013-09-15T08:31:59Z</time>
      </trkpt>
      <trkpt lat="46.4842" lon="-0.55811">
        <ele>-5</ele>
        <time>2013-09-15T08:32:01Z</time>
      </trkpt>
      <trkpt lat="46.48424" lon="-0.55799">
        <ele>-6</ele>
        <time>2013-09-15T08:32:04Z</time>
      </trkpt>
      <trkpt lat="46.48426" lon="-0.55788">
        <ele>-7</ele>
        <time>2013-09-15T08:32:07Z</time>
      </trkpt>
      <trkpt lat="46.48426" lon="-0.55776">
        <ele>-6</ele>
        <time>2013-09-15T08:32:10Z</time>
      </trkpt>
      <trkpt lat="46.48428" lon="-0.55768">
        <ele>-6</ele>
        <time>2013-09-15T08:32:12Z</time>
      </trkpt>
      <trkpt lat="46.48436" lon="-0.55763">
        <ele>-5</ele>
        <time>2013-09-15T08:32:15Z</time>
      </trkpt>
      <trkpt lat="46.48443" lon="-0.55763">
        <ele>-5</ele>
        <time>2013-09-15T08:32:17Z</time>
      </trkpt>
      <trkpt lat="46.4845" lon="-0.55762">
        <ele>-4</ele>
        <time>2013-09-15T08:32:19Z</time>
      </trkpt>
      <trkpt lat="46.48458" lon="-0.5576">
        <ele>-4</ele>
        <time>2013-09-15T08:32:21Z</time>
      </trkpt>
      <trkpt lat="46.48465" lon="-0.55758">
        <ele>-5</ele>
        <time>2013-09-15T08:32:23Z</time>
      </trkpt>
      <trkpt lat="46.48473" lon="-0.55756">
        <ele>-4</ele>
        <time>2013-09-15T08:32:25Z</time>
      </trkpt>
      <trkpt lat="46.48483" lon="-0.55752">
        <ele>-4</ele>
        <time>2013-09-15T08:32:28Z</time>
      </trkpt>
      <trkpt lat="46.48491" lon="-0.55748">
        <ele>-4</ele>
        <time>2013-09-15T08:32:30Z</time>
      </trkpt>
      <trkpt lat="46.48504" lon="-0.55741">
        <ele>-4</ele>
        <time>2013-09-15T08:32:33Z</time>
      </trkpt>
      <trkpt lat="46.48518" lon="-0.55733">
        <ele>-4</ele>
        <time>2013-09-15T08:32:36Z</time>
      </trkpt>
      <trkpt lat="46.48531" lon="-0.55724">
        <ele>-3</ele>
        <time>2013-09-15T08:32:39Z</time>
      </trkpt>
      <trkpt lat="46.48544" lon="-0.55714">
        <ele>-3</ele>
        <time>2013-09-15T08:32:42Z</time>
      </trkpt>
      <trkpt lat="46.48552" lon="-0.55709">
        <ele>-2</ele>
        <time>2013-09-15T08:32:44Z</time>
      </trkpt>
      <trkpt lat="46.48565" lon="-0.55701">
        <ele>-2</ele>
        <time>2013-09-15T08:32:47Z</time>
      </trkpt>
      <trkpt lat="46.48573" lon="-0.55696">
        <ele>-2</ele>
        <time>2013-09-15T08:32:49Z</time>
      </trkpt>
      <trkpt lat="46.48582" lon="-0.55692">
        <ele>-2</ele>
        <time>2013-09-15T08:32:51Z</time>
      </trkpt>
      <trkpt lat="46.48596" lon="-0.55686">
        <ele>-1</ele>
        <time>2013-09-15T08:32:54Z</time>
      </trkpt>
      <trkpt lat="46.48605" lon="-0.55684">
        <ele>-1</ele>
        <time>2013-09-15T08:32:56Z</time>
      </trkpt>
      <trkpt lat="46.48619" lon="-0.55679">
        <ele>-1</ele>
        <time>2013-09-15T08:32:59Z</time>
      </trkpt>
      <trkpt lat="46.48628" lon="-0.55676">
        <ele>-1</ele>
        <time>2013-09-15T08:33:01Z</time>
      </trkpt>
      <trkpt lat="46.48641" lon="-0.55671">
        <ele>-2</ele>
        <time>2013-09-15T08:33:03Z</time>
      </trkpt>
      <trkpt lat="46.48649" lon="-0.55668">
        <ele>-2</ele>
        <time>2013-09-15T08:33:06Z</time>
      </trkpt>
      <trkpt lat="46.48661" lon="-0.55664">
        <ele>-1</ele>
        <time>2013-09-15T08:33:09Z</time>
      </trkpt>
      <trkpt lat="46.48674" lon="-0.55659">
        <ele>-2</ele>
        <time>2013-09-15T08:33:12Z</time>
      </trkpt>
      <trkpt lat="46.48688" lon="-0.55653">
        <ele>-2</ele>
        <time>2013-09-15T08:33:15Z</time>
      </trkpt>
      <trkpt lat="46.48702" lon="-0.55647">
        <ele>-2</ele>
        <time>2013-09-15T08:33:18Z</time>
      </trkpt>
      <trkpt lat="46.48715" lon="-0.55642">
        <ele>-2</ele>
        <time>2013-09-15T08:33:21Z</time>
      </trkpt>
      <trkpt lat="46.48728" lon="-0.55636">
        <ele>-2</ele>
        <time>2013-09-15T08:33:24Z</time>
      </trkpt>
      <trkpt lat="46.48736" lon="-0.55632">
        <ele>-2</ele>
        <time>2013-09-15T08:33:26Z</time>
      </trkpt>
      <trkpt lat="46.48747" lon="-0.55626">
        <ele>-2</ele>
        <time>2013-09-15T08:33:29Z</time>
      </trkpt>
      <trkpt lat="46.48757" lon="-0.55616">
        <ele>-2</ele>
        <time>2013-09-15T08:33:32Z</time>
      </trkpt>
      <trkpt lat="46.48764" lon="-0.5561">
        <ele>-2</ele>
        <time>2013-09-15T08:33:34Z</time>
      </trkpt>
      <trkpt lat="46.48773" lon="-0.55599">
        <ele>-2</ele>
        <time>2013-09-15T08:33:37Z</time>
      </trkpt>
      <trkpt lat="46.48782" lon="-0.5559">
        <ele>-1</ele>
        <time>2013-09-15T08:33:40Z</time>
      </trkpt>
      <trkpt lat="46.48793" lon="-0.55581">
        <ele>-1</ele>
        <time>2013-09-15T08:33:43Z</time>
      </trkpt>
      <trkpt lat="46.48804" lon="-0.55573">
        <ele>62.8</ele>
        <time>2013-09-15T08:33:46Z</time>
      </trkpt>
      <trkpt lat="46.48811" lon="-0.55568">
        <ele>62.9</ele>
        <time>2013-09-15T08:33:48Z</time>
      </trkpt>
      <trkpt lat="46.48819" lon="-0.55563">
        <ele>62.9</ele>
        <time>2013-09-15T08:33:50Z</time>
      </trkpt>
      <trkpt lat="46.4883" lon="-0.55554">
        <ele>63.1</ele>
        <time>2013-09-15T08:33:53Z</time>
      </trkpt>
      <trkpt lat="46.48837" lon="-0.55548">
        <ele>62.8</ele>
        <time>2013-09-15T08:33:55Z</time>
      </trkpt>
      <trkpt lat="46.48844" lon="-0.5554">
        <ele>-1</ele>
        <time>2013-09-15T08:33:57Z</time>
      </trkpt>
      <trkpt lat="46.48851" lon="-0.55532">
        <ele>-1</ele>
        <time>2013-09-15T08:33:59Z</time>
      </trkpt>
      <trkpt lat="46.48862" lon="-0.55519">
        <ele>-1</ele>
        <time>2013-09-15T08:34:02Z</time>
      </trkpt>
      <trkpt lat="46.48872" lon="-0.55504">
        <ele>-1</ele>
        <time>2013-09-15T08:34:05Z</time>
      </trkpt>
      <trkpt lat="46.48878" lon="-0.55494">
        <ele>62.5</ele>
        <time>2013-09-15T08:34:07Z</time>
      </trkpt>
      <trkpt lat="46.48885" lon="-0.55484">
        <ele>-1</ele>
        <time>2013-09-15T08:34:09Z</time>
      </trkpt>
      <trkpt lat="46.48895" lon="-0.55469">
        <ele>-1</ele>
        <time>2013-09-15T08:34:12Z</time>
      </trkpt>
      <trkpt lat="46.48901" lon="-0.55459">
        <ele>-1</ele>
        <time>2013-09-15T08:34:14Z</time>
      </trkpt>
      <trkpt lat="46.48911" lon="-0.55445">
        <ele>-1</ele>
        <time>2013-09-15T08:34:17Z</time>
      </trkpt>
      <trkpt lat="46.48917" lon="-0.55436">
        <ele>-1</ele>
        <time>2013-09-15T08:34:19Z</time>
      </trkpt>
      <trkpt lat="46.48928" lon="-0.55423">
        <ele>62.9</ele>
        <time>2013-09-15T08:34:22Z</time>
      </trkpt>
      <trkpt lat="46.48939" lon="-0.55411">
        <ele>63</ele>
        <time>2013-09-15T08:34:25Z</time>
      </trkpt>
      <trkpt lat="46.4895" lon="-0.55402">
        <ele>63.4</ele>
        <time>2013-09-15T08:34:28Z</time>
      </trkpt>
      <trkpt lat="46.48959" lon="-0.55397">
        <ele>-1</ele>
        <time>2013-09-15T08:34:30Z</time>
      </trkpt>
      <trkpt lat="46.48972" lon="-0.55391">
        <ele>62.9</ele>
        <time>2013-09-15T08:34:33Z</time>
      </trkpt>
      <trkpt lat="46.48982" lon="-0.55388">
        <ele>63.1</ele>
        <time>2013-09-15T08:34:35Z</time>
      </trkpt>
      <trkpt lat="46.48996" lon="-0.55385">
        <ele>63.3</ele>
        <time>2013-09-15T08:34:38Z</time>
      </trkpt>
      <trkpt lat="46.49009" lon="-0.55383">
        <ele>63.4</ele>
        <time>2013-09-15T08:34:41Z</time>
      </trkpt>
      <trkpt lat="46.49018" lon="-0.5538">
        <ele>63.6</ele>
        <time>2013-09-15T08:34:43Z</time>
      </trkpt>
      <trkpt lat="46.49026" lon="-0.55377">
        <ele>63.8</ele>
        <time>2013-09-15T08:34:45Z</time>
      </trkpt>
      <trkpt lat="46.49036" lon="-0.55374">
        <ele>64.1</ele>
        <time>2013-09-15T08:34:47Z</time>
      </trkpt>
      <trkpt lat="46.49044" lon="-0.5537">
        <ele>64.4</ele>
        <time>2013-09-15T08:34:49Z</time>
      </trkpt>
      <trkpt lat="46.49054" lon="-0.55365">
        <ele>64.7</ele>
        <time>2013-09-15T08:34:51Z</time>
      </trkpt>
      <trkpt lat="46.49068" lon="-0.55358">
        <ele>64.8</ele>
        <time>2013-09-15T08:34:54Z</time>
      </trkpt>
      <trkpt lat="46.49077" lon="-0.55354">
        <ele>64.7</ele>
        <time>2013-09-15T08:34:56Z</time>
      </trkpt>
      <trkpt lat="46.49091" lon="-0.55349">
        <ele>64.9</ele>
        <time>2013-09-15T08:34:59Z</time>
      </trkpt>
      <trkpt lat="46.491" lon="-0.55345">
        <ele>1</ele>
        <time>2013-09-15T08:35:01Z</time>
      </trkpt>
      <trkpt lat="46.49112" lon="-0.5534">
        <ele>1</ele>
        <time>2013-09-15T08:35:04Z</time>
      </trkpt>
      <trkpt lat="46.4912" lon="-0.55335">
        <ele>1</ele>
        <time>2013-09-15T08:35:06Z</time>
      </trkpt>
      <trkpt lat="46.49133" lon="-0.55328">
        <ele>1</ele>
        <time>2013-09-15T08:35:09Z</time>
      </trkpt>
      <trkpt lat="46.49144" lon="-0.5532">
        <ele>1</ele>
        <time>2013-09-15T08:35:12Z</time>
      </trkpt>
      <trkpt lat="46.4915" lon="-0.55315">
        <ele>2</ele>
        <time>2013-09-15T08:35:14Z</time>
      </trkpt>
      <trkpt lat="46.49155" lon="-0.55312">
        <ele>2</ele>
        <time>2013-09-15T08:35:16Z</time>
      </trkpt>
      <trkpt lat="46.49163" lon="-0.55309">
        <ele>2</ele>
        <time>2013-09-15T08:35:19Z</time>
      </trkpt>
      <trkpt lat="46.4917" lon="-0.55308">
        <ele>3</ele>
        <time>2013-09-15T08:35:22Z</time>
      </trkpt>
      <trkpt lat="46.49178" lon="-0.55307">
        <ele>4</ele>
        <time>2013-09-15T08:35:25Z</time>
      </trkpt>
      <trkpt lat="46.49185" lon="-0.55306">
        <ele>5</ele>
        <time>2013-09-15T08:35:27Z</time>
      </trkpt>
      <trkpt lat="46.4919" lon="-0.55306">
        <ele>5</ele>
        <time>2013-09-15T08:35:29Z</time>
      </trkpt>
      <trkpt lat="46.49198" lon="-0.55305">
        <ele>6</ele>
        <time>2013-09-15T08:35:32Z</time>
      </trkpt>
      <trkpt lat="46.49202" lon="-0.55303">
        <ele>6</ele>
        <time>2013-09-15T08:35:35Z</time>
      </trkpt>
      <trkpt lat="46.4921" lon="-0.55301">
        <ele>7</ele>
        <time>2013-09-15T08:35:38Z</time>
      </trkpt>
      <trkpt lat="46.49216" lon="-0.55299">
        <ele>8</ele>
        <time>2013-09-15T08:35:40Z</time>
      </trkpt>
      <trkpt lat="46.49223" lon="-0.55296">
        <ele>9</ele>
        <time>2013-09-15T08:35:43Z</time>
      </trkpt>
      <trkpt lat="46.49229" lon="-0.55292">
        <ele>9</ele>
        <time>2013-09-15T08:35:47Z</time>
      </trkpt>
      <trkpt lat="46.49236" lon="-0.55284">
        <ele>10</ele>
        <time>2013-09-15T08:35:50Z</time>
      </trkpt>
      <trkpt lat="46.49242" lon="-0.55275">
        <ele>11</ele>
        <time>2013-09-15T08:35:52Z</time>
      </trkpt>
      <trkpt lat="46.49247" lon="-0.55269">
        <ele>11</ele>
        <time>2013-09-15T08:35:54Z</time>
      </trkpt>
      <trkpt lat="46.49254" lon="-0.55261">
        <ele>12</ele>
        <time>2013-09-15T08:35:57Z</time>
      </trkpt>
      <trkpt lat="46.49259" lon="-0.55257">
        <ele>13</ele>
        <time>2013-09-15T08:36:00Z</time>
      </trkpt>
      <trkpt lat="46.49267" lon="-0.55252">
        <ele>13</ele>
        <time>2013-09-15T08:36:03Z</time>
      </trkpt>
      <trkpt lat="46.49277" lon="-0.55245">
        <ele>13</ele>
        <time>2013-09-15T08:36:06Z</time>
      </trkpt>
      <trkpt lat="46.49287" lon="-0.55238">
        <ele>13</ele>
        <time>2013-09-15T08:36:09Z</time>
      </trkpt>
      <trkpt lat="46.49294" lon="-0.55231">
        <ele>13</ele>
        <time>2013-09-15T08:36:11Z</time>
      </trkpt>
      <trkpt lat="46.49302" lon="-0.5522">
        <ele>13</ele>
        <time>2013-09-15T08:36:13Z</time>
      </trkpt>
      <trkpt lat="46.49307" lon="-0.55213">
        <ele>14</ele>
        <time>2013-09-15T08:36:16Z</time>
      </trkpt>
      <trkpt lat="46.49315" lon="-0.55201">
        <ele>14</ele>
        <time>2013-09-15T08:36:19Z</time>
      </trkpt>
      <trkpt lat="46.49321" lon="-0.55188">
        <ele>14</ele>
        <time>2013-09-15T08:36:21Z</time>
      </trkpt>
      <trkpt lat="46.49328" lon="-0.55176">
        <ele>15</ele>
        <time>2013-09-15T08:36:24Z</time>
      </trkpt>
      <trkpt lat="46.49333" lon="-0.55167">
        <ele>15</ele>
        <time>2013-09-15T08:36:26Z</time>
      </trkpt>
      <trkpt lat="46.49338" lon="-0.55158">
        <ele>15</ele>
        <time>2013-09-15T08:36:28Z</time>
      </trkpt>
      <trkpt lat="46.49345" lon="-0.55144">
        <ele>15</ele>
        <time>2013-09-15T08:36:31Z</time>
      </trkpt>
      <trkpt lat="46.49349" lon="-0.55135">
        <ele>16</ele>
        <time>2013-09-15T08:36:33Z</time>
      </trkpt>
      <trkpt lat="46.49353" lon="-0.55127">
        <ele>16</ele>
        <time>2013-09-15T08:36:35Z</time>
      </trkpt>
      <trkpt lat="46.49358" lon="-0.55118">
        <ele>16</ele>
        <time>2013-09-15T08:36:37Z</time>
      </trkpt>
      <trkpt lat="46.49362" lon="-0.55111">
        <ele>16</ele>
        <time>2013-09-15T08:36:39Z</time>
      </trkpt>
      <trkpt lat="46.49367" lon="-0.55104">
        <ele>16</ele>
        <time>2013-09-15T08:36:41Z</time>
      </trkpt>
      <trkpt lat="46.49373" lon="-0.55098">
        <ele>17</ele>
        <time>2013-09-15T08:36:43Z</time>
      </trkpt>
      <trkpt lat="46.49379" lon="-0.55095">
        <ele>17</ele>
        <time>2013-09-15T08:36:46Z</time>
      </trkpt>
      <trkpt lat="46.49392" lon="-0.5509">
        <ele>17</ele>
        <time>2013-09-15T08:36:48Z</time>
      </trkpt>
      <trkpt lat="46.49404" lon="-0.55086">
        <ele>17</ele>
        <time>2013-09-15T08:36:50Z</time>
      </trkpt>
      <trkpt lat="46.49417" lon="-0.55081">
        <ele>16</ele>
        <time>2013-09-15T08:36:52Z</time>
      </trkpt>
      <trkpt lat="46.49431" lon="-0.55075">
        <ele>15</ele>
        <time>2013-09-15T08:36:55Z</time>
      </trkpt>
      <trkpt lat="46.49455" lon="-0.55072">
        <ele>14</ele>
        <time>2013-09-15T08:36:57Z</time>
      </trkpt>
      <trkpt lat="46.49471" lon="-0.55083">
        <ele>12</ele>
        <time>2013-09-15T08:36:59Z</time>
      </trkpt>
      <trkpt lat="46.49484" lon="-0.55102">
        <ele>11</ele>
        <time>2013-09-15T08:37:01Z</time>
      </trkpt>
      <trkpt lat="46.49497" lon="-0.55134">
        <ele>10</ele>
        <time>2013-09-15T08:37:05Z</time>
      </trkpt>
      <trkpt lat="46.49501" lon="-0.55152">
        <ele>10</ele>
        <time>2013-09-15T08:37:07Z</time>
      </trkpt>
      <trkpt lat="46.49504" lon="-0.55172">
        <ele>10</ele>
        <time>2013-09-15T08:37:10Z</time>
      </trkpt>
      <trkpt lat="46.49507" lon="-0.55187">
        <ele>10</ele>
        <time>2013-09-15T08:37:12Z</time>
      </trkpt>
      <trkpt lat="46.49509" lon="-0.552">
        <ele>11</ele>
        <time>2013-09-15T08:37:15Z</time>
      </trkpt>
      <trkpt lat="46.4951" lon="-0.55209">
        <ele>12</ele>
        <time>2013-09-15T08:37:18Z</time>
      </trkpt>
      <trkpt lat="46.49512" lon="-0.55221">
        <ele>12</ele>
        <time>2013-09-15T08:37:20Z</time>
      </trkpt>
      <trkpt lat="46.49513" lon="-0.5523">
        <ele>13</ele>
        <time>2013-09-15T08:37:22Z</time>
      </trkpt>
      <trkpt lat="46.49513" lon="-0.55237">
        <ele>13</ele>
        <time>2013-09-15T08:37:24Z</time>
      </trkpt>
      <trkpt lat="46.49514" lon="-0.55245">
        <ele>14</ele>
        <time>2013-09-15T08:37:27Z</time>
      </trkpt>
      <trkpt lat="46.49516" lon="-0.55256">
        <ele>15</ele>
        <time>2013-09-15T08:37:29Z</time>
      </trkpt>
      <trkpt lat="46.49517" lon="-0.55263">
        <ele>15</ele>
        <time>2013-09-15T08:37:31Z</time>
      </trkpt>
      <trkpt lat="46.49517" lon="-0.5527">
        <ele>16</ele>
        <time>2013-09-15T08:37:33Z</time>
      </trkpt>
      <trkpt lat="46.49518" lon="-0.55277">
        <ele>16</ele>
        <time>2013-09-15T08:37:35Z</time>
      </trkpt>
      <trkpt lat="46.49519" lon="-0.55284">
        <ele>17</ele>
        <time>2013-09-15T08:37:38Z</time>
      </trkpt>
      <trkpt lat="46.4952" lon="-0.55294">
        <ele>17</ele>
        <time>2013-09-15T08:37:40Z</time>
      </trkpt>
      <trkpt lat="46.49522" lon="-0.55301">
        <ele>18</ele>
        <time>2013-09-15T08:37:43Z</time>
      </trkpt>
      <trkpt lat="46.49523" lon="-0.55308">
        <ele>19</ele>
        <time>2013-09-15T08:37:45Z</time>
      </trkpt>
      <trkpt lat="46.49524" lon="-0.55318">
        <ele>19</ele>
        <time>2013-09-15T08:37:48Z</time>
      </trkpt>
      <trkpt lat="46.49525" lon="-0.55325">
        <ele>20</ele>
        <time>2013-09-15T08:37:50Z</time>
      </trkpt>
      <trkpt lat="46.49527" lon="-0.55335">
        <ele>20</ele>
        <time>2013-09-15T08:37:52Z</time>
      </trkpt>
      <trkpt lat="46.49528" lon="-0.55342">
        <ele>21</ele>
        <time>2013-09-15T08:37:55Z</time>
      </trkpt>
      <trkpt lat="46.4953" lon="-0.55349">
        <ele>21</ele>
        <time>2013-09-15T08:37:57Z</time>
      </trkpt>
      <trkpt lat="46.49533" lon="-0.55359">
        <ele>22</ele>
        <time>2013-09-15T08:38:00Z</time>
      </trkpt>
      <trkpt lat="46.49538" lon="-0.55368">
        <ele>23</ele>
        <time>2013-09-15T08:38:03Z</time>
      </trkpt>
      <trkpt lat="46.4954" lon="-0.55374">
        <ele>23</ele>
        <time>2013-09-15T08:38:05Z</time>
      </trkpt>
      <trkpt lat="46.49544" lon="-0.55384">
        <ele>23</ele>
        <time>2013-09-15T08:38:08Z</time>
      </trkpt>
      <trkpt lat="46.49544" lon="-0.55396">
        <ele>24</ele>
        <time>2013-09-15T08:38:10Z</time>
      </trkpt>
      <trkpt lat="46.49537" lon="-0.55405">
        <ele>24</ele>
        <time>2013-09-15T08:38:13Z</time>
      </trkpt>
      <trkpt lat="46.4953" lon="-0.55414">
        <ele>24</ele>
        <time>2013-09-15T08:38:16Z</time>
      </trkpt>
      <trkpt lat="46.49522" lon="-0.55424">
        <ele>24</ele>
        <time>2013-09-15T08:38:18Z</time>
      </trkpt>
      <trkpt lat="46.49518" lon="-0.55432">
        <ele>23</ele>
        <time>2013-09-15T08:38:20Z</time>
      </trkpt>
      <trkpt lat="46.49519" lon="-0.55444">
        <ele>22</ele>
        <time>2013-09-15T08:38:22Z</time>
      </trkpt>
      <trkpt lat="46.49517" lon="-0.55452">
        <ele>21</ele>
        <time>2013-09-15T08:38:25Z</time>
      </trkpt>
      <trkpt lat="46.49521" lon="-0.55462">
        <ele>21</ele>
        <time>2013-09-15T08:38:28Z</time>
      </trkpt>
      <trkpt lat="46.49522" lon="-0.55472">
        <ele>21</ele>
        <time>2013-09-15T08:38:31Z</time>
      </trkpt>
      <trkpt lat="46.49516" lon="-0.55485">
        <ele>20</ele>
        <time>2013-09-15T08:38:33Z</time>
      </trkpt>
      <trkpt lat="46.49512" lon="-0.55494">
        <ele>20</ele>
        <time>2013-09-15T08:38:36Z</time>
      </trkpt>
      <trkpt lat="46.49507" lon="-0.55506">
        <ele>19</ele>
        <time>2013-09-15T08:38:38Z</time>
      </trkpt>
      <trkpt lat="46.49506" lon="-0.55512">
        <ele>19</ele>
        <time>2013-09-15T08:38:40Z</time>
      </trkpt>
      <trkpt lat="46.49509" lon="-0.55523">
        <ele>18</ele>
        <time>2013-09-15T08:38:43Z</time>
      </trkpt>
      <trkpt lat="46.49508" lon="-0.55531">
        <ele>17</ele>
        <time>2013-09-15T08:38:45Z</time>
      </trkpt>
      <trkpt lat="46.49514" lon="-0.55537">
        <ele>16</ele>
        <time>2013-09-15T08:38:48Z</time>
      </trkpt>
      <trkpt lat="46.4952" lon="-0.5554">
        <ele>16</ele>
        <time>2013-09-15T08:38:50Z</time>
      </trkpt>
      <trkpt lat="46.49526" lon="-0.55545">
        <ele>16</ele>
        <time>2013-09-15T08:38:52Z</time>
      </trkpt>
      <trkpt lat="46.49535" lon="-0.55553">
        <ele>16</ele>
        <time>2013-09-15T08:38:55Z</time>
      </trkpt>
      <trkpt lat="46.49541" lon="-0.55558">
        <ele>17</ele>
        <time>2013-09-15T08:38:58Z</time>
      </trkpt>
      <trkpt lat="46.49552" lon="-0.55563">
        <ele>17</ele>
        <time>2013-09-15T08:39:01Z</time>
      </trkpt>
      <trkpt lat="46.49561" lon="-0.55566">
        <ele>18</ele>
        <time>2013-09-15T08:39:03Z</time>
      </trkpt>
      <trkpt lat="46.49563" lon="-0.55582">
        <ele>17</ele>
        <time>2013-09-15T08:39:06Z</time>
      </trkpt>
      <trkpt lat="46.49562" lon="-0.55598">
        <ele>17</ele>
        <time>2013-09-15T08:39:09Z</time>
      </trkpt>
      <trkpt lat="46.4956" lon="-0.55607">
        <ele>15</ele>
        <time>2013-09-15T08:39:11Z</time>
      </trkpt>
      <trkpt lat="46.49557" lon="-0.55616">
        <ele>13</ele>
        <time>2013-09-15T08:39:13Z</time>
      </trkpt>
      <trkpt lat="46.49551" lon="-0.55634">
        <ele>11</ele>
        <time>2013-09-15T08:39:16Z</time>
      </trkpt>
      <trkpt lat="46.49545" lon="-0.55645">
        <ele>10</ele>
        <time>2013-09-15T08:39:19Z</time>
      </trkpt>
      <trkpt lat="46.4953" lon="-0.55654">
        <ele>9</ele>
        <time>2013-09-15T08:39:21Z</time>
      </trkpt>
      <trkpt lat="46.49515" lon="-0.5566">
        <ele>7</ele>
        <time>2013-09-15T08:39:24Z</time>
      </trkpt>
      <trkpt lat="46.49506" lon="-0.55669">
        <ele>5</ele>
        <time>2013-09-15T08:39:27Z</time>
      </trkpt>
      <trkpt lat="46.49494" lon="-0.55683">
        <ele>4</ele>
        <time>2013-09-15T08:39:30Z</time>
      </trkpt>
      <trkpt lat="46.49485" lon="-0.5569">
        <ele>3</ele>
        <time>2013-09-15T08:39:32Z</time>
      </trkpt>
      <trkpt lat="46.49481" lon="-0.55691">
        <ele>2</ele>
        <time>2013-09-15T08:39:35Z</time>
      </trkpt>
      <trkpt lat="46.49477" lon="-0.55689">
        <ele>2</ele>
        <time>2013-09-15T08:39:37Z</time>
      </trkpt>
      <trkpt lat="46.49474" lon="-0.55684">
        <ele>1</ele>
        <time>2013-09-15T08:39:41Z</time>
      </trkpt>
      <trkpt lat="46.49472" lon="-0.55681">
        <ele>1</ele>
        <time>2013-09-15T08:39:43Z</time>
      </trkpt>
      <trkpt lat="46.49468" lon="-0.55677">
        <ele>1</ele>
        <time>2013-09-15T08:39:45Z</time>
      </trkpt>
      <trkpt lat="46.49463" lon="-0.55668">
        <ele>1</ele>
        <time>2013-09-15T08:39:47Z</time>
      </trkpt>
      <trkpt lat="46.49458" lon="-0.5566">
        <ele>2</ele>
        <time>2013-09-15T08:39:49Z</time>
      </trkpt>
      <trkpt lat="46.4945" lon="-0.5565">
        <ele>2</ele>
        <time>2013-09-15T08:39:52Z</time>
      </trkpt>
      <trkpt lat="46.49443" lon="-0.55641">
        <ele>2</ele>
        <time>2013-09-15T08:39:55Z</time>
      </trkpt>
      <trkpt lat="46.49438" lon="-0.55635">
        <ele>1</ele>
        <time>2013-09-15T08:39:57Z</time>
      </trkpt>
      <trkpt lat="46.49434" lon="-0.5563">
        <ele>1</ele>
        <time>2013-09-15T08:39:59Z</time>
      </trkpt>
      <trkpt lat="46.49428" lon="-0.55622">
        <ele>1</ele>
        <time>2013-09-15T08:40:02Z</time>
      </trkpt>
      <trkpt lat="46.49423" lon="-0.55617">
        <ele>1</ele>
        <time>2013-09-15T08:40:04Z</time>
      </trkpt>
      <trkpt lat="46.49417" lon="-0.55608">
        <ele>1</ele>
        <time>2013-09-15T08:40:07Z</time>
      </trkpt>
      <trkpt lat="46.49412" lon="-0.55603">
        <ele>1</ele>
        <time>2013-09-15T08:40:10Z</time>
      </trkpt>
      <trkpt lat="46.49405" lon="-0.55595">
        <ele>1</ele>
        <time>2013-09-15T08:40:13Z</time>
      </trkpt>
      <trkpt lat="46.49396" lon="-0.55591">
        <ele>1</ele>
        <time>2013-09-15T08:40:16Z</time>
      </trkpt>
      <trkpt lat="46.49389" lon="-0.55588">
        <ele>2</ele>
        <time>2013-09-15T08:40:18Z</time>
      </trkpt>
      <trkpt lat="46.49385" lon="-0.55586">
        <ele>2</ele>
        <time>2013-09-15T08:40:20Z</time>
      </trkpt>
      <trkpt lat="46.4938" lon="-0.55584">
        <ele>3</ele>
        <time>2013-09-15T08:40:23Z</time>
      </trkpt>
      <trkpt lat="46.49376" lon="-0.55581">
        <ele>3</ele>
        <time>2013-09-15T08:40:25Z</time>
      </trkpt>
      <trkpt lat="46.49369" lon="-0.55578">
        <ele>4</ele>
        <time>2013-09-15T08:40:27Z</time>
      </trkpt>
      <trkpt lat="46.49363" lon="-0.55574">
        <ele>4</ele>
        <time>2013-09-15T08:40:30Z</time>
      </trkpt>
      <trkpt lat="46.49358" lon="-0.5557">
        <ele>5</ele>
        <time>2013-09-15T08:40:33Z</time>
      </trkpt>
      <trkpt lat="46.49354" lon="-0.55567">
        <ele>6</ele>
        <time>2013-09-15T08:40:36Z</time>
      </trkpt>
      <trkpt lat="46.4935" lon="-0.55564">
        <ele>7</ele>
        <time>2013-09-15T08:40:38Z</time>
      </trkpt>
      <trkpt lat="46.49346" lon="-0.55562">
        <ele>7</ele>
        <time>2013-09-15T08:40:40Z</time>
      </trkpt>
      <trkpt lat="46.49339" lon="-0.5556">
        <ele>7</ele>
        <time>2013-09-15T08:40:42Z</time>
      </trkpt>
      <trkpt lat="46.49335" lon="-0.55558">
        <ele>7</ele>
        <time>2013-09-15T08:40:45Z</time>
      </trkpt>
      <trkpt lat="46.4933" lon="-0.55557">
        <ele>7</ele>
        <time>2013-09-15T08:40:48Z</time>
      </trkpt>
      <trkpt lat="46.49325" lon="-0.55556">
        <ele>8</ele>
        <time>2013-09-15T08:40:50Z</time>
      </trkpt>
      <trkpt lat="46.49322" lon="-0.55555">
        <ele>8</ele>
        <time>2013-09-15T08:40:53Z</time>
      </trkpt>
      <trkpt lat="46.49318" lon="-0.55553">
        <ele>9</ele>
        <time>2013-09-15T08:40:55Z</time>
      </trkpt>
      <trkpt lat="46.49315" lon="-0.55552">
        <ele>9</ele>
        <time>2013-09-15T08:40:58Z</time>
      </trkpt>
      <trkpt lat="46.49311" lon="-0.55551">
        <ele>10</ele>
        <time>2013-09-15T08:41:00Z</time>
      </trkpt>
      <trkpt lat="46.49308" lon="-0.5555">
        <ele>10</ele>
        <time>2013-09-15T08:41:02Z</time>
      </trkpt>
      <trkpt lat="46.49305" lon="-0.55549">
        <ele>11</ele>
        <time>2013-09-15T08:41:04Z</time>
      </trkpt>
      <trkpt lat="46.49301" lon="-0.55547">
        <ele>11</ele>
        <time>2013-09-15T08:41:07Z</time>
      </trkpt>
      <trkpt lat="46.49298" lon="-0.55546">
        <ele>12</ele>
        <time>2013-09-15T08:41:10Z</time>
      </trkpt>
      <trkpt lat="46.49294" lon="-0.55546">
        <ele>12</ele>
        <time>2013-09-15T08:41:12Z</time>
      </trkpt>
      <trkpt lat="46.49293" lon="-0.55545">
        <ele>13</ele>
        <time>2013-09-15T08:41:15Z</time>
      </trkpt>
      <trkpt lat="46.49293" lon="-0.55545">
        <ele>13</ele>
        <time>2013-09-15T08:41:17Z</time>
      </trkpt>
      <trkpt lat="46.49292" lon="-0.55545">
        <ele>13</ele>
        <time>2013-09-15T08:41:21Z</time>
      </trkpt>
      <trkpt lat="46.49292" lon="-0.55545">
        <ele>13</ele>
        <time>2013-09-15T08:41:23Z</time>
      </trkpt>
      <trkpt lat="46.49292" lon="-0.55545">
        <ele>14</ele>
        <time>2013-09-15T08:41:25Z</time>
      </trkpt>
      <trkpt lat="46.49291" lon="-0.55544">
        <ele>13</ele>
        <time>2013-09-15T08:41:27Z</time>
      </trkpt>
      <trkpt lat="46.4929" lon="-0.55544">
        <ele>13</ele>
        <time>2013-09-15T08:41:29Z</time>
      </trkpt>
      <trkpt lat="46.49289" lon="-0.55544">
        <ele>13</ele>
        <time>2013-09-15T08:41:31Z</time>
      </trkpt>
      <trkpt lat="46.49288" lon="-0.55544">
        <ele>13</ele>
        <time>2013-09-15T08:41:34Z</time>
      </trkpt>
      <trkpt lat="46.49284" lon="-0.55543">
        <ele>13</ele>
        <time>2013-09-15T08:41:36Z</time>
      </trkpt>
      <trkpt lat="46.49281" lon="-0.55542">
        <ele>14</ele>
        <time>2013-09-15T08:41:39Z</time>
      </trkpt>
      <trkpt lat="46.49277" lon="-0.55541">
        <ele>14</ele>
        <time>2013-09-15T08:41:42Z</time>
      </trkpt>
      <trkpt lat="46.49273" lon="-0.55541">
        <ele>15</ele>
        <time>2013-09-15T08:41:44Z</time>
      </trkpt>
      <trkpt lat="46.49271" lon="-0.5554">
        <ele>15</ele>
        <time>2013-09-15T08:41:47Z</time>
      </trkpt>
      <trkpt lat="46.49267" lon="-0.5554">
        <ele>15</ele>
        <time>2013-09-15T08:41:50Z</time>
      </trkpt>
      <trkpt lat="46.49264" lon="-0.55541">
        <ele>16</ele>
        <time>2013-09-15T08:41:52Z</time>
      </trkpt>
      <trkpt lat="46.49262" lon="-0.55541">
        <ele>16</ele>
        <time>2013-09-15T08:41:55Z</time>
      </trkpt>
      <trkpt lat="46.49259" lon="-0.55541">
        <ele>17</ele>
        <time>2013-09-15T08:41:58Z</time>
      </trkpt>
      <trkpt lat="46.49256" lon="-0.55542">
        <ele>17</ele>
        <time>2013-09-15T08:42:00Z</time>
      </trkpt>
      <trkpt lat="46.49252" lon="-0.55542">
        <ele>18</ele>
        <time>2013-09-15T08:42:02Z</time>
      </trkpt>
      <trkpt lat="46.4925" lon="-0.55543">
        <ele>19</ele>
        <time>2013-09-15T08:42:05Z</time>
      </trkpt>
      <trkpt lat="46.49247" lon="-0.55545">
        <ele>19</ele>
        <time>2013-09-15T08:42:07Z</time>
      </trkpt>
      <trkpt lat="46.49244" lon="-0.55548">
        <ele>20</ele>
        <time>2013-09-15T08:42:09Z</time>
      </trkpt>
      <trkpt lat="46.49242" lon="-0.5555">
        <ele>20</ele>
        <time>2013-09-15T08:42:11Z</time>
      </trkpt>
      <trkpt lat="46.49239" lon="-0.55552">
        <ele>20</ele>
        <time>2013-09-15T08:42:13Z</time>
      </trkpt>
      <trkpt lat="46.49237" lon="-0.55553">
        <ele>21</ele>
        <time>2013-09-15T08:42:16Z</time>
      </trkpt>
      <trkpt lat="46.49233" lon="-0.55555">
        <ele>21</ele>
        <time>2013-09-15T08:42:19Z</time>
      </trkpt>
      <trkpt lat="46.4923" lon="-0.55559">
        <ele>22</ele>
        <time>2013-09-15T08:42:21Z</time>
      </trkpt>
      <trkpt lat="46.49226" lon="-0.55563">
        <ele>22</ele>
        <time>2013-09-15T08:42:24Z</time>
      </trkpt>
      <trkpt lat="46.49224" lon="-0.55566">
        <ele>22</ele>
        <time>2013-09-15T08:42:27Z</time>
      </trkpt>
      <trkpt lat="46.4922" lon="-0.55571">
        <ele>22</ele>
        <time>2013-09-15T08:42:29Z</time>
      </trkpt>
      <trkpt lat="46.49215" lon="-0.55576">
        <ele>23</ele>
        <time>2013-09-15T08:42:32Z</time>
      </trkpt>
      <trkpt lat="46.49213" lon="-0.55581">
        <ele>23</ele>
        <time>2013-09-15T08:42:34Z</time>
      </trkpt>
      <trkpt lat="46.4921" lon="-0.55584">
        <ele>24</ele>
        <time>2013-09-15T08:42:37Z</time>
      </trkpt>
      <trkpt lat="46.49207" lon="-0.5559">
        <ele>24</ele>
        <time>2013-09-15T08:42:39Z</time>
      </trkpt>
      <trkpt lat="46.49205" lon="-0.55595">
        <ele>24</ele>
        <time>2013-09-15T08:42:42Z</time>
      </trkpt>
      <trkpt lat="46.49203" lon="-0.55599">
        <ele>25</ele>
        <time>2013-09-15T08:42:44Z</time>
      </trkpt>
      <trkpt lat="46.492" lon="-0.55603">
        <ele>25</ele>
        <time>2013-09-15T08:42:47Z</time>
      </trkpt>
      <trkpt lat="46.49194" lon="-0.55611">
        <ele>25</ele>
        <time>2013-09-15T08:42:49Z</time>
      </trkpt>
      <trkpt lat="46.49189" lon="-0.55617">
        <ele>26</ele>
        <time>2013-09-15T08:42:52Z</time>
      </trkpt>
      <trkpt lat="46.49186" lon="-0.55622">
        <ele>26</ele>
        <time>2013-09-15T08:42:54Z</time>
      </trkpt>
      <trkpt lat="46.49181" lon="-0.55628">
        <ele>26</ele>
        <time>2013-09-15T08:42:57Z</time>
      </trkpt>
      <trkpt lat="46.49173" lon="-0.55639">
        <ele>25</ele>
        <time>2013-09-15T08:42:59Z</time>
      </trkpt>
      <trkpt lat="46.49165" lon="-0.55647">
        <ele>26</ele>
        <time>2013-09-15T08:43:02Z</time>
      </trkpt>
      <trkpt lat="46.49158" lon="-0.55652">
        <ele>26</ele>
        <time>2013-09-15T08:43:04Z</time>
      </trkpt>
      <trkpt lat="46.49147" lon="-0.55666">
        <ele>26</ele>
        <time>2013-09-15T08:43:07Z</time>
      </trkpt>
      <trkpt lat="46.49137" lon="-0.55678">
        <ele>27</ele>
        <time>2013-09-15T08:43:10Z</time>
      </trkpt>
      <trkpt lat="46.49128" lon="-0.5569">
        <ele>26</ele>
        <time>2013-09-15T08:43:13Z</time>
      </trkpt>
      <trkpt lat="46.49121" lon="-0.557">
        <ele>26</ele>
        <time>2013-09-15T08:43:15Z</time>
      </trkpt>
      <trkpt lat="46.49114" lon="-0.55709">
        <ele>26</ele>
        <time>2013-09-15T08:43:17Z</time>
      </trkpt>
      <trkpt lat="46.49105" lon="-0.55725">
        <ele>25</ele>
        <time>2013-09-15T08:43:20Z</time>
      </trkpt>
      <trkpt lat="46.491" lon="-0.55739">
        <ele>24</ele>
        <time>2013-09-15T08:43:22Z</time>
      </trkpt>
      <trkpt lat="46.49094" lon="-0.55753">
        <ele>24</ele>
        <time>2013-09-15T08:43:24Z</time>
      </trkpt>
      <trkpt lat="46.49086" lon="-0.55774">
        <ele>22</ele>
        <time>2013-09-15T08:43:27Z</time>
      </trkpt>
      <trkpt lat="46.49081" lon="-0.55789">
        <ele>22</ele>
        <time>2013-09-15T08:43:30Z</time>
      </trkpt>
      <trkpt lat="46.49073" lon="-0.55809">
        <ele>21</ele>
        <time>2013-09-15T08:43:32Z</time>
      </trkpt>
      <trkpt lat="46.49068" lon="-0.55824">
        <ele>20</ele>
        <time>2013-09-15T08:43:34Z</time>
      </trkpt>
      <trkpt lat="46.49062" lon="-0.55841">
        <ele>18</ele>
        <time>2013-09-15T08:43:36Z</time>
      </trkpt>
      <trkpt lat="46.49052" lon="-0.55874">
        <ele>18</ele>
        <time>2013-09-15T08:43:39Z</time>
      </trkpt>
      <trkpt lat="46.49044" lon="-0.55891">
        <ele>16</ele>
        <time>2013-09-15T08:43:41Z</time>
      </trkpt>
      <trkpt lat="46.49036" lon="-0.55904">
        <ele>16</ele>
        <time>2013-09-15T08:43:44Z</time>
      </trkpt>
      <trkpt lat="46.49025" lon="-0.55922">
        <ele>16</ele>
        <time>2013-09-15T08:43:46Z</time>
      </trkpt>
      <trkpt lat="46.49017" lon="-0.55934">
        <ele>16</ele>
        <time>2013-09-15T08:43:49Z</time>
      </trkpt>
      <trkpt lat="46.4901" lon="-0.55944">
        <ele>17</ele>
        <time>2013-09-15T08:43:53Z</time>
      </trkpt>
      <trkpt lat="46.49004" lon="-0.55952">
        <ele>18</ele>
        <time>2013-09-15T08:43:55Z</time>
      </trkpt>
      <trkpt lat="46.48999" lon="-0.55957">
        <ele>18</ele>
        <time>2013-09-15T08:43:57Z</time>
      </trkpt>
      <trkpt lat="46.48991" lon="-0.55965">
        <ele>19</ele>
        <time>2013-09-15T08:44:00Z</time>
      </trkpt>
      <trkpt lat="46.48986" lon="-0.5597">
        <ele>20</ele>
        <time>2013-09-15T08:44:03Z</time>
      </trkpt>
      <trkpt lat="46.48978" lon="-0.55979">
        <ele>20</ele>
        <time>2013-09-15T08:44:05Z</time>
      </trkpt>
      <trkpt lat="46.48973" lon="-0.55984">
        <ele>21</ele>
        <time>2013-09-15T08:44:08Z</time>
      </trkpt>
      <trkpt lat="46.48966" lon="-0.5599">
        <ele>21</ele>
        <time>2013-09-15T08:44:10Z</time>
      </trkpt>
      <trkpt lat="46.48962" lon="-0.55996">
        <ele>21</ele>
        <time>2013-09-15T08:44:13Z</time>
      </trkpt>
      <trkpt lat="46.48962" lon="-0.56008">
        <ele>21</ele>
        <time>2013-09-15T08:44:15Z</time>
      </trkpt>
      <trkpt lat="46.4897" lon="-0.56016">
        <ele>21</ele>
        <time>2013-09-15T08:44:18Z</time>
      </trkpt>
      <trkpt lat="46.48975" lon="-0.56023">
        <ele>22</ele>
        <time>2013-09-15T08:44:21Z</time>
      </trkpt>
      <trkpt lat="46.48984" lon="-0.56032">
        <ele>22</ele>
        <time>2013-09-15T08:44:23Z</time>
      </trkpt>
      <trkpt lat="46.4899" lon="-0.56039">
        <ele>22</ele>
        <time>2013-09-15T08:44:25Z</time>
      </trkpt>
      <trkpt lat="46.48997" lon="-0.56045">
        <ele>22</ele>
        <time>2013-09-15T08:44:27Z</time>
      </trkpt>
      <trkpt lat="46.49004" lon="-0.56052">
        <ele>22</ele>
        <time>2013-09-15T08:44:29Z</time>
      </trkpt>
      <trkpt lat="46.49012" lon="-0.56059">
        <ele>22</ele>
        <time>2013-09-15T08:44:31Z</time>
      </trkpt>
      <trkpt lat="46.49019" lon="-0.56066">
        <ele>22</ele>
        <time>2013-09-15T08:44:33Z</time>
      </trkpt>
      <trkpt lat="46.49026" lon="-0.56073">
        <ele>23</ele>
        <time>2013-09-15T08:44:35Z</time>
      </trkpt>
      <trkpt lat="46.49034" lon="-0.5608">
        <ele>23</ele>
        <time>2013-09-15T08:44:37Z</time>
      </trkpt>
      <trkpt lat="46.49044" lon="-0.56091">
        <ele>24</ele>
        <time>2013-09-15T08:44:40Z</time>
      </trkpt>
      <trkpt lat="46.49051" lon="-0.56098">
        <ele>24</ele>
        <time>2013-09-15T08:44:42Z</time>
      </trkpt>
      <trkpt lat="46.4906" lon="-0.56112">
        <ele>24</ele>
        <time>2013-09-15T08:44:45Z</time>
      </trkpt>
      <trkpt lat="46.49066" lon="-0.56123">
        <ele>25</ele>
        <time>2013-09-15T08:44:47Z</time>
      </trkpt>
      <trkpt lat="46.49072" lon="-0.56132">
        <ele>25</ele>
        <time>2013-09-15T08:44:49Z</time>
      </trkpt>
      <trkpt lat="46.4908" lon="-0.5614">
        <ele>25</ele>
        <time>2013-09-15T08:44:51Z</time>
      </trkpt>
      <trkpt lat="46.49088" lon="-0.56146">
        <ele>26</ele>
        <time>2013-09-15T08:44:53Z</time>
      </trkpt>
      <trkpt lat="46.49097" lon="-0.56152">
        <ele>26</ele>
        <time>2013-09-15T08:44:56Z</time>
      </trkpt>
      <trkpt lat="46.4911" lon="-0.56161">
        <ele>26</ele>
        <time>2013-09-15T08:44:59Z</time>
      </trkpt>
      <trkpt lat="46.49123" lon="-0.5617">
        <ele>26</ele>
        <time>2013-09-15T08:45:01Z</time>
      </trkpt>
      <trkpt lat="46.49135" lon="-0.56179">
        <ele>26</ele>
        <time>2013-09-15T08:45:04Z</time>
      </trkpt>
      <trkpt lat="46.49144" lon="-0.56185">
        <ele>26</ele>
        <time>2013-09-15T08:45:06Z</time>
      </trkpt>
      <trkpt lat="46.49157" lon="-0.56195">
        <ele>27</ele>
        <time>2013-09-15T08:45:09Z</time>
      </trkpt>
      <trkpt lat="46.49165" lon="-0.56203">
        <ele>27</ele>
        <time>2013-09-15T08:45:11Z</time>
      </trkpt>
      <trkpt lat="46.49172" lon="-0.56209">
        <ele>27</ele>
        <time>2013-09-15T08:45:13Z</time>
      </trkpt>
      <trkpt lat="46.49179" lon="-0.56217">
        <ele>27</ele>
        <time>2013-09-15T08:45:15Z</time>
      </trkpt>
      <trkpt lat="46.49187" lon="-0.56226">
        <ele>27</ele>
        <time>2013-09-15T08:45:17Z</time>
      </trkpt>
      <trkpt lat="46.49197" lon="-0.5624">
        <ele>27</ele>
        <time>2013-09-15T08:45:20Z</time>
      </trkpt>
      <trkpt lat="46.49207" lon="-0.56255">
        <ele>28</ele>
        <time>2013-09-15T08:45:23Z</time>
      </trkpt>
      <trkpt lat="46.49212" lon="-0.56265">
        <ele>28</ele>
        <time>2013-09-15T08:45:25Z</time>
      </trkpt>
      <trkpt lat="46.49216" lon="-0.56277">
        <ele>28</ele>
        <time>2013-09-15T08:45:27Z</time>
      </trkpt>
      <trkpt lat="46.49223" lon="-0.56295">
        <ele>28</ele>
        <time>2013-09-15T08:45:30Z</time>
      </trkpt>
      <trkpt lat="46.49227" lon="-0.56307">
        <ele>28</ele>
        <time>2013-09-15T08:45:32Z</time>
      </trkpt>
      <trkpt lat="46.49231" lon="-0.56319">
        <ele>29</ele>
        <time>2013-09-15T08:45:34Z</time>
      </trkpt>
      <trkpt lat="46.49236" lon="-0.56332">
        <ele>28</ele>
        <time>2013-09-15T08:45:36Z</time>
      </trkpt>
      <trkpt lat="46.4924" lon="-0.56344">
        <ele>29</ele>
        <time>2013-09-15T08:45:38Z</time>
      </trkpt>
      <trkpt lat="46.49245" lon="-0.56357">
        <ele>29</ele>
        <time>2013-09-15T08:45:41Z</time>
      </trkpt>
      <trkpt lat="46.4925" lon="-0.56376">
        <ele>29</ele>
        <time>2013-09-15T08:45:43Z</time>
      </trkpt>
      <trkpt lat="46.49254" lon="-0.56396">
        <ele>30</ele>
        <time>2013-09-15T08:45:46Z</time>
      </trkpt>
      <trkpt lat="46.49257" lon="-0.56407">
        <ele>30</ele>
        <time>2013-09-15T08:45:48Z</time>
      </trkpt>
      <trkpt lat="46.49259" lon="-0.56425">
        <ele>31</ele>
        <time>2013-09-15T08:45:51Z</time>
      </trkpt>
      <trkpt lat="46.4926" lon="-0.56438">
        <ele>31</ele>
        <time>2013-09-15T08:45:53Z</time>
      </trkpt>
      <trkpt lat="46.4926" lon="-0.56452">
        <ele>31</ele>
        <time>2013-09-15T08:45:55Z</time>
      </trkpt>
      <trkpt lat="46.4926" lon="-0.56465">
        <ele>31</ele>
        <time>2013-09-15T08:45:57Z</time>
      </trkpt>
      <trkpt lat="46.49259" lon="-0.56485">
        <ele>31</ele>
        <time>2013-09-15T08:46:00Z</time>
      </trkpt>
      <trkpt lat="46.49259" lon="-0.56498">
        <ele>32</ele>
        <time>2013-09-15T08:46:02Z</time>
      </trkpt>
      <trkpt lat="46.49258" lon="-0.56511">
        <ele>32</ele>
        <time>2013-09-15T08:46:04Z</time>
      </trkpt>
      <trkpt lat="46.49258" lon="-0.56524">
        <ele>32</ele>
        <time>2013-09-15T08:46:06Z</time>
      </trkpt>
      <trkpt lat="46.49258" lon="-0.56537">
        <ele>32</ele>
        <time>2013-09-15T08:46:08Z</time>
      </trkpt>
      <trkpt lat="46.49257" lon="-0.5655">
        <ele>33</ele>
        <time>2013-09-15T08:46:10Z</time>
      </trkpt>
      <trkpt lat="46.49257" lon="-0.56562">
        <ele>33</ele>
        <time>2013-09-15T08:46:12Z</time>
      </trkpt>
      <trkpt lat="46.49257" lon="-0.56575">
        <ele>33</ele>
        <time>2013-09-15T08:46:14Z</time>
      </trkpt>
      <trkpt lat="46.49257" lon="-0.56587">
        <ele>34</ele>
        <time>2013-09-15T08:46:16Z</time>
      </trkpt>
      <trkpt lat="46.49257" lon="-0.56599">
        <ele>34</ele>
        <time>2013-09-15T08:46:18Z</time>
      </trkpt>
      <trkpt lat="46.49258" lon="-0.56611">
        <ele>34</ele>
        <time>2013-09-15T08:46:20Z</time>
      </trkpt>
      <trkpt lat="46.49258" lon="-0.56623">
        <ele>34</ele>
        <time>2013-09-15T08:46:22Z</time>
      </trkpt>
      <trkpt lat="46.49258" lon="-0.56635">
        <ele>35</ele>
        <time>2013-09-15T08:46:24Z</time>
      </trkpt>
      <trkpt lat="46.49258" lon="-0.56647">
        <ele>35</ele>
        <time>2013-09-15T08:46:26Z</time>
      </trkpt>
      <trkpt lat="46.49257" lon="-0.5666">
        <ele>35</ele>
        <time>2013-09-15T08:46:28Z</time>
      </trkpt>
      <trkpt lat="46.49256" lon="-0.56672">
        <ele>34</ele>
        <time>2013-09-15T08:46:30Z</time>
      </trkpt>
      <trkpt lat="46.49255" lon="-0.56685">
        <ele>35</ele>
        <time>2013-09-15T08:46:32Z</time>
      </trkpt>
      <trkpt lat="46.49255" lon="-0.56697">
        <ele>36</ele>
        <time>2013-09-15T08:46:34Z</time>
      </trkpt>
      <trkpt lat="46.49255" lon="-0.56709">
        <ele>36</ele>
        <time>2013-09-15T08:46:36Z</time>
      </trkpt>
      <trkpt lat="46.49256" lon="-0.56721">
        <ele>36</ele>
        <time>2013-09-15T08:46:38Z</time>
      </trkpt>
      <trkpt lat="46.49257" lon="-0.56734">
        <ele>37</ele>
        <time>2013-09-15T08:46:40Z</time>
      </trkpt>
      <trkpt lat="46.49258" lon="-0.56745">
        <ele>37</ele>
        <time>2013-09-15T08:46:42Z</time>
      </trkpt>
      <trkpt lat="46.4926" lon="-0.56757">
        <ele>37</ele>
        <time>2013-09-15T08:46:44Z</time>
      </trkpt>
      <trkpt lat="46.49262" lon="-0.56775">
        <ele>37</ele>
        <time>2013-09-15T08:46:47Z</time>
      </trkpt>
      <trkpt lat="46.49264" lon="-0.56787">
        <ele>37</ele>
        <time>2013-09-15T08:46:49Z</time>
      </trkpt>
      <trkpt lat="46.49265" lon="-0.56798">
        <ele>37</ele>
        <time>2013-09-15T08:46:51Z</time>
      </trkpt>
      <trkpt lat="46.49266" lon="-0.56809">
        <ele>37</ele>
        <time>2013-09-15T08:46:53Z</time>
      </trkpt>
      <trkpt lat="46.49268" lon="-0.5682">
        <ele>37</ele>
        <time>2013-09-15T08:46:55Z</time>
      </trkpt>
      <trkpt lat="46.49269" lon="-0.56832">
        <ele>38</ele>
        <time>2013-09-15T08:46:57Z</time>
      </trkpt>
      <trkpt lat="46.49269" lon="-0.56843">
        <ele>38</ele>
        <time>2013-09-15T08:46:59Z</time>
      </trkpt>
      <trkpt lat="46.49269" lon="-0.56855">
        <ele>38</ele>
        <time>2013-09-15T08:47:01Z</time>
      </trkpt>
      <trkpt lat="46.49268" lon="-0.56867">
        <ele>39</ele>
        <time>2013-09-15T08:47:03Z</time>
      </trkpt>
      <trkpt lat="46.49268" lon="-0.56878">
        <ele>39</ele>
        <time>2013-09-15T08:47:05Z</time>
      </trkpt>
      <trkpt lat="46.49268" lon="-0.5689">
        <ele>39</ele>
        <time>2013-09-15T08:47:07Z</time>
      </trkpt>
      <trkpt lat="46.49267" lon="-0.56902">
        <ele>39</ele>
        <time>2013-09-15T08:47:09Z</time>
      </trkpt>
      <trkpt lat="46.49266" lon="-0.56914">
        <ele>40</ele>
        <time>2013-09-15T08:47:11Z</time>
      </trkpt>
      <trkpt lat="46.49265" lon="-0.56925">
        <ele>40</ele>
        <time>2013-09-15T08:47:13Z</time>
      </trkpt>
      <trkpt lat="46.49263" lon="-0.56937">
        <ele>40</ele>
        <time>2013-09-15T08:47:15Z</time>
      </trkpt>
      <trkpt lat="46.49261" lon="-0.56949">
        <ele>40</ele>
        <time>2013-09-15T08:47:17Z</time>
      </trkpt>
      <trkpt lat="46.49259" lon="-0.56961">
        <ele>40</ele>
        <time>2013-09-15T08:47:19Z</time>
      </trkpt>
      <trkpt lat="46.49257" lon="-0.56973">
        <ele>40</ele>
        <time>2013-09-15T08:47:21Z</time>
      </trkpt>
      <trkpt lat="46.49255" lon="-0.56986">
        <ele>40</ele>
        <time>2013-09-15T08:47:23Z</time>
      </trkpt>
      <trkpt lat="46.49252" lon="-0.57">
        <ele>40</ele>
        <time>2013-09-15T08:47:25Z</time>
      </trkpt>
      <trkpt lat="46.4925" lon="-0.57015">
        <ele>40</ele>
        <time>2013-09-15T08:47:27Z</time>
      </trkpt>
      <trkpt lat="46.49247" lon="-0.57029">
        <ele>40</ele>
        <time>2013-09-15T08:47:29Z</time>
      </trkpt>
      <trkpt lat="46.49245" lon="-0.57043">
        <ele>40</ele>
        <time>2013-09-15T08:47:31Z</time>
      </trkpt>
      <trkpt lat="46.49243" lon="-0.57057">
        <ele>40</ele>
        <time>2013-09-15T08:47:33Z</time>
      </trkpt>
      <trkpt lat="46.4924" lon="-0.57072">
        <ele>40</ele>
        <time>2013-09-15T08:47:35Z</time>
      </trkpt>
      <trkpt lat="46.49238" lon="-0.57087">
        <ele>39</ele>
        <time>2013-09-15T08:47:37Z</time>
      </trkpt>
      <trkpt lat="46.49236" lon="-0.57102">
        <ele>39</ele>
        <time>2013-09-15T08:47:39Z</time>
      </trkpt>
      <trkpt lat="46.49234" lon="-0.57117">
        <ele>39</ele>
        <time>2013-09-15T08:47:41Z</time>
      </trkpt>
      <trkpt lat="46.49231" lon="-0.57131">
        <ele>39</ele>
        <time>2013-09-15T08:47:43Z</time>
      </trkpt>
      <trkpt lat="46.49229" lon="-0.57146">
        <ele>39</ele>
        <time>2013-09-15T08:47:45Z</time>
      </trkpt>
      <trkpt lat="46.49227" lon="-0.57161">
        <ele>39</ele>
        <time>2013-09-15T08:47:47Z</time>
      </trkpt>
      <trkpt lat="46.49225" lon="-0.57176">
        <ele>38</ele>
        <time>2013-09-15T08:47:49Z</time>
      </trkpt>
      <trkpt lat="46.49224" lon="-0.57199">
        <ele>39</ele>
        <time>2013-09-15T08:47:52Z</time>
      </trkpt>
      <trkpt lat="46.4923" lon="-0.5721">
        <ele>39</ele>
        <time>2013-09-15T08:47:55Z</time>
      </trkpt>
      <trkpt lat="46.49244" lon="-0.57214">
        <ele>38</ele>
        <time>2013-09-15T08:47:57Z</time>
      </trkpt>
      <trkpt lat="46.49261" lon="-0.57215">
        <ele>38</ele>
        <time>2013-09-15T08:48:00Z</time>
      </trkpt>
      <trkpt lat="46.49272" lon="-0.57214">
        <ele>38</ele>
        <time>2013-09-15T08:48:03Z</time>
      </trkpt>
      <trkpt lat="46.49291" lon="-0.57214">
        <ele>38</ele>
        <time>2013-09-15T08:48:05Z</time>
      </trkpt>
      <trkpt lat="46.49304" lon="-0.57213">
        <ele>38</ele>
        <time>2013-09-15T08:48:07Z</time>
      </trkpt>
      <trkpt lat="46.49318" lon="-0.57213">
        <ele>37</ele>
        <time>2013-09-15T08:48:09Z</time>
      </trkpt>
      <trkpt lat="46.49331" lon="-0.57211">
        <ele>37</ele>
        <time>2013-09-15T08:48:11Z</time>
      </trkpt>
      <trkpt lat="46.4935" lon="-0.57208">
        <ele>37</ele>
        <time>2013-09-15T08:48:14Z</time>
      </trkpt>
      <trkpt lat="46.49362" lon="-0.57205">
        <ele>37</ele>
        <time>2013-09-15T08:48:16Z</time>
      </trkpt>
      <trkpt lat="46.49374" lon="-0.57203">
        <ele>36</ele>
        <time>2013-09-15T08:48:19Z</time>
      </trkpt>
      <trkpt lat="46.49393" lon="-0.57201">
        <ele>37</ele>
        <time>2013-09-15T08:48:21Z</time>
      </trkpt>
      <trkpt lat="46.49406" lon="-0.572">
        <ele>37</ele>
        <time>2013-09-15T08:48:24Z</time>
      </trkpt>
      <trkpt lat="46.49424" lon="-0.57201">
        <ele>37</ele>
        <time>2013-09-15T08:48:26Z</time>
      </trkpt>
      <trkpt lat="46.49437" lon="-0.572">
        <ele>37</ele>
        <time>2013-09-15T08:48:28Z</time>
      </trkpt>
      <trkpt lat="46.49455" lon="-0.572">
        <ele>37</ele>
        <time>2013-09-15T08:48:31Z</time>
      </trkpt>
      <trkpt lat="46.49468" lon="-0.57201">
        <ele>37</ele>
        <time>2013-09-15T08:48:33Z</time>
      </trkpt>
      <trkpt lat="46.4948" lon="-0.57202">
        <ele>36</ele>
        <time>2013-09-15T08:48:35Z</time>
      </trkpt>
      <trkpt lat="46.49492" lon="-0.57205">
        <ele>37</ele>
        <time>2013-09-15T08:48:37Z</time>
      </trkpt>
      <trkpt lat="46.49499" lon="-0.57218">
        <ele>37</ele>
        <time>2013-09-15T08:48:39Z</time>
      </trkpt>
      <trkpt lat="46.49505" lon="-0.57244">
        <ele>37</ele>
        <time>2013-09-15T08:48:42Z</time>
      </trkpt>
      <trkpt lat="46.49508" lon="-0.57262">
        <ele>36</ele>
        <time>2013-09-15T08:48:45Z</time>
      </trkpt>
      <trkpt lat="46.49512" lon="-0.57288">
        <ele>36</ele>
        <time>2013-09-15T08:48:47Z</time>
      </trkpt>
      <trkpt lat="46.49514" lon="-0.57306">
        <ele>36</ele>
        <time>2013-09-15T08:48:49Z</time>
      </trkpt>
      <trkpt lat="46.49517" lon="-0.57324">
        <ele>35</ele>
        <time>2013-09-15T08:48:51Z</time>
      </trkpt>
      <trkpt lat="46.49522" lon="-0.5735">
        <ele>35</ele>
        <time>2013-09-15T08:48:55Z</time>
      </trkpt>
      <trkpt lat="46.49526" lon="-0.57376">
        <ele>35</ele>
        <time>2013-09-15T08:48:57Z</time>
      </trkpt>
      <trkpt lat="46.4953" lon="-0.574">
        <ele>35</ele>
        <time>2013-09-15T08:49:00Z</time>
      </trkpt>
      <trkpt lat="46.49533" lon="-0.57416">
        <ele>36</ele>
        <time>2013-09-15T08:49:02Z</time>
      </trkpt>
      <trkpt lat="46.49536" lon="-0.57441">
        <ele>36</ele>
        <time>2013-09-15T08:49:05Z</time>
      </trkpt>
      <trkpt lat="46.49538" lon="-0.57458">
        <ele>36</ele>
        <time>2013-09-15T08:49:07Z</time>
      </trkpt>
      <trkpt lat="46.49542" lon="-0.57483">
        <ele>36</ele>
        <time>2013-09-15T08:49:10Z</time>
      </trkpt>
      <trkpt lat="46.49545" lon="-0.57499">
        <ele>36</ele>
        <time>2013-09-15T08:49:12Z</time>
      </trkpt>
      <trkpt lat="46.49547" lon="-0.57515">
        <ele>37</ele>
        <time>2013-09-15T08:49:14Z</time>
      </trkpt>
      <trkpt lat="46.49549" lon="-0.57531">
        <ele>36</ele>
        <time>2013-09-15T08:49:16Z</time>
      </trkpt>
      <trkpt lat="46.49552" lon="-0.57548">
        <ele>37</ele>
        <time>2013-09-15T08:49:18Z</time>
      </trkpt>
      <trkpt lat="46.49556" lon="-0.57574">
        <ele>37</ele>
        <time>2013-09-15T08:49:21Z</time>
      </trkpt>
      <trkpt lat="46.49561" lon="-0.57602">
        <ele>37</ele>
        <time>2013-09-15T08:49:24Z</time>
      </trkpt>
      <trkpt lat="46.49564" lon="-0.57621">
        <ele>36</ele>
        <time>2013-09-15T08:49:26Z</time>
      </trkpt>
      <trkpt lat="46.49567" lon="-0.5764">
        <ele>36</ele>
        <time>2013-09-15T08:49:28Z</time>
      </trkpt>
      <trkpt lat="46.49571" lon="-0.57669">
        <ele>35</ele>
        <time>2013-09-15T08:49:31Z</time>
      </trkpt>
      <trkpt lat="46.49574" lon="-0.57687">
        <ele>35</ele>
        <time>2013-09-15T08:49:34Z</time>
      </trkpt>
      <trkpt lat="46.49578" lon="-0.57711">
        <ele>35</ele>
        <time>2013-09-15T08:49:36Z</time>
      </trkpt>
      <trkpt lat="46.49582" lon="-0.57734">
        <ele>35</ele>
        <time>2013-09-15T08:49:39Z</time>
      </trkpt>
      <trkpt lat="46.49583" lon="-0.57747">
        <ele>35</ele>
        <time>2013-09-15T08:49:41Z</time>
      </trkpt>
      <trkpt lat="46.49585" lon="-0.57757">
        <ele>35</ele>
        <time>2013-09-15T08:49:43Z</time>
      </trkpt>
      <trkpt lat="46.49586" lon="-0.57762">
        <ele>35</ele>
        <time>2013-09-15T08:49:46Z</time>
      </trkpt>
      <trkpt lat="46.4959" lon="-0.57772">
        <ele>34</ele>
        <time>2013-09-15T08:49:48Z</time>
      </trkpt>
      <trkpt lat="46.49594" lon="-0.57783">
        <ele>34</ele>
        <time>2013-09-15T08:49:51Z</time>
      </trkpt>
      <trkpt lat="46.49601" lon="-0.57801">
        <ele>34</ele>
        <time>2013-09-15T08:49:53Z</time>
      </trkpt>
      <trkpt lat="46.49607" lon="-0.57814">
        <ele>34</ele>
        <time>2013-09-15T08:49:56Z</time>
      </trkpt>
      <trkpt lat="46.49619" lon="-0.57833">
        <ele>33</ele>
        <time>2013-09-15T08:49:58Z</time>
      </trkpt>
      <trkpt lat="46.49632" lon="-0.57855">
        <ele>32</ele>
        <time>2013-09-15T08:50:01Z</time>
      </trkpt>
      <trkpt lat="46.49635" lon="-0.57876">
        <ele>32</ele>
        <time>2013-09-15T08:50:04Z</time>
      </trkpt>
      <trkpt lat="46.4963" lon="-0.57885">
        <ele>31</ele>
        <time>2013-09-15T08:50:06Z</time>
      </trkpt>
      <trkpt lat="46.49624" lon="-0.57894">
        <ele>31</ele>
        <time>2013-09-15T08:50:08Z</time>
      </trkpt>
      <trkpt lat="46.49616" lon="-0.57904">
        <ele>32</ele>
        <time>2013-09-15T08:50:11Z</time>
      </trkpt>
      <trkpt lat="46.49604" lon="-0.57919">
        <ele>31</ele>
        <time>2013-09-15T08:50:13Z</time>
      </trkpt>
      <trkpt lat="46.49595" lon="-0.5793">
        <ele>31</ele>
        <time>2013-09-15T08:50:15Z</time>
      </trkpt>
      <trkpt lat="46.49586" lon="-0.57942">
        <ele>32</ele>
        <time>2013-09-15T08:50:17Z</time>
      </trkpt>
      <trkpt lat="46.49572" lon="-0.5796">
        <ele>32</ele>
        <time>2013-09-15T08:50:20Z</time>
      </trkpt>
      <trkpt lat="46.49561" lon="-0.57973">
        <ele>32</ele>
        <time>2013-09-15T08:50:22Z</time>
      </trkpt>
      <trkpt lat="46.49545" lon="-0.57993">
        <ele>32</ele>
        <time>2013-09-15T08:50:25Z</time>
      </trkpt>
      <trkpt lat="46.49534" lon="-0.58006">
        <ele>32</ele>
        <time>2013-09-15T08:50:27Z</time>
      </trkpt>
      <trkpt lat="46.49518" lon="-0.58026">
        <ele>31</ele>
        <time>2013-09-15T08:50:30Z</time>
      </trkpt>
      <trkpt lat="46.49507" lon="-0.58039">
        <ele>31</ele>
        <time>2013-09-15T08:50:32Z</time>
      </trkpt>
      <trkpt lat="46.49496" lon="-0.58052">
        <ele>30</ele>
        <time>2013-09-15T08:50:34Z</time>
      </trkpt>
      <trkpt lat="46.49486" lon="-0.58065">
        <ele>30</ele>
        <time>2013-09-15T08:50:36Z</time>
      </trkpt>
      <trkpt lat="46.49481" lon="-0.58084">
        <ele>28</ele>
        <time>2013-09-15T08:50:40Z</time>
      </trkpt>
      <trkpt lat="46.49493" lon="-0.581">
        <ele>27</ele>
        <time>2013-09-15T08:50:42Z</time>
      </trkpt>
      <trkpt lat="46.49504" lon="-0.58109">
        <ele>27</ele>
        <time>2013-09-15T08:50:44Z</time>
      </trkpt>
      <trkpt lat="46.49522" lon="-0.58125">
        <ele>27</ele>
        <time>2013-09-15T08:50:47Z</time>
      </trkpt>
      <trkpt lat="46.49535" lon="-0.58134">
        <ele>27</ele>
        <time>2013-09-15T08:50:49Z</time>
      </trkpt>
      <trkpt lat="46.49553" lon="-0.58149">
        <ele>27</ele>
        <time>2013-09-15T08:50:52Z</time>
      </trkpt>
      <trkpt lat="46.49571" lon="-0.58165">
        <ele>27</ele>
        <time>2013-09-15T08:50:55Z</time>
      </trkpt>
      <trkpt lat="46.49591" lon="-0.58172">
        <ele>27</ele>
        <time>2013-09-15T08:50:58Z</time>
      </trkpt>
      <trkpt lat="46.49611" lon="-0.58167">
        <ele>26</ele>
        <time>2013-09-15T08:51:01Z</time>
      </trkpt>
      <trkpt lat="46.4963" lon="-0.58159">
        <ele>26</ele>
        <time>2013-09-15T08:51:04Z</time>
      </trkpt>
      <trkpt lat="46.49649" lon="-0.58151">
        <ele>27</ele>
        <time>2013-09-15T08:51:07Z</time>
      </trkpt>
      <trkpt lat="46.49668" lon="-0.58143">
        <ele>27</ele>
        <time>2013-09-15T08:51:10Z</time>
      </trkpt>
      <trkpt lat="46.49687" lon="-0.58137">
        <ele>27</ele>
        <time>2013-09-15T08:51:13Z</time>
      </trkpt>
      <trkpt lat="46.49704" lon="-0.5813">
        <ele>27</ele>
        <time>2013-09-15T08:51:16Z</time>
      </trkpt>
      <trkpt lat="46.49719" lon="-0.58121">
        <ele>27</ele>
        <time>2013-09-15T08:51:19Z</time>
      </trkpt>
      <trkpt lat="46.4973" lon="-0.58116">
        <ele>26</ele>
        <time>2013-09-15T08:51:21Z</time>
      </trkpt>
      <trkpt lat="46.49746" lon="-0.58106">
        <ele>27</ele>
        <time>2013-09-15T08:51:24Z</time>
      </trkpt>
      <trkpt lat="46.49757" lon="-0.58099">
        <ele>27</ele>
        <time>2013-09-15T08:51:26Z</time>
      </trkpt>
      <trkpt lat="46.49768" lon="-0.58092">
        <ele>27</ele>
        <time>2013-09-15T08:51:28Z</time>
      </trkpt>
      <trkpt lat="46.49784" lon="-0.58082">
        <ele>27</ele>
        <time>2013-09-15T08:51:31Z</time>
      </trkpt>
      <trkpt lat="46.49799" lon="-0.58074">
        <ele>27</ele>
        <time>2013-09-15T08:51:34Z</time>
      </trkpt>
      <trkpt lat="46.49813" lon="-0.58066">
        <ele>28</ele>
        <time>2013-09-15T08:51:37Z</time>
      </trkpt>
      <trkpt lat="46.49827" lon="-0.58059">
        <ele>28</ele>
        <time>2013-09-15T08:51:40Z</time>
      </trkpt>
      <trkpt lat="46.4984" lon="-0.58051">
        <ele>28</ele>
        <time>2013-09-15T08:51:43Z</time>
      </trkpt>
      <trkpt lat="46.49848" lon="-0.58046">
        <ele>28</ele>
        <time>2013-09-15T08:51:45Z</time>
      </trkpt>
      <trkpt lat="46.49861" lon="-0.5804">
        <ele>29</ele>
        <time>2013-09-15T08:51:48Z</time>
      </trkpt>
      <trkpt lat="46.49868" lon="-0.58036">
        <ele>29</ele>
        <time>2013-09-15T08:51:50Z</time>
      </trkpt>
      <trkpt lat="46.49879" lon="-0.5803">
        <ele>30</ele>
        <time>2013-09-15T08:51:53Z</time>
      </trkpt>
      <trkpt lat="46.49886" lon="-0.58026">
        <ele>31</ele>
        <time>2013-09-15T08:51:55Z</time>
      </trkpt>
      <trkpt lat="46.49896" lon="-0.58022">
        <ele>32</ele>
        <time>2013-09-15T08:51:58Z</time>
      </trkpt>
      <trkpt lat="46.49902" lon="-0.58019">
        <ele>33</ele>
        <time>2013-09-15T08:52:00Z</time>
      </trkpt>
      <trkpt lat="46.49909" lon="-0.58017">
        <ele>33</ele>
        <time>2013-09-15T08:52:02Z</time>
      </trkpt>
      <trkpt lat="46.49915" lon="-0.58015">
        <ele>33</ele>
        <time>2013-09-15T08:52:05Z</time>
      </trkpt>
      <trkpt lat="46.49925" lon="-0.58012">
        <ele>34</ele>
        <time>2013-09-15T08:52:07Z</time>
      </trkpt>
      <trkpt lat="46.49934" lon="-0.58011">
        <ele>34</ele>
        <time>2013-09-15T08:52:10Z</time>
      </trkpt>
      <trkpt lat="46.49941" lon="-0.58009">
        <ele>34</ele>
        <time>2013-09-15T08:52:12Z</time>
      </trkpt>
      <trkpt lat="46.49947" lon="-0.58009">
        <ele>34</ele>
        <time>2013-09-15T08:52:14Z</time>
      </trkpt>
      <trkpt lat="46.49956" lon="-0.5801">
        <ele>35</ele>
        <time>2013-09-15T08:52:17Z</time>
      </trkpt>
      <trkpt lat="46.49962" lon="-0.58011">
        <ele>36</ele>
        <time>2013-09-15T08:52:19Z</time>
      </trkpt>
      <trkpt lat="46.49968" lon="-0.58011">
        <ele>37</ele>
        <time>2013-09-15T08:52:21Z</time>
      </trkpt>
      <trkpt lat="46.49973" lon="-0.58012">
        <ele>37</ele>
        <time>2013-09-15T08:52:23Z</time>
      </trkpt>
      <trkpt lat="46.49982" lon="-0.58012">
        <ele>37</ele>
        <time>2013-09-15T08:52:26Z</time>
      </trkpt>
      <trkpt lat="46.49991" lon="-0.58012">
        <ele>37</ele>
        <time>2013-09-15T08:52:29Z</time>
      </trkpt>
      <trkpt lat="46.49997" lon="-0.58012">
        <ele>37</ele>
        <time>2013-09-15T08:52:31Z</time>
      </trkpt>
      <trkpt lat="46.50003" lon="-0.58013">
        <ele>38</ele>
        <time>2013-09-15T08:52:33Z</time>
      </trkpt>
      <trkpt lat="46.50009" lon="-0.58015">
        <ele>38</ele>
        <time>2013-09-15T08:52:35Z</time>
      </trkpt>
      <trkpt lat="46.50018" lon="-0.58017">
        <ele>39</ele>
        <time>2013-09-15T08:52:38Z</time>
      </trkpt>
      <trkpt lat="46.50024" lon="-0.5802">
        <ele>39</ele>
        <time>2013-09-15T08:52:40Z</time>
      </trkpt>
      <trkpt lat="46.50032" lon="-0.58023">
        <ele>39</ele>
        <time>2013-09-15T08:52:43Z</time>
      </trkpt>
      <trkpt lat="46.50038" lon="-0.58026">
        <ele>40</ele>
        <time>2013-09-15T08:52:45Z</time>
      </trkpt>
      <trkpt lat="46.50044" lon="-0.58028">
        <ele>40</ele>
        <time>2013-09-15T08:52:47Z</time>
      </trkpt>
      <trkpt lat="46.50053" lon="-0.58032">
        <ele>40</ele>
        <time>2013-09-15T08:52:50Z</time>
      </trkpt>
      <trkpt lat="46.50063" lon="-0.58036">
        <ele>41</ele>
        <time>2013-09-15T08:52:53Z</time>
      </trkpt>
      <trkpt lat="46.50071" lon="-0.5804">
        <ele>42</ele>
        <time>2013-09-15T08:52:56Z</time>
      </trkpt>
      <trkpt lat="46.5008" lon="-0.58044">
        <ele>42</ele>
        <time>2013-09-15T08:52:59Z</time>
      </trkpt>
      <trkpt lat="46.5009" lon="-0.58048">
        <ele>43</ele>
        <time>2013-09-15T08:53:02Z</time>
      </trkpt>
      <trkpt lat="46.50099" lon="-0.58052">
        <ele>43</ele>
        <time>2013-09-15T08:53:05Z</time>
      </trkpt>
      <trkpt lat="46.50105" lon="-0.58055">
        <ele>43</ele>
        <time>2013-09-15T08:53:07Z</time>
      </trkpt>
      <trkpt lat="46.50115" lon="-0.5806">
        <ele>43</ele>
        <time>2013-09-15T08:53:10Z</time>
      </trkpt>
      <trkpt lat="46.50122" lon="-0.58063">
        <ele>42</ele>
        <time>2013-09-15T08:53:12Z</time>
      </trkpt>
      <trkpt lat="46.50129" lon="-0.58066">
        <ele>42</ele>
        <time>2013-09-15T08:53:14Z</time>
      </trkpt>
      <trkpt lat="46.50141" lon="-0.5807">
        <ele>42</ele>
        <time>2013-09-15T08:53:17Z</time>
      </trkpt>
      <trkpt lat="46.50155" lon="-0.58074">
        <ele>43</ele>
        <time>2013-09-15T08:53:20Z</time>
      </trkpt>
      <trkpt lat="46.50168" lon="-0.58075">
        <ele>43</ele>
        <time>2013-09-15T08:53:23Z</time>
      </trkpt>
      <trkpt lat="46.50182" lon="-0.58077">
        <ele>42</ele>
        <time>2013-09-15T08:53:26Z</time>
      </trkpt>
      <trkpt lat="46.50197" lon="-0.58076">
        <ele>42</ele>
        <time>2013-09-15T08:53:29Z</time>
      </trkpt>
      <trkpt lat="46.50207" lon="-0.58077">
        <ele>42</ele>
        <time>2013-09-15T08:53:31Z</time>
      </trkpt>
      <trkpt lat="46.50222" lon="-0.58078">
        <ele>41</ele>
        <time>2013-09-15T08:53:34Z</time>
      </trkpt>
      <trkpt lat="46.50238" lon="-0.58077">
        <ele>41</ele>
        <time>2013-09-15T08:53:37Z</time>
      </trkpt>
      <trkpt lat="46.50248" lon="-0.58077">
        <ele>40</ele>
        <time>2013-09-15T08:53:39Z</time>
      </trkpt>
      <trkpt lat="46.50262" lon="-0.58076">
        <ele>40</ele>
        <time>2013-09-15T08:53:42Z</time>
      </trkpt>
      <trkpt lat="46.50278" lon="-0.58075">
        <ele>40</ele>
        <time>2013-09-15T08:53:45Z</time>
      </trkpt>
      <trkpt lat="46.50289" lon="-0.58074">
        <ele>40</ele>
        <time>2013-09-15T08:53:47Z</time>
      </trkpt>
      <trkpt lat="46.50299" lon="-0.58074">
        <ele>40</ele>
        <time>2013-09-15T08:53:49Z</time>
      </trkpt>
      <trkpt lat="46.50314" lon="-0.58073">
        <ele>40</ele>
        <time>2013-09-15T08:53:52Z</time>
      </trkpt>
      <trkpt lat="46.50325" lon="-0.58072">
        <ele>40</ele>
        <time>2013-09-15T08:53:54Z</time>
      </trkpt>
      <trkpt lat="46.50338" lon="-0.58069">
        <ele>39</ele>
        <time>2013-09-15T08:53:57Z</time>
      </trkpt>
      <trkpt lat="46.50346" lon="-0.58069">
        <ele>39</ele>
        <time>2013-09-15T08:53:59Z</time>
      </trkpt>
      <trkpt lat="46.50357" lon="-0.58068">
        <ele>39</ele>
        <time>2013-09-15T08:54:02Z</time>
      </trkpt>
      <trkpt lat="46.50364" lon="-0.58068">
        <ele>38</ele>
        <time>2013-09-15T08:54:04Z</time>
      </trkpt>
      <trkpt lat="46.50373" lon="-0.5807">
        <ele>38</ele>
        <time>2013-09-15T08:54:07Z</time>
      </trkpt>
      <trkpt lat="46.50381" lon="-0.58069">
        <ele>39</ele>
        <time>2013-09-15T08:54:09Z</time>
      </trkpt>
      <trkpt lat="46.50394" lon="-0.5807">
        <ele>39</ele>
        <time>2013-09-15T08:54:12Z</time>
      </trkpt>
      <trkpt lat="46.50407" lon="-0.58069">
        <ele>39</ele>
        <time>2013-09-15T08:54:15Z</time>
      </trkpt>
      <trkpt lat="46.50415" lon="-0.58069">
        <ele>39</ele>
        <time>2013-09-15T08:54:17Z</time>
      </trkpt>
      <trkpt lat="46.50428" lon="-0.58068">
        <ele>40</ele>
        <time>2013-09-15T08:54:20Z</time>
      </trkpt>
      <trkpt lat="46.50436" lon="-0.58068">
        <ele>41</ele>
        <time>2013-09-15T08:54:22Z</time>
      </trkpt>
      <trkpt lat="46.50444" lon="-0.58068">
        <ele>42</ele>
        <time>2013-09-15T08:54:24Z</time>
      </trkpt>
      <trkpt lat="46.50452" lon="-0.58067">
        <ele>43</ele>
        <time>2013-09-15T08:54:26Z</time>
      </trkpt>
      <trkpt lat="46.5046" lon="-0.58067">
        <ele>43</ele>
        <time>2013-09-15T08:54:29Z</time>
      </trkpt>
      <trkpt lat="46.50473" lon="-0.58066">
        <ele>43</ele>
        <time>2013-09-15T08:54:31Z</time>
      </trkpt>
      <trkpt lat="46.50481" lon="-0.58066">
        <ele>43</ele>
        <time>2013-09-15T08:54:33Z</time>
      </trkpt>
      <trkpt lat="46.5049" lon="-0.58065">
        <ele>44</ele>
        <time>2013-09-15T08:54:35Z</time>
      </trkpt>
      <trkpt lat="46.50502" lon="-0.58065">
        <ele>45</ele>
        <time>2013-09-15T08:54:38Z</time>
      </trkpt>
      <trkpt lat="46.50515" lon="-0.58064">
        <ele>44</ele>
        <time>2013-09-15T08:54:41Z</time>
      </trkpt>
      <trkpt lat="46.50523" lon="-0.58065">
        <ele>45</ele>
        <time>2013-09-15T08:54:43Z</time>
      </trkpt>
      <trkpt lat="46.50535" lon="-0.58064">
        <ele>45</ele>
        <time>2013-09-15T08:54:46Z</time>
      </trkpt>
      <trkpt lat="46.50542" lon="-0.58064">
        <ele>45</ele>
        <time>2013-09-15T08:54:48Z</time>
      </trkpt>
      <trkpt lat="46.50549" lon="-0.58063">
        <ele>45</ele>
        <time>2013-09-15T08:54:50Z</time>
      </trkpt>
      <trkpt lat="46.50557" lon="-0.58063">
        <ele>45</ele>
        <time>2013-09-15T08:54:52Z</time>
      </trkpt>
      <trkpt lat="46.5057" lon="-0.58063">
        <ele>45</ele>
        <time>2013-09-15T08:54:55Z</time>
      </trkpt>
      <trkpt lat="46.5058" lon="-0.58063">
        <ele>45</ele>
        <time>2013-09-15T08:54:57Z</time>
      </trkpt>
      <trkpt lat="46.50595" lon="-0.58062">
        <ele>45</ele>
        <time>2013-09-15T08:55:00Z</time>
      </trkpt>
      <trkpt lat="46.50605" lon="-0.58061">
        <ele>45</ele>
        <time>2013-09-15T08:55:02Z</time>
      </trkpt>
      <trkpt lat="46.5062" lon="-0.5806">
        <ele>45</ele>
        <time>2013-09-15T08:55:05Z</time>
      </trkpt>
      <trkpt lat="46.50634" lon="-0.5806">
        <ele>44</ele>
        <time>2013-09-15T08:55:08Z</time>
      </trkpt>
      <trkpt lat="46.50644" lon="-0.58061">
        <ele>44</ele>
        <time>2013-09-15T08:55:10Z</time>
      </trkpt>
      <trkpt lat="46.50657" lon="-0.5806">
        <ele>44</ele>
        <time>2013-09-15T08:55:13Z</time>
      </trkpt>
      <trkpt lat="46.50666" lon="-0.5806">
        <ele>44</ele>
        <time>2013-09-15T08:55:15Z</time>
      </trkpt>
      <trkpt lat="46.50678" lon="-0.58059">
        <ele>44</ele>
        <time>2013-09-15T08:55:18Z</time>
      </trkpt>
      <trkpt lat="46.50687" lon="-0.58059">
        <ele>45</ele>
        <time>2013-09-15T08:55:20Z</time>
      </trkpt>
      <trkpt lat="46.50695" lon="-0.58058">
        <ele>45</ele>
        <time>2013-09-15T08:55:22Z</time>
      </trkpt>
      <trkpt lat="46.50707" lon="-0.58061">
        <ele>45</ele>
        <time>2013-09-15T08:55:25Z</time>
      </trkpt>
      <trkpt lat="46.50713" lon="-0.58069">
        <ele>45</ele>
        <time>2013-09-15T08:55:27Z</time>
      </trkpt>
      <trkpt lat="46.50713" lon="-0.5808">
        <ele>45</ele>
        <time>2013-09-15T08:55:29Z</time>
      </trkpt>
      <trkpt lat="46.50713" lon="-0.58091">
        <ele>45</ele>
        <time>2013-09-15T08:55:31Z</time>
      </trkpt>
      <trkpt lat="46.50714" lon="-0.5811">
        <ele>46</ele>
        <time>2013-09-15T08:55:34Z</time>
      </trkpt>
      <trkpt lat="46.50715" lon="-0.58124">
        <ele>46</ele>
        <time>2013-09-15T08:55:36Z</time>
      </trkpt>
      <trkpt lat="46.50715" lon="-0.58138">
        <ele>46</ele>
        <time>2013-09-15T08:55:38Z</time>
      </trkpt>
      <trkpt lat="46.50716" lon="-0.58161">
        <ele>46</ele>
        <time>2013-09-15T08:55:41Z</time>
      </trkpt>
      <trkpt lat="46.50716" lon="-0.58176">
        <ele>46</ele>
        <time>2013-09-15T08:55:43Z</time>
      </trkpt>
      <trkpt lat="46.50716" lon="-0.58198">
        <ele>46</ele>
        <time>2013-09-15T08:55:46Z</time>
      </trkpt>
      <trkpt lat="46.50716" lon="-0.58213">
        <ele>46</ele>
        <time>2013-09-15T08:55:48Z</time>
      </trkpt>
      <trkpt lat="46.50716" lon="-0.58227">
        <ele>46</ele>
        <time>2013-09-15T08:55:50Z</time>
      </trkpt>
      <trkpt lat="46.50717" lon="-0.58249">
        <ele>45</ele>
        <time>2013-09-15T08:55:53Z</time>
      </trkpt>
      <trkpt lat="46.50718" lon="-0.58271">
        <ele>46</ele>
        <time>2013-09-15T08:55:56Z</time>
      </trkpt>
      <trkpt lat="46.50718" lon="-0.58286">
        <ele>45</ele>
        <time>2013-09-15T08:55:58Z</time>
      </trkpt>
      <trkpt lat="46.50719" lon="-0.5831">
        <ele>46</ele>
        <time>2013-09-15T08:56:01Z</time>
      </trkpt>
      <trkpt lat="46.50719" lon="-0.58327">
        <ele>46</ele>
        <time>2013-09-15T08:56:03Z</time>
      </trkpt>
      <trkpt lat="46.50719" lon="-0.58345">
        <ele>45</ele>
        <time>2013-09-15T08:56:05Z</time>
      </trkpt>
      <trkpt lat="46.50719" lon="-0.58363">
        <ele>46</ele>
        <time>2013-09-15T08:56:07Z</time>
      </trkpt>
      <trkpt lat="46.5072" lon="-0.58392">
        <ele>45</ele>
        <time>2013-09-15T08:56:10Z</time>
      </trkpt>
      <trkpt lat="46.50721" lon="-0.58419">
        <ele>45</ele>
        <time>2013-09-15T08:56:13Z</time>
      </trkpt>
      <trkpt lat="46.50721" lon="-0.58442">
        <ele>44</ele>
        <time>2013-09-15T08:56:16Z</time>
      </trkpt>
      <trkpt lat="46.50721" lon="-0.58454">
        <ele>44</ele>
        <time>2013-09-15T08:56:18Z</time>
      </trkpt>
      <trkpt lat="46.50722" lon="-0.5847">
        <ele>46</ele>
        <time>2013-09-15T08:56:21Z</time>
      </trkpt>
      <trkpt lat="46.50724" lon="-0.58484">
        <ele>46</ele>
        <time>2013-09-15T08:56:24Z</time>
      </trkpt>
      <trkpt lat="46.50726" lon="-0.58494">
        <ele>47</ele>
        <time>2013-09-15T08:56:26Z</time>
      </trkpt>
      <trkpt lat="46.50726" lon="-0.58511">
        <ele>46</ele>
        <time>2013-09-15T08:56:29Z</time>
      </trkpt>
      <trkpt lat="46.50724" lon="-0.58529">
        <ele>46</ele>
        <time>2013-09-15T08:56:32Z</time>
      </trkpt>
      <trkpt lat="46.50717" lon="-0.58549">
        <ele>46</ele>
        <time>2013-09-15T08:56:35Z</time>
      </trkpt>
      <trkpt lat="46.50713" lon="-0.58565">
        <ele>46</ele>
        <time>2013-09-15T08:56:37Z</time>
      </trkpt>
      <trkpt lat="46.5071" lon="-0.58581">
        <ele>46</ele>
        <time>2013-09-15T08:56:39Z</time>
      </trkpt>
      <trkpt lat="46.50708" lon="-0.58597">
        <ele>45</ele>
        <time>2013-09-15T08:56:41Z</time>
      </trkpt>
      <trkpt lat="46.50704" lon="-0.58624">
        <ele>46</ele>
        <time>2013-09-15T08:56:44Z</time>
      </trkpt>
      <trkpt lat="46.50703" lon="-0.58653">
        <ele>47</ele>
        <time>2013-09-15T08:56:47Z</time>
      </trkpt>
      <trkpt lat="46.50705" lon="-0.58683">
        <ele>47</ele>
        <time>2013-09-15T08:56:50Z</time>
      </trkpt>
      <trkpt lat="46.50707" lon="-0.58703">
        <ele>46</ele>
        <time>2013-09-15T08:56:52Z</time>
      </trkpt>
      <trkpt lat="46.50711" lon="-0.58733">
        <ele>46</ele>
        <time>2013-09-15T08:56:55Z</time>
      </trkpt>
      <trkpt lat="46.50715" lon="-0.58762">
        <ele>45</ele>
        <time>2013-09-15T08:56:58Z</time>
      </trkpt>
      <trkpt lat="46.50718" lon="-0.58782">
        <ele>45</ele>
        <time>2013-09-15T08:57:00Z</time>
      </trkpt>
      <trkpt lat="46.50722" lon="-0.58811">
        <ele>46</ele>
        <time>2013-09-15T08:57:03Z</time>
      </trkpt>
      <trkpt lat="46.50725" lon="-0.58829">
        <ele>46</ele>
        <time>2013-09-15T08:57:05Z</time>
      </trkpt>
      <trkpt lat="46.50728" lon="-0.58848">
        <ele>46</ele>
        <time>2013-09-15T08:57:07Z</time>
      </trkpt>
      <trkpt lat="46.50731" lon="-0.58867">
        <ele>46</ele>
        <time>2013-09-15T08:57:09Z</time>
      </trkpt>
      <trkpt lat="46.50734" lon="-0.58894">
        <ele>46</ele>
        <time>2013-09-15T08:57:12Z</time>
      </trkpt>
      <trkpt lat="46.50736" lon="-0.58912">
        <ele>46</ele>
        <time>2013-09-15T08:57:14Z</time>
      </trkpt>
      <trkpt lat="46.50736" lon="-0.58941">
        <ele>46</ele>
        <time>2013-09-15T08:57:17Z</time>
      </trkpt>
      <trkpt lat="46.50732" lon="-0.58969">
        <ele>46</ele>
        <time>2013-09-15T08:57:20Z</time>
      </trkpt>
      <trkpt lat="46.50728" lon="-0.58988">
        <ele>46</ele>
        <time>2013-09-15T08:57:22Z</time>
      </trkpt>
      <trkpt lat="46.50723" lon="-0.59008">
        <ele>45</ele>
        <time>2013-09-15T08:57:24Z</time>
      </trkpt>
      <trkpt lat="46.50719" lon="-0.59026">
        <ele>45</ele>
        <time>2013-09-15T08:57:26Z</time>
      </trkpt>
      <trkpt lat="46.50711" lon="-0.59055">
        <ele>45</ele>
        <time>2013-09-15T08:57:29Z</time>
      </trkpt>
      <trkpt lat="46.50707" lon="-0.59074">
        <ele>45</ele>
        <time>2013-09-15T08:57:31Z</time>
      </trkpt>
      <trkpt lat="46.50702" lon="-0.59093">
        <ele>45</ele>
        <time>2013-09-15T08:57:33Z</time>
      </trkpt>
      <trkpt lat="46.50696" lon="-0.59121">
        <ele>46</ele>
        <time>2013-09-15T08:57:36Z</time>
      </trkpt>
      <trkpt lat="46.50691" lon="-0.5914">
        <ele>46</ele>
        <time>2013-09-15T08:57:38Z</time>
      </trkpt>
      <trkpt lat="46.50684" lon="-0.59167">
        <ele>46</ele>
        <time>2013-09-15T08:57:41Z</time>
      </trkpt>
      <trkpt lat="46.5068" lon="-0.59185">
        <ele>46</ele>
        <time>2013-09-15T08:57:43Z</time>
      </trkpt>
      <trkpt lat="46.50676" lon="-0.59203">
        <ele>45</ele>
        <time>2013-09-15T08:57:45Z</time>
      </trkpt>
      <trkpt lat="46.5067" lon="-0.59229">
        <ele>45</ele>
        <time>2013-09-15T08:57:48Z</time>
      </trkpt>
      <trkpt lat="46.50664" lon="-0.59243">
        <ele>45</ele>
        <time>2013-09-15T08:57:50Z</time>
      </trkpt>
      <trkpt lat="46.50653" lon="-0.59247">
        <ele>44</ele>
        <time>2013-09-15T08:57:52Z</time>
      </trkpt>
      <trkpt lat="46.50635" lon="-0.59244">
        <ele>44</ele>
        <time>2013-09-15T08:57:55Z</time>
      </trkpt>
      <trkpt lat="46.50621" lon="-0.59243">
        <ele>43</ele>
        <time>2013-09-15T08:57:57Z</time>
      </trkpt>
      <trkpt lat="46.50608" lon="-0.59242">
        <ele>42</ele>
        <time>2013-09-15T08:57:59Z</time>
      </trkpt>
      <trkpt lat="46.50588" lon="-0.5924">
        <ele>42</ele>
        <time>2013-09-15T08:58:02Z</time>
      </trkpt>
      <trkpt lat="46.50567" lon="-0.59238">
        <ele>40</ele>
        <time>2013-09-15T08:58:05Z</time>
      </trkpt>
      <trkpt lat="46.50552" lon="-0.59236">
        <ele>40</ele>
        <time>2013-09-15T08:58:07Z</time>
      </trkpt>
      <trkpt lat="46.50529" lon="-0.59235">
        <ele>39</ele>
        <time>2013-09-15T08:58:10Z</time>
      </trkpt>
      <trkpt lat="46.50513" lon="-0.59235">
        <ele>39</ele>
        <time>2013-09-15T08:58:12Z</time>
      </trkpt>
      <trkpt lat="46.50489" lon="-0.59235">
        <ele>38</ele>
        <time>2013-09-15T08:58:15Z</time>
      </trkpt>
      <trkpt lat="46.50474" lon="-0.59234">
        <ele>37</ele>
        <time>2013-09-15T08:58:17Z</time>
      </trkpt>
      <trkpt lat="46.50452" lon="-0.59235">
        <ele>35</ele>
        <time>2013-09-15T08:58:20Z</time>
      </trkpt>
      <trkpt lat="46.50437" lon="-0.59236">
        <ele>35</ele>
        <time>2013-09-15T08:58:22Z</time>
      </trkpt>
      <trkpt lat="46.50423" lon="-0.59239">
        <ele>35</ele>
        <time>2013-09-15T08:58:24Z</time>
      </trkpt>
      <trkpt lat="46.50408" lon="-0.59244">
        <ele>34</ele>
        <time>2013-09-15T08:58:26Z</time>
      </trkpt>
      <trkpt lat="46.50396" lon="-0.59253">
        <ele>33</ele>
        <time>2013-09-15T08:58:28Z</time>
      </trkpt>
      <trkpt lat="46.50385" lon="-0.59268">
        <ele>32</ele>
        <time>2013-09-15T08:58:30Z</time>
      </trkpt>
      <trkpt lat="46.50374" lon="-0.59282">
        <ele>31</ele>
        <time>2013-09-15T08:58:32Z</time>
      </trkpt>
      <trkpt lat="46.50354" lon="-0.59295">
        <ele>31</ele>
        <time>2013-09-15T08:58:35Z</time>
      </trkpt>
      <trkpt lat="46.5034" lon="-0.59298">
        <ele>30</ele>
        <time>2013-09-15T08:58:37Z</time>
      </trkpt>
      <trkpt lat="46.50325" lon="-0.59297">
        <ele>31</ele>
        <time>2013-09-15T08:58:39Z</time>
      </trkpt>
      <trkpt lat="46.50312" lon="-0.59299">
        <ele>31</ele>
        <time>2013-09-15T08:58:41Z</time>
      </trkpt>
      <trkpt lat="46.50297" lon="-0.59316">
        <ele>31</ele>
        <time>2013-09-15T08:58:44Z</time>
      </trkpt>
      <trkpt lat="46.50293" lon="-0.59331">
        <ele>31</ele>
        <time>2013-09-15T08:58:46Z</time>
      </trkpt>
      <trkpt lat="46.50291" lon="-0.59355">
        <ele>30</ele>
        <time>2013-09-15T08:58:49Z</time>
      </trkpt>
      <trkpt lat="46.50286" lon="-0.59379">
        <ele>29</ele>
        <time>2013-09-15T08:58:52Z</time>
      </trkpt>
      <trkpt lat="46.50283" lon="-0.59393">
        <ele>29</ele>
        <time>2013-09-15T08:58:54Z</time>
      </trkpt>
      <trkpt lat="46.50277" lon="-0.59414">
        <ele>28</ele>
        <time>2013-09-15T08:58:57Z</time>
      </trkpt>
      <trkpt lat="46.50273" lon="-0.59426">
        <ele>29</ele>
        <time>2013-09-15T08:58:59Z</time>
      </trkpt>
      <trkpt lat="46.50267" lon="-0.5944">
        <ele>29</ele>
        <time>2013-09-15T08:59:01Z</time>
      </trkpt>
      <trkpt lat="46.50257" lon="-0.59463">
        <ele>29</ele>
        <time>2013-09-15T08:59:04Z</time>
      </trkpt>
      <trkpt lat="46.50246" lon="-0.59487">
        <ele>28</ele>
        <time>2013-09-15T08:59:07Z</time>
      </trkpt>
      <trkpt lat="46.50239" lon="-0.59503">
        <ele>28</ele>
        <time>2013-09-15T08:59:09Z</time>
      </trkpt>
      <trkpt lat="46.50229" lon="-0.59524">
        <ele>27</ele>
        <time>2013-09-15T08:59:12Z</time>
      </trkpt>
      <trkpt lat="46.50221" lon="-0.59539">
        <ele>26</ele>
        <time>2013-09-15T08:59:14Z</time>
      </trkpt>
      <trkpt lat="46.50211" lon="-0.59551">
        <ele>25</ele>
        <time>2013-09-15T08:59:16Z</time>
      </trkpt>
      <trkpt lat="46.502" lon="-0.59559">
        <ele>25</ele>
        <time>2013-09-15T08:59:18Z</time>
      </trkpt>
      <trkpt lat="46.50192" lon="-0.59566">
        <ele>26</ele>
        <time>2013-09-15T08:59:20Z</time>
      </trkpt>
      <trkpt lat="46.50183" lon="-0.59574">
        <ele>26</ele>
        <time>2013-09-15T08:59:22Z</time>
      </trkpt>
      <trkpt lat="46.50169" lon="-0.59593">
        <ele>26</ele>
        <time>2013-09-15T08:59:25Z</time>
      </trkpt>
      <trkpt lat="46.5016" lon="-0.59607">
        <ele>25</ele>
        <time>2013-09-15T08:59:27Z</time>
      </trkpt>
      <trkpt lat="46.5015" lon="-0.59621">
        <ele>24</ele>
        <time>2013-09-15T08:59:29Z</time>
      </trkpt>
      <trkpt lat="46.5014" lon="-0.59636">
        <ele>25</ele>
        <time>2013-09-15T08:59:31Z</time>
      </trkpt>
      <trkpt lat="46.50129" lon="-0.59649">
        <ele>25</ele>
        <time>2013-09-15T08:59:33Z</time>
      </trkpt>
      <trkpt lat="46.50113" lon="-0.59669">
        <ele>26</ele>
        <time>2013-09-15T08:59:36Z</time>
      </trkpt>
      <trkpt lat="46.50102" lon="-0.59681">
        <ele>25</ele>
        <time>2013-09-15T08:59:38Z</time>
      </trkpt>
      <trkpt lat="46.5009" lon="-0.5969">
        <ele>25</ele>
        <time>2013-09-15T08:59:40Z</time>
      </trkpt>
      <trkpt lat="46.50076" lon="-0.59695">
        <ele>24</ele>
        <time>2013-09-15T08:59:42Z</time>
      </trkpt>
      <trkpt lat="46.50063" lon="-0.597">
        <ele>24</ele>
        <time>2013-09-15T08:59:44Z</time>
      </trkpt>
      <trkpt lat="46.50042" lon="-0.59707">
        <ele>23</ele>
        <time>2013-09-15T08:59:47Z</time>
      </trkpt>
      <trkpt lat="46.50029" lon="-0.59712">
        <ele>23</ele>
        <time>2013-09-15T08:59:49Z</time>
      </trkpt>
      <trkpt lat="46.50016" lon="-0.5972">
        <ele>23</ele>
        <time>2013-09-15T08:59:51Z</time>
      </trkpt>
      <trkpt lat="46.49996" lon="-0.59733">
        <ele>23</ele>
        <time>2013-09-15T08:59:54Z</time>
      </trkpt>
      <trkpt lat="46.49977" lon="-0.59746">
        <ele>23</ele>
        <time>2013-09-15T08:59:57Z</time>
      </trkpt>
      <trkpt lat="46.49964" lon="-0.59753">
        <ele>23</ele>
        <time>2013-09-15T08:59:59Z</time>
      </trkpt>
      <trkpt lat="46.4995" lon="-0.59759">
        <ele>23</ele>
        <time>2013-09-15T09:00:01Z</time>
      </trkpt>
      <trkpt lat="46.49937" lon="-0.59765">
        <ele>23</ele>
        <time>2013-09-15T09:00:03Z</time>
      </trkpt>
      <trkpt lat="46.49917" lon="-0.5977">
        <ele>24</ele>
        <time>2013-09-15T09:00:06Z</time>
      </trkpt>
      <trkpt lat="46.49904" lon="-0.59772">
        <ele>24</ele>
        <time>2013-09-15T09:00:08Z</time>
      </trkpt>
      <trkpt lat="46.49892" lon="-0.59773">
        <ele>24</ele>
        <time>2013-09-15T09:00:10Z</time>
      </trkpt>
      <trkpt lat="46.4988" lon="-0.59773">
        <ele>24</ele>
        <time>2013-09-15T09:00:12Z</time>
      </trkpt>
      <trkpt lat="46.49861" lon="-0.59774">
        <ele>25</ele>
        <time>2013-09-15T09:00:15Z</time>
      </trkpt>
      <trkpt lat="46.49849" lon="-0.59775">
        <ele>25</ele>
        <time>2013-09-15T09:00:17Z</time>
      </trkpt>
      <trkpt lat="46.49837" lon="-0.5978">
        <ele>25</ele>
        <time>2013-09-15T09:00:19Z</time>
      </trkpt>
      <trkpt lat="46.49828" lon="-0.59792">
        <ele>26</ele>
        <time>2013-09-15T09:00:21Z</time>
      </trkpt>
      <trkpt lat="46.49822" lon="-0.59815">
        <ele>26</ele>
        <time>2013-09-15T09:00:24Z</time>
      </trkpt>
      <trkpt lat="46.49822" lon="-0.59832">
        <ele>27</ele>
        <time>2013-09-15T09:00:26Z</time>
      </trkpt>
      <trkpt lat="46.49823" lon="-0.59857">
        <ele>27</ele>
        <time>2013-09-15T09:00:29Z</time>
      </trkpt>
      <trkpt lat="46.49823" lon="-0.5988">
        <ele>26</ele>
        <time>2013-09-15T09:00:32Z</time>
      </trkpt>
      <trkpt lat="46.49822" lon="-0.59892">
        <ele>25</ele>
        <time>2013-09-15T09:00:34Z</time>
      </trkpt>
      <trkpt lat="46.49821" lon="-0.59903">
        <ele>25</ele>
        <time>2013-09-15T09:00:37Z</time>
      </trkpt>
      <trkpt lat="46.49821" lon="-0.5992">
        <ele>26</ele>
        <time>2013-09-15T09:00:40Z</time>
      </trkpt>
      <trkpt lat="46.4982" lon="-0.59935">
        <ele>26</ele>
        <time>2013-09-15T09:00:42Z</time>
      </trkpt>
      <trkpt lat="46.49821" lon="-0.59961">
        <ele>25</ele>
        <time>2013-09-15T09:00:45Z</time>
      </trkpt>
      <trkpt lat="46.49822" lon="-0.59979">
        <ele>24</ele>
        <time>2013-09-15T09:00:47Z</time>
      </trkpt>
      <trkpt lat="46.49825" lon="-0.59997">
        <ele>23</ele>
        <time>2013-09-15T09:00:49Z</time>
      </trkpt>
      <trkpt lat="46.49829" lon="-0.60025">
        <ele>23</ele>
        <time>2013-09-15T09:00:52Z</time>
      </trkpt>
      <trkpt lat="46.49833" lon="-0.60043">
        <ele>23</ele>
        <time>2013-09-15T09:00:54Z</time>
      </trkpt>
      <trkpt lat="46.49838" lon="-0.60062">
        <ele>22</ele>
        <time>2013-09-15T09:00:56Z</time>
      </trkpt>
      <trkpt lat="46.49842" lon="-0.6008">
        <ele>22</ele>
        <time>2013-09-15T09:00:58Z</time>
      </trkpt>
      <trkpt lat="46.49846" lon="-0.601">
        <ele>22</ele>
        <time>2013-09-15T09:01:00Z</time>
      </trkpt>
      <trkpt lat="46.49852" lon="-0.60127">
        <ele>22</ele>
        <time>2013-09-15T09:01:03Z</time>
      </trkpt>
      <trkpt lat="46.49855" lon="-0.60146">
        <ele>21</ele>
        <time>2013-09-15T09:01:05Z</time>
      </trkpt>
      <trkpt lat="46.49859" lon="-0.60172">
        <ele>21</ele>
        <time>2013-09-15T09:01:08Z</time>
      </trkpt>
      <trkpt lat="46.49862" lon="-0.60197">
        <ele>22</ele>
        <time>2013-09-15T09:01:11Z</time>
      </trkpt>
      <trkpt lat="46.49863" lon="-0.60214">
        <ele>22</ele>
        <time>2013-09-15T09:01:13Z</time>
      </trkpt>
      <trkpt lat="46.49864" lon="-0.6024">
        <ele>21</ele>
        <time>2013-09-15T09:01:16Z</time>
      </trkpt>
      <trkpt lat="46.49864" lon="-0.60259">
        <ele>21</ele>
        <time>2013-09-15T09:01:18Z</time>
      </trkpt>
      <trkpt lat="46.49862" lon="-0.60286">
        <ele>21</ele>
        <time>2013-09-15T09:01:21Z</time>
      </trkpt>
      <trkpt lat="46.4986" lon="-0.60304">
        <ele>21</ele>
        <time>2013-09-15T09:01:23Z</time>
      </trkpt>
      <trkpt lat="46.49858" lon="-0.60321">
        <ele>21</ele>
        <time>2013-09-15T09:01:25Z</time>
      </trkpt>
      <trkpt lat="46.49855" lon="-0.60346">
        <ele>21</ele>
        <time>2013-09-15T09:01:28Z</time>
      </trkpt>
      <trkpt lat="46.49854" lon="-0.60362">
        <ele>22</ele>
        <time>2013-09-15T09:01:30Z</time>
      </trkpt>
      <trkpt lat="46.49854" lon="-0.60388">
        <ele>22</ele>
        <time>2013-09-15T09:01:33Z</time>
      </trkpt>
      <trkpt lat="46.49855" lon="-0.60405">
        <ele>22</ele>
        <time>2013-09-15T09:01:35Z</time>
      </trkpt>
      <trkpt lat="46.49857" lon="-0.60429">
        <ele>22</ele>
        <time>2013-09-15T09:01:38Z</time>
      </trkpt>
      <trkpt lat="46.4986" lon="-0.60444">
        <ele>23</ele>
        <time>2013-09-15T09:01:40Z</time>
      </trkpt>
      <trkpt lat="46.49862" lon="-0.60461">
        <ele>24</ele>
        <time>2013-09-15T09:01:42Z</time>
      </trkpt>
      <trkpt lat="46.49864" lon="-0.60484">
        <ele>23</ele>
        <time>2013-09-15T09:01:45Z</time>
      </trkpt>
      <trkpt lat="46.49866" lon="-0.60507">
        <ele>23</ele>
        <time>2013-09-15T09:01:48Z</time>
      </trkpt>
      <trkpt lat="46.49871" lon="-0.60533">
        <ele>22</ele>
        <time>2013-09-15T09:01:51Z</time>
      </trkpt>
      <trkpt lat="46.49874" lon="-0.60552">
        <ele>22</ele>
        <time>2013-09-15T09:01:53Z</time>
      </trkpt>
      <trkpt lat="46.49878" lon="-0.60573">
        <ele>22</ele>
        <time>2013-09-15T09:01:55Z</time>
      </trkpt>
      <trkpt lat="46.49883" lon="-0.60595">
        <ele>22</ele>
        <time>2013-09-15T09:01:57Z</time>
      </trkpt>
      <trkpt lat="46.49888" lon="-0.60616">
        <ele>22</ele>
        <time>2013-09-15T09:01:59Z</time>
      </trkpt>
      <trkpt lat="46.49892" lon="-0.60637">
        <ele>22</ele>
        <time>2013-09-15T09:02:01Z</time>
      </trkpt>
      <trkpt lat="46.49894" lon="-0.60658">
        <ele>22</ele>
        <time>2013-09-15T09:02:03Z</time>
      </trkpt>
      <trkpt lat="46.49897" lon="-0.60689">
        <ele>22</ele>
        <time>2013-09-15T09:02:06Z</time>
      </trkpt>
      <trkpt lat="46.49899" lon="-0.6072">
        <ele>22</ele>
        <time>2013-09-15T09:02:09Z</time>
      </trkpt>
      <trkpt lat="46.49899" lon="-0.60739">
        <ele>22</ele>
        <time>2013-09-15T09:02:11Z</time>
      </trkpt>
      <trkpt lat="46.499" lon="-0.6076">
        <ele>22</ele>
        <time>2013-09-15T09:02:13Z</time>
      </trkpt>
      <trkpt lat="46.499" lon="-0.6078">
        <ele>22</ele>
        <time>2013-09-15T09:02:15Z</time>
      </trkpt>
      <trkpt lat="46.499" lon="-0.60802">
        <ele>22</ele>
        <time>2013-09-15T09:02:17Z</time>
      </trkpt>
      <trkpt lat="46.49899" lon="-0.60823">
        <ele>21</ele>
        <time>2013-09-15T09:02:19Z</time>
      </trkpt>
      <trkpt lat="46.49899" lon="-0.60856">
        <ele>21</ele>
        <time>2013-09-15T09:02:22Z</time>
      </trkpt>
      <trkpt lat="46.49898" lon="-0.60878">
        <ele>20</ele>
        <time>2013-09-15T09:02:24Z</time>
      </trkpt>
      <trkpt lat="46.49897" lon="-0.609">
        <ele>20</ele>
        <time>2013-09-15T09:02:26Z</time>
      </trkpt>
      <trkpt lat="46.49896" lon="-0.60922">
        <ele>20</ele>
        <time>2013-09-15T09:02:28Z</time>
      </trkpt>
      <trkpt lat="46.49893" lon="-0.60942">
        <ele>19</ele>
        <time>2013-09-15T09:02:30Z</time>
      </trkpt>
      <trkpt lat="46.49887" lon="-0.60968">
        <ele>17</ele>
        <time>2013-09-15T09:02:33Z</time>
      </trkpt>
      <trkpt lat="46.49881" lon="-0.60976">
        <ele>16</ele>
        <time>2013-09-15T09:02:35Z</time>
      </trkpt>
      <trkpt lat="46.49868" lon="-0.60979">
        <ele>15</ele>
        <time>2013-09-15T09:02:38Z</time>
      </trkpt>
      <trkpt lat="46.4986" lon="-0.60979">
        <ele>15</ele>
        <time>2013-09-15T09:02:40Z</time>
      </trkpt>
      <trkpt lat="46.49854" lon="-0.60984">
        <ele>15</ele>
        <time>2013-09-15T09:02:42Z</time>
      </trkpt>
      <trkpt lat="46.49853" lon="-0.60994">
        <ele>15</ele>
        <time>2013-09-15T09:02:44Z</time>
      </trkpt>
      <trkpt lat="46.49857" lon="-0.61015">
        <ele>16</ele>
        <time>2013-09-15T09:02:47Z</time>
      </trkpt>
      <trkpt lat="46.4986" lon="-0.61032">
        <ele>16</ele>
        <time>2013-09-15T09:02:49Z</time>
      </trkpt>
      <trkpt lat="46.49862" lon="-0.6105">
        <ele>16</ele>
        <time>2013-09-15T09:02:51Z</time>
      </trkpt>
      <trkpt lat="46.49857" lon="-0.61076">
        <ele>16</ele>
        <time>2013-09-15T09:02:54Z</time>
      </trkpt>
      <trkpt lat="46.4985" lon="-0.6109">
        <ele>15</ele>
        <time>2013-09-15T09:02:56Z</time>
      </trkpt>
      <trkpt lat="46.49841" lon="-0.61103">
        <ele>15</ele>
        <time>2013-09-15T09:02:58Z</time>
      </trkpt>
      <trkpt lat="46.49831" lon="-0.61121">
        <ele>15</ele>
        <time>2013-09-15T09:03:01Z</time>
      </trkpt>
      <trkpt lat="46.49824" lon="-0.61134">
        <ele>15</ele>
        <time>2013-09-15T09:03:03Z</time>
      </trkpt>
      <trkpt lat="46.49816" lon="-0.61154">
        <ele>16</ele>
        <time>2013-09-15T09:03:06Z</time>
      </trkpt>
      <trkpt lat="46.49809" lon="-0.61177">
        <ele>16</ele>
        <time>2013-09-15T09:03:09Z</time>
      </trkpt>
      <trkpt lat="46.49805" lon="-0.61198">
        <ele>15</ele>
        <time>2013-09-15T09:03:12Z</time>
      </trkpt>
      <trkpt lat="46.49801" lon="-0.61224">
        <ele>16</ele>
        <time>2013-09-15T09:03:15Z</time>
      </trkpt>
      <trkpt lat="46.49799" lon="-0.61241">
        <ele>16</ele>
        <time>2013-09-15T09:03:17Z</time>
      </trkpt>
      <trkpt lat="46.49797" lon="-0.61255">
        <ele>17</ele>
        <time>2013-09-15T09:03:19Z</time>
      </trkpt>
      <trkpt lat="46.49793" lon="-0.6128">
        <ele>17</ele>
        <time>2013-09-15T09:03:22Z</time>
      </trkpt>
      <trkpt lat="46.4979" lon="-0.61296">
        <ele>17</ele>
        <time>2013-09-15T09:03:24Z</time>
      </trkpt>
      <trkpt lat="46.49787" lon="-0.61313">
        <ele>17</ele>
        <time>2013-09-15T09:03:26Z</time>
      </trkpt>
      <trkpt lat="46.49786" lon="-0.61329">
        <ele>17</ele>
        <time>2013-09-15T09:03:28Z</time>
      </trkpt>
      <trkpt lat="46.49784" lon="-0.61345">
        <ele>17</ele>
        <time>2013-09-15T09:03:30Z</time>
      </trkpt>
      <trkpt lat="46.4978" lon="-0.61368">
        <ele>18</ele>
        <time>2013-09-15T09:03:33Z</time>
      </trkpt>
      <trkpt lat="46.49777" lon="-0.61382">
        <ele>17</ele>
        <time>2013-09-15T09:03:35Z</time>
      </trkpt>
      <trkpt lat="46.49772" lon="-0.61403">
        <ele>17</ele>
        <time>2013-09-15T09:03:38Z</time>
      </trkpt>
      <trkpt lat="46.49769" lon="-0.61417">
        <ele>17</ele>
        <time>2013-09-15T09:03:40Z</time>
      </trkpt>
      <trkpt lat="46.49767" lon="-0.61432">
        <ele>17</ele>
        <time>2013-09-15T09:03:42Z</time>
      </trkpt>
      <trkpt lat="46.49766" lon="-0.61455">
        <ele>17</ele>
        <time>2013-09-15T09:03:45Z</time>
      </trkpt>
      <trkpt lat="46.49767" lon="-0.61471">
        <ele>17</ele>
        <time>2013-09-15T09:03:47Z</time>
      </trkpt>
      <trkpt lat="46.49768" lon="-0.61486">
        <ele>17</ele>
        <time>2013-09-15T09:03:49Z</time>
      </trkpt>
      <trkpt lat="46.49768" lon="-0.61507">
        <ele>17</ele>
        <time>2013-09-15T09:03:52Z</time>
      </trkpt>
      <trkpt lat="46.49766" lon="-0.61528">
        <ele>18</ele>
        <time>2013-09-15T09:03:55Z</time>
      </trkpt>
      <trkpt lat="46.49763" lon="-0.61542">
        <ele>18</ele>
        <time>2013-09-15T09:03:57Z</time>
      </trkpt>
      <trkpt lat="46.4976" lon="-0.61555">
        <ele>19</ele>
        <time>2013-09-15T09:03:59Z</time>
      </trkpt>
      <trkpt lat="46.49758" lon="-0.61568">
        <ele>20</ele>
        <time>2013-09-15T09:04:01Z</time>
      </trkpt>
      <trkpt lat="46.49754" lon="-0.61581">
        <ele>20</ele>
        <time>2013-09-15T09:04:03Z</time>
      </trkpt>
      <trkpt lat="46.4975" lon="-0.616">
        <ele>21</ele>
        <time>2013-09-15T09:04:06Z</time>
      </trkpt>
      <trkpt lat="46.49747" lon="-0.6162">
        <ele>20</ele>
        <time>2013-09-15T09:04:09Z</time>
      </trkpt>
      <trkpt lat="46.49745" lon="-0.6164">
        <ele>19</ele>
        <time>2013-09-15T09:04:12Z</time>
      </trkpt>
      <trkpt lat="46.49744" lon="-0.61653">
        <ele>19</ele>
        <time>2013-09-15T09:04:14Z</time>
      </trkpt>
      <trkpt lat="46.49743" lon="-0.61672">
        <ele>19</ele>
        <time>2013-09-15T09:04:17Z</time>
      </trkpt>
      <trkpt lat="46.49741" lon="-0.61688">
        <ele>19</ele>
        <time>2013-09-15T09:04:20Z</time>
      </trkpt>
      <trkpt lat="46.49742" lon="-0.61705">
        <ele>20</ele>
        <time>2013-09-15T09:04:23Z</time>
      </trkpt>
      <trkpt lat="46.49741" lon="-0.61723">
        <ele>20</ele>
        <time>2013-09-15T09:04:26Z</time>
      </trkpt>
      <trkpt lat="46.49741" lon="-0.61736">
        <ele>19</ele>
        <time>2013-09-15T09:04:28Z</time>
      </trkpt>
      <trkpt lat="46.4974" lon="-0.61749">
        <ele>19</ele>
        <time>2013-09-15T09:04:30Z</time>
      </trkpt>
      <trkpt lat="46.49739" lon="-0.61768">
        <ele>19</ele>
        <time>2013-09-15T09:04:33Z</time>
      </trkpt>
      <trkpt lat="46.4974" lon="-0.6178">
        <ele>20</ele>
        <time>2013-09-15T09:04:35Z</time>
      </trkpt>
      <trkpt lat="46.49741" lon="-0.61794">
        <ele>19</ele>
        <time>2013-09-15T09:04:37Z</time>
      </trkpt>
      <trkpt lat="46.49741" lon="-0.61807">
        <ele>20</ele>
        <time>2013-09-15T09:04:39Z</time>
      </trkpt>
      <trkpt lat="46.49741" lon="-0.61825">
        <ele>19</ele>
        <time>2013-09-15T09:04:42Z</time>
      </trkpt>
      <trkpt lat="46.49741" lon="-0.61836">
        <ele>20</ele>
        <time>2013-09-15T09:04:44Z</time>
      </trkpt>
      <trkpt lat="46.49738" lon="-0.61851">
        <ele>20</ele>
        <time>2013-09-15T09:04:47Z</time>
      </trkpt>
      <trkpt lat="46.49734" lon="-0.6186">
        <ele>20</ele>
        <time>2013-09-15T09:04:49Z</time>
      </trkpt>
      <trkpt lat="46.4973" lon="-0.61871">
        <ele>20</ele>
        <time>2013-09-15T09:04:52Z</time>
      </trkpt>
      <trkpt lat="46.49726" lon="-0.61878">
        <ele>21</ele>
        <time>2013-09-15T09:04:54Z</time>
      </trkpt>
      <trkpt lat="46.4972" lon="-0.61887">
        <ele>21</ele>
        <time>2013-09-15T09:04:57Z</time>
      </trkpt>
      <trkpt lat="46.49715" lon="-0.61895">
        <ele>21</ele>
        <time>2013-09-15T09:05:00Z</time>
      </trkpt>
      <trkpt lat="46.49711" lon="-0.61899">
        <ele>21</ele>
        <time>2013-09-15T09:05:02Z</time>
      </trkpt>
      <trkpt lat="46.49707" lon="-0.61904">
        <ele>21</ele>
        <time>2013-09-15T09:05:04Z</time>
      </trkpt>
      <trkpt lat="46.49702" lon="-0.61912">
        <ele>22</ele>
        <time>2013-09-15T09:05:07Z</time>
      </trkpt>
      <trkpt lat="46.49699" lon="-0.61918">
        <ele>23</ele>
        <time>2013-09-15T09:05:09Z</time>
      </trkpt>
      <trkpt lat="46.49696" lon="-0.61924">
        <ele>23</ele>
        <time>2013-09-15T09:05:11Z</time>
      </trkpt>
      <trkpt lat="46.49693" lon="-0.61932">
        <ele>24</ele>
        <time>2013-09-15T09:05:13Z</time>
      </trkpt>
      <trkpt lat="46.4969" lon="-0.6194">
        <ele>24</ele>
        <time>2013-09-15T09:05:15Z</time>
      </trkpt>
      <trkpt lat="46.49685" lon="-0.61952">
        <ele>24</ele>
        <time>2013-09-15T09:05:18Z</time>
      </trkpt>
      <trkpt lat="46.4968" lon="-0.61966">
        <ele>25</ele>
        <time>2013-09-15T09:05:21Z</time>
      </trkpt>
      <trkpt lat="46.49676" lon="-0.61975">
        <ele>25</ele>
        <time>2013-09-15T09:05:23Z</time>
      </trkpt>
      <trkpt lat="46.49672" lon="-0.61982">
        <ele>26</ele>
        <time>2013-09-15T09:05:25Z</time>
      </trkpt>
      <trkpt lat="46.49668" lon="-0.6199">
        <ele>26</ele>
        <time>2013-09-15T09:05:27Z</time>
      </trkpt>
      <trkpt lat="46.49665" lon="-0.61997">
        <ele>27</ele>
        <time>2013-09-15T09:05:29Z</time>
      </trkpt>
      <trkpt lat="46.49662" lon="-0.62006">
        <ele>27</ele>
        <time>2013-09-15T09:05:31Z</time>
      </trkpt>
      <trkpt lat="46.49657" lon="-0.62021">
        <ele>27</ele>
        <time>2013-09-15T09:05:34Z</time>
      </trkpt>
      <trkpt lat="46.49655" lon="-0.62032">
        <ele>26</ele>
        <time>2013-09-15T09:05:36Z</time>
      </trkpt>
      <trkpt lat="46.49653" lon="-0.62046">
        <ele>25</ele>
        <time>2013-09-15T09:05:38Z</time>
      </trkpt>
      <trkpt lat="46.49654" lon="-0.62067">
        <ele>24</ele>
        <time>2013-09-15T09:05:41Z</time>
      </trkpt>
      <trkpt lat="46.49657" lon="-0.62078">
        <ele>24</ele>
        <time>2013-09-15T09:05:43Z</time>
      </trkpt>
      <trkpt lat="46.49659" lon="-0.62088">
        <ele>24</ele>
        <time>2013-09-15T09:05:45Z</time>
      </trkpt>
      <trkpt lat="46.49661" lon="-0.62097">
        <ele>24</ele>
        <time>2013-09-15T09:05:47Z</time>
      </trkpt>
      <trkpt lat="46.49666" lon="-0.62112">
        <ele>24</ele>
        <time>2013-09-15T09:05:50Z</time>
      </trkpt>
      <trkpt lat="46.4967" lon="-0.62121">
        <ele>24</ele>
        <time>2013-09-15T09:05:52Z</time>
      </trkpt>
      <trkpt lat="46.49675" lon="-0.62129">
        <ele>25</ele>
        <time>2013-09-15T09:05:54Z</time>
      </trkpt>
      <trkpt lat="46.49678" lon="-0.62138">
        <ele>25</ele>
        <time>2013-09-15T09:05:56Z</time>
      </trkpt>
      <trkpt lat="46.49683" lon="-0.62146">
        <ele>25</ele>
        <time>2013-09-15T09:05:58Z</time>
      </trkpt>
      <trkpt lat="46.49687" lon="-0.62151">
        <ele>25</ele>
        <time>2013-09-15T09:06:00Z</time>
      </trkpt>
      <trkpt lat="46.49691" lon="-0.62158">
        <ele>25</ele>
        <time>2013-09-15T09:06:02Z</time>
      </trkpt>
      <trkpt lat="46.49696" lon="-0.62165">
        <ele>25</ele>
        <time>2013-09-15T09:06:04Z</time>
      </trkpt>
      <trkpt lat="46.49703" lon="-0.62176">
        <ele>26</ele>
        <time>2013-09-15T09:06:07Z</time>
      </trkpt>
      <trkpt lat="46.49708" lon="-0.62183">
        <ele>26</ele>
        <time>2013-09-15T09:06:09Z</time>
      </trkpt>
      <trkpt lat="46.49712" lon="-0.6219">
        <ele>26</ele>
        <time>2013-09-15T09:06:11Z</time>
      </trkpt>
      <trkpt lat="46.49715" lon="-0.62197">
        <ele>26</ele>
        <time>2013-09-15T09:06:13Z</time>
      </trkpt>
      <trkpt lat="46.49718" lon="-0.62204">
        <ele>26</ele>
        <time>2013-09-15T09:06:15Z</time>
      </trkpt>
      <trkpt lat="46.49722" lon="-0.62212">
        <ele>26</ele>
        <time>2013-09-15T09:06:17Z</time>
      </trkpt>
      <trkpt lat="46.49725" lon="-0.6222">
        <ele>26</ele>
        <time>2013-09-15T09:06:19Z</time>
      </trkpt>
      <trkpt lat="46.49727" lon="-0.62228">
        <ele>26</ele>
        <time>2013-09-15T09:06:21Z</time>
      </trkpt>
      <trkpt lat="46.4973" lon="-0.62238">
        <ele>26</ele>
        <time>2013-09-15T09:06:23Z</time>
      </trkpt>
      <trkpt lat="46.49733" lon="-0.62252">
        <ele>27</ele>
        <time>2013-09-15T09:06:26Z</time>
      </trkpt>
      <trkpt lat="46.49733" lon="-0.62263">
        <ele>27</ele>
        <time>2013-09-15T09:06:28Z</time>
      </trkpt>
      <trkpt lat="46.49733" lon="-0.62281">
        <ele>28</ele>
        <time>2013-09-15T09:06:31Z</time>
      </trkpt>
      <trkpt lat="46.49733" lon="-0.62292">
        <ele>28</ele>
        <time>2013-09-15T09:06:33Z</time>
      </trkpt>
      <trkpt lat="46.49732" lon="-0.62305">
        <ele>28</ele>
        <time>2013-09-15T09:06:35Z</time>
      </trkpt>
      <trkpt lat="46.49731" lon="-0.62317">
        <ele>28</ele>
        <time>2013-09-15T09:06:37Z</time>
      </trkpt>
      <trkpt lat="46.49731" lon="-0.62329">
        <ele>28</ele>
        <time>2013-09-15T09:06:39Z</time>
      </trkpt>
      <trkpt lat="46.49731" lon="-0.62339">
        <ele>28</ele>
        <time>2013-09-15T09:06:41Z</time>
      </trkpt>
      <trkpt lat="46.49731" lon="-0.6235">
        <ele>28</ele>
        <time>2013-09-15T09:06:43Z</time>
      </trkpt>
      <trkpt lat="46.4973" lon="-0.62365">
        <ele>28</ele>
        <time>2013-09-15T09:06:46Z</time>
      </trkpt>
      <trkpt lat="46.4973" lon="-0.62376">
        <ele>28</ele>
        <time>2013-09-15T09:06:48Z</time>
      </trkpt>
      <trkpt lat="46.49731" lon="-0.62394">
        <ele>27</ele>
        <time>2013-09-15T09:06:51Z</time>
      </trkpt>
      <trkpt lat="46.49734" lon="-0.62407">
        <ele>27</ele>
        <time>2013-09-15T09:06:53Z</time>
      </trkpt>
      <trkpt lat="46.49736" lon="-0.62419">
        <ele>27</ele>
        <time>2013-09-15T09:06:55Z</time>
      </trkpt>
      <trkpt lat="46.49739" lon="-0.62429">
        <ele>27</ele>
        <time>2013-09-15T09:06:57Z</time>
      </trkpt>
      <trkpt lat="46.49743" lon="-0.6244">
        <ele>27</ele>
        <time>2013-09-15T09:06:59Z</time>
      </trkpt>
      <trkpt lat="46.49747" lon="-0.62452">
        <ele>27</ele>
        <time>2013-09-15T09:07:01Z</time>
      </trkpt>
      <trkpt lat="46.49753" lon="-0.62464">
        <ele>26</ele>
        <time>2013-09-15T09:07:03Z</time>
      </trkpt>
      <trkpt lat="46.49761" lon="-0.62485">
        <ele>25</ele>
        <time>2013-09-15T09:07:06Z</time>
      </trkpt>
      <trkpt lat="46.49768" lon="-0.62502">
        <ele>25</ele>
        <time>2013-09-15T09:07:09Z</time>
      </trkpt>
      <trkpt lat="46.49772" lon="-0.62514">
        <ele>25</ele>
        <time>2013-09-15T09:07:11Z</time>
      </trkpt>
      <trkpt lat="46.49776" lon="-0.62526">
        <ele>24</ele>
        <time>2013-09-15T09:07:13Z</time>
      </trkpt>
      <trkpt lat="46.49784" lon="-0.62546">
        <ele>24</ele>
        <time>2013-09-15T09:07:16Z</time>
      </trkpt>
      <trkpt lat="46.49789" lon="-0.6256">
        <ele>23</ele>
        <time>2013-09-15T09:07:18Z</time>
      </trkpt>
      <trkpt lat="46.49798" lon="-0.62584">
        <ele>22</ele>
        <time>2013-09-15T09:07:21Z</time>
      </trkpt>
      <trkpt lat="46.49804" lon="-0.62601">
        <ele>22</ele>
        <time>2013-09-15T09:07:23Z</time>
      </trkpt>
      <trkpt lat="46.49814" lon="-0.62625">
        <ele>21</ele>
        <time>2013-09-15T09:07:26Z</time>
      </trkpt>
      <trkpt lat="46.4982" lon="-0.6264">
        <ele>21</ele>
        <time>2013-09-15T09:07:28Z</time>
      </trkpt>
      <trkpt lat="46.49826" lon="-0.62653">
        <ele>20</ele>
        <time>2013-09-15T09:07:30Z</time>
      </trkpt>
      <trkpt lat="46.49834" lon="-0.62654">
        <ele>20</ele>
        <time>2013-09-15T09:07:32Z</time>
      </trkpt>
      <trkpt lat="46.4984" lon="-0.62649">
        <ele>20</ele>
        <time>2013-09-15T09:07:34Z</time>
      </trkpt>
      <trkpt lat="46.49846" lon="-0.62641">
        <ele>20</ele>
        <time>2013-09-15T09:07:36Z</time>
      </trkpt>
      <trkpt lat="46.49856" lon="-0.62627">
        <ele>20</ele>
        <time>2013-09-15T09:07:39Z</time>
      </trkpt>
      <trkpt lat="46.49863" lon="-0.62619">
        <ele>20</ele>
        <time>2013-09-15T09:07:41Z</time>
      </trkpt>
      <trkpt lat="46.49869" lon="-0.62611">
        <ele>20</ele>
        <time>2013-09-15T09:07:43Z</time>
      </trkpt>
      <trkpt lat="46.49878" lon="-0.62597">
        <ele>21</ele>
        <time>2013-09-15T09:07:46Z</time>
      </trkpt>
      <trkpt lat="46.49888" lon="-0.62583">
        <ele>21</ele>
        <time>2013-09-15T09:07:49Z</time>
      </trkpt>
      <trkpt lat="46.49895" lon="-0.62574">
        <ele>22</ele>
        <time>2013-09-15T09:07:51Z</time>
      </trkpt>
      <trkpt lat="46.49908" lon="-0.62564">
        <ele>22</ele>
        <time>2013-09-15T09:07:54Z</time>
      </trkpt>
      <trkpt lat="46.49917" lon="-0.62558">
        <ele>22</ele>
        <time>2013-09-15T09:07:56Z</time>
      </trkpt>
      <trkpt lat="46.49929" lon="-0.62549">
        <ele>22</ele>
        <time>2013-09-15T09:07:59Z</time>
      </trkpt>
      <trkpt lat="46.49941" lon="-0.62541">
        <ele>22</ele>
        <time>2013-09-15T09:08:02Z</time>
      </trkpt>
      <trkpt lat="46.49954" lon="-0.62532">
        <ele>22</ele>
        <time>2013-09-15T09:08:05Z</time>
      </trkpt>
      <trkpt lat="46.49966" lon="-0.62523">
        <ele>22</ele>
        <time>2013-09-15T09:08:08Z</time>
      </trkpt>
      <trkpt lat="46.49978" lon="-0.62512">
        <ele>22</ele>
        <time>2013-09-15T09:08:11Z</time>
      </trkpt>
      <trkpt lat="46.49986" lon="-0.62504">
        <ele>22</ele>
        <time>2013-09-15T09:08:13Z</time>
      </trkpt>
      <trkpt lat="46.49992" lon="-0.62498">
        <ele>23</ele>
        <time>2013-09-15T09:08:15Z</time>
      </trkpt>
      <trkpt lat="46.50003" lon="-0.6249">
        <ele>23</ele>
        <time>2013-09-15T09:08:18Z</time>
      </trkpt>
      <trkpt lat="46.50016" lon="-0.62482">
        <ele>23</ele>
        <time>2013-09-15T09:08:21Z</time>
      </trkpt>
      <trkpt lat="46.50025" lon="-0.62478">
        <ele>22</ele>
        <time>2013-09-15T09:08:23Z</time>
      </trkpt>
      <trkpt lat="46.50035" lon="-0.62476">
        <ele>22</ele>
        <time>2013-09-15T09:08:25Z</time>
      </trkpt>
      <trkpt lat="46.50044" lon="-0.62476">
        <ele>22</ele>
        <time>2013-09-15T09:08:27Z</time>
      </trkpt>
      <trkpt lat="46.50053" lon="-0.62475">
        <ele>22</ele>
        <time>2013-09-15T09:08:29Z</time>
      </trkpt>
      <trkpt lat="46.50063" lon="-0.62474">
        <ele>22</ele>
        <time>2013-09-15T09:08:31Z</time>
      </trkpt>
      <trkpt lat="46.50074" lon="-0.62472">
        <ele>22</ele>
        <time>2013-09-15T09:08:33Z</time>
      </trkpt>
      <trkpt lat="46.50088" lon="-0.62468">
        <ele>21</ele>
        <time>2013-09-15T09:08:36Z</time>
      </trkpt>
      <trkpt lat="46.50098" lon="-0.62464">
        <ele>20</ele>
        <time>2013-09-15T09:08:38Z</time>
      </trkpt>
      <trkpt lat="46.50109" lon="-0.62461">
        <ele>19</ele>
        <time>2013-09-15T09:08:40Z</time>
      </trkpt>
      <trkpt lat="46.5012" lon="-0.62458">
        <ele>18</ele>
        <time>2013-09-15T09:08:42Z</time>
      </trkpt>
      <trkpt lat="46.50131" lon="-0.62455">
        <ele>17</ele>
        <time>2013-09-15T09:08:44Z</time>
      </trkpt>
      <trkpt lat="46.50142" lon="-0.62452">
        <ele>17</ele>
        <time>2013-09-15T09:08:46Z</time>
      </trkpt>
      <trkpt lat="46.50159" lon="-0.62447">
        <ele>16</ele>
        <time>2013-09-15T09:08:49Z</time>
      </trkpt>
      <trkpt lat="46.50171" lon="-0.62444">
        <ele>16</ele>
        <time>2013-09-15T09:08:51Z</time>
      </trkpt>
      <trkpt lat="46.50191" lon="-0.62438">
        <ele>14</ele>
        <time>2013-09-15T09:08:54Z</time>
      </trkpt>
      <trkpt lat="46.50204" lon="-0.62434">
        <ele>14</ele>
        <time>2013-09-15T09:08:56Z</time>
      </trkpt>
      <trkpt lat="46.50228" lon="-0.62425">
        <ele>12</ele>
        <time>2013-09-15T09:08:59Z</time>
      </trkpt>
      <trkpt lat="46.50251" lon="-0.62414">
        <ele>11</ele>
        <time>2013-09-15T09:09:02Z</time>
      </trkpt>
      <trkpt lat="46.50274" lon="-0.62402">
        <ele>9</ele>
        <time>2013-09-15T09:09:05Z</time>
      </trkpt>
      <trkpt lat="46.50293" lon="-0.62389">
        <ele>9</ele>
        <time>2013-09-15T09:09:08Z</time>
      </trkpt>
      <trkpt lat="46.50306" lon="-0.62381">
        <ele>8</ele>
        <time>2013-09-15T09:09:10Z</time>
      </trkpt>
      <trkpt lat="46.50318" lon="-0.62374">
        <ele>7</ele>
        <time>2013-09-15T09:09:12Z</time>
      </trkpt>
      <trkpt lat="46.50335" lon="-0.62365">
        <ele>7</ele>
        <time>2013-09-15T09:09:15Z</time>
      </trkpt>
      <trkpt lat="46.50351" lon="-0.62357">
        <ele>7</ele>
        <time>2013-09-15T09:09:18Z</time>
      </trkpt>
      <trkpt lat="46.50366" lon="-0.62349">
        <ele>7</ele>
        <time>2013-09-15T09:09:21Z</time>
      </trkpt>
      <trkpt lat="46.5038" lon="-0.62342">
        <ele>8</ele>
        <time>2013-09-15T09:09:24Z</time>
      </trkpt>
      <trkpt lat="46.50394" lon="-0.62334">
        <ele>8</ele>
        <time>2013-09-15T09:09:27Z</time>
      </trkpt>
      <trkpt lat="46.50401" lon="-0.6233">
        <ele>9</ele>
        <time>2013-09-15T09:09:29Z</time>
      </trkpt>
      <trkpt lat="46.50412" lon="-0.62325">
        <ele>9</ele>
        <time>2013-09-15T09:09:32Z</time>
      </trkpt>
      <trkpt lat="46.50419" lon="-0.62322">
        <ele>10</ele>
        <time>2013-09-15T09:09:34Z</time>
      </trkpt>
      <trkpt lat="46.50428" lon="-0.62317">
        <ele>10</ele>
        <time>2013-09-15T09:09:37Z</time>
      </trkpt>
      <trkpt lat="46.50434" lon="-0.62312">
        <ele>11</ele>
        <time>2013-09-15T09:09:39Z</time>
      </trkpt>
      <trkpt lat="46.50443" lon="-0.62307">
        <ele>11</ele>
        <time>2013-09-15T09:09:42Z</time>
      </trkpt>
      <trkpt lat="46.5045" lon="-0.62304">
        <ele>12</ele>
        <time>2013-09-15T09:09:44Z</time>
      </trkpt>
      <trkpt lat="46.50458" lon="-0.623">
        <ele>12</ele>
        <time>2013-09-15T09:09:47Z</time>
      </trkpt>
      <trkpt lat="46.50467" lon="-0.62297">
        <ele>13</ele>
        <time>2013-09-15T09:09:50Z</time>
      </trkpt>
      <trkpt lat="46.50475" lon="-0.62292">
        <ele>13</ele>
        <time>2013-09-15T09:09:53Z</time>
      </trkpt>
      <trkpt lat="46.50479" lon="-0.6229">
        <ele>13</ele>
        <time>2013-09-15T09:09:55Z</time>
      </trkpt>
      <trkpt lat="46.50482" lon="-0.62287">
        <ele>14</ele>
        <time>2013-09-15T09:09:57Z</time>
      </trkpt>
      <trkpt lat="46.50488" lon="-0.62283">
        <ele>15</ele>
        <time>2013-09-15T09:10:00Z</time>
      </trkpt>
      <trkpt lat="46.50493" lon="-0.6228">
        <ele>15</ele>
        <time>2013-09-15T09:10:02Z</time>
      </trkpt>
      <trkpt lat="46.50502" lon="-0.62275">
        <ele>15</ele>
        <time>2013-09-15T09:10:05Z</time>
      </trkpt>
      <trkpt lat="46.50508" lon="-0.62272">
        <ele>16</ele>
        <time>2013-09-15T09:10:07Z</time>
      </trkpt>
      <trkpt lat="46.50517" lon="-0.62268">
        <ele>16</ele>
        <time>2013-09-15T09:10:10Z</time>
      </trkpt>
      <trkpt lat="46.50522" lon="-0.62264">
        <ele>17</ele>
        <time>2013-09-15T09:10:12Z</time>
      </trkpt>
      <trkpt lat="46.50531" lon="-0.6226">
        <ele>18</ele>
        <time>2013-09-15T09:10:15Z</time>
      </trkpt>
      <trkpt lat="46.50536" lon="-0.62257">
        <ele>18</ele>
        <time>2013-09-15T09:10:17Z</time>
      </trkpt>
      <trkpt lat="46.50544" lon="-0.62253">
        <ele>18</ele>
        <time>2013-09-15T09:10:20Z</time>
      </trkpt>
      <trkpt lat="46.50552" lon="-0.62249">
        <ele>19</ele>
        <time>2013-09-15T09:10:23Z</time>
      </trkpt>
      <trkpt lat="46.5056" lon="-0.62244">
        <ele>19</ele>
        <time>2013-09-15T09:10:26Z</time>
      </trkpt>
      <trkpt lat="46.50565" lon="-0.62241">
        <ele>20</ele>
        <time>2013-09-15T09:10:28Z</time>
      </trkpt>
      <trkpt lat="46.50572" lon="-0.62237">
        <ele>20</ele>
        <time>2013-09-15T09:10:31Z</time>
      </trkpt>
      <trkpt lat="46.50578" lon="-0.62234">
        <ele>21</ele>
        <time>2013-09-15T09:10:33Z</time>
      </trkpt>
      <trkpt lat="46.50585" lon="-0.6223">
        <ele>21</ele>
        <time>2013-09-15T09:10:36Z</time>
      </trkpt>
      <trkpt lat="46.50592" lon="-0.62226">
        <ele>21</ele>
        <time>2013-09-15T09:10:39Z</time>
      </trkpt>
      <trkpt lat="46.506" lon="-0.62222">
        <ele>22</ele>
        <time>2013-09-15T09:10:42Z</time>
      </trkpt>
      <trkpt lat="46.50605" lon="-0.62219">
        <ele>22</ele>
        <time>2013-09-15T09:10:44Z</time>
      </trkpt>
      <trkpt lat="46.50613" lon="-0.62215">
        <ele>23</ele>
        <time>2013-09-15T09:10:47Z</time>
      </trkpt>
      <trkpt lat="46.50618" lon="-0.62211">
        <ele>23</ele>
        <time>2013-09-15T09:10:49Z</time>
      </trkpt>
      <trkpt lat="46.50626" lon="-0.62206">
        <ele>24</ele>
        <time>2013-09-15T09:10:52Z</time>
      </trkpt>
      <trkpt lat="46.50631" lon="-0.62202">
        <ele>24</ele>
        <time>2013-09-15T09:10:54Z</time>
      </trkpt>
      <trkpt lat="46.50635" lon="-0.62197">
        <ele>24</ele>
        <time>2013-09-15T09:10:56Z</time>
      </trkpt>
      <trkpt lat="46.5064" lon="-0.62193">
        <ele>25</ele>
        <time>2013-09-15T09:10:58Z</time>
      </trkpt>
      <trkpt lat="46.50648" lon="-0.62187">
        <ele>25</ele>
        <time>2013-09-15T09:11:01Z</time>
      </trkpt>
      <trkpt lat="46.50655" lon="-0.62185">
        <ele>26</ele>
        <time>2013-09-15T09:11:03Z</time>
      </trkpt>
      <trkpt lat="46.50662" lon="-0.62183">
        <ele>26</ele>
        <time>2013-09-15T09:11:05Z</time>
      </trkpt>
      <trkpt lat="46.50668" lon="-0.62183">
        <ele>26</ele>
        <time>2013-09-15T09:11:07Z</time>
      </trkpt>
      <trkpt lat="46.50675" lon="-0.62182">
        <ele>26</ele>
        <time>2013-09-15T09:11:09Z</time>
      </trkpt>
      <trkpt lat="46.50681" lon="-0.62182">
        <ele>26</ele>
        <time>2013-09-15T09:11:11Z</time>
      </trkpt>
      <trkpt lat="46.50687" lon="-0.62182">
        <ele>26</ele>
        <time>2013-09-15T09:11:13Z</time>
      </trkpt>
      <trkpt lat="46.50694" lon="-0.62182">
        <ele>26</ele>
        <time>2013-09-15T09:11:15Z</time>
      </trkpt>
      <trkpt lat="46.50703" lon="-0.62181">
        <ele>27</ele>
        <time>2013-09-15T09:11:18Z</time>
      </trkpt>
      <trkpt lat="46.50712" lon="-0.62179">
        <ele>27</ele>
        <time>2013-09-15T09:11:21Z</time>
      </trkpt>
      <trkpt lat="46.5072" lon="-0.62176">
        <ele>27</ele>
        <time>2013-09-15T09:11:24Z</time>
      </trkpt>
      <trkpt lat="46.50726" lon="-0.62174">
        <ele>28</ele>
        <time>2013-09-15T09:11:26Z</time>
      </trkpt>
      <trkpt lat="46.5073" lon="-0.62171">
        <ele>28</ele>
        <time>2013-09-15T09:11:28Z</time>
      </trkpt>
      <trkpt lat="46.50737" lon="-0.62168">
        <ele>28</ele>
        <time>2013-09-15T09:11:31Z</time>
      </trkpt>
      <trkpt lat="46.50742" lon="-0.6217">
        <ele>28</ele>
        <time>2013-09-15T09:11:34Z</time>
      </trkpt>
      <trkpt lat="46.50744" lon="-0.62172">
        <ele>27</ele>
        <time>2013-09-15T09:11:36Z</time>
      </trkpt>
      <trkpt lat="46.50746" lon="-0.62172">
        <ele>27</ele>
        <time>2013-09-15T09:11:38Z</time>
      </trkpt>
      <trkpt lat="46.50747" lon="-0.62172">
        <ele>27</ele>
        <time>2013-09-15T09:11:41Z</time>
      </trkpt>
      <trkpt lat="46.50748" lon="-0.62172">
        <ele>27</ele>
        <time>2013-09-15T09:11:44Z</time>
      </trkpt>
      <trkpt lat="46.50748" lon="-0.62171">
        <ele>27</ele>
        <time>2013-09-15T09:11:47Z</time>
      </trkpt>
      <trkpt lat="46.50748" lon="-0.62171">
        <ele>27</ele>
        <time>2013-09-15T09:11:49Z</time>
      </trkpt>
      <trkpt lat="46.50749" lon="-0.6217">
        <ele>27</ele>
        <time>2013-09-15T09:11:52Z</time>
      </trkpt>
      <trkpt lat="46.5075" lon="-0.6217">
        <ele>28</ele>
        <time>2013-09-15T09:11:55Z</time>
      </trkpt>
      <trkpt lat="46.5075" lon="-0.6217">
        <ele>28</ele>
        <time>2013-09-15T09:11:57Z</time>
      </trkpt>
      <trkpt lat="46.5075" lon="-0.62169">
        <ele>28</ele>
        <time>2013-09-15T09:12:00Z</time>
      </trkpt>
      <trkpt lat="46.50751" lon="-0.62169">
        <ele>28</ele>
        <time>2013-09-15T09:12:02Z</time>
      </trkpt>
      <trkpt lat="46.50751" lon="-0.62169">
        <ele>28</ele>
        <time>2013-09-15T09:12:05Z</time>
      </trkpt>
      <trkpt lat="46.50751" lon="-0.62168">
        <ele>28</ele>
        <time>2013-09-15T09:12:08Z</time>
      </trkpt>
      <trkpt lat="46.50751" lon="-0.62168">
        <ele>27</ele>
        <time>2013-09-15T09:12:12Z</time>
      </trkpt>
      <trkpt lat="46.5075" lon="-0.62168">
        <ele>27</ele>
        <time>2013-09-15T09:12:16Z</time>
      </trkpt>
      <trkpt lat="46.5075" lon="-0.62168">
        <ele>27</ele>
        <time>2013-09-15T09:12:20Z</time>
      </trkpt>
      <trkpt lat="46.5075" lon="-0.62167">
        <ele>27</ele>
        <time>2013-09-15T09:12:23Z</time>
      </trkpt>
      <trkpt lat="46.5075" lon="-0.62167">
        <ele>27</ele>
        <time>2013-09-15T09:12:26Z</time>
      </trkpt>
      <trkpt lat="46.50749" lon="-0.62167">
        <ele>27</ele>
        <time>2013-09-15T09:12:29Z</time>
      </trkpt>
      <trkpt lat="46.50749" lon="-0.62167">
        <ele>27</ele>
        <time>2013-09-15T09:12:31Z</time>
      </trkpt>
      <trkpt lat="46.50748" lon="-0.62167">
        <ele>27</ele>
        <time>2013-09-15T09:12:34Z</time>
      </trkpt>
      <trkpt lat="46.50748" lon="-0.62167">
        <ele>27</ele>
        <time>2013-09-15T09:12:36Z</time>
      </trkpt>
      <trkpt lat="46.50748" lon="-0.62167">
        <ele>27</ele>
        <time>2013-09-15T09:12:40Z</time>
      </trkpt>
      <trkpt lat="46.50748" lon="-0.62167">
        <ele>28</ele>
        <time>2013-09-15T09:12:42Z</time>
      </trkpt>
      <trkpt lat="46.50748" lon="-0.62167">
        <ele>28</ele>
        <time>2013-09-15T09:12:47Z</time>
      </trkpt>
      <trkpt lat="46.50748" lon="-0.62167">
        <ele>27</ele>
        <time>2013-09-15T09:12:50Z</time>
      </trkpt>
      <trkpt lat="46.50748" lon="-0.62166">
        <ele>27</ele>
        <time>2013-09-15T09:12:53Z</time>
      </trkpt>
      <trkpt lat="46.50749" lon="-0.62166">
        <ele>27</ele>
        <time>2013-09-15T09:12:56Z</time>
      </trkpt>
      <trkpt lat="46.50749" lon="-0.62166">
        <ele>28</ele>
        <time>2013-09-15T09:12:58Z</time>
      </trkpt>
      <trkpt lat="46.5075" lon="-0.62166">
        <ele>28</ele>
        <time>2013-09-15T09:13:02Z</time>
      </trkpt>
      <trkpt lat="46.5075" lon="-0.62166">
        <ele>27</ele>
        <time>2013-09-15T09:13:04Z</time>
      </trkpt>
      <trkpt lat="46.5075" lon="-0.62166">
        <ele>27</ele>
        <time>2013-09-15T09:13:07Z</time>
      </trkpt>
      <trkpt lat="46.5075" lon="-0.62166">
        <ele>28</ele>
        <time>2013-09-15T09:13:09Z</time>
      </trkpt>
      <trkpt lat="46.50751" lon="-0.62166">
        <ele>28</ele>
        <time>2013-09-15T09:13:12Z</time>
      </trkpt>
      <trkpt lat="46.50751" lon="-0.62166">
        <ele>28</ele>
        <time>2013-09-15T09:13:14Z</time>
      </trkpt>
      <trkpt lat="46.50751" lon="-0.62166">
        <ele>28</ele>
        <time>2013-09-15T09:13:19Z</time>
      </trkpt>
      <trkpt lat="46.50751" lon="-0.62166">
        <ele>28</ele>
        <time>2013-09-15T09:13:22Z</time>
      </trkpt>
      <trkpt lat="46.50751" lon="-0.62165">
        <ele>28</ele>
        <time>2013-09-15T09:13:28Z</time>
      </trkpt>
      <trkpt lat="46.50751" lon="-0.62165">
        <ele>28</ele>
        <time>2013-09-15T09:13:32Z</time>
      </trkpt>
      <trkpt lat="46.50751" lon="-0.62164">
        <ele>27</ele>
        <time>2013-09-15T09:13:34Z</time>
      </trkpt>
      <trkpt lat="46.50751" lon="-0.62164">
        <ele>27</ele>
        <time>2013-09-15T09:13:36Z</time>
      </trkpt>
      <trkpt lat="46.50751" lon="-0.62164">
        <ele>27</ele>
        <time>2013-09-15T09:13:39Z</time>
      </trkpt>
      <trkpt lat="46.50751" lon="-0.62164">
        <ele>27</ele>
        <time>2013-09-15T09:13:41Z</time>
      </trkpt>
      <trkpt lat="46.50751" lon="-0.62164">
        <ele>27</ele>
        <time>2013-09-15T09:13:43Z</time>
      </trkpt>
      <trkpt lat="46.50752" lon="-0.62164">
        <ele>28</ele>
        <time>2013-09-15T09:13:48Z</time>
      </trkpt>
      <trkpt lat="46.50752" lon="-0.62164">
        <ele>28</ele>
        <time>2013-09-15T09:13:50Z</time>
      </trkpt>
      <trkpt lat="46.50752" lon="-0.62164">
        <ele>28</ele>
        <time>2013-09-15T09:13:53Z</time>
      </trkpt>
      <trkpt lat="46.50752" lon="-0.62164">
        <ele>28</ele>
        <time>2013-09-15T09:13:56Z</time>
      </trkpt>
      <trkpt lat="46.50753" lon="-0.62165">
        <ele>27</ele>
        <time>2013-09-15T09:13:59Z</time>
      </trkpt>
      <trkpt lat="46.50753" lon="-0.62165">
        <ele>28</ele>
        <time>2013-09-15T09:14:01Z</time>
      </trkpt>
      <trkpt lat="46.50753" lon="-0.62166">
        <ele>27</ele>
        <time>2013-09-15T09:14:03Z</time>
      </trkpt>
      <trkpt lat="46.50754" lon="-0.62167">
        <ele>27</ele>
        <time>2013-09-15T09:14:07Z</time>
      </trkpt>
      <trkpt lat="46.50755" lon="-0.62168">
        <ele>27</ele>
        <time>2013-09-15T09:14:10Z</time>
      </trkpt>
      <trkpt lat="46.50755" lon="-0.62169">
        <ele>27</ele>
        <time>2013-09-15T09:14:12Z</time>
      </trkpt>
      <trkpt lat="46.50755" lon="-0.62169">
        <ele>27</ele>
        <time>2013-09-15T09:14:15Z</time>
      </trkpt>
      <trkpt lat="46.50755" lon="-0.62169">
        <ele>28</ele>
        <time>2013-09-15T09:14:19Z</time>
      </trkpt>
      <trkpt lat="46.50755" lon="-0.62168">
        <ele>28</ele>
        <time>2013-09-15T09:14:22Z</time>
      </trkpt>
      <trkpt lat="46.50755" lon="-0.62168">
        <ele>28</ele>
        <time>2013-09-15T09:14:25Z</time>
      </trkpt>
      <trkpt lat="46.50756" lon="-0.62168">
        <ele>28</ele>
        <time>2013-09-15T09:14:27Z</time>
      </trkpt>
      <trkpt lat="46.50756" lon="-0.62169">
        <ele>27</ele>
        <time>2013-09-15T09:14:33Z</time>
      </trkpt>
      <trkpt lat="46.50756" lon="-0.62168">
        <ele>28</ele>
        <time>2013-09-15T09:14:36Z</time>
      </trkpt>
      <trkpt lat="46.50756" lon="-0.62169">
        <ele>28</ele>
        <time>2013-09-15T09:14:38Z</time>
      </trkpt>
      <trkpt lat="46.50756" lon="-0.62169">
        <ele>27</ele>
        <time>2013-09-15T09:14:43Z</time>
      </trkpt>
      <trkpt lat="46.50756" lon="-0.62169">
        <ele>27</ele>
        <time>2013-09-15T09:14:46Z</time>
      </trkpt>
      <trkpt lat="46.50756" lon="-0.62169">
        <ele>27</ele>
        <time>2013-09-15T09:14:50Z</time>
      </trkpt>
      <trkpt lat="46.50756" lon="-0.6217">
        <ele>28</ele>
        <time>2013-09-15T09:14:55Z</time>
      </trkpt>
      <trkpt lat="46.50756" lon="-0.6217">
        <ele>28</ele>
        <time>2013-09-15T09:14:58Z</time>
      </trkpt>
      <trkpt lat="46.50756" lon="-0.6217">
        <ele>27</ele>
        <time>2013-09-15T09:15:01Z</time>
      </trkpt>
      <trkpt lat="46.50756" lon="-0.6217">
        <ele>27</ele>
        <time>2013-09-15T09:15:05Z</time>
      </trkpt>
      <trkpt lat="46.50756" lon="-0.6217">
        <ele>27</ele>
        <time>2013-09-15T09:15:08Z</time>
      </trkpt>
      <trkpt lat="46.50756" lon="-0.62169">
        <ele>27</ele>
        <time>2013-09-15T09:15:10Z</time>
      </trkpt>
      <trkpt lat="46.50756" lon="-0.6217">
        <ele>27</ele>
        <time>2013-09-15T09:15:13Z</time>
      </trkpt>
      <trkpt lat="46.50755" lon="-0.62169">
        <ele>27</ele>
        <time>2013-09-15T09:15:15Z</time>
      </trkpt>
      <trkpt lat="46.50755" lon="-0.62169">
        <ele>27</ele>
        <time>2013-09-15T09:15:19Z</time>
      </trkpt>
      <trkpt lat="46.50755" lon="-0.62169">
        <ele>27</ele>
        <time>2013-09-15T09:15:22Z</time>
      </trkpt>
      <trkpt lat="46.50755" lon="-0.62169">
        <ele>27</ele>
        <time>2013-09-15T09:15:25Z</time>
      </trkpt>
      <trkpt lat="46.50755" lon="-0.62169">
        <ele>27</ele>
        <time>2013-09-15T09:15:29Z</time>
      </trkpt>
      <trkpt lat="46.50754" lon="-0.62169">
        <ele>28</ele>
        <time>2013-09-15T09:15:32Z</time>
      </trkpt>
      <trkpt lat="46.50754" lon="-0.62169">
        <ele>28</ele>
        <time>2013-09-15T09:15:35Z</time>
      </trkpt>
      <trkpt lat="46.50754" lon="-0.62169">
        <ele>28</ele>
        <time>2013-09-15T09:15:37Z</time>
      </trkpt>
      <trkpt lat="46.50753" lon="-0.62168">
        <ele>27</ele>
        <time>2013-09-15T09:15:40Z</time>
      </trkpt>
      <trkpt lat="46.50753" lon="-0.62168">
        <ele>27</ele>
        <time>2013-09-15T09:15:43Z</time>
      </trkpt>
      <trkpt lat="46.50753" lon="-0.62168">
        <ele>27</ele>
        <time>2013-09-15T09:15:45Z</time>
      </trkpt>
      <trkpt lat="46.50753" lon="-0.62168">
        <ele>27</ele>
        <time>2013-09-15T09:15:48Z</time>
      </trkpt>
      <trkpt lat="46.50753" lon="-0.62169">
        <ele>27</ele>
        <time>2013-09-15T09:15:50Z</time>
      </trkpt>
      <trkpt lat="46.50753" lon="-0.62169">
        <ele>27</ele>
        <time>2013-09-15T09:15:54Z</time>
      </trkpt>
      <trkpt lat="46.50753" lon="-0.62169">
        <ele>27</ele>
        <time>2013-09-15T09:15:57Z</time>
      </trkpt>
      <trkpt lat="46.50752" lon="-0.62169">
        <ele>27</ele>
        <time>2013-09-15T09:15:59Z</time>
      </trkpt>
      <trkpt lat="46.50753" lon="-0.62169">
        <ele>27</ele>
        <time>2013-09-15T09:16:02Z</time>
      </trkpt>
      <trkpt lat="46.50752" lon="-0.62169">
        <ele>27</ele>
        <time>2013-09-15T09:16:05Z</time>
      </trkpt>
      <trkpt lat="46.50753" lon="-0.62169">
        <ele>27</ele>
        <time>2013-09-15T09:16:07Z</time>
      </trkpt>
      <trkpt lat="46.50753" lon="-0.62169">
        <ele>27</ele>
        <time>2013-09-15T09:16:09Z</time>
      </trkpt>
      <trkpt lat="46.50754" lon="-0.62168">
        <ele>27</ele>
        <time>2013-09-15T09:16:12Z</time>
      </trkpt>
      <trkpt lat="46.50754" lon="-0.62168">
        <ele>27</ele>
        <time>2013-09-15T09:16:14Z</time>
      </trkpt>
      <trkpt lat="46.50754" lon="-0.62168">
        <ele>27</ele>
        <time>2013-09-15T09:16:17Z</time>
      </trkpt>
      <trkpt lat="46.50755" lon="-0.62168">
        <ele>27</ele>
        <time>2013-09-15T09:16:19Z</time>
      </trkpt>
      <trkpt lat="46.50755" lon="-0.62167">
        <ele>27</ele>
        <time>2013-09-15T09:16:22Z</time>
      </trkpt>
      <trkpt lat="46.50755" lon="-0.62166">
        <ele>27</ele>
        <time>2013-09-15T09:16:25Z</time>
      </trkpt>
      <trkpt lat="46.50755" lon="-0.62166">
        <ele>27</ele>
        <time>2013-09-15T09:16:27Z</time>
      </trkpt>
      <trkpt lat="46.50755" lon="-0.62165">
        <ele>28</ele>
        <time>2013-09-15T09:16:31Z</time>
      </trkpt>
      <trkpt lat="46.50754" lon="-0.62165">
        <ele>28</ele>
        <time>2013-09-15T09:16:34Z</time>
      </trkpt>
      <trkpt lat="46.50753" lon="-0.62164">
        <ele>27</ele>
        <time>2013-09-15T09:16:37Z</time>
      </trkpt>
      <trkpt lat="46.50752" lon="-0.62164">
        <ele>27</ele>
        <time>2013-09-15T09:16:40Z</time>
      </trkpt>
      <trkpt lat="46.50751" lon="-0.62163">
        <ele>27</ele>
        <time>2013-09-15T09:16:43Z</time>
      </trkpt>
      <trkpt lat="46.5075" lon="-0.62163">
        <ele>27</ele>
        <time>2013-09-15T09:16:45Z</time>
      </trkpt>
      <trkpt lat="46.5075" lon="-0.62163">
        <ele>27</ele>
        <time>2013-09-15T09:16:49Z</time>
      </trkpt>
      <trkpt lat="46.50748" lon="-0.62162">
        <ele>28</ele>
        <time>2013-09-15T09:16:52Z</time>
      </trkpt>
      <trkpt lat="46.50748" lon="-0.62162">
        <ele>27</ele>
        <time>2013-09-15T09:16:56Z</time>
      </trkpt>
      <trkpt lat="46.50747" lon="-0.62162">
        <ele>27</ele>
        <time>2013-09-15T09:16:58Z</time>
      </trkpt>
      <trkpt lat="46.50748" lon="-0.62162">
        <ele>27</ele>
        <time>2013-09-15T09:17:00Z</time>
      </trkpt>
      <trkpt lat="46.50747" lon="-0.62161">
        <ele>27</ele>
        <time>2013-09-15T09:17:02Z</time>
      </trkpt>
      <trkpt lat="46.50744" lon="-0.62158">
        <ele>27</ele>
        <time>2013-09-15T09:17:05Z</time>
      </trkpt>
      <trkpt lat="46.50743" lon="-0.62157">
        <ele>27</ele>
        <time>2013-09-15T09:17:07Z</time>
      </trkpt>
      <trkpt lat="46.50744" lon="-0.62158">
        <ele>27</ele>
        <time>2013-09-15T09:17:09Z</time>
      </trkpt>
      <trkpt lat="46.50743" lon="-0.62157">
        <ele>27</ele>
        <time>2013-09-15T09:17:12Z</time>
      </trkpt>
      <trkpt lat="46.50743" lon="-0.62157">
        <ele>27</ele>
        <time>2013-09-15T09:17:14Z</time>
      </trkpt>
      <trkpt lat="46.50744" lon="-0.62158">
        <ele>27</ele>
        <time>2013-09-15T09:17:17Z</time>
      </trkpt>
      <trkpt lat="46.50745" lon="-0.62158">
        <ele>28</ele>
        <time>2013-09-15T09:17:19Z</time>
      </trkpt>
      <trkpt lat="46.50745" lon="-0.62159">
        <ele>28</ele>
        <time>2013-09-15T09:17:21Z</time>
      </trkpt>
      <trkpt lat="46.50746" lon="-0.62159">
        <ele>28</ele>
        <time>2013-09-15T09:17:23Z</time>
      </trkpt>
      <trkpt lat="46.50747" lon="-0.6216">
        <ele>28</ele>
        <time>2013-09-15T09:17:26Z</time>
      </trkpt>
      <trkpt lat="46.50747" lon="-0.6216">
        <ele>28</ele>
        <time>2013-09-15T09:17:28Z</time>
      </trkpt>
      <trkpt lat="46.50748" lon="-0.62161">
        <ele>28</ele>
        <time>2013-09-15T09:17:30Z</time>
      </trkpt>
      <trkpt lat="46.50748" lon="-0.6216">
        <ele>28</ele>
        <time>2013-09-15T09:17:33Z</time>
      </trkpt>
      <trkpt lat="46.50749" lon="-0.6216">
        <ele>28</ele>
        <time>2013-09-15T09:17:36Z</time>
      </trkpt>
      <trkpt lat="46.50749" lon="-0.62161">
        <ele>28</ele>
        <time>2013-09-15T09:17:39Z</time>
      </trkpt>
      <trkpt lat="46.50749" lon="-0.62161">
        <ele>28</ele>
        <time>2013-09-15T09:17:41Z</time>
      </trkpt>
      <trkpt lat="46.50749" lon="-0.62161">
        <ele>28</ele>
        <time>2013-09-15T09:17:43Z</time>
      </trkpt>
      <trkpt lat="46.5075" lon="-0.62156">
        <ele>28</ele>
        <time>2013-09-15T09:17:46Z</time>
      </trkpt>
      <trkpt lat="46.50753" lon="-0.62151">
        <ele>27</ele>
        <time>2013-09-15T09:17:49Z</time>
      </trkpt>
      <trkpt lat="46.50757" lon="-0.62148">
        <ele>27</ele>
        <time>2013-09-15T09:17:51Z</time>
      </trkpt>
      <trkpt lat="46.50764" lon="-0.62139">
        <ele>27</ele>
        <time>2013-09-15T09:17:54Z</time>
      </trkpt>
      <trkpt lat="46.50769" lon="-0.62131">
        <ele>28</ele>
        <time>2013-09-15T09:17:56Z</time>
      </trkpt>
      <trkpt lat="46.50773" lon="-0.62121">
        <ele>28</ele>
        <time>2013-09-15T09:17:58Z</time>
      </trkpt>
      <trkpt lat="46.50778" lon="-0.62103">
        <ele>28</ele>
        <time>2013-09-15T09:18:01Z</time>
      </trkpt>
      <trkpt lat="46.50781" lon="-0.6209">
        <ele>29</ele>
        <time>2013-09-15T09:18:03Z</time>
      </trkpt>
      <trkpt lat="46.50786" lon="-0.6207">
        <ele>29</ele>
        <time>2013-09-15T09:18:06Z</time>
      </trkpt>
      <trkpt lat="46.5079" lon="-0.62056">
        <ele>29</ele>
        <time>2013-09-15T09:18:08Z</time>
      </trkpt>
      <trkpt lat="46.50796" lon="-0.62036">
        <ele>29</ele>
        <time>2013-09-15T09:18:11Z</time>
      </trkpt>
      <trkpt lat="46.50806" lon="-0.62016">
        <ele>29</ele>
        <time>2013-09-15T09:18:14Z</time>
      </trkpt>
      <trkpt lat="46.50813" lon="-0.62003">
        <ele>29</ele>
        <time>2013-09-15T09:18:16Z</time>
      </trkpt>
      <trkpt lat="46.50819" lon="-0.61991">
        <ele>29</ele>
        <time>2013-09-15T09:18:18Z</time>
      </trkpt>
      <trkpt lat="46.5082" lon="-0.61967">
        <ele>29</ele>
        <time>2013-09-15T09:18:21Z</time>
      </trkpt>
      <trkpt lat="46.50824" lon="-0.61943">
        <ele>29</ele>
        <time>2013-09-15T09:18:24Z</time>
      </trkpt>
      <trkpt lat="46.50829" lon="-0.61928">
        <ele>29</ele>
        <time>2013-09-15T09:18:26Z</time>
      </trkpt>
      <trkpt lat="46.50833" lon="-0.61914">
        <ele>29</ele>
        <time>2013-09-15T09:18:28Z</time>
      </trkpt>
      <trkpt lat="46.50841" lon="-0.61894">
        <ele>29</ele>
        <time>2013-09-15T09:18:31Z</time>
      </trkpt>
      <trkpt lat="46.50851" lon="-0.61874">
        <ele>29</ele>
        <time>2013-09-15T09:18:34Z</time>
      </trkpt>
      <trkpt lat="46.50858" lon="-0.61861">
        <ele>29</ele>
        <time>2013-09-15T09:18:36Z</time>
      </trkpt>
      <trkpt lat="46.50865" lon="-0.61849">
        <ele>30</ele>
        <time>2013-09-15T09:18:38Z</time>
      </trkpt>
      <trkpt lat="46.50876" lon="-0.61829">
        <ele>30</ele>
        <time>2013-09-15T09:18:41Z</time>
      </trkpt>
      <trkpt lat="46.50884" lon="-0.61816">
        <ele>30</ele>
        <time>2013-09-15T09:18:43Z</time>
      </trkpt>
      <trkpt lat="46.50892" lon="-0.61804">
        <ele>30</ele>
        <time>2013-09-15T09:18:45Z</time>
      </trkpt>
      <trkpt lat="46.50901" lon="-0.61794">
        <ele>30</ele>
        <time>2013-09-15T09:18:47Z</time>
      </trkpt>
      <trkpt lat="46.5091" lon="-0.61785">
        <ele>30</ele>
        <time>2013-09-15T09:18:49Z</time>
      </trkpt>
      <trkpt lat="46.50924" lon="-0.61773">
        <ele>30</ele>
        <time>2013-09-15T09:18:52Z</time>
      </trkpt>
      <trkpt lat="46.50937" lon="-0.61762">
        <ele>30</ele>
        <time>2013-09-15T09:18:55Z</time>
      </trkpt>
      <trkpt lat="46.50947" lon="-0.61754">
        <ele>29</ele>
        <time>2013-09-15T09:18:57Z</time>
      </trkpt>
      <trkpt lat="46.50958" lon="-0.61746">
        <ele>29</ele>
        <time>2013-09-15T09:18:59Z</time>
      </trkpt>
      <trkpt lat="46.50969" lon="-0.61739">
        <ele>29</ele>
        <time>2013-09-15T09:19:01Z</time>
      </trkpt>
      <trkpt lat="46.5098" lon="-0.61731">
        <ele>28</ele>
        <time>2013-09-15T09:19:03Z</time>
      </trkpt>
      <trkpt lat="46.50991" lon="-0.61724">
        <ele>28</ele>
        <time>2013-09-15T09:19:05Z</time>
      </trkpt>
      <trkpt lat="46.51003" lon="-0.61716">
        <ele>28</ele>
        <time>2013-09-15T09:19:07Z</time>
      </trkpt>
      <trkpt lat="46.51021" lon="-0.61704">
        <ele>27</ele>
        <time>2013-09-15T09:19:10Z</time>
      </trkpt>
      <trkpt lat="46.51034" lon="-0.61697">
        <ele>26</ele>
        <time>2013-09-15T09:19:12Z</time>
      </trkpt>
      <trkpt lat="46.51048" lon="-0.61691">
        <ele>25</ele>
        <time>2013-09-15T09:19:14Z</time>
      </trkpt>
      <trkpt lat="46.51062" lon="-0.61685">
        <ele>24</ele>
        <time>2013-09-15T09:19:16Z</time>
      </trkpt>
      <trkpt lat="46.51076" lon="-0.61679">
        <ele>23</ele>
        <time>2013-09-15T09:19:18Z</time>
      </trkpt>
      <trkpt lat="46.511" lon="-0.6167">
        <ele>22</ele>
        <time>2013-09-15T09:19:21Z</time>
      </trkpt>
      <trkpt lat="46.51116" lon="-0.61666">
        <ele>22</ele>
        <time>2013-09-15T09:19:23Z</time>
      </trkpt>
      <trkpt lat="46.51132" lon="-0.61662">
        <ele>21</ele>
        <time>2013-09-15T09:19:25Z</time>
      </trkpt>
      <trkpt lat="46.51147" lon="-0.61657">
        <ele>20</ele>
        <time>2013-09-15T09:19:28Z</time>
      </trkpt>
      <trkpt lat="46.51153" lon="-0.61646">
        <ele>18</ele>
        <time>2013-09-15T09:19:31Z</time>
      </trkpt>
      <trkpt lat="46.5115" lon="-0.61633">
        <ele>17</ele>
        <time>2013-09-15T09:19:34Z</time>
      </trkpt>
      <trkpt lat="46.51147" lon="-0.61625">
        <ele>17</ele>
        <time>2013-09-15T09:19:36Z</time>
      </trkpt>
      <trkpt lat="46.51141" lon="-0.61611">
        <ele>18</ele>
        <time>2013-09-15T09:19:39Z</time>
      </trkpt>
      <trkpt lat="46.51136" lon="-0.61602">
        <ele>18</ele>
        <time>2013-09-15T09:19:41Z</time>
      </trkpt>
      <trkpt lat="46.51128" lon="-0.61588">
        <ele>18</ele>
        <time>2013-09-15T09:19:44Z</time>
      </trkpt>
      <trkpt lat="46.51123" lon="-0.61579">
        <ele>18</ele>
        <time>2013-09-15T09:19:46Z</time>
      </trkpt>
      <trkpt lat="46.51115" lon="-0.61566">
        <ele>18</ele>
        <time>2013-09-15T09:19:49Z</time>
      </trkpt>
      <trkpt lat="46.51109" lon="-0.61558">
        <ele>19</ele>
        <time>2013-09-15T09:19:51Z</time>
      </trkpt>
      <trkpt lat="46.51101" lon="-0.61545">
        <ele>19</ele>
        <time>2013-09-15T09:19:54Z</time>
      </trkpt>
      <trkpt lat="46.51095" lon="-0.61537">
        <ele>19</ele>
        <time>2013-09-15T09:19:56Z</time>
      </trkpt>
      <trkpt lat="46.51085" lon="-0.61525">
        <ele>20</ele>
        <time>2013-09-15T09:19:59Z</time>
      </trkpt>
      <trkpt lat="46.51079" lon="-0.61517">
        <ele>20</ele>
        <time>2013-09-15T09:20:01Z</time>
      </trkpt>
      <trkpt lat="46.51074" lon="-0.6151">
        <ele>19</ele>
        <time>2013-09-15T09:20:03Z</time>
      </trkpt>
      <trkpt lat="46.51069" lon="-0.61502">
        <ele>19</ele>
        <time>2013-09-15T09:20:05Z</time>
      </trkpt>
      <trkpt lat="46.51068" lon="-0.61494">
        <ele>19</ele>
        <time>2013-09-15T09:20:07Z</time>
      </trkpt>
      <trkpt lat="46.51073" lon="-0.61488">
        <ele>20</ele>
        <time>2013-09-15T09:20:09Z</time>
      </trkpt>
      <trkpt lat="46.5108" lon="-0.61485">
        <ele>20</ele>
        <time>2013-09-15T09:20:11Z</time>
      </trkpt>
      <trkpt lat="46.5109" lon="-0.6148">
        <ele>20</ele>
        <time>2013-09-15T09:20:13Z</time>
      </trkpt>
      <trkpt lat="46.51106" lon="-0.61472">
        <ele>19</ele>
        <time>2013-09-15T09:20:16Z</time>
      </trkpt>
      <trkpt lat="46.51123" lon="-0.61463">
        <ele>18</ele>
        <time>2013-09-15T09:20:19Z</time>
      </trkpt>
      <trkpt lat="46.51136" lon="-0.61457">
        <ele>17</ele>
        <time>2013-09-15T09:20:21Z</time>
      </trkpt>
      <trkpt lat="46.51151" lon="-0.6145">
        <ele>16</ele>
        <time>2013-09-15T09:20:23Z</time>
      </trkpt>
      <trkpt lat="46.51176" lon="-0.61445">
        <ele>15</ele>
        <time>2013-09-15T09:20:26Z</time>
      </trkpt>
      <trkpt lat="46.51194" lon="-0.61446">
        <ele>14</ele>
        <time>2013-09-15T09:20:28Z</time>
      </trkpt>
      <trkpt lat="46.51223" lon="-0.61444">
        <ele>12</ele>
        <time>2013-09-15T09:20:31Z</time>
      </trkpt>
      <trkpt lat="46.51238" lon="-0.61441">
        <ele>10</ele>
        <time>2013-09-15T09:20:33Z</time>
      </trkpt>
      <trkpt lat="46.51254" lon="-0.6144">
        <ele>9</ele>
        <time>2013-09-15T09:20:36Z</time>
      </trkpt>
      <trkpt lat="46.5126" lon="-0.6144">
        <ele>7</ele>
        <time>2013-09-15T09:20:38Z</time>
      </trkpt>
      <trkpt lat="46.51263" lon="-0.61436">
        <ele>6</ele>
        <time>2013-09-15T09:20:40Z</time>
      </trkpt>
      <trkpt lat="46.51264" lon="-0.61431">
        <ele>5</ele>
        <time>2013-09-15T09:20:42Z</time>
      </trkpt>
      <trkpt lat="46.51264" lon="-0.61426">
        <ele>5</ele>
        <time>2013-09-15T09:20:45Z</time>
      </trkpt>
      <trkpt lat="46.51263" lon="-0.61423">
        <ele>5</ele>
        <time>2013-09-15T09:20:47Z</time>
      </trkpt>
      <trkpt lat="46.51262" lon="-0.61419">
        <ele>5</ele>
        <time>2013-09-15T09:20:49Z</time>
      </trkpt>
      <trkpt lat="46.51259" lon="-0.61412">
        <ele>5</ele>
        <time>2013-09-15T09:20:52Z</time>
      </trkpt>
      <trkpt lat="46.51257" lon="-0.61406">
        <ele>6</ele>
        <time>2013-09-15T09:20:55Z</time>
      </trkpt>
      <trkpt lat="46.51255" lon="-0.61402">
        <ele>6</ele>
        <time>2013-09-15T09:20:57Z</time>
      </trkpt>
      <trkpt lat="46.51254" lon="-0.61398">
        <ele>7</ele>
        <time>2013-09-15T09:20:59Z</time>
      </trkpt>
      <trkpt lat="46.51252" lon="-0.61395">
        <ele>8</ele>
        <time>2013-09-15T09:21:01Z</time>
      </trkpt>
      <trkpt lat="46.51249" lon="-0.6139">
        <ele>8</ele>
        <time>2013-09-15T09:21:04Z</time>
      </trkpt>
      <trkpt lat="46.51245" lon="-0.61386">
        <ele>9</ele>
        <time>2013-09-15T09:21:06Z</time>
      </trkpt>
      <trkpt lat="46.51242" lon="-0.61381">
        <ele>9</ele>
        <time>2013-09-15T09:21:09Z</time>
      </trkpt>
      <trkpt lat="46.51239" lon="-0.61378">
        <ele>9</ele>
        <time>2013-09-15T09:21:11Z</time>
      </trkpt>
      <trkpt lat="46.51236" lon="-0.61375">
        <ele>10</ele>
        <time>2013-09-15T09:21:13Z</time>
      </trkpt>
      <trkpt lat="46.51233" lon="-0.61371">
        <ele>10</ele>
        <time>2013-09-15T09:21:15Z</time>
      </trkpt>
      <trkpt lat="46.51232" lon="-0.6137">
        <ele>10</ele>
        <time>2013-09-15T09:21:17Z</time>
      </trkpt>
      <trkpt lat="46.51231" lon="-0.6137">
        <ele>10</ele>
        <time>2013-09-15T09:21:19Z</time>
      </trkpt>
      <trkpt lat="46.51231" lon="-0.61368">
        <ele>11</ele>
        <time>2013-09-15T09:21:22Z</time>
      </trkpt>
      <trkpt lat="46.51229" lon="-0.61365">
        <ele>10</ele>
        <time>2013-09-15T09:21:25Z</time>
      </trkpt>
      <trkpt lat="46.51228" lon="-0.61363">
        <ele>11</ele>
        <time>2013-09-15T09:21:28Z</time>
      </trkpt>
      <trkpt lat="46.51226" lon="-0.6136">
        <ele>11</ele>
        <time>2013-09-15T09:21:31Z</time>
      </trkpt>
      <trkpt lat="46.51225" lon="-0.61358">
        <ele>11</ele>
        <time>2013-09-15T09:21:34Z</time>
      </trkpt>
      <trkpt lat="46.51225" lon="-0.61356">
        <ele>12</ele>
        <time>2013-09-15T09:21:36Z</time>
      </trkpt>
      <trkpt lat="46.51224" lon="-0.61355">
        <ele>12</ele>
        <time>2013-09-15T09:21:39Z</time>
      </trkpt>
      <trkpt lat="46.51223" lon="-0.61353">
        <ele>12</ele>
        <time>2013-09-15T09:21:41Z</time>
      </trkpt>
      <trkpt lat="46.51221" lon="-0.61348">
        <ele>12</ele>
        <time>2013-09-15T09:21:44Z</time>
      </trkpt>
      <trkpt lat="46.51219" lon="-0.61342">
        <ele>13</ele>
        <time>2013-09-15T09:21:46Z</time>
      </trkpt>
      <trkpt lat="46.51217" lon="-0.61336">
        <ele>13</ele>
        <time>2013-09-15T09:21:48Z</time>
      </trkpt>
      <trkpt lat="46.51215" lon="-0.6133">
        <ele>13</ele>
        <time>2013-09-15T09:21:50Z</time>
      </trkpt>
      <trkpt lat="46.51212" lon="-0.61323">
        <ele>14</ele>
        <time>2013-09-15T09:21:52Z</time>
      </trkpt>
      <trkpt lat="46.5121" lon="-0.61317">
        <ele>14</ele>
        <time>2013-09-15T09:21:54Z</time>
      </trkpt>
      <trkpt lat="46.51208" lon="-0.6131">
        <ele>14</ele>
        <time>2013-09-15T09:21:56Z</time>
      </trkpt>
      <trkpt lat="46.51205" lon="-0.61301">
        <ele>15</ele>
        <time>2013-09-15T09:21:59Z</time>
      </trkpt>
      <trkpt lat="46.51202" lon="-0.61295">
        <ele>15</ele>
        <time>2013-09-15T09:22:01Z</time>
      </trkpt>
      <trkpt lat="46.512" lon="-0.61289">
        <ele>16</ele>
        <time>2013-09-15T09:22:03Z</time>
      </trkpt>
      <trkpt lat="46.51199" lon="-0.61284">
        <ele>16</ele>
        <time>2013-09-15T09:22:05Z</time>
      </trkpt>
      <trkpt lat="46.51197" lon="-0.61279">
        <ele>16</ele>
        <time>2013-09-15T09:22:07Z</time>
      </trkpt>
      <trkpt lat="46.51195" lon="-0.61274">
        <ele>17</ele>
        <time>2013-09-15T09:22:09Z</time>
      </trkpt>
      <trkpt lat="46.51193" lon="-0.61269">
        <ele>17</ele>
        <time>2013-09-15T09:22:11Z</time>
      </trkpt>
      <trkpt lat="46.51192" lon="-0.61264">
        <ele>17</ele>
        <time>2013-09-15T09:22:13Z</time>
      </trkpt>
      <trkpt lat="46.5119" lon="-0.61259">
        <ele>18</ele>
        <time>2013-09-15T09:22:15Z</time>
      </trkpt>
      <trkpt lat="46.51189" lon="-0.61251">
        <ele>18</ele>
        <time>2013-09-15T09:22:18Z</time>
      </trkpt>
      <trkpt lat="46.51188" lon="-0.61246">
        <ele>18</ele>
        <time>2013-09-15T09:22:20Z</time>
      </trkpt>
      <trkpt lat="46.51186" lon="-0.61239">
        <ele>18</ele>
        <time>2013-09-15T09:22:22Z</time>
      </trkpt>
      <trkpt lat="46.51184" lon="-0.61232">
        <ele>19</ele>
        <time>2013-09-15T09:22:24Z</time>
      </trkpt>
      <trkpt lat="46.51182" lon="-0.61225">
        <ele>20</ele>
        <time>2013-09-15T09:22:26Z</time>
      </trkpt>
      <trkpt lat="46.5118" lon="-0.61219">
        <ele>20</ele>
        <time>2013-09-15T09:22:28Z</time>
      </trkpt>
      <trkpt lat="46.51179" lon="-0.61213">
        <ele>21</ele>
        <time>2013-09-15T09:22:30Z</time>
      </trkpt>
      <trkpt lat="46.51178" lon="-0.61207">
        <ele>21</ele>
        <time>2013-09-15T09:22:32Z</time>
      </trkpt>
      <trkpt lat="46.51176" lon="-0.61199">
        <ele>21</ele>
        <time>2013-09-15T09:22:34Z</time>
      </trkpt>
      <trkpt lat="46.51173" lon="-0.61187">
        <ele>21</ele>
        <time>2013-09-15T09:22:37Z</time>
      </trkpt>
      <trkpt lat="46.51171" lon="-0.61175">
        <ele>22</ele>
        <time>2013-09-15T09:22:40Z</time>
      </trkpt>
      <trkpt lat="46.5117" lon="-0.61167">
        <ele>22</ele>
        <time>2013-09-15T09:22:42Z</time>
      </trkpt>
      <trkpt lat="46.51169" lon="-0.61159">
        <ele>22</ele>
        <time>2013-09-15T09:22:44Z</time>
      </trkpt>
      <trkpt lat="46.51167" lon="-0.61148">
        <ele>22</ele>
        <time>2013-09-15T09:22:46Z</time>
      </trkpt>
      <trkpt lat="46.51164" lon="-0.61133">
        <ele>23</ele>
        <time>2013-09-15T09:22:49Z</time>
      </trkpt>
      <trkpt lat="46.51163" lon="-0.61123">
        <ele>23</ele>
        <time>2013-09-15T09:22:51Z</time>
      </trkpt>
      <trkpt lat="46.5116" lon="-0.61107">
        <ele>23</ele>
        <time>2013-09-15T09:22:54Z</time>
      </trkpt>
      <trkpt lat="46.51159" lon="-0.61098">
        <ele>23</ele>
        <time>2013-09-15T09:22:56Z</time>
      </trkpt>
      <trkpt lat="46.51155" lon="-0.6109">
        <ele>23</ele>
        <time>2013-09-15T09:22:58Z</time>
      </trkpt>
      <trkpt lat="46.5115" lon="-0.61088">
        <ele>22</ele>
        <time>2013-09-15T09:23:00Z</time>
      </trkpt>
      <trkpt lat="46.51144" lon="-0.61088">
        <ele>22</ele>
        <time>2013-09-15T09:23:02Z</time>
      </trkpt>
      <trkpt lat="46.51138" lon="-0.61087">
        <ele>22</ele>
        <time>2013-09-15T09:23:04Z</time>
      </trkpt>
      <trkpt lat="46.51131" lon="-0.61087">
        <ele>22</ele>
        <time>2013-09-15T09:23:06Z</time>
      </trkpt>
      <trkpt lat="46.51124" lon="-0.61088">
        <ele>22</ele>
        <time>2013-09-15T09:23:08Z</time>
      </trkpt>
      <trkpt lat="46.51114" lon="-0.61089">
        <ele>22</ele>
        <time>2013-09-15T09:23:11Z</time>
      </trkpt>
      <trkpt lat="46.51107" lon="-0.6109">
        <ele>22</ele>
        <time>2013-09-15T09:23:13Z</time>
      </trkpt>
      <trkpt lat="46.51101" lon="-0.61093">
        <ele>22</ele>
        <time>2013-09-15T09:23:15Z</time>
      </trkpt>
      <trkpt lat="46.51093" lon="-0.61094">
        <ele>22</ele>
        <time>2013-09-15T09:23:18Z</time>
      </trkpt>
      <trkpt lat="46.51086" lon="-0.61096">
        <ele>22</ele>
        <time>2013-09-15T09:23:20Z</time>
      </trkpt>
      <trkpt lat="46.5108" lon="-0.611">
        <ele>22</ele>
        <time>2013-09-15T09:23:22Z</time>
      </trkpt>
      <trkpt lat="46.51074" lon="-0.61103">
        <ele>22</ele>
        <time>2013-09-15T09:23:24Z</time>
      </trkpt>
      <trkpt lat="46.51065" lon="-0.61109">
        <ele>23</ele>
        <time>2013-09-15T09:23:27Z</time>
      </trkpt>
      <trkpt lat="46.51059" lon="-0.61114">
        <ele>23</ele>
        <time>2013-09-15T09:23:29Z</time>
      </trkpt>
      <trkpt lat="46.51054" lon="-0.61117">
        <ele>23</ele>
        <time>2013-09-15T09:23:31Z</time>
      </trkpt>
      <trkpt lat="46.51048" lon="-0.61121">
        <ele>23</ele>
        <time>2013-09-15T09:23:33Z</time>
      </trkpt>
      <trkpt lat="46.51043" lon="-0.61125">
        <ele>23</ele>
        <time>2013-09-15T09:23:35Z</time>
      </trkpt>
      <trkpt lat="46.51035" lon="-0.61132">
        <ele>23</ele>
        <time>2013-09-15T09:23:38Z</time>
      </trkpt>
      <trkpt lat="46.51031" lon="-0.61135">
        <ele>23</ele>
        <time>2013-09-15T09:23:40Z</time>
      </trkpt>
      <trkpt lat="46.51024" lon="-0.61141">
        <ele>23</ele>
        <time>2013-09-15T09:23:43Z</time>
      </trkpt>
      <trkpt lat="46.5102" lon="-0.61146">
        <ele>23</ele>
        <time>2013-09-15T09:23:45Z</time>
      </trkpt>
      <trkpt lat="46.51016" lon="-0.6115">
        <ele>23</ele>
        <time>2013-09-15T09:23:47Z</time>
      </trkpt>
      <trkpt lat="46.51011" lon="-0.61155">
        <ele>23</ele>
        <time>2013-09-15T09:23:49Z</time>
      </trkpt>
      <trkpt lat="46.51006" lon="-0.6116">
        <ele>24</ele>
        <time>2013-09-15T09:23:51Z</time>
      </trkpt>
      <trkpt lat="46.51001" lon="-0.61165">
        <ele>24</ele>
        <time>2013-09-15T09:23:53Z</time>
      </trkpt>
      <trkpt lat="46.50995" lon="-0.61171">
        <ele>25</ele>
        <time>2013-09-15T09:23:55Z</time>
      </trkpt>
      <trkpt lat="46.50988" lon="-0.6118">
        <ele>25</ele>
        <time>2013-09-15T09:23:58Z</time>
      </trkpt>
      <trkpt lat="46.50982" lon="-0.61186">
        <ele>25</ele>
        <time>2013-09-15T09:24:00Z</time>
      </trkpt>
      <trkpt lat="46.50977" lon="-0.61192">
        <ele>25</ele>
        <time>2013-09-15T09:24:02Z</time>
      </trkpt>
      <trkpt lat="46.50971" lon="-0.61198">
        <ele>26</ele>
        <time>2013-09-15T09:24:04Z</time>
      </trkpt>
      <trkpt lat="46.50963" lon="-0.61207">
        <ele>27</ele>
        <time>2013-09-15T09:24:07Z</time>
      </trkpt>
      <trkpt lat="46.50958" lon="-0.61212">
        <ele>27</ele>
        <time>2013-09-15T09:24:09Z</time>
      </trkpt>
      <trkpt lat="46.50954" lon="-0.61218">
        <ele>27</ele>
        <time>2013-09-15T09:24:11Z</time>
      </trkpt>
      <trkpt lat="46.50949" lon="-0.61223">
        <ele>27</ele>
        <time>2013-09-15T09:24:13Z</time>
      </trkpt>
      <trkpt lat="46.50942" lon="-0.61231">
        <ele>27</ele>
        <time>2013-09-15T09:24:16Z</time>
      </trkpt>
      <trkpt lat="46.50937" lon="-0.61237">
        <ele>28</ele>
        <time>2013-09-15T09:24:18Z</time>
      </trkpt>
      <trkpt lat="46.50932" lon="-0.61241">
        <ele>29</ele>
        <time>2013-09-15T09:24:20Z</time>
      </trkpt>
      <trkpt lat="46.50927" lon="-0.61246">
        <ele>29</ele>
        <time>2013-09-15T09:24:22Z</time>
      </trkpt>
      <trkpt lat="46.50918" lon="-0.61254">
        <ele>30</ele>
        <time>2013-09-15T09:24:25Z</time>
      </trkpt>
      <trkpt lat="46.50912" lon="-0.61257">
        <ele>30</ele>
        <time>2013-09-15T09:24:27Z</time>
      </trkpt>
      <trkpt lat="46.50906" lon="-0.6126">
        <ele>30</ele>
        <time>2013-09-15T09:24:29Z</time>
      </trkpt>
      <trkpt lat="46.50899" lon="-0.61264">
        <ele>31</ele>
        <time>2013-09-15T09:24:32Z</time>
      </trkpt>
      <trkpt lat="46.50892" lon="-0.61267">
        <ele>31</ele>
        <time>2013-09-15T09:24:35Z</time>
      </trkpt>
      <trkpt lat="46.50885" lon="-0.61262">
        <ele>31</ele>
        <time>2013-09-15T09:24:38Z</time>
      </trkpt>
      <trkpt lat="46.50879" lon="-0.61259">
        <ele>31</ele>
        <time>2013-09-15T09:24:40Z</time>
      </trkpt>
      <trkpt lat="46.5087" lon="-0.61253">
        <ele>31</ele>
        <time>2013-09-15T09:24:43Z</time>
      </trkpt>
      <trkpt lat="46.5086" lon="-0.61248">
        <ele>31</ele>
        <time>2013-09-15T09:24:46Z</time>
      </trkpt>
      <trkpt lat="46.5085" lon="-0.61241">
        <ele>32</ele>
        <time>2013-09-15T09:24:49Z</time>
      </trkpt>
      <trkpt lat="46.50843" lon="-0.61237">
        <ele>32</ele>
        <time>2013-09-15T09:24:51Z</time>
      </trkpt>
      <trkpt lat="46.50836" lon="-0.61234">
        <ele>31</ele>
        <time>2013-09-15T09:24:53Z</time>
      </trkpt>
      <trkpt lat="46.50828" lon="-0.61231">
        <ele>31</ele>
        <time>2013-09-15T09:24:55Z</time>
      </trkpt>
      <trkpt lat="46.5082" lon="-0.61227">
        <ele>32</ele>
        <time>2013-09-15T09:24:57Z</time>
      </trkpt>
      <trkpt lat="46.50807" lon="-0.61222">
        <ele>32</ele>
        <time>2013-09-15T09:25:00Z</time>
      </trkpt>
      <trkpt lat="46.50798" lon="-0.61218">
        <ele>32</ele>
        <time>2013-09-15T09:25:02Z</time>
      </trkpt>
      <trkpt lat="46.50788" lon="-0.61214">
        <ele>32</ele>
        <time>2013-09-15T09:25:04Z</time>
      </trkpt>
      <trkpt lat="46.50779" lon="-0.6121">
        <ele>32</ele>
        <time>2013-09-15T09:25:06Z</time>
      </trkpt>
      <trkpt lat="46.50769" lon="-0.61206">
        <ele>32</ele>
        <time>2013-09-15T09:25:08Z</time>
      </trkpt>
      <trkpt lat="46.5076" lon="-0.61203">
        <ele>32</ele>
        <time>2013-09-15T09:25:10Z</time>
      </trkpt>
      <trkpt lat="46.50752" lon="-0.612">
        <ele>32</ele>
        <time>2013-09-15T09:25:12Z</time>
      </trkpt>
      <trkpt lat="46.50743" lon="-0.61198">
        <ele>32</ele>
        <time>2013-09-15T09:25:14Z</time>
      </trkpt>
      <trkpt lat="46.50732" lon="-0.61192">
        <ele>32</ele>
        <time>2013-09-15T09:25:17Z</time>
      </trkpt>
      <trkpt lat="46.50726" lon="-0.61185">
        <ele>33</ele>
        <time>2013-09-15T09:25:19Z</time>
      </trkpt>
      <trkpt lat="46.50723" lon="-0.61174">
        <ele>32</ele>
        <time>2013-09-15T09:25:21Z</time>
      </trkpt>
      <trkpt lat="46.5072" lon="-0.61165">
        <ele>32</ele>
        <time>2013-09-15T09:25:23Z</time>
      </trkpt>
      <trkpt lat="46.50717" lon="-0.61155">
        <ele>32</ele>
        <time>2013-09-15T09:25:25Z</time>
      </trkpt>
      <trkpt lat="46.50713" lon="-0.61143">
        <ele>32</ele>
        <time>2013-09-15T09:25:27Z</time>
      </trkpt>
      <trkpt lat="46.5071" lon="-0.6113">
        <ele>32</ele>
        <time>2013-09-15T09:25:29Z</time>
      </trkpt>
      <trkpt lat="46.50705" lon="-0.61115">
        <ele>32</ele>
        <time>2013-09-15T09:25:31Z</time>
      </trkpt>
      <trkpt lat="46.507" lon="-0.61099">
        <ele>32</ele>
        <time>2013-09-15T09:25:33Z</time>
      </trkpt>
      <trkpt lat="46.50695" lon="-0.61083">
        <ele>32</ele>
        <time>2013-09-15T09:25:35Z</time>
      </trkpt>
      <trkpt lat="46.50687" lon="-0.61057">
        <ele>32</ele>
        <time>2013-09-15T09:25:38Z</time>
      </trkpt>
      <trkpt lat="46.50682" lon="-0.61041">
        <ele>31</ele>
        <time>2013-09-15T09:25:40Z</time>
      </trkpt>
      <trkpt lat="46.50678" lon="-0.61024">
        <ele>31</ele>
        <time>2013-09-15T09:25:42Z</time>
      </trkpt>
      <trkpt lat="46.50674" lon="-0.61007">
        <ele>31</ele>
        <time>2013-09-15T09:25:44Z</time>
      </trkpt>
      <trkpt lat="46.50669" lon="-0.60991">
        <ele>31</ele>
        <time>2013-09-15T09:25:46Z</time>
      </trkpt>
      <trkpt lat="46.50664" lon="-0.60974">
        <ele>32</ele>
        <time>2013-09-15T09:25:48Z</time>
      </trkpt>
      <trkpt lat="46.5066" lon="-0.60957">
        <ele>32</ele>
        <time>2013-09-15T09:25:50Z</time>
      </trkpt>
      <trkpt lat="46.50659" lon="-0.60944">
        <ele>32</ele>
        <time>2013-09-15T09:25:52Z</time>
      </trkpt>
      <trkpt lat="46.50667" lon="-0.60932">
        <ele>31</ele>
        <time>2013-09-15T09:25:55Z</time>
      </trkpt>
      <trkpt lat="46.50674" lon="-0.60926">
        <ele>31</ele>
        <time>2013-09-15T09:25:57Z</time>
      </trkpt>
      <trkpt lat="46.50685" lon="-0.60918">
        <ele>30</ele>
        <time>2013-09-15T09:25:59Z</time>
      </trkpt>
      <trkpt lat="46.50704" lon="-0.60905">
        <ele>29</ele>
        <time>2013-09-15T09:26:02Z</time>
      </trkpt>
      <trkpt lat="46.50716" lon="-0.60896">
        <ele>28</ele>
        <time>2013-09-15T09:26:04Z</time>
      </trkpt>
      <trkpt lat="46.50735" lon="-0.60883">
        <ele>27</ele>
        <time>2013-09-15T09:26:07Z</time>
      </trkpt>
      <trkpt lat="46.50757" lon="-0.6087">
        <ele>25</ele>
        <time>2013-09-15T09:26:10Z</time>
      </trkpt>
      <trkpt lat="46.50777" lon="-0.60856">
        <ele>24</ele>
        <time>2013-09-15T09:26:13Z</time>
      </trkpt>
      <trkpt lat="46.50792" lon="-0.60847">
        <ele>23</ele>
        <time>2013-09-15T09:26:15Z</time>
      </trkpt>
      <trkpt lat="46.50807" lon="-0.6084">
        <ele>22</ele>
        <time>2013-09-15T09:26:17Z</time>
      </trkpt>
      <trkpt lat="46.50821" lon="-0.60832">
        <ele>21</ele>
        <time>2013-09-15T09:26:19Z</time>
      </trkpt>
      <trkpt lat="46.50835" lon="-0.6082">
        <ele>21</ele>
        <time>2013-09-15T09:26:21Z</time>
      </trkpt>
      <trkpt lat="46.50854" lon="-0.60802">
        <ele>20</ele>
        <time>2013-09-15T09:26:24Z</time>
      </trkpt>
      <trkpt lat="46.50867" lon="-0.6079">
        <ele>19</ele>
        <time>2013-09-15T09:26:26Z</time>
      </trkpt>
      <trkpt lat="46.50877" lon="-0.60778">
        <ele>18</ele>
        <time>2013-09-15T09:26:28Z</time>
      </trkpt>
      <trkpt lat="46.50882" lon="-0.60769">
        <ele>17</ele>
        <time>2013-09-15T09:26:30Z</time>
      </trkpt>
      <trkpt lat="46.50882" lon="-0.60762">
        <ele>16</ele>
        <time>2013-09-15T09:26:32Z</time>
      </trkpt>
      <trkpt lat="46.50878" lon="-0.60754">
        <ele>15</ele>
        <time>2013-09-15T09:26:34Z</time>
      </trkpt>
      <trkpt lat="46.50872" lon="-0.60745">
        <ele>16</ele>
        <time>2013-09-15T09:26:36Z</time>
      </trkpt>
      <trkpt lat="46.50866" lon="-0.60735">
        <ele>15</ele>
        <time>2013-09-15T09:26:38Z</time>
      </trkpt>
      <trkpt lat="46.50862" lon="-0.60719">
        <ele>16</ele>
        <time>2013-09-15T09:26:41Z</time>
      </trkpt>
      <trkpt lat="46.50864" lon="-0.60708">
        <ele>16</ele>
        <time>2013-09-15T09:26:43Z</time>
      </trkpt>
      <trkpt lat="46.50866" lon="-0.60698">
        <ele>16</ele>
        <time>2013-09-15T09:26:45Z</time>
      </trkpt>
      <trkpt lat="46.50868" lon="-0.60685">
        <ele>17</ele>
        <time>2013-09-15T09:26:47Z</time>
      </trkpt>
      <trkpt lat="46.5087" lon="-0.60673">
        <ele>17</ele>
        <time>2013-09-15T09:26:49Z</time>
      </trkpt>
      <trkpt lat="46.50872" lon="-0.60662">
        <ele>17</ele>
        <time>2013-09-15T09:26:51Z</time>
      </trkpt>
      <trkpt lat="46.50874" lon="-0.60652">
        <ele>17</ele>
        <time>2013-09-15T09:26:53Z</time>
      </trkpt>
      <trkpt lat="46.50875" lon="-0.60642">
        <ele>18</ele>
        <time>2013-09-15T09:26:55Z</time>
      </trkpt>
      <trkpt lat="46.50878" lon="-0.60626">
        <ele>18</ele>
        <time>2013-09-15T09:26:58Z</time>
      </trkpt>
      <trkpt lat="46.5088" lon="-0.60617">
        <ele>18</ele>
        <time>2013-09-15T09:27:00Z</time>
      </trkpt>
      <trkpt lat="46.50881" lon="-0.60609">
        <ele>19</ele>
        <time>2013-09-15T09:27:02Z</time>
      </trkpt>
      <trkpt lat="46.50883" lon="-0.606">
        <ele>19</ele>
        <time>2013-09-15T09:27:04Z</time>
      </trkpt>
      <trkpt lat="46.50884" lon="-0.60591">
        <ele>20</ele>
        <time>2013-09-15T09:27:06Z</time>
      </trkpt>
      <trkpt lat="46.50886" lon="-0.60583">
        <ele>20</ele>
        <time>2013-09-15T09:27:08Z</time>
      </trkpt>
      <trkpt lat="46.50886" lon="-0.60574">
        <ele>21</ele>
        <time>2013-09-15T09:27:10Z</time>
      </trkpt>
      <trkpt lat="46.50883" lon="-0.60568">
        <ele>21</ele>
        <time>2013-09-15T09:27:12Z</time>
      </trkpt>
      <trkpt lat="46.50874" lon="-0.60566">
        <ele>22</ele>
        <time>2013-09-15T09:27:15Z</time>
      </trkpt>
      <trkpt lat="46.50867" lon="-0.60565">
        <ele>22</ele>
        <time>2013-09-15T09:27:17Z</time>
      </trkpt>
      <trkpt lat="46.5086" lon="-0.60565">
        <ele>22</ele>
        <time>2013-09-15T09:27:19Z</time>
      </trkpt>
      <trkpt lat="46.50853" lon="-0.60563">
        <ele>22</ele>
        <time>2013-09-15T09:27:21Z</time>
      </trkpt>
      <trkpt lat="46.50847" lon="-0.60562">
        <ele>22</ele>
        <time>2013-09-15T09:27:23Z</time>
      </trkpt>
      <trkpt lat="46.50842" lon="-0.60561">
        <ele>22</ele>
        <time>2013-09-15T09:27:25Z</time>
      </trkpt>
      <trkpt lat="46.50835" lon="-0.60561">
        <ele>23</ele>
        <time>2013-09-15T09:27:27Z</time>
      </trkpt>
      <trkpt lat="46.50829" lon="-0.6056">
        <ele>23</ele>
        <time>2013-09-15T09:27:29Z</time>
      </trkpt>
      <trkpt lat="46.50819" lon="-0.60557">
        <ele>23</ele>
        <time>2013-09-15T09:27:32Z</time>
      </trkpt>
      <trkpt lat="46.50811" lon="-0.60555">
        <ele>22</ele>
        <time>2013-09-15T09:27:34Z</time>
      </trkpt>
      <trkpt lat="46.50805" lon="-0.60554">
        <ele>22</ele>
        <time>2013-09-15T09:27:36Z</time>
      </trkpt>
      <trkpt lat="46.50797" lon="-0.60552">
        <ele>23</ele>
        <time>2013-09-15T09:27:38Z</time>
      </trkpt>
      <trkpt lat="46.5079" lon="-0.60551">
        <ele>23</ele>
        <time>2013-09-15T09:27:40Z</time>
      </trkpt>
      <trkpt lat="46.50784" lon="-0.60549">
        <ele>23</ele>
        <time>2013-09-15T09:27:42Z</time>
      </trkpt>
      <trkpt lat="46.50777" lon="-0.60549">
        <ele>23</ele>
        <time>2013-09-15T09:27:44Z</time>
      </trkpt>
      <trkpt lat="46.5077" lon="-0.60549">
        <ele>23</ele>
        <time>2013-09-15T09:27:46Z</time>
      </trkpt>
      <trkpt lat="46.50759" lon="-0.60551">
        <ele>23</ele>
        <time>2013-09-15T09:27:49Z</time>
      </trkpt>
      <trkpt lat="46.50753" lon="-0.60553">
        <ele>23</ele>
        <time>2013-09-15T09:27:51Z</time>
      </trkpt>
      <trkpt lat="46.50747" lon="-0.60556">
        <ele>23</ele>
        <time>2013-09-15T09:27:53Z</time>
      </trkpt>
      <trkpt lat="46.50739" lon="-0.60558">
        <ele>23</ele>
        <time>2013-09-15T09:27:55Z</time>
      </trkpt>
      <trkpt lat="46.5073" lon="-0.60561">
        <ele>23</ele>
        <time>2013-09-15T09:27:57Z</time>
      </trkpt>
      <trkpt lat="46.50723" lon="-0.60564">
        <ele>24</ele>
        <time>2013-09-15T09:27:59Z</time>
      </trkpt>
      <trkpt lat="46.50716" lon="-0.60566">
        <ele>24</ele>
        <time>2013-09-15T09:28:01Z</time>
      </trkpt>
      <trkpt lat="46.5071" lon="-0.60569">
        <ele>24</ele>
        <time>2013-09-15T09:28:03Z</time>
      </trkpt>
      <trkpt lat="46.507" lon="-0.60572">
        <ele>24</ele>
        <time>2013-09-15T09:28:06Z</time>
      </trkpt>
      <trkpt lat="46.50694" lon="-0.60575">
        <ele>24</ele>
        <time>2013-09-15T09:28:08Z</time>
      </trkpt>
      <trkpt lat="46.50686" lon="-0.60577">
        <ele>25</ele>
        <time>2013-09-15T09:28:10Z</time>
      </trkpt>
      <trkpt lat="46.5068" lon="-0.6058">
        <ele>25</ele>
        <time>2013-09-15T09:28:12Z</time>
      </trkpt>
      <trkpt lat="46.50674" lon="-0.60581">
        <ele>25</ele>
        <time>2013-09-15T09:28:14Z</time>
      </trkpt>
      <trkpt lat="46.5067" lon="-0.60584">
        <ele>25</ele>
        <time>2013-09-15T09:28:16Z</time>
      </trkpt>
      <trkpt lat="46.50663" lon="-0.60587">
        <ele>25</ele>
        <time>2013-09-15T09:28:18Z</time>
      </trkpt>
      <trkpt lat="46.50657" lon="-0.6059">
        <ele>26</ele>
        <time>2013-09-15T09:28:20Z</time>
      </trkpt>
      <trkpt lat="46.50647" lon="-0.60594">
        <ele>26</ele>
        <time>2013-09-15T09:28:23Z</time>
      </trkpt>
      <trkpt lat="46.50641" lon="-0.60596">
        <ele>26</ele>
        <time>2013-09-15T09:28:25Z</time>
      </trkpt>
      <trkpt lat="46.50636" lon="-0.60598">
        <ele>26</ele>
        <time>2013-09-15T09:28:27Z</time>
      </trkpt>
      <trkpt lat="46.50631" lon="-0.60601">
        <ele>27</ele>
        <time>2013-09-15T09:28:29Z</time>
      </trkpt>
      <trkpt lat="46.50624" lon="-0.60602">
        <ele>28</ele>
        <time>2013-09-15T09:28:31Z</time>
      </trkpt>
      <trkpt lat="46.50618" lon="-0.60605">
        <ele>28</ele>
        <time>2013-09-15T09:28:33Z</time>
      </trkpt>
      <trkpt lat="46.50613" lon="-0.60606">
        <ele>28</ele>
        <time>2013-09-15T09:28:35Z</time>
      </trkpt>
      <trkpt lat="46.50604" lon="-0.60608">
        <ele>28</ele>
        <time>2013-09-15T09:28:38Z</time>
      </trkpt>
      <trkpt lat="46.50597" lon="-0.6061">
        <ele>28</ele>
        <time>2013-09-15T09:28:40Z</time>
      </trkpt>
      <trkpt lat="46.50589" lon="-0.60613">
        <ele>28</ele>
        <time>2013-09-15T09:28:42Z</time>
      </trkpt>
      <trkpt lat="46.50584" lon="-0.60612">
        <ele>29</ele>
        <time>2013-09-15T09:28:44Z</time>
      </trkpt>
      <trkpt lat="46.50579" lon="-0.60606">
        <ele>29</ele>
        <time>2013-09-15T09:28:46Z</time>
      </trkpt>
      <trkpt lat="46.50574" lon="-0.60592">
        <ele>30</ele>
        <time>2013-09-15T09:28:49Z</time>
      </trkpt>
      <trkpt lat="46.50573" lon="-0.60582">
        <ele>30</ele>
        <time>2013-09-15T09:28:51Z</time>
      </trkpt>
      <trkpt lat="46.50569" lon="-0.60566">
        <ele>31</ele>
        <time>2013-09-15T09:28:54Z</time>
      </trkpt>
      <trkpt lat="46.50569" lon="-0.60554">
        <ele>31</ele>
        <time>2013-09-15T09:28:56Z</time>
      </trkpt>
      <trkpt lat="46.50568" lon="-0.60542">
        <ele>31</ele>
        <time>2013-09-15T09:28:58Z</time>
      </trkpt>
      <trkpt lat="46.50567" lon="-0.60529">
        <ele>31</ele>
        <time>2013-09-15T09:29:00Z</time>
      </trkpt>
      <trkpt lat="46.50568" lon="-0.60516">
        <ele>32</ele>
        <time>2013-09-15T09:29:02Z</time>
      </trkpt>
      <trkpt lat="46.50566" lon="-0.60503">
        <ele>32</ele>
        <time>2013-09-15T09:29:04Z</time>
      </trkpt>
      <trkpt lat="46.50565" lon="-0.60489">
        <ele>32</ele>
        <time>2013-09-15T09:29:06Z</time>
      </trkpt>
      <trkpt lat="46.50565" lon="-0.60476">
        <ele>32</ele>
        <time>2013-09-15T09:29:08Z</time>
      </trkpt>
      <trkpt lat="46.50565" lon="-0.60463">
        <ele>33</ele>
        <time>2013-09-15T09:29:10Z</time>
      </trkpt>
      <trkpt lat="46.50565" lon="-0.60443">
        <ele>33</ele>
        <time>2013-09-15T09:29:13Z</time>
      </trkpt>
      <trkpt lat="46.50565" lon="-0.60429">
        <ele>33</ele>
        <time>2013-09-15T09:29:15Z</time>
      </trkpt>
      <trkpt lat="46.50566" lon="-0.60415">
        <ele>33</ele>
        <time>2013-09-15T09:29:17Z</time>
      </trkpt>
      <trkpt lat="46.50571" lon="-0.60403">
        <ele>33</ele>
        <time>2013-09-15T09:29:19Z</time>
      </trkpt>
      <trkpt lat="46.50579" lon="-0.60393">
        <ele>34</ele>
        <time>2013-09-15T09:29:21Z</time>
      </trkpt>
      <trkpt lat="46.50589" lon="-0.60385">
        <ele>34</ele>
        <time>2013-09-15T09:29:23Z</time>
      </trkpt>
      <trkpt lat="46.50598" lon="-0.60377">
        <ele>34</ele>
        <time>2013-09-15T09:29:25Z</time>
      </trkpt>
      <trkpt lat="46.50613" lon="-0.60365">
        <ele>34</ele>
        <time>2013-09-15T09:29:28Z</time>
      </trkpt>
      <trkpt lat="46.50627" lon="-0.60353">
        <ele>35</ele>
        <time>2013-09-15T09:29:31Z</time>
      </trkpt>
      <trkpt lat="46.50635" lon="-0.60346">
        <ele>35</ele>
        <time>2013-09-15T09:29:33Z</time>
      </trkpt>
      <trkpt lat="46.50644" lon="-0.6034">
        <ele>35</ele>
        <time>2013-09-15T09:29:35Z</time>
      </trkpt>
      <trkpt lat="46.50654" lon="-0.60334">
        <ele>35</ele>
        <time>2013-09-15T09:29:37Z</time>
      </trkpt>
      <trkpt lat="46.5067" lon="-0.60322">
        <ele>35</ele>
        <time>2013-09-15T09:29:40Z</time>
      </trkpt>
      <trkpt lat="46.50686" lon="-0.60309">
        <ele>34</ele>
        <time>2013-09-15T09:29:43Z</time>
      </trkpt>
      <trkpt lat="46.50696" lon="-0.603">
        <ele>34</ele>
        <time>2013-09-15T09:29:45Z</time>
      </trkpt>
      <trkpt lat="46.50712" lon="-0.60284">
        <ele>34</ele>
        <time>2013-09-15T09:29:48Z</time>
      </trkpt>
      <trkpt lat="46.50723" lon="-0.60272">
        <ele>34</ele>
        <time>2013-09-15T09:29:50Z</time>
      </trkpt>
      <trkpt lat="46.50732" lon="-0.60258">
        <ele>34</ele>
        <time>2013-09-15T09:29:52Z</time>
      </trkpt>
      <trkpt lat="46.50747" lon="-0.60238">
        <ele>33</ele>
        <time>2013-09-15T09:29:55Z</time>
      </trkpt>
      <trkpt lat="46.50765" lon="-0.60223">
        <ele>32</ele>
        <time>2013-09-15T09:29:58Z</time>
      </trkpt>
      <trkpt lat="46.50778" lon="-0.60214">
        <ele>32</ele>
        <time>2013-09-15T09:30:00Z</time>
      </trkpt>
      <trkpt lat="46.50791" lon="-0.60206">
        <ele>31</ele>
        <time>2013-09-15T09:30:02Z</time>
      </trkpt>
      <trkpt lat="46.50804" lon="-0.60198">
        <ele>31</ele>
        <time>2013-09-15T09:30:04Z</time>
      </trkpt>
      <trkpt lat="46.50822" lon="-0.60184">
        <ele>31</ele>
        <time>2013-09-15T09:30:07Z</time>
      </trkpt>
      <trkpt lat="46.50835" lon="-0.60175">
        <ele>31</ele>
        <time>2013-09-15T09:30:09Z</time>
      </trkpt>
      <trkpt lat="46.50854" lon="-0.60166">
        <ele>31</ele>
        <time>2013-09-15T09:30:12Z</time>
      </trkpt>
      <trkpt lat="46.50866" lon="-0.60163">
        <ele>31</ele>
        <time>2013-09-15T09:30:14Z</time>
      </trkpt>
      <trkpt lat="46.50877" lon="-0.60159">
        <ele>31</ele>
        <time>2013-09-15T09:30:16Z</time>
      </trkpt>
      <trkpt lat="46.50891" lon="-0.6015">
        <ele>31</ele>
        <time>2013-09-15T09:30:19Z</time>
      </trkpt>
      <trkpt lat="46.509" lon="-0.60143">
        <ele>31</ele>
        <time>2013-09-15T09:30:21Z</time>
      </trkpt>
      <trkpt lat="46.50908" lon="-0.60137">
        <ele>31</ele>
        <time>2013-09-15T09:30:23Z</time>
      </trkpt>
      <trkpt lat="46.50918" lon="-0.60128">
        <ele>31</ele>
        <time>2013-09-15T09:30:26Z</time>
      </trkpt>
      <trkpt lat="46.5093" lon="-0.60118">
        <ele>31</ele>
        <time>2013-09-15T09:30:29Z</time>
      </trkpt>
      <trkpt lat="46.5094" lon="-0.60106">
        <ele>32</ele>
        <time>2013-09-15T09:30:32Z</time>
      </trkpt>
      <trkpt lat="46.50946" lon="-0.60098">
        <ele>32</ele>
        <time>2013-09-15T09:30:34Z</time>
      </trkpt>
      <trkpt lat="46.50954" lon="-0.60091">
        <ele>32</ele>
        <time>2013-09-15T09:30:36Z</time>
      </trkpt>
      <trkpt lat="46.50962" lon="-0.60081">
        <ele>32</ele>
        <time>2013-09-15T09:30:38Z</time>
      </trkpt>
      <trkpt lat="46.50972" lon="-0.60072">
        <ele>32</ele>
        <time>2013-09-15T09:30:40Z</time>
      </trkpt>
      <trkpt lat="46.5099" lon="-0.60057">
        <ele>31</ele>
        <time>2013-09-15T09:30:43Z</time>
      </trkpt>
      <trkpt lat="46.51007" lon="-0.60039">
        <ele>29</ele>
        <time>2013-09-15T09:30:46Z</time>
      </trkpt>
      <trkpt lat="46.51018" lon="-0.60022">
        <ele>28</ele>
        <time>2013-09-15T09:30:48Z</time>
      </trkpt>
      <trkpt lat="46.51029" lon="-0.60005">
        <ele>27</ele>
        <time>2013-09-15T09:30:50Z</time>
      </trkpt>
      <trkpt lat="46.5104" lon="-0.59986">
        <ele>26</ele>
        <time>2013-09-15T09:30:52Z</time>
      </trkpt>
      <trkpt lat="46.51051" lon="-0.59966">
        <ele>24</ele>
        <time>2013-09-15T09:30:54Z</time>
      </trkpt>
      <trkpt lat="46.51058" lon="-0.59952">
        <ele>22</ele>
        <time>2013-09-15T09:30:56Z</time>
      </trkpt>
      <trkpt lat="46.51064" lon="-0.59945">
        <ele>21</ele>
        <time>2013-09-15T09:30:59Z</time>
      </trkpt>
      <trkpt lat="46.51069" lon="-0.59947">
        <ele>19</ele>
        <time>2013-09-15T09:31:01Z</time>
      </trkpt>
      <trkpt lat="46.51076" lon="-0.59955">
        <ele>19</ele>
        <time>2013-09-15T09:31:03Z</time>
      </trkpt>
      <trkpt lat="46.51086" lon="-0.59964">
        <ele>19</ele>
        <time>2013-09-15T09:31:05Z</time>
      </trkpt>
      <trkpt lat="46.51101" lon="-0.59977">
        <ele>19</ele>
        <time>2013-09-15T09:31:08Z</time>
      </trkpt>
      <trkpt lat="46.51113" lon="-0.59985">
        <ele>19</ele>
        <time>2013-09-15T09:31:10Z</time>
      </trkpt>
      <trkpt lat="46.51127" lon="-0.59992">
        <ele>18</ele>
        <time>2013-09-15T09:31:12Z</time>
      </trkpt>
      <trkpt lat="46.51149" lon="-0.60003">
        <ele>18</ele>
        <time>2013-09-15T09:31:15Z</time>
      </trkpt>
      <trkpt lat="46.51162" lon="-0.6001">
        <ele>17</ele>
        <time>2013-09-15T09:31:17Z</time>
      </trkpt>
      <trkpt lat="46.51184" lon="-0.60022">
        <ele>17</ele>
        <time>2013-09-15T09:31:20Z</time>
      </trkpt>
      <trkpt lat="46.51205" lon="-0.60033">
        <ele>16</ele>
        <time>2013-09-15T09:31:23Z</time>
      </trkpt>
      <trkpt lat="46.51219" lon="-0.6004">
        <ele>15</ele>
        <time>2013-09-15T09:31:25Z</time>
      </trkpt>
      <trkpt lat="46.5124" lon="-0.60046">
        <ele>14</ele>
        <time>2013-09-15T09:31:28Z</time>
      </trkpt>
      <trkpt lat="46.51255" lon="-0.60046">
        <ele>14</ele>
        <time>2013-09-15T09:31:30Z</time>
      </trkpt>
      <trkpt lat="46.5127" lon="-0.60044">
        <ele>13</ele>
        <time>2013-09-15T09:31:32Z</time>
      </trkpt>
      <trkpt lat="46.51284" lon="-0.60038">
        <ele>12</ele>
        <time>2013-09-15T09:31:34Z</time>
      </trkpt>
      <trkpt lat="46.51297" lon="-0.6003">
        <ele>11</ele>
        <time>2013-09-15T09:31:36Z</time>
      </trkpt>
      <trkpt lat="46.51312" lon="-0.60022">
        <ele>11</ele>
        <time>2013-09-15T09:31:38Z</time>
      </trkpt>
      <trkpt lat="46.51329" lon="-0.60013">
        <ele>11</ele>
        <time>2013-09-15T09:31:40Z</time>
      </trkpt>
      <trkpt lat="46.51348" lon="-0.60004">
        <ele>11</ele>
        <time>2013-09-15T09:31:42Z</time>
      </trkpt>
      <trkpt lat="46.51375" lon="-0.5999">
        <ele>10</ele>
        <time>2013-09-15T09:31:45Z</time>
      </trkpt>
      <trkpt lat="46.51392" lon="-0.59982">
        <ele>10</ele>
        <time>2013-09-15T09:31:47Z</time>
      </trkpt>
      <trkpt lat="46.51408" lon="-0.59971">
        <ele>9</ele>
        <time>2013-09-15T09:31:49Z</time>
      </trkpt>
      <trkpt lat="46.51422" lon="-0.59959">
        <ele>9</ele>
        <time>2013-09-15T09:31:51Z</time>
      </trkpt>
      <trkpt lat="46.51434" lon="-0.59944">
        <ele>9</ele>
        <time>2013-09-15T09:31:53Z</time>
      </trkpt>
      <trkpt lat="46.51447" lon="-0.5992">
        <ele>9</ele>
        <time>2013-09-15T09:31:56Z</time>
      </trkpt>
      <trkpt lat="46.5146" lon="-0.59897">
        <ele>9</ele>
        <time>2013-09-15T09:31:59Z</time>
      </trkpt>
      <trkpt lat="46.51467" lon="-0.59882">
        <ele>9</ele>
        <time>2013-09-15T09:32:01Z</time>
      </trkpt>
      <trkpt lat="46.51479" lon="-0.5986">
        <ele>9</ele>
        <time>2013-09-15T09:32:04Z</time>
      </trkpt>
      <trkpt lat="46.51485" lon="-0.59847">
        <ele>8</ele>
        <time>2013-09-15T09:32:06Z</time>
      </trkpt>
      <trkpt lat="46.51493" lon="-0.59832">
        <ele>8</ele>
        <time>2013-09-15T09:32:09Z</time>
      </trkpt>
      <trkpt lat="46.51499" lon="-0.59812">
        <ele>9</ele>
        <time>2013-09-15T09:32:12Z</time>
      </trkpt>
      <trkpt lat="46.51503" lon="-0.59805">
        <ele>9</ele>
        <time>2013-09-15T09:32:14Z</time>
      </trkpt>
      <trkpt lat="46.51503" lon="-0.59807">
        <ele>9</ele>
        <time>2013-09-15T09:32:16Z</time>
      </trkpt>
      <trkpt lat="46.51504" lon="-0.59807">
        <ele>10</ele>
        <time>2013-09-15T09:32:19Z</time>
      </trkpt>
      <trkpt lat="46.51505" lon="-0.59807">
        <ele>10</ele>
        <time>2013-09-15T09:32:21Z</time>
      </trkpt>
      <trkpt lat="46.51505" lon="-0.59806">
        <ele>10</ele>
        <time>2013-09-15T09:32:24Z</time>
      </trkpt>
      <trkpt lat="46.51506" lon="-0.59806">
        <ele>10</ele>
        <time>2013-09-15T09:32:26Z</time>
      </trkpt>
      <trkpt lat="46.51507" lon="-0.59806">
        <ele>10</ele>
        <time>2013-09-15T09:32:29Z</time>
      </trkpt>
      <trkpt lat="46.51507" lon="-0.59807">
        <ele>10</ele>
        <time>2013-09-15T09:32:31Z</time>
      </trkpt>
      <trkpt lat="46.51508" lon="-0.59807">
        <ele>9</ele>
        <time>2013-09-15T09:32:33Z</time>
      </trkpt>
      <trkpt lat="46.51508" lon="-0.59806">
        <ele>9</ele>
        <time>2013-09-15T09:32:36Z</time>
      </trkpt>
      <trkpt lat="46.51508" lon="-0.59806">
        <ele>9</ele>
        <time>2013-09-15T09:32:39Z</time>
      </trkpt>
      <trkpt lat="46.51507" lon="-0.59806">
        <ele>9</ele>
        <time>2013-09-15T09:32:42Z</time>
      </trkpt>
      <trkpt lat="46.51507" lon="-0.59806">
        <ele>9</ele>
        <time>2013-09-15T09:32:45Z</time>
      </trkpt>
      <trkpt lat="46.51507" lon="-0.59805">
        <ele>8</ele>
        <time>2013-09-15T09:32:47Z</time>
      </trkpt>
      <trkpt lat="46.51507" lon="-0.59805">
        <ele>8</ele>
        <time>2013-09-15T09:32:50Z</time>
      </trkpt>
      <trkpt lat="46.51507" lon="-0.59805">
        <ele>8</ele>
        <time>2013-09-15T09:32:54Z</time>
      </trkpt>
      <trkpt lat="46.51507" lon="-0.59805">
        <ele>8</ele>
        <time>2013-09-15T09:32:56Z</time>
      </trkpt>
      <trkpt lat="46.51506" lon="-0.59804">
        <ele>8</ele>
        <time>2013-09-15T09:32:59Z</time>
      </trkpt>
      <trkpt lat="46.51506" lon="-0.59804">
        <ele>8</ele>
        <time>2013-09-15T09:33:02Z</time>
      </trkpt>
      <trkpt lat="46.51506" lon="-0.59804">
        <ele>8</ele>
        <time>2013-09-15T09:33:04Z</time>
      </trkpt>
      <trkpt lat="46.51505" lon="-0.59804">
        <ele>9</ele>
        <time>2013-09-15T09:33:06Z</time>
      </trkpt>
      <trkpt lat="46.51506" lon="-0.59804">
        <ele>10</ele>
        <time>2013-09-15T09:33:13Z</time>
      </trkpt>
      <trkpt lat="46.51506" lon="-0.59804">
        <ele>10</ele>
        <time>2013-09-15T09:33:15Z</time>
      </trkpt>
      <trkpt lat="46.51507" lon="-0.59804">
        <ele>10</ele>
        <time>2013-09-15T09:33:17Z</time>
      </trkpt>
      <trkpt lat="46.51507" lon="-0.59804">
        <ele>11</ele>
        <time>2013-09-15T09:33:19Z</time>
      </trkpt>
      <trkpt lat="46.51506" lon="-0.59805">
        <ele>11</ele>
        <time>2013-09-15T09:33:21Z</time>
      </trkpt>
      <trkpt lat="46.51505" lon="-0.59809">
        <ele>11</ele>
        <time>2013-09-15T09:33:24Z</time>
      </trkpt>
      <trkpt lat="46.51505" lon="-0.59811">
        <ele>11</ele>
        <time>2013-09-15T09:33:26Z</time>
      </trkpt>
      <trkpt lat="46.51506" lon="-0.59812">
        <ele>11</ele>
        <time>2013-09-15T09:33:28Z</time>
      </trkpt>
      <trkpt lat="46.51506" lon="-0.59813">
        <ele>10</ele>
        <time>2013-09-15T09:33:31Z</time>
      </trkpt>
      <trkpt lat="46.51506" lon="-0.59813">
        <ele>9</ele>
        <time>2013-09-15T09:33:33Z</time>
      </trkpt>
      <trkpt lat="46.51505" lon="-0.59813">
        <ele>9</ele>
        <time>2013-09-15T09:33:36Z</time>
      </trkpt>
      <trkpt lat="46.51505" lon="-0.59813">
        <ele>9</ele>
        <time>2013-09-15T09:33:38Z</time>
      </trkpt>
      <trkpt lat="46.51504" lon="-0.59813">
        <ele>9</ele>
        <time>2013-09-15T09:33:42Z</time>
      </trkpt>
      <trkpt lat="46.51506" lon="-0.59813">
        <ele>9</ele>
        <time>2013-09-15T09:33:45Z</time>
      </trkpt>
      <trkpt lat="46.51506" lon="-0.59813">
        <ele>9</ele>
        <time>2013-09-15T09:33:48Z</time>
      </trkpt>
      <trkpt lat="46.51506" lon="-0.59813">
        <ele>9</ele>
        <time>2013-09-15T09:33:50Z</time>
      </trkpt>
      <trkpt lat="46.51506" lon="-0.59814">
        <ele>9</ele>
        <time>2013-09-15T09:33:53Z</time>
      </trkpt>
      <trkpt lat="46.51506" lon="-0.59815">
        <ele>9</ele>
        <time>2013-09-15T09:33:56Z</time>
      </trkpt>
      <trkpt lat="46.51508" lon="-0.59814">
        <ele>9</ele>
        <time>2013-09-15T09:33:59Z</time>
      </trkpt>
      <trkpt lat="46.51506" lon="-0.5981">
        <ele>9</ele>
        <time>2013-09-15T09:34:01Z</time>
      </trkpt>
      <trkpt lat="46.51499" lon="-0.59808">
        <ele>10</ele>
        <time>2013-09-15T09:34:04Z</time>
      </trkpt>
      <trkpt lat="46.5149" lon="-0.59808">
        <ele>9</ele>
        <time>2013-09-15T09:34:07Z</time>
      </trkpt>
      <trkpt lat="46.51483" lon="-0.59808">
        <ele>9</ele>
        <time>2013-09-15T09:34:09Z</time>
      </trkpt>
      <trkpt lat="46.51473" lon="-0.59807">
        <ele>9</ele>
        <time>2013-09-15T09:34:12Z</time>
      </trkpt>
      <trkpt lat="46.51466" lon="-0.59807">
        <ele>7</ele>
        <time>2013-09-15T09:34:15Z</time>
      </trkpt>
      <trkpt lat="46.51463" lon="-0.59806">
        <ele>7</ele>
        <time>2013-09-15T09:34:17Z</time>
      </trkpt>
      <trkpt lat="46.5146" lon="-0.59807">
        <ele>6</ele>
        <time>2013-09-15T09:34:19Z</time>
      </trkpt>
      <trkpt lat="46.51458" lon="-0.59807">
        <ele>6</ele>
        <time>2013-09-15T09:34:21Z</time>
      </trkpt>
      <trkpt lat="46.51453" lon="-0.59805">
        <ele>6</ele>
        <time>2013-09-15T09:34:24Z</time>
      </trkpt>
      <trkpt lat="46.51449" lon="-0.59801">
        <ele>6</ele>
        <time>2013-09-15T09:34:26Z</time>
      </trkpt>
      <trkpt lat="46.51445" lon="-0.59799">
        <ele>6</ele>
        <time>2013-09-15T09:34:28Z</time>
      </trkpt>
      <trkpt lat="46.51442" lon="-0.59799">
        <ele>6</ele>
        <time>2013-09-15T09:34:30Z</time>
      </trkpt>
      <trkpt lat="46.51439" lon="-0.598">
        <ele>6</ele>
        <time>2013-09-15T09:34:32Z</time>
      </trkpt>
      <trkpt lat="46.51436" lon="-0.59801">
        <ele>6</ele>
        <time>2013-09-15T09:34:34Z</time>
      </trkpt>
      <trkpt lat="46.51432" lon="-0.59802">
        <ele>6</ele>
        <time>2013-09-15T09:34:36Z</time>
      </trkpt>
      <trkpt lat="46.51427" lon="-0.59803">
        <ele>7</ele>
        <time>2013-09-15T09:34:38Z</time>
      </trkpt>
      <trkpt lat="46.51421" lon="-0.59805">
        <ele>7</ele>
        <time>2013-09-15T09:34:41Z</time>
      </trkpt>
      <trkpt lat="46.51414" lon="-0.59805">
        <ele>7</ele>
        <time>2013-09-15T09:34:44Z</time>
      </trkpt>
      <trkpt lat="46.51409" lon="-0.59804">
        <ele>7</ele>
        <time>2013-09-15T09:34:46Z</time>
      </trkpt>
      <trkpt lat="46.51405" lon="-0.59802">
        <ele>7</ele>
        <time>2013-09-15T09:34:48Z</time>
      </trkpt>
      <trkpt lat="46.51398" lon="-0.59799">
        <ele>8</ele>
        <time>2013-09-15T09:34:51Z</time>
      </trkpt>
      <trkpt lat="46.51393" lon="-0.59797">
        <ele>9</ele>
        <time>2013-09-15T09:34:54Z</time>
      </trkpt>
      <trkpt lat="46.51389" lon="-0.59795">
        <ele>10</ele>
        <time>2013-09-15T09:34:57Z</time>
      </trkpt>
      <trkpt lat="46.51386" lon="-0.59793">
        <ele>10</ele>
        <time>2013-09-15T09:34:59Z</time>
      </trkpt>
      <trkpt lat="46.51381" lon="-0.59791">
        <ele>11</ele>
        <time>2013-09-15T09:35:02Z</time>
      </trkpt>
      <trkpt lat="46.51378" lon="-0.59789">
        <ele>11</ele>
        <time>2013-09-15T09:35:04Z</time>
      </trkpt>
      <trkpt lat="46.51375" lon="-0.59787">
        <ele>12</ele>
        <time>2013-09-15T09:35:06Z</time>
      </trkpt>
      <trkpt lat="46.51373" lon="-0.59785">
        <ele>12</ele>
        <time>2013-09-15T09:35:08Z</time>
      </trkpt>
      <trkpt lat="46.51371" lon="-0.59783">
        <ele>13</ele>
        <time>2013-09-15T09:35:10Z</time>
      </trkpt>
      <trkpt lat="46.51368" lon="-0.5978">
        <ele>13</ele>
        <time>2013-09-15T09:35:12Z</time>
      </trkpt>
      <trkpt lat="46.51366" lon="-0.59778">
        <ele>13</ele>
        <time>2013-09-15T09:35:14Z</time>
      </trkpt>
      <trkpt lat="46.51363" lon="-0.59776">
        <ele>13</ele>
        <time>2013-09-15T09:35:17Z</time>
      </trkpt>
      <trkpt lat="46.5136" lon="-0.59773">
        <ele>14</ele>
        <time>2013-09-15T09:35:20Z</time>
      </trkpt>
      <trkpt lat="46.51357" lon="-0.59771">
        <ele>14</ele>
        <time>2013-09-15T09:35:23Z</time>
      </trkpt>
      <trkpt lat="46.51354" lon="-0.59767">
        <ele>14</ele>
        <time>2013-09-15T09:35:26Z</time>
      </trkpt>
      <trkpt lat="46.5135" lon="-0.59765">
        <ele>15</ele>
        <time>2013-09-15T09:35:29Z</time>
      </trkpt>
      <trkpt lat="46.51347" lon="-0.59763">
        <ele>15</ele>
        <time>2013-09-15T09:35:31Z</time>
      </trkpt>
      <trkpt lat="46.51345" lon="-0.59762">
        <ele>16</ele>
        <time>2013-09-15T09:35:33Z</time>
      </trkpt>
      <trkpt lat="46.51341" lon="-0.5976">
        <ele>16</ele>
        <time>2013-09-15T09:35:36Z</time>
      </trkpt>
      <trkpt lat="46.51339" lon="-0.59758">
        <ele>16</ele>
        <time>2013-09-15T09:35:38Z</time>
      </trkpt>
      <trkpt lat="46.51338" lon="-0.59756">
        <ele>17</ele>
        <time>2013-09-15T09:35:40Z</time>
      </trkpt>
      <trkpt lat="46.51336" lon="-0.59755">
        <ele>17</ele>
        <time>2013-09-15T09:35:42Z</time>
      </trkpt>
      <trkpt lat="46.51334" lon="-0.59754">
        <ele>17</ele>
        <time>2013-09-15T09:35:44Z</time>
      </trkpt>
      <trkpt lat="46.51332" lon="-0.59752">
        <ele>18</ele>
        <time>2013-09-15T09:35:46Z</time>
      </trkpt>
      <trkpt lat="46.5133" lon="-0.5975">
        <ele>18</ele>
        <time>2013-09-15T09:35:49Z</time>
      </trkpt>
      <trkpt lat="46.51329" lon="-0.59747">
        <ele>18</ele>
        <time>2013-09-15T09:35:51Z</time>
      </trkpt>
      <trkpt lat="46.51324" lon="-0.59745">
        <ele>18</ele>
        <time>2013-09-15T09:35:54Z</time>
      </trkpt>
      <trkpt lat="46.5132" lon="-0.59741">
        <ele>19</ele>
        <time>2013-09-15T09:35:57Z</time>
      </trkpt>
      <trkpt lat="46.51318" lon="-0.59739">
        <ele>19</ele>
        <time>2013-09-15T09:35:59Z</time>
      </trkpt>
      <trkpt lat="46.51316" lon="-0.59737">
        <ele>20</ele>
        <time>2013-09-15T09:36:01Z</time>
      </trkpt>
      <trkpt lat="46.51313" lon="-0.59737">
        <ele>20</ele>
        <time>2013-09-15T09:36:04Z</time>
      </trkpt>
      <trkpt lat="46.51312" lon="-0.59736">
        <ele>20</ele>
        <time>2013-09-15T09:36:06Z</time>
      </trkpt>
      <trkpt lat="46.5131" lon="-0.59735">
        <ele>20</ele>
        <time>2013-09-15T09:36:09Z</time>
      </trkpt>
      <trkpt lat="46.51308" lon="-0.59734">
        <ele>20</ele>
        <time>2013-09-15T09:36:11Z</time>
      </trkpt>
      <trkpt lat="46.51306" lon="-0.59733">
        <ele>20</ele>
        <time>2013-09-15T09:36:14Z</time>
      </trkpt>
      <trkpt lat="46.51305" lon="-0.59733">
        <ele>21</ele>
        <time>2013-09-15T09:36:16Z</time>
      </trkpt>
      <trkpt lat="46.51305" lon="-0.59732">
        <ele>20</ele>
        <time>2013-09-15T09:36:19Z</time>
      </trkpt>
      <trkpt lat="46.51303" lon="-0.59732">
        <ele>21</ele>
        <time>2013-09-15T09:36:21Z</time>
      </trkpt>
      <trkpt lat="46.51299" lon="-0.59731">
        <ele>21</ele>
        <time>2013-09-15T09:36:24Z</time>
      </trkpt>
      <trkpt lat="46.51299" lon="-0.59731">
        <ele>21</ele>
        <time>2013-09-15T09:36:26Z</time>
      </trkpt>
      <trkpt lat="46.51297" lon="-0.59731">
        <ele>21</ele>
        <time>2013-09-15T09:36:29Z</time>
      </trkpt>
      <trkpt lat="46.51296" lon="-0.59729">
        <ele>21</ele>
        <time>2013-09-15T09:36:31Z</time>
      </trkpt>
      <trkpt lat="46.51294" lon="-0.59727">
        <ele>21</ele>
        <time>2013-09-15T09:36:34Z</time>
      </trkpt>
      <trkpt lat="46.5129" lon="-0.59724">
        <ele>22</ele>
        <time>2013-09-15T09:36:37Z</time>
      </trkpt>
      <trkpt lat="46.51288" lon="-0.59722">
        <ele>22</ele>
        <time>2013-09-15T09:36:39Z</time>
      </trkpt>
      <trkpt lat="46.51286" lon="-0.59718">
        <ele>22</ele>
        <time>2013-09-15T09:36:42Z</time>
      </trkpt>
      <trkpt lat="46.51283" lon="-0.59716">
        <ele>23</ele>
        <time>2013-09-15T09:36:44Z</time>
      </trkpt>
      <trkpt lat="46.51279" lon="-0.59712">
        <ele>24</ele>
        <time>2013-09-15T09:36:47Z</time>
      </trkpt>
      <trkpt lat="46.51278" lon="-0.5971">
        <ele>24</ele>
        <time>2013-09-15T09:36:49Z</time>
      </trkpt>
      <trkpt lat="46.51276" lon="-0.59708">
        <ele>24</ele>
        <time>2013-09-15T09:36:52Z</time>
      </trkpt>
      <trkpt lat="46.51276" lon="-0.59706">
        <ele>24</ele>
        <time>2013-09-15T09:36:54Z</time>
      </trkpt>
      <trkpt lat="46.51275" lon="-0.59702">
        <ele>24</ele>
        <time>2013-09-15T09:36:57Z</time>
      </trkpt>
      <trkpt lat="46.51273" lon="-0.597">
        <ele>24</ele>
        <time>2013-09-15T09:36:59Z</time>
      </trkpt>
      <trkpt lat="46.5127" lon="-0.59697">
        <ele>25</ele>
        <time>2013-09-15T09:37:02Z</time>
      </trkpt>
      <trkpt lat="46.51265" lon="-0.59694">
        <ele>26</ele>
        <time>2013-09-15T09:37:05Z</time>
      </trkpt>
      <trkpt lat="46.51262" lon="-0.59692">
        <ele>26</ele>
        <time>2013-09-15T09:37:07Z</time>
      </trkpt>
      <trkpt lat="46.51257" lon="-0.5969">
        <ele>26</ele>
        <time>2013-09-15T09:37:09Z</time>
      </trkpt>
      <trkpt lat="46.51254" lon="-0.59687">
        <ele>27</ele>
        <time>2013-09-15T09:37:11Z</time>
      </trkpt>
      <trkpt lat="46.51251" lon="-0.59685">
        <ele>27</ele>
        <time>2013-09-15T09:37:13Z</time>
      </trkpt>
      <trkpt lat="46.51245" lon="-0.59681">
        <ele>27</ele>
        <time>2013-09-15T09:37:16Z</time>
      </trkpt>
      <trkpt lat="46.51239" lon="-0.59677">
        <ele>28</ele>
        <time>2013-09-15T09:37:19Z</time>
      </trkpt>
      <trkpt lat="46.51235" lon="-0.59674">
        <ele>28</ele>
        <time>2013-09-15T09:37:21Z</time>
      </trkpt>
      <trkpt lat="46.5123" lon="-0.59672">
        <ele>28</ele>
        <time>2013-09-15T09:37:23Z</time>
      </trkpt>
      <trkpt lat="46.51225" lon="-0.59669">
        <ele>28</ele>
        <time>2013-09-15T09:37:25Z</time>
      </trkpt>
      <trkpt lat="46.51217" lon="-0.59664">
        <ele>29</ele>
        <time>2013-09-15T09:37:28Z</time>
      </trkpt>
      <trkpt lat="46.51213" lon="-0.59661">
        <ele>29</ele>
        <time>2013-09-15T09:37:30Z</time>
      </trkpt>
      <trkpt lat="46.51204" lon="-0.59657">
        <ele>29</ele>
        <time>2013-09-15T09:37:33Z</time>
      </trkpt>
      <trkpt lat="46.51197" lon="-0.59654">
        <ele>30</ele>
        <time>2013-09-15T09:37:35Z</time>
      </trkpt>
      <trkpt lat="46.51186" lon="-0.5965">
        <ele>30</ele>
        <time>2013-09-15T09:37:38Z</time>
      </trkpt>
      <trkpt lat="46.51178" lon="-0.59646">
        <ele>30</ele>
        <time>2013-09-15T09:37:40Z</time>
      </trkpt>
      <trkpt lat="46.5117" lon="-0.59642">
        <ele>30</ele>
        <time>2013-09-15T09:37:42Z</time>
      </trkpt>
      <trkpt lat="46.51158" lon="-0.59635">
        <ele>29</ele>
        <time>2013-09-15T09:37:45Z</time>
      </trkpt>
      <trkpt lat="46.51149" lon="-0.59631">
        <ele>29</ele>
        <time>2013-09-15T09:37:48Z</time>
      </trkpt>
      <trkpt lat="46.5114" lon="-0.59628">
        <ele>29</ele>
        <time>2013-09-15T09:37:50Z</time>
      </trkpt>
      <trkpt lat="46.51131" lon="-0.59623">
        <ele>30</ele>
        <time>2013-09-15T09:37:52Z</time>
      </trkpt>
      <trkpt lat="46.51122" lon="-0.5962">
        <ele>29</ele>
        <time>2013-09-15T09:37:54Z</time>
      </trkpt>
      <trkpt lat="46.51108" lon="-0.59628">
        <ele>29</ele>
        <time>2013-09-15T09:37:57Z</time>
      </trkpt>
      <trkpt lat="46.51095" lon="-0.59638">
        <ele>29</ele>
        <time>2013-09-15T09:38:00Z</time>
      </trkpt>
      <trkpt lat="46.51085" lon="-0.59644">
        <ele>28</ele>
        <time>2013-09-15T09:38:02Z</time>
      </trkpt>
      <trkpt lat="46.51074" lon="-0.5965">
        <ele>28</ele>
        <time>2013-09-15T09:38:04Z</time>
      </trkpt>
      <trkpt lat="46.51056" lon="-0.59658">
        <ele>28</ele>
        <time>2013-09-15T09:38:07Z</time>
      </trkpt>
      <trkpt lat="46.51044" lon="-0.59662">
        <ele>28</ele>
        <time>2013-09-15T09:38:09Z</time>
      </trkpt>
      <trkpt lat="46.51034" lon="-0.59668">
        <ele>28</ele>
        <time>2013-09-15T09:38:11Z</time>
      </trkpt>
      <trkpt lat="46.51022" lon="-0.59674">
        <ele>28</ele>
        <time>2013-09-15T09:38:13Z</time>
      </trkpt>
      <trkpt lat="46.51006" lon="-0.59682">
        <ele>28</ele>
        <time>2013-09-15T09:38:16Z</time>
      </trkpt>
      <trkpt lat="46.50993" lon="-0.59688">
        <ele>28</ele>
        <time>2013-09-15T09:38:19Z</time>
      </trkpt>
      <trkpt lat="46.50984" lon="-0.59685">
        <ele>28</ele>
        <time>2013-09-15T09:38:21Z</time>
      </trkpt>
      <trkpt lat="46.5098" lon="-0.59674">
        <ele>28</ele>
        <time>2013-09-15T09:38:23Z</time>
      </trkpt>
      <trkpt lat="46.50977" lon="-0.59654">
        <ele>28</ele>
        <time>2013-09-15T09:38:26Z</time>
      </trkpt>
      <trkpt lat="46.50975" lon="-0.59633">
        <ele>28</ele>
        <time>2013-09-15T09:38:29Z</time>
      </trkpt>
      <trkpt lat="46.50974" lon="-0.59618">
        <ele>28</ele>
        <time>2013-09-15T09:38:31Z</time>
      </trkpt>
      <trkpt lat="46.50972" lon="-0.59604">
        <ele>28</ele>
        <time>2013-09-15T09:38:33Z</time>
      </trkpt>
      <trkpt lat="46.50971" lon="-0.59591">
        <ele>29</ele>
        <time>2013-09-15T09:38:35Z</time>
      </trkpt>
      <trkpt lat="46.50969" lon="-0.59573">
        <ele>29</ele>
        <time>2013-09-15T09:38:38Z</time>
      </trkpt>
      <trkpt lat="46.50968" lon="-0.59562">
        <ele>29</ele>
        <time>2013-09-15T09:38:40Z</time>
      </trkpt>
      <trkpt lat="46.50967" lon="-0.59546">
        <ele>30</ele>
        <time>2013-09-15T09:38:43Z</time>
      </trkpt>
      <trkpt lat="46.50966" lon="-0.59536">
        <ele>31</ele>
        <time>2013-09-15T09:38:45Z</time>
      </trkpt>
      <trkpt lat="46.50965" lon="-0.59524">
        <ele>31</ele>
        <time>2013-09-15T09:38:48Z</time>
      </trkpt>
      <trkpt lat="46.50965" lon="-0.59513">
        <ele>32</ele>
        <time>2013-09-15T09:38:51Z</time>
      </trkpt>
      <trkpt lat="46.50964" lon="-0.59501">
        <ele>33</ele>
        <time>2013-09-15T09:38:54Z</time>
      </trkpt>
      <trkpt lat="46.50963" lon="-0.59489">
        <ele>34</ele>
        <time>2013-09-15T09:38:57Z</time>
      </trkpt>
      <trkpt lat="46.50963" lon="-0.59481">
        <ele>35</ele>
        <time>2013-09-15T09:38:59Z</time>
      </trkpt>
      <trkpt lat="46.50963" lon="-0.59473">
        <ele>35</ele>
        <time>2013-09-15T09:39:01Z</time>
      </trkpt>
      <trkpt lat="46.50962" lon="-0.59464">
        <ele>35</ele>
        <time>2013-09-15T09:39:03Z</time>
      </trkpt>
      <trkpt lat="46.50962" lon="-0.59456">
        <ele>36</ele>
        <time>2013-09-15T09:39:05Z</time>
      </trkpt>
      <trkpt lat="46.50962" lon="-0.59443">
        <ele>36</ele>
        <time>2013-09-15T09:39:08Z</time>
      </trkpt>
      <trkpt lat="46.50961" lon="-0.59435">
        <ele>37</ele>
        <time>2013-09-15T09:39:10Z</time>
      </trkpt>
      <trkpt lat="46.50962" lon="-0.5942">
        <ele>37</ele>
        <time>2013-09-15T09:39:14Z</time>
      </trkpt>
      <trkpt lat="46.50962" lon="-0.59412">
        <ele>37</ele>
        <time>2013-09-15T09:39:16Z</time>
      </trkpt>
      <trkpt lat="46.50962" lon="-0.59398">
        <ele>38</ele>
        <time>2013-09-15T09:39:19Z</time>
      </trkpt>
      <trkpt lat="46.50961" lon="-0.59389">
        <ele>38</ele>
        <time>2013-09-15T09:39:21Z</time>
      </trkpt>
      <trkpt lat="46.50961" lon="-0.59376">
        <ele>38</ele>
        <time>2013-09-15T09:39:24Z</time>
      </trkpt>
      <trkpt lat="46.50961" lon="-0.59362">
        <ele>39</ele>
        <time>2013-09-15T09:39:27Z</time>
      </trkpt>
      <trkpt lat="46.5096" lon="-0.59355">
        <ele>39</ele>
        <time>2013-09-15T09:39:29Z</time>
      </trkpt>
      <trkpt lat="46.50962" lon="-0.59345">
        <ele>39</ele>
        <time>2013-09-15T09:39:32Z</time>
      </trkpt>
      <trkpt lat="46.5097" lon="-0.59339">
        <ele>39</ele>
        <time>2013-09-15T09:39:35Z</time>
      </trkpt>
      <trkpt lat="46.50978" lon="-0.59334">
        <ele>38</ele>
        <time>2013-09-15T09:39:38Z</time>
      </trkpt>
      <trkpt lat="46.50988" lon="-0.59329">
        <ele>39</ele>
        <time>2013-09-15T09:39:41Z</time>
      </trkpt>
      <trkpt lat="46.50994" lon="-0.59327">
        <ele>38</ele>
        <time>2013-09-15T09:39:43Z</time>
      </trkpt>
      <trkpt lat="46.51006" lon="-0.59322">
        <ele>38</ele>
        <time>2013-09-15T09:39:46Z</time>
      </trkpt>
      <trkpt lat="46.5102" lon="-0.59316">
        <ele>37</ele>
        <time>2013-09-15T09:39:49Z</time>
      </trkpt>
      <trkpt lat="46.51035" lon="-0.5931">
        <ele>37</ele>
        <time>2013-09-15T09:39:52Z</time>
      </trkpt>
      <trkpt lat="46.51049" lon="-0.59303">
        <ele>37</ele>
        <time>2013-09-15T09:39:55Z</time>
      </trkpt>
      <trkpt lat="46.51059" lon="-0.59298">
        <ele>37</ele>
        <time>2013-09-15T09:39:57Z</time>
      </trkpt>
      <trkpt lat="46.51075" lon="-0.59291">
        <ele>37</ele>
        <time>2013-09-15T09:40:00Z</time>
      </trkpt>
      <trkpt lat="46.51086" lon="-0.59285">
        <ele>36</ele>
        <time>2013-09-15T09:40:02Z</time>
      </trkpt>
      <trkpt lat="46.51095" lon="-0.59281">
        <ele>36</ele>
        <time>2013-09-15T09:40:04Z</time>
      </trkpt>
      <trkpt lat="46.51105" lon="-0.59275">
        <ele>34</ele>
        <time>2013-09-15T09:40:06Z</time>
      </trkpt>
      <trkpt lat="46.51116" lon="-0.59267">
        <ele>32</ele>
        <time>2013-09-15T09:40:09Z</time>
      </trkpt>
      <trkpt lat="46.51121" lon="-0.59262">
        <ele>31</ele>
        <time>2013-09-15T09:40:11Z</time>
      </trkpt>
      <trkpt lat="46.51126" lon="-0.59256">
        <ele>29</ele>
        <time>2013-09-15T09:40:13Z</time>
      </trkpt>
      <trkpt lat="46.51138" lon="-0.59246">
        <ele>27</ele>
        <time>2013-09-15T09:40:16Z</time>
      </trkpt>
      <trkpt lat="46.51145" lon="-0.5924">
        <ele>25</ele>
        <time>2013-09-15T09:40:18Z</time>
      </trkpt>
      <trkpt lat="46.51154" lon="-0.59229">
        <ele>24</ele>
        <time>2013-09-15T09:40:21Z</time>
      </trkpt>
      <trkpt lat="46.51164" lon="-0.59222">
        <ele>23</ele>
        <time>2013-09-15T09:40:23Z</time>
      </trkpt>
      <trkpt lat="46.51183" lon="-0.59215">
        <ele>22</ele>
        <time>2013-09-15T09:40:26Z</time>
      </trkpt>
      <trkpt lat="46.51205" lon="-0.59209">
        <ele>21</ele>
        <time>2013-09-15T09:40:29Z</time>
      </trkpt>
      <trkpt lat="46.51217" lon="-0.59206">
        <ele>20</ele>
        <time>2013-09-15T09:40:31Z</time>
      </trkpt>
      <trkpt lat="46.51234" lon="-0.59217">
        <ele>19</ele>
        <time>2013-09-15T09:40:34Z</time>
      </trkpt>
      <trkpt lat="46.51252" lon="-0.59231">
        <ele>20</ele>
        <time>2013-09-15T09:40:37Z</time>
      </trkpt>
      <trkpt lat="46.51265" lon="-0.5924">
        <ele>20</ele>
        <time>2013-09-15T09:40:39Z</time>
      </trkpt>
      <trkpt lat="46.51285" lon="-0.59252">
        <ele>20</ele>
        <time>2013-09-15T09:40:42Z</time>
      </trkpt>
      <trkpt lat="46.51304" lon="-0.59265">
        <ele>18</ele>
        <time>2013-09-15T09:40:45Z</time>
      </trkpt>
      <trkpt lat="46.51323" lon="-0.59278">
        <ele>17</ele>
        <time>2013-09-15T09:40:48Z</time>
      </trkpt>
      <trkpt lat="46.5134" lon="-0.59291">
        <ele>16</ele>
        <time>2013-09-15T09:40:51Z</time>
      </trkpt>
      <trkpt lat="46.51356" lon="-0.59303">
        <ele>16</ele>
        <time>2013-09-15T09:40:54Z</time>
      </trkpt>
      <trkpt lat="46.51371" lon="-0.59315">
        <ele>15</ele>
        <time>2013-09-15T09:40:57Z</time>
      </trkpt>
      <trkpt lat="46.51381" lon="-0.59321">
        <ele>16</ele>
        <time>2013-09-15T09:40:59Z</time>
      </trkpt>
      <trkpt lat="46.51394" lon="-0.5933">
        <ele>15</ele>
        <time>2013-09-15T09:41:02Z</time>
      </trkpt>
      <trkpt lat="46.51402" lon="-0.59324">
        <ele>15</ele>
        <time>2013-09-15T09:41:05Z</time>
      </trkpt>
      <trkpt lat="46.51405" lon="-0.5932">
        <ele>14</ele>
        <time>2013-09-15T09:41:08Z</time>
      </trkpt>
      <trkpt lat="46.51406" lon="-0.59319">
        <ele>15</ele>
        <time>2013-09-15T09:41:11Z</time>
      </trkpt>
      <trkpt lat="46.51408" lon="-0.59319">
        <ele>15</ele>
        <time>2013-09-15T09:41:14Z</time>
      </trkpt>
      <trkpt lat="46.5141" lon="-0.59318">
        <ele>15</ele>
        <time>2013-09-15T09:41:17Z</time>
      </trkpt>
      <trkpt lat="46.51411" lon="-0.59318">
        <ele>15</ele>
        <time>2013-09-15T09:41:19Z</time>
      </trkpt>
      <trkpt lat="46.51411" lon="-0.59317">
        <ele>15</ele>
        <time>2013-09-15T09:41:22Z</time>
      </trkpt>
      <trkpt lat="46.51412" lon="-0.59314">
        <ele>15</ele>
        <time>2013-09-15T09:41:24Z</time>
      </trkpt>
      <trkpt lat="46.51413" lon="-0.59309">
        <ele>15</ele>
        <time>2013-09-15T09:41:27Z</time>
      </trkpt>
      <trkpt lat="46.51414" lon="-0.59309">
        <ele>16</ele>
        <time>2013-09-15T09:41:30Z</time>
      </trkpt>
      <trkpt lat="46.51414" lon="-0.59309">
        <ele>16</ele>
        <time>2013-09-15T09:41:32Z</time>
      </trkpt>
      <trkpt lat="46.51415" lon="-0.59309">
        <ele>16</ele>
        <time>2013-09-15T09:41:34Z</time>
      </trkpt>
      <trkpt lat="46.51415" lon="-0.59308">
        <ele>15</ele>
        <time>2013-09-15T09:41:37Z</time>
      </trkpt>
      <trkpt lat="46.51416" lon="-0.59308">
        <ele>15</ele>
        <time>2013-09-15T09:41:40Z</time>
      </trkpt>
      <trkpt lat="46.51417" lon="-0.59308">
        <ele>15</ele>
        <time>2013-09-15T09:41:42Z</time>
      </trkpt>
      <trkpt lat="46.51417" lon="-0.59308">
        <ele>15</ele>
        <time>2013-09-15T09:41:44Z</time>
      </trkpt>
      <trkpt lat="46.51418" lon="-0.59308">
        <ele>15</ele>
        <time>2013-09-15T09:41:46Z</time>
      </trkpt>
      <trkpt lat="46.51418" lon="-0.59308">
        <ele>16</ele>
        <time>2013-09-15T09:41:49Z</time>
      </trkpt>
      <trkpt lat="46.51419" lon="-0.59308">
        <ele>16</ele>
        <time>2013-09-15T09:41:51Z</time>
      </trkpt>
      <trkpt lat="46.51419" lon="-0.59308">
        <ele>16</ele>
        <time>2013-09-15T09:41:54Z</time>
      </trkpt>
      <trkpt lat="46.51419" lon="-0.59306">
        <ele>16</ele>
        <time>2013-09-15T09:41:56Z</time>
      </trkpt>
      <trkpt lat="46.5142" lon="-0.59301">
        <ele>16</ele>
        <time>2013-09-15T09:41:58Z</time>
      </trkpt>
      <trkpt lat="46.5142" lon="-0.59292">
        <ele>16</ele>
        <time>2013-09-15T09:42:01Z</time>
      </trkpt>
      <trkpt lat="46.51421" lon="-0.59281">
        <ele>17</ele>
        <time>2013-09-15T09:42:04Z</time>
      </trkpt>
      <trkpt lat="46.51422" lon="-0.59268">
        <ele>18</ele>
        <time>2013-09-15T09:42:07Z</time>
      </trkpt>
      <trkpt lat="46.51422" lon="-0.5926">
        <ele>18</ele>
        <time>2013-09-15T09:42:09Z</time>
      </trkpt>
      <trkpt lat="46.51423" lon="-0.59247">
        <ele>19</ele>
        <time>2013-09-15T09:42:12Z</time>
      </trkpt>
      <trkpt lat="46.51423" lon="-0.59231">
        <ele>19</ele>
        <time>2013-09-15T09:42:15Z</time>
      </trkpt>
      <trkpt lat="46.51424" lon="-0.59214">
        <ele>20</ele>
        <time>2013-09-15T09:42:18Z</time>
      </trkpt>
      <trkpt lat="46.51425" lon="-0.59196">
        <ele>20</ele>
        <time>2013-09-15T09:42:21Z</time>
      </trkpt>
      <trkpt lat="46.51425" lon="-0.59179">
        <ele>21</ele>
        <time>2013-09-15T09:42:24Z</time>
      </trkpt>
      <trkpt lat="46.51426" lon="-0.59159">
        <ele>22</ele>
        <time>2013-09-15T09:42:27Z</time>
      </trkpt>
      <trkpt lat="46.51425" lon="-0.59146">
        <ele>22</ele>
        <time>2013-09-15T09:42:29Z</time>
      </trkpt>
      <trkpt lat="46.51425" lon="-0.59126">
        <ele>22</ele>
        <time>2013-09-15T09:42:32Z</time>
      </trkpt>
      <trkpt lat="46.51421" lon="-0.59107">
        <ele>22</ele>
        <time>2013-09-15T09:42:35Z</time>
      </trkpt>
      <trkpt lat="46.51417" lon="-0.59095">
        <ele>22</ele>
        <time>2013-09-15T09:42:37Z</time>
      </trkpt>
      <trkpt lat="46.51411" lon="-0.59078">
        <ele>22</ele>
        <time>2013-09-15T09:42:40Z</time>
      </trkpt>
      <trkpt lat="46.51406" lon="-0.59061">
        <ele>22</ele>
        <time>2013-09-15T09:42:43Z</time>
      </trkpt>
      <trkpt lat="46.51402" lon="-0.59043">
        <ele>23</ele>
        <time>2013-09-15T09:42:46Z</time>
      </trkpt>
      <trkpt lat="46.51396" lon="-0.59026">
        <ele>23</ele>
        <time>2013-09-15T09:42:49Z</time>
      </trkpt>
      <trkpt lat="46.51391" lon="-0.59009">
        <ele>24</ele>
        <time>2013-09-15T09:42:52Z</time>
      </trkpt>
      <trkpt lat="46.51386" lon="-0.58992">
        <ele>24</ele>
        <time>2013-09-15T09:42:55Z</time>
      </trkpt>
      <trkpt lat="46.51382" lon="-0.58981">
        <ele>24</ele>
        <time>2013-09-15T09:42:57Z</time>
      </trkpt>
      <trkpt lat="46.51381" lon="-0.58968">
        <ele>25</ele>
        <time>2013-09-15T09:42:59Z</time>
      </trkpt>
      <trkpt lat="46.51381" lon="-0.58955">
        <ele>25</ele>
        <time>2013-09-15T09:43:01Z</time>
      </trkpt>
      <trkpt lat="46.51379" lon="-0.58941">
        <ele>26</ele>
        <time>2013-09-15T09:43:03Z</time>
      </trkpt>
      <trkpt lat="46.51376" lon="-0.5892">
        <ele>26</ele>
        <time>2013-09-15T09:43:06Z</time>
      </trkpt>
      <trkpt lat="46.51373" lon="-0.58898">
        <ele>25</ele>
        <time>2013-09-15T09:43:09Z</time>
      </trkpt>
      <trkpt lat="46.51371" lon="-0.58883">
        <ele>25</ele>
        <time>2013-09-15T09:43:11Z</time>
      </trkpt>
      <trkpt lat="46.51367" lon="-0.58861">
        <ele>24</ele>
        <time>2013-09-15T09:43:14Z</time>
      </trkpt>
      <trkpt lat="46.51366" lon="-0.58845">
        <ele>24</ele>
        <time>2013-09-15T09:43:16Z</time>
      </trkpt>
      <trkpt lat="46.51365" lon="-0.58828">
        <ele>25</ele>
        <time>2013-09-15T09:43:18Z</time>
      </trkpt>
      <trkpt lat="46.51363" lon="-0.58804">
        <ele>24</ele>
        <time>2013-09-15T09:43:21Z</time>
      </trkpt>
      <trkpt lat="46.51362" lon="-0.58789">
        <ele>25</ele>
        <time>2013-09-15T09:43:23Z</time>
      </trkpt>
      <trkpt lat="46.51363" lon="-0.58769">
        <ele>25</ele>
        <time>2013-09-15T09:43:26Z</time>
      </trkpt>
      <trkpt lat="46.51362" lon="-0.58756">
        <ele>25</ele>
        <time>2013-09-15T09:43:28Z</time>
      </trkpt>
      <trkpt lat="46.51361" lon="-0.58741">
        <ele>25</ele>
        <time>2013-09-15T09:43:30Z</time>
      </trkpt>
      <trkpt lat="46.51359" lon="-0.58727">
        <ele>25</ele>
        <time>2013-09-15T09:43:32Z</time>
      </trkpt>
      <trkpt lat="46.51358" lon="-0.58713">
        <ele>25</ele>
        <time>2013-09-15T09:43:34Z</time>
      </trkpt>
      <trkpt lat="46.51356" lon="-0.58692">
        <ele>25</ele>
        <time>2013-09-15T09:43:37Z</time>
      </trkpt>
      <trkpt lat="46.51354" lon="-0.58672">
        <ele>26</ele>
        <time>2013-09-15T09:43:40Z</time>
      </trkpt>
      <trkpt lat="46.51352" lon="-0.5866">
        <ele>26</ele>
        <time>2013-09-15T09:43:42Z</time>
      </trkpt>
      <trkpt lat="46.5135" lon="-0.5865">
        <ele>26</ele>
        <time>2013-09-15T09:43:44Z</time>
      </trkpt>
      <trkpt lat="46.51348" lon="-0.5864">
        <ele>26</ele>
        <time>2013-09-15T09:43:46Z</time>
      </trkpt>
      <trkpt lat="46.51347" lon="-0.58623">
        <ele>26</ele>
        <time>2013-09-15T09:43:49Z</time>
      </trkpt>
      <trkpt lat="46.51347" lon="-0.58606">
        <ele>27</ele>
        <time>2013-09-15T09:43:52Z</time>
      </trkpt>
      <trkpt lat="46.51347" lon="-0.58594">
        <ele>28</ele>
        <time>2013-09-15T09:43:54Z</time>
      </trkpt>
      <trkpt lat="46.51347" lon="-0.5858">
        <ele>28</ele>
        <time>2013-09-15T09:43:56Z</time>
      </trkpt>
      <trkpt lat="46.51347" lon="-0.58567">
        <ele>28</ele>
        <time>2013-09-15T09:43:58Z</time>
      </trkpt>
      <trkpt lat="46.51345" lon="-0.58546">
        <ele>28</ele>
        <time>2013-09-15T09:44:01Z</time>
      </trkpt>
      <trkpt lat="46.51342" lon="-0.58528">
        <ele>28</ele>
        <time>2013-09-15T09:44:04Z</time>
      </trkpt>
      <trkpt lat="46.51339" lon="-0.58519">
        <ele>28</ele>
        <time>2013-09-15T09:44:06Z</time>
      </trkpt>
      <trkpt lat="46.51334" lon="-0.58509">
        <ele>29</ele>
        <time>2013-09-15T09:44:09Z</time>
      </trkpt>
      <trkpt lat="46.51331" lon="-0.58501">
        <ele>30</ele>
        <time>2013-09-15T09:44:12Z</time>
      </trkpt>
      <trkpt lat="46.51326" lon="-0.58494">
        <ele>31</ele>
        <time>2013-09-15T09:44:15Z</time>
      </trkpt>
      <trkpt lat="46.51323" lon="-0.58489">
        <ele>31</ele>
        <time>2013-09-15T09:44:17Z</time>
      </trkpt>
      <trkpt lat="46.5132" lon="-0.58484">
        <ele>31</ele>
        <time>2013-09-15T09:44:19Z</time>
      </trkpt>
      <trkpt lat="46.51317" lon="-0.5848">
        <ele>32</ele>
        <time>2013-09-15T09:44:21Z</time>
      </trkpt>
      <trkpt lat="46.51313" lon="-0.58473">
        <ele>33</ele>
        <time>2013-09-15T09:44:24Z</time>
      </trkpt>
      <trkpt lat="46.51309" lon="-0.58465">
        <ele>33</ele>
        <time>2013-09-15T09:44:27Z</time>
      </trkpt>
      <trkpt lat="46.5131" lon="-0.58459">
        <ele>34</ele>
        <time>2013-09-15T09:44:29Z</time>
      </trkpt>
      <trkpt lat="46.51318" lon="-0.58461">
        <ele>34</ele>
        <time>2013-09-15T09:44:32Z</time>
      </trkpt>
      <trkpt lat="46.51326" lon="-0.58465">
        <ele>34</ele>
        <time>2013-09-15T09:44:34Z</time>
      </trkpt>
      <trkpt lat="46.51342" lon="-0.58472">
        <ele>33</ele>
        <time>2013-09-15T09:44:37Z</time>
      </trkpt>
      <trkpt lat="46.51354" lon="-0.58477">
        <ele>33</ele>
        <time>2013-09-15T09:44:39Z</time>
      </trkpt>
      <trkpt lat="46.51367" lon="-0.58481">
        <ele>33</ele>
        <time>2013-09-15T09:44:41Z</time>
      </trkpt>
      <trkpt lat="46.51378" lon="-0.58485">
        <ele>32</ele>
        <time>2013-09-15T09:44:43Z</time>
      </trkpt>
      <trkpt lat="46.51389" lon="-0.58488">
        <ele>31</ele>
        <time>2013-09-15T09:44:45Z</time>
      </trkpt>
      <trkpt lat="46.514" lon="-0.58491">
        <ele>31</ele>
        <time>2013-09-15T09:44:47Z</time>
      </trkpt>
      <trkpt lat="46.51411" lon="-0.58493">
        <ele>31</ele>
        <time>2013-09-15T09:44:49Z</time>
      </trkpt>
      <trkpt lat="46.51428" lon="-0.58496">
        <ele>30</ele>
        <time>2013-09-15T09:44:52Z</time>
      </trkpt>
      <trkpt lat="46.51439" lon="-0.58498">
        <ele>30</ele>
        <time>2013-09-15T09:44:54Z</time>
      </trkpt>
      <trkpt lat="46.5145" lon="-0.58499">
        <ele>30</ele>
        <time>2013-09-15T09:44:56Z</time>
      </trkpt>
      <trkpt lat="46.51463" lon="-0.58498">
        <ele>30</ele>
        <time>2013-09-15T09:44:59Z</time>
      </trkpt>
      <trkpt lat="46.51471" lon="-0.58495">
        <ele>30</ele>
        <time>2013-09-15T09:45:01Z</time>
      </trkpt>
      <trkpt lat="46.51482" lon="-0.58492">
        <ele>30</ele>
        <time>2013-09-15T09:45:04Z</time>
      </trkpt>
      <trkpt lat="46.5149" lon="-0.5849">
        <ele>31</ele>
        <time>2013-09-15T09:45:06Z</time>
      </trkpt>
      <trkpt lat="46.515" lon="-0.58488">
        <ele>32</ele>
        <time>2013-09-15T09:45:08Z</time>
      </trkpt>
      <trkpt lat="46.5151" lon="-0.58487">
        <ele>32</ele>
        <time>2013-09-15T09:45:10Z</time>
      </trkpt>
      <trkpt lat="46.51525" lon="-0.58486">
        <ele>32</ele>
        <time>2013-09-15T09:45:13Z</time>
      </trkpt>
      <trkpt lat="46.51536" lon="-0.58488">
        <ele>32</ele>
        <time>2013-09-15T09:45:15Z</time>
      </trkpt>
      <trkpt lat="46.51546" lon="-0.58504">
        <ele>32</ele>
        <time>2013-09-15T09:45:18Z</time>
      </trkpt>
      <trkpt lat="46.51553" lon="-0.58526">
        <ele>31</ele>
        <time>2013-09-15T09:45:21Z</time>
      </trkpt>
      <trkpt lat="46.5156" lon="-0.5855">
        <ele>30</ele>
        <time>2013-09-15T09:45:24Z</time>
      </trkpt>
      <trkpt lat="46.51567" lon="-0.58577">
        <ele>30</ele>
        <time>2013-09-15T09:45:27Z</time>
      </trkpt>
      <trkpt lat="46.51572" lon="-0.58596">
        <ele>29</ele>
        <time>2013-09-15T09:45:29Z</time>
      </trkpt>
      <trkpt lat="46.51577" lon="-0.58616">
        <ele>29</ele>
        <time>2013-09-15T09:45:31Z</time>
      </trkpt>
      <trkpt lat="46.51582" lon="-0.58636">
        <ele>28</ele>
        <time>2013-09-15T09:45:33Z</time>
      </trkpt>
      <trkpt lat="46.5159" lon="-0.58669">
        <ele>26</ele>
        <time>2013-09-15T09:45:36Z</time>
      </trkpt>
      <trkpt lat="46.51599" lon="-0.58708">
        <ele>25</ele>
        <time>2013-09-15T09:45:39Z</time>
      </trkpt>
      <trkpt lat="46.51609" lon="-0.58753">
        <ele>24</ele>
        <time>2013-09-15T09:45:42Z</time>
      </trkpt>
      <trkpt lat="46.5162" lon="-0.588">
        <ele>23</ele>
        <time>2013-09-15T09:45:45Z</time>
      </trkpt>
      <trkpt lat="46.51627" lon="-0.58831">
        <ele>21</ele>
        <time>2013-09-15T09:45:47Z</time>
      </trkpt>
      <trkpt lat="46.51633" lon="-0.5886">
        <ele>19</ele>
        <time>2013-09-15T09:45:49Z</time>
      </trkpt>
      <trkpt lat="46.51639" lon="-0.58883">
        <ele>17</ele>
        <time>2013-09-15T09:45:51Z</time>
      </trkpt>
      <trkpt lat="46.51646" lon="-0.58906">
        <ele>15</ele>
        <time>2013-09-15T09:45:54Z</time>
      </trkpt>
      <trkpt lat="46.51651" lon="-0.58912">
        <ele>14</ele>
        <time>2013-09-15T09:45:56Z</time>
      </trkpt>
      <trkpt lat="46.51655" lon="-0.58912">
        <ele>14</ele>
        <time>2013-09-15T09:45:59Z</time>
      </trkpt>
      <trkpt lat="46.51658" lon="-0.5891">
        <ele>15</ele>
        <time>2013-09-15T09:46:01Z</time>
      </trkpt>
      <trkpt lat="46.51662" lon="-0.58908">
        <ele>15</ele>
        <time>2013-09-15T09:46:04Z</time>
      </trkpt>
      <trkpt lat="46.51665" lon="-0.58908">
        <ele>16</ele>
        <time>2013-09-15T09:46:06Z</time>
      </trkpt>
      <trkpt lat="46.51668" lon="-0.58907">
        <ele>17</ele>
        <time>2013-09-15T09:46:08Z</time>
      </trkpt>
      <trkpt lat="46.51673" lon="-0.58907">
        <ele>18</ele>
        <time>2013-09-15T09:46:11Z</time>
      </trkpt>
      <trkpt lat="46.51675" lon="-0.58906">
        <ele>19</ele>
        <time>2013-09-15T09:46:13Z</time>
      </trkpt>
      <trkpt lat="46.5168" lon="-0.58905">
        <ele>20</ele>
        <time>2013-09-15T09:46:16Z</time>
      </trkpt>
      <trkpt lat="46.51685" lon="-0.58904">
        <ele>20</ele>
        <time>2013-09-15T09:46:19Z</time>
      </trkpt>
      <trkpt lat="46.51688" lon="-0.58903">
        <ele>20</ele>
        <time>2013-09-15T09:46:21Z</time>
      </trkpt>
      <trkpt lat="46.51693" lon="-0.58903">
        <ele>20</ele>
        <time>2013-09-15T09:46:23Z</time>
      </trkpt>
      <trkpt lat="46.51697" lon="-0.58902">
        <ele>20</ele>
        <time>2013-09-15T09:46:26Z</time>
      </trkpt>
      <trkpt lat="46.51699" lon="-0.58901">
        <ele>21</ele>
        <time>2013-09-15T09:46:28Z</time>
      </trkpt>
      <trkpt lat="46.51702" lon="-0.589">
        <ele>22</ele>
        <time>2013-09-15T09:46:30Z</time>
      </trkpt>
      <trkpt lat="46.51706" lon="-0.58899">
        <ele>23</ele>
        <time>2013-09-15T09:46:33Z</time>
      </trkpt>
      <trkpt lat="46.51708" lon="-0.58898">
        <ele>23</ele>
        <time>2013-09-15T09:46:35Z</time>
      </trkpt>
      <trkpt lat="46.51713" lon="-0.58896">
        <ele>23</ele>
        <time>2013-09-15T09:46:38Z</time>
      </trkpt>
      <trkpt lat="46.51715" lon="-0.58895">
        <ele>24</ele>
        <time>2013-09-15T09:46:40Z</time>
      </trkpt>
      <trkpt lat="46.51719" lon="-0.58894">
        <ele>24</ele>
        <time>2013-09-15T09:46:43Z</time>
      </trkpt>
      <trkpt lat="46.51722" lon="-0.58894">
        <ele>25</ele>
        <time>2013-09-15T09:46:45Z</time>
      </trkpt>
      <trkpt lat="46.51727" lon="-0.58893">
        <ele>26</ele>
        <time>2013-09-15T09:46:48Z</time>
      </trkpt>
      <trkpt lat="46.51729" lon="-0.58893">
        <ele>26</ele>
        <time>2013-09-15T09:46:50Z</time>
      </trkpt>
      <trkpt lat="46.51733" lon="-0.58892">
        <ele>27</ele>
        <time>2013-09-15T09:46:53Z</time>
      </trkpt>
      <trkpt lat="46.51736" lon="-0.58891">
        <ele>27</ele>
        <time>2013-09-15T09:46:55Z</time>
      </trkpt>
      <trkpt lat="46.51738" lon="-0.5889">
        <ele>28</ele>
        <time>2013-09-15T09:46:57Z</time>
      </trkpt>
      <trkpt lat="46.51743" lon="-0.5889">
        <ele>28</ele>
        <time>2013-09-15T09:47:00Z</time>
      </trkpt>
      <trkpt lat="46.51747" lon="-0.58889">
        <ele>28</ele>
        <time>2013-09-15T09:47:02Z</time>
      </trkpt>
      <trkpt lat="46.5175" lon="-0.58889">
        <ele>29</ele>
        <time>2013-09-15T09:47:04Z</time>
      </trkpt>
      <trkpt lat="46.51756" lon="-0.58889">
        <ele>29</ele>
        <time>2013-09-15T09:47:07Z</time>
      </trkpt>
      <trkpt lat="46.51759" lon="-0.5889">
        <ele>29</ele>
        <time>2013-09-15T09:47:09Z</time>
      </trkpt>
      <trkpt lat="46.51763" lon="-0.58891">
        <ele>30</ele>
        <time>2013-09-15T09:47:11Z</time>
      </trkpt>
      <trkpt lat="46.51769" lon="-0.58894">
        <ele>31</ele>
        <time>2013-09-15T09:47:14Z</time>
      </trkpt>
      <trkpt lat="46.51772" lon="-0.58896">
        <ele>31</ele>
        <time>2013-09-15T09:47:16Z</time>
      </trkpt>
      <trkpt lat="46.51777" lon="-0.58899">
        <ele>31</ele>
        <time>2013-09-15T09:47:19Z</time>
      </trkpt>
      <trkpt lat="46.51779" lon="-0.589">
        <ele>31</ele>
        <time>2013-09-15T09:47:21Z</time>
      </trkpt>
      <trkpt lat="46.51783" lon="-0.589">
        <ele>32</ele>
        <time>2013-09-15T09:47:24Z</time>
      </trkpt>
      <trkpt lat="46.51785" lon="-0.58899">
        <ele>32</ele>
        <time>2013-09-15T09:47:26Z</time>
      </trkpt>
      <trkpt lat="46.51787" lon="-0.58896">
        <ele>32</ele>
        <time>2013-09-15T09:47:28Z</time>
      </trkpt>
      <trkpt lat="46.5179" lon="-0.58892">
        <ele>33</ele>
        <time>2013-09-15T09:47:30Z</time>
      </trkpt>
      <trkpt lat="46.51794" lon="-0.58884">
        <ele>33</ele>
        <time>2013-09-15T09:47:33Z</time>
      </trkpt>
      <trkpt lat="46.518" lon="-0.58876">
        <ele>34</ele>
        <time>2013-09-15T09:47:36Z</time>
      </trkpt>
      <trkpt lat="46.51807" lon="-0.58868">
        <ele>34</ele>
        <time>2013-09-15T09:47:39Z</time>
      </trkpt>
      <trkpt lat="46.51812" lon="-0.58862">
        <ele>35</ele>
        <time>2013-09-15T09:47:41Z</time>
      </trkpt>
      <trkpt lat="46.51818" lon="-0.58853">
        <ele>35</ele>
        <time>2013-09-15T09:47:44Z</time>
      </trkpt>
      <trkpt lat="46.51822" lon="-0.58847">
        <ele>35</ele>
        <time>2013-09-15T09:47:46Z</time>
      </trkpt>
      <trkpt lat="46.51828" lon="-0.58839">
        <ele>34</ele>
        <time>2013-09-15T09:47:49Z</time>
      </trkpt>
      <trkpt lat="46.51833" lon="-0.58834">
        <ele>34</ele>
        <time>2013-09-15T09:47:51Z</time>
      </trkpt>
      <trkpt lat="46.51841" lon="-0.58827">
        <ele>34</ele>
        <time>2013-09-15T09:47:54Z</time>
      </trkpt>
      <trkpt lat="46.51846" lon="-0.58822">
        <ele>35</ele>
        <time>2013-09-15T09:47:56Z</time>
      </trkpt>
      <trkpt lat="46.51855" lon="-0.58816">
        <ele>36</ele>
        <time>2013-09-15T09:47:59Z</time>
      </trkpt>
      <trkpt lat="46.5186" lon="-0.58811">
        <ele>36</ele>
        <time>2013-09-15T09:48:01Z</time>
      </trkpt>
      <trkpt lat="46.51869" lon="-0.58805">
        <ele>37</ele>
        <time>2013-09-15T09:48:04Z</time>
      </trkpt>
      <trkpt lat="46.51875" lon="-0.58802">
        <ele>37</ele>
        <time>2013-09-15T09:48:06Z</time>
      </trkpt>
      <trkpt lat="46.5188" lon="-0.588">
        <ele>38</ele>
        <time>2013-09-15T09:48:09Z</time>
      </trkpt>
      <trkpt lat="46.51885" lon="-0.58798">
        <ele>38</ele>
        <time>2013-09-15T09:48:12Z</time>
      </trkpt>
      <trkpt lat="46.51889" lon="-0.58797">
        <ele>39</ele>
        <time>2013-09-15T09:48:14Z</time>
      </trkpt>
      <trkpt lat="46.51894" lon="-0.58794">
        <ele>39</ele>
        <time>2013-09-15T09:48:16Z</time>
      </trkpt>
      <trkpt lat="46.51903" lon="-0.5879">
        <ele>39</ele>
        <time>2013-09-15T09:48:19Z</time>
      </trkpt>
      <trkpt lat="46.51908" lon="-0.58787">
        <ele>39</ele>
        <time>2013-09-15T09:48:21Z</time>
      </trkpt>
      <trkpt lat="46.51916" lon="-0.5878">
        <ele>40</ele>
        <time>2013-09-15T09:48:24Z</time>
      </trkpt>
      <trkpt lat="46.51926" lon="-0.58775">
        <ele>41</ele>
        <time>2013-09-15T09:48:27Z</time>
      </trkpt>
      <trkpt lat="46.51935" lon="-0.58771">
        <ele>41</ele>
        <time>2013-09-15T09:48:30Z</time>
      </trkpt>
      <trkpt lat="46.51945" lon="-0.58766">
        <ele>41</ele>
        <time>2013-09-15T09:48:33Z</time>
      </trkpt>
      <trkpt lat="46.51951" lon="-0.58769">
        <ele>41</ele>
        <time>2013-09-15T09:48:36Z</time>
      </trkpt>
      <trkpt lat="46.5195" lon="-0.5877">
        <ele>41</ele>
        <time>2013-09-15T09:48:38Z</time>
      </trkpt>
      <trkpt lat="46.51952" lon="-0.58773">
        <ele>41</ele>
        <time>2013-09-15T09:48:41Z</time>
      </trkpt>
      <trkpt lat="46.5195" lon="-0.58776">
        <ele>41</ele>
        <time>2013-09-15T09:48:44Z</time>
      </trkpt>
      <trkpt lat="46.51949" lon="-0.58782">
        <ele>41</ele>
        <time>2013-09-15T09:48:47Z</time>
      </trkpt>
      <trkpt lat="46.51946" lon="-0.5879">
        <ele>41</ele>
        <time>2013-09-15T09:48:50Z</time>
      </trkpt>
      <trkpt lat="46.51945" lon="-0.58796">
        <ele>41</ele>
        <time>2013-09-15T09:48:52Z</time>
      </trkpt>
      <trkpt lat="46.51941" lon="-0.58807">
        <ele>42</ele>
        <time>2013-09-15T09:48:55Z</time>
      </trkpt>
      <trkpt lat="46.51935" lon="-0.58814">
        <ele>41</ele>
        <time>2013-09-15T09:48:58Z</time>
      </trkpt>
      <trkpt lat="46.51931" lon="-0.58821">
        <ele>41</ele>
        <time>2013-09-15T09:49:01Z</time>
      </trkpt>
      <trkpt lat="46.51928" lon="-0.58827">
        <ele>41</ele>
        <time>2013-09-15T09:49:03Z</time>
      </trkpt>
      <trkpt lat="46.51921" lon="-0.58838">
        <ele>40</ele>
        <time>2013-09-15T09:49:06Z</time>
      </trkpt>
      <trkpt lat="46.51916" lon="-0.58854">
        <ele>40</ele>
        <time>2013-09-15T09:49:09Z</time>
      </trkpt>
      <trkpt lat="46.51913" lon="-0.58871">
        <ele>39</ele>
        <time>2013-09-15T09:49:12Z</time>
      </trkpt>
      <trkpt lat="46.5191" lon="-0.58889">
        <ele>40</ele>
        <time>2013-09-15T09:49:15Z</time>
      </trkpt>
      <trkpt lat="46.51908" lon="-0.58901">
        <ele>39</ele>
        <time>2013-09-15T09:49:17Z</time>
      </trkpt>
      <trkpt lat="46.51907" lon="-0.58914">
        <ele>39</ele>
        <time>2013-09-15T09:49:19Z</time>
      </trkpt>
      <trkpt lat="46.51905" lon="-0.58926">
        <ele>39</ele>
        <time>2013-09-15T09:49:21Z</time>
      </trkpt>
      <trkpt lat="46.51904" lon="-0.58938">
        <ele>39</ele>
        <time>2013-09-15T09:49:23Z</time>
      </trkpt>
      <trkpt lat="46.51903" lon="-0.58948">
        <ele>39</ele>
        <time>2013-09-15T09:49:25Z</time>
      </trkpt>
      <trkpt lat="46.51902" lon="-0.58957">
        <ele>38</ele>
        <time>2013-09-15T09:49:27Z</time>
      </trkpt>
      <trkpt lat="46.519" lon="-0.58965">
        <ele>39</ele>
        <time>2013-09-15T09:49:29Z</time>
      </trkpt>
      <trkpt lat="46.51898" lon="-0.58973">
        <ele>39</ele>
        <time>2013-09-15T09:49:31Z</time>
      </trkpt>
      <trkpt lat="46.51895" lon="-0.58989">
        <ele>39</ele>
        <time>2013-09-15T09:49:34Z</time>
      </trkpt>
      <trkpt lat="46.51892" lon="-0.59002">
        <ele>39</ele>
        <time>2013-09-15T09:49:36Z</time>
      </trkpt>
      <trkpt lat="46.5189" lon="-0.59014">
        <ele>39</ele>
        <time>2013-09-15T09:49:38Z</time>
      </trkpt>
      <trkpt lat="46.5189" lon="-0.59025">
        <ele>39</ele>
        <time>2013-09-15T09:49:40Z</time>
      </trkpt>
      <trkpt lat="46.51889" lon="-0.59035">
        <ele>39</ele>
        <time>2013-09-15T09:49:42Z</time>
      </trkpt>
      <trkpt lat="46.51888" lon="-0.59047">
        <ele>39</ele>
        <time>2013-09-15T09:49:44Z</time>
      </trkpt>
      <trkpt lat="46.51887" lon="-0.59059">
        <ele>38</ele>
        <time>2013-09-15T09:49:46Z</time>
      </trkpt>
      <trkpt lat="46.51887" lon="-0.59071">
        <ele>38</ele>
        <time>2013-09-15T09:49:49Z</time>
      </trkpt>
      <trkpt lat="46.51885" lon="-0.59074">
        <ele>38</ele>
        <time>2013-09-15T09:49:51Z</time>
      </trkpt>
      <trkpt lat="46.51882" lon="-0.59075">
        <ele>38</ele>
        <time>2013-09-15T09:49:54Z</time>
      </trkpt>
      <trkpt lat="46.5188" lon="-0.59076">
        <ele>38</ele>
        <time>2013-09-15T09:49:56Z</time>
      </trkpt>
      <trkpt lat="46.51878" lon="-0.59076">
        <ele>38</ele>
        <time>2013-09-15T09:49:58Z</time>
      </trkpt>
      <trkpt lat="46.51876" lon="-0.59077">
        <ele>38</ele>
        <time>2013-09-15T09:50:00Z</time>
      </trkpt>
      <trkpt lat="46.51874" lon="-0.59078">
        <ele>37</ele>
        <time>2013-09-15T09:50:03Z</time>
      </trkpt>
      <trkpt lat="46.51872" lon="-0.59079">
        <ele>37</ele>
        <time>2013-09-15T09:50:06Z</time>
      </trkpt>
      <trkpt lat="46.51871" lon="-0.59079">
        <ele>38</ele>
        <time>2013-09-15T09:50:08Z</time>
      </trkpt>
      <trkpt lat="46.5187" lon="-0.5908">
        <ele>38</ele>
        <time>2013-09-15T09:50:11Z</time>
      </trkpt>
      <trkpt lat="46.51869" lon="-0.5908">
        <ele>38</ele>
        <time>2013-09-15T09:50:13Z</time>
      </trkpt>
      <trkpt lat="46.51868" lon="-0.59081">
        <ele>38</ele>
        <time>2013-09-15T09:50:16Z</time>
      </trkpt>
      <trkpt lat="46.51868" lon="-0.59081">
        <ele>38</ele>
        <time>2013-09-15T09:50:19Z</time>
      </trkpt>
      <trkpt lat="46.51867" lon="-0.59082">
        <ele>37</ele>
        <time>2013-09-15T09:50:22Z</time>
      </trkpt>
      <trkpt lat="46.51866" lon="-0.59082">
        <ele>37</ele>
        <time>2013-09-15T09:50:24Z</time>
      </trkpt>
      <trkpt lat="46.51866" lon="-0.59082">
        <ele>37</ele>
        <time>2013-09-15T09:50:28Z</time>
      </trkpt>
      <trkpt lat="46.51865" lon="-0.59082">
        <ele>38</ele>
        <time>2013-09-15T09:50:31Z</time>
      </trkpt>
      <trkpt lat="46.51864" lon="-0.59082">
        <ele>37</ele>
        <time>2013-09-15T09:50:34Z</time>
      </trkpt>
      <trkpt lat="46.51863" lon="-0.59082">
        <ele>37</ele>
        <time>2013-09-15T09:50:36Z</time>
      </trkpt>
      <trkpt lat="46.51862" lon="-0.59081">
        <ele>37</ele>
        <time>2013-09-15T09:50:39Z</time>
      </trkpt>
      <trkpt lat="46.51862" lon="-0.59081">
        <ele>37</ele>
        <time>2013-09-15T09:50:41Z</time>
      </trkpt>
      <trkpt lat="46.51861" lon="-0.59081">
        <ele>37</ele>
        <time>2013-09-15T09:50:43Z</time>
      </trkpt>
      <trkpt lat="46.5186" lon="-0.59081">
        <ele>37</ele>
        <time>2013-09-15T09:50:46Z</time>
      </trkpt>
      <trkpt lat="46.51859" lon="-0.5908">
        <ele>37</ele>
        <time>2013-09-15T09:50:48Z</time>
      </trkpt>
      <trkpt lat="46.51859" lon="-0.5908">
        <ele>37</ele>
        <time>2013-09-15T09:50:50Z</time>
      </trkpt>
      <trkpt lat="46.51858" lon="-0.5908">
        <ele>37</ele>
        <time>2013-09-15T09:50:53Z</time>
      </trkpt>
      <trkpt lat="46.51858" lon="-0.5908">
        <ele>37</ele>
        <time>2013-09-15T09:50:55Z</time>
      </trkpt>
      <trkpt lat="46.51857" lon="-0.5908">
        <ele>37</ele>
        <time>2013-09-15T09:50:57Z</time>
      </trkpt>
      <trkpt lat="46.51857" lon="-0.5908">
        <ele>37</ele>
        <time>2013-09-15T09:50:59Z</time>
      </trkpt>
      <trkpt lat="46.51856" lon="-0.5908">
        <ele>37</ele>
        <time>2013-09-15T09:51:02Z</time>
      </trkpt>
      <trkpt lat="46.51856" lon="-0.5908">
        <ele>37</ele>
        <time>2013-09-15T09:51:05Z</time>
      </trkpt>
      <trkpt lat="46.51856" lon="-0.5908">
        <ele>37</ele>
        <time>2013-09-15T09:51:09Z</time>
      </trkpt>
      <trkpt lat="46.51856" lon="-0.5908">
        <ele>38</ele>
        <time>2013-09-15T09:51:12Z</time>
      </trkpt>
      <trkpt lat="46.51856" lon="-0.59081">
        <ele>38</ele>
        <time>2013-09-15T09:51:14Z</time>
      </trkpt>
      <trkpt lat="46.51855" lon="-0.59081">
        <ele>38</ele>
        <time>2013-09-15T09:51:16Z</time>
      </trkpt>
      <trkpt lat="46.51854" lon="-0.59082">
        <ele>38</ele>
        <time>2013-09-15T09:51:19Z</time>
      </trkpt>
      <trkpt lat="46.51854" lon="-0.59087">
        <ele>37</ele>
        <time>2013-09-15T09:51:22Z</time>
      </trkpt>
      <trkpt lat="46.51855" lon="-0.59095">
        <ele>37</ele>
        <time>2013-09-15T09:51:25Z</time>
      </trkpt>
      <trkpt lat="46.51855" lon="-0.59103">
        <ele>37</ele>
        <time>2013-09-15T09:51:27Z</time>
      </trkpt>
      <trkpt lat="46.51858" lon="-0.59117">
        <ele>38</ele>
        <time>2013-09-15T09:51:30Z</time>
      </trkpt>
      <trkpt lat="46.5186" lon="-0.59132">
        <ele>38</ele>
        <time>2013-09-15T09:51:33Z</time>
      </trkpt>
      <trkpt lat="46.51861" lon="-0.59149">
        <ele>38</ele>
        <time>2013-09-15T09:51:36Z</time>
      </trkpt>
      <trkpt lat="46.51862" lon="-0.59161">
        <ele>38</ele>
        <time>2013-09-15T09:51:38Z</time>
      </trkpt>
      <trkpt lat="46.51862" lon="-0.59173">
        <ele>37</ele>
        <time>2013-09-15T09:51:40Z</time>
      </trkpt>
      <trkpt lat="46.51863" lon="-0.59186">
        <ele>37</ele>
        <time>2013-09-15T09:51:42Z</time>
      </trkpt>
      <trkpt lat="46.51871" lon="-0.59201">
        <ele>37</ele>
        <time>2013-09-15T09:51:45Z</time>
      </trkpt>
      <trkpt lat="46.51878" lon="-0.59204">
        <ele>37</ele>
        <time>2013-09-15T09:51:47Z</time>
      </trkpt>
      <trkpt lat="46.51883" lon="-0.59205">
        <ele>37</ele>
        <time>2013-09-15T09:51:49Z</time>
      </trkpt>
      <trkpt lat="46.51889" lon="-0.59207">
        <ele>37</ele>
        <time>2013-09-15T09:51:52Z</time>
      </trkpt>
      <trkpt lat="46.51892" lon="-0.59209">
        <ele>36</ele>
        <time>2013-09-15T09:51:54Z</time>
      </trkpt>
      <trkpt lat="46.51897" lon="-0.59214">
        <ele>36</ele>
        <time>2013-09-15T09:51:57Z</time>
      </trkpt>
      <trkpt lat="46.51904" lon="-0.59226">
        <ele>35</ele>
        <time>2013-09-15T09:52:00Z</time>
      </trkpt>
      <trkpt lat="46.5191" lon="-0.59246">
        <ele>33</ele>
        <time>2013-09-15T09:52:03Z</time>
      </trkpt>
      <trkpt lat="46.51913" lon="-0.59254">
        <ele>32</ele>
        <time>2013-09-15T09:52:05Z</time>
      </trkpt>
      <trkpt lat="46.51921" lon="-0.59248">
        <ele>30</ele>
        <time>2013-09-15T09:52:08Z</time>
      </trkpt>
      <trkpt lat="46.51926" lon="-0.5924">
        <ele>29</ele>
        <time>2013-09-15T09:52:10Z</time>
      </trkpt>
      <trkpt lat="46.51931" lon="-0.59232">
        <ele>28</ele>
        <time>2013-09-15T09:52:12Z</time>
      </trkpt>
      <trkpt lat="46.51937" lon="-0.59221">
        <ele>28</ele>
        <time>2013-09-15T09:52:15Z</time>
      </trkpt>
      <trkpt lat="46.51941" lon="-0.59215">
        <ele>28</ele>
        <time>2013-09-15T09:52:17Z</time>
      </trkpt>
      <trkpt lat="46.51946" lon="-0.59211">
        <ele>28</ele>
        <time>2013-09-15T09:52:19Z</time>
      </trkpt>
      <trkpt lat="46.51953" lon="-0.59206">
        <ele>28</ele>
        <time>2013-09-15T09:52:21Z</time>
      </trkpt>
      <trkpt lat="46.51961" lon="-0.59201">
        <ele>28</ele>
        <time>2013-09-15T09:52:23Z</time>
      </trkpt>
      <trkpt lat="46.51968" lon="-0.59192">
        <ele>27</ele>
        <time>2013-09-15T09:52:25Z</time>
      </trkpt>
      <trkpt lat="46.51976" lon="-0.59184">
        <ele>28</ele>
        <time>2013-09-15T09:52:27Z</time>
      </trkpt>
      <trkpt lat="46.51983" lon="-0.59176">
        <ele>29</ele>
        <time>2013-09-15T09:52:29Z</time>
      </trkpt>
      <trkpt lat="46.51993" lon="-0.59163">
        <ele>30</ele>
        <time>2013-09-15T09:52:32Z</time>
      </trkpt>
      <trkpt lat="46.52" lon="-0.59154">
        <ele>30</ele>
        <time>2013-09-15T09:52:34Z</time>
      </trkpt>
      <trkpt lat="46.52007" lon="-0.59147">
        <ele>31</ele>
        <time>2013-09-15T09:52:36Z</time>
      </trkpt>
      <trkpt lat="46.52014" lon="-0.59144">
        <ele>31</ele>
        <time>2013-09-15T09:52:38Z</time>
      </trkpt>
      <trkpt lat="46.52025" lon="-0.59148">
        <ele>31</ele>
        <time>2013-09-15T09:52:41Z</time>
      </trkpt>
      <trkpt lat="46.52031" lon="-0.59151">
        <ele>31</ele>
        <time>2013-09-15T09:52:43Z</time>
      </trkpt>
      <trkpt lat="46.52041" lon="-0.59153">
        <ele>30</ele>
        <time>2013-09-15T09:52:45Z</time>
      </trkpt>
      <trkpt lat="46.52051" lon="-0.59152">
        <ele>30</ele>
        <time>2013-09-15T09:52:47Z</time>
      </trkpt>
      <trkpt lat="46.52065" lon="-0.59147">
        <ele>29</ele>
        <time>2013-09-15T09:52:50Z</time>
      </trkpt>
      <trkpt lat="46.52078" lon="-0.59142">
        <ele>29</ele>
        <time>2013-09-15T09:52:53Z</time>
      </trkpt>
      <trkpt lat="46.52085" lon="-0.59136">
        <ele>29</ele>
        <time>2013-09-15T09:52:55Z</time>
      </trkpt>
      <trkpt lat="46.52089" lon="-0.5913">
        <ele>29</ele>
        <time>2013-09-15T09:52:57Z</time>
      </trkpt>
      <trkpt lat="46.52092" lon="-0.5912">
        <ele>29</ele>
        <time>2013-09-15T09:53:00Z</time>
      </trkpt>
      <trkpt lat="46.52094" lon="-0.59113">
        <ele>29</ele>
        <time>2013-09-15T09:53:02Z</time>
      </trkpt>
      <trkpt lat="46.52095" lon="-0.59105">
        <ele>29</ele>
        <time>2013-09-15T09:53:04Z</time>
      </trkpt>
      <trkpt lat="46.52097" lon="-0.59098">
        <ele>29</ele>
        <time>2013-09-15T09:53:06Z</time>
      </trkpt>
      <trkpt lat="46.52098" lon="-0.59092">
        <ele>30</ele>
        <time>2013-09-15T09:53:08Z</time>
      </trkpt>
      <trkpt lat="46.52098" lon="-0.59086">
        <ele>30</ele>
        <time>2013-09-15T09:53:10Z</time>
      </trkpt>
      <trkpt lat="46.52098" lon="-0.59076">
        <ele>31</ele>
        <time>2013-09-15T09:53:13Z</time>
      </trkpt>
      <trkpt lat="46.52098" lon="-0.5907">
        <ele>32</ele>
        <time>2013-09-15T09:53:15Z</time>
      </trkpt>
      <trkpt lat="46.52098" lon="-0.59064">
        <ele>32</ele>
        <time>2013-09-15T09:53:17Z</time>
      </trkpt>
      <trkpt lat="46.52097" lon="-0.59055">
        <ele>33</ele>
        <time>2013-09-15T09:53:20Z</time>
      </trkpt>
      <trkpt lat="46.52096" lon="-0.59046">
        <ele>33</ele>
        <time>2013-09-15T09:53:23Z</time>
      </trkpt>
      <trkpt lat="46.52096" lon="-0.59036">
        <ele>34</ele>
        <time>2013-09-15T09:53:26Z</time>
      </trkpt>
      <trkpt lat="46.52095" lon="-0.5903">
        <ele>34</ele>
        <time>2013-09-15T09:53:28Z</time>
      </trkpt>
      <trkpt lat="46.52094" lon="-0.5902">
        <ele>34</ele>
        <time>2013-09-15T09:53:31Z</time>
      </trkpt>
      <trkpt lat="46.52093" lon="-0.59005">
        <ele>35</ele>
        <time>2013-09-15T09:53:34Z</time>
      </trkpt>
      <trkpt lat="46.52093" lon="-0.58995">
        <ele>35</ele>
        <time>2013-09-15T09:53:36Z</time>
      </trkpt>
      <trkpt lat="46.52092" lon="-0.58986">
        <ele>35</ele>
        <time>2013-09-15T09:53:38Z</time>
      </trkpt>
      <trkpt lat="46.52091" lon="-0.58973">
        <ele>35</ele>
        <time>2013-09-15T09:53:41Z</time>
      </trkpt>
      <trkpt lat="46.5209" lon="-0.58957">
        <ele>35</ele>
        <time>2013-09-15T09:53:44Z</time>
      </trkpt>
      <trkpt lat="46.5209" lon="-0.58948">
        <ele>36</ele>
        <time>2013-09-15T09:53:46Z</time>
      </trkpt>
      <trkpt lat="46.52089" lon="-0.58936">
        <ele>36</ele>
        <time>2013-09-15T09:53:48Z</time>
      </trkpt>
      <trkpt lat="46.52089" lon="-0.58924">
        <ele>36</ele>
        <time>2013-09-15T09:53:50Z</time>
      </trkpt>
      <trkpt lat="46.52089" lon="-0.58911">
        <ele>36</ele>
        <time>2013-09-15T09:53:52Z</time>
      </trkpt>
      <trkpt lat="46.52088" lon="-0.58897">
        <ele>35</ele>
        <time>2013-09-15T09:53:54Z</time>
      </trkpt>
      <trkpt lat="46.52086" lon="-0.5888">
        <ele>35</ele>
        <time>2013-09-15T09:53:57Z</time>
      </trkpt>
      <trkpt lat="46.52085" lon="-0.58869">
        <ele>35</ele>
        <time>2013-09-15T09:53:59Z</time>
      </trkpt>
      <trkpt lat="46.52084" lon="-0.58858">
        <ele>35</ele>
        <time>2013-09-15T09:54:01Z</time>
      </trkpt>
      <trkpt lat="46.52083" lon="-0.5885">
        <ele>35</ele>
        <time>2013-09-15T09:54:03Z</time>
      </trkpt>
      <trkpt lat="46.52082" lon="-0.58836">
        <ele>36</ele>
        <time>2013-09-15T09:54:06Z</time>
      </trkpt>
      <trkpt lat="46.52081" lon="-0.58827">
        <ele>36</ele>
        <time>2013-09-15T09:54:08Z</time>
      </trkpt>
      <trkpt lat="46.52081" lon="-0.58819">
        <ele>37</ele>
        <time>2013-09-15T09:54:10Z</time>
      </trkpt>
      <trkpt lat="46.52081" lon="-0.58811">
        <ele>37</ele>
        <time>2013-09-15T09:54:12Z</time>
      </trkpt>
      <trkpt lat="46.52082" lon="-0.58804">
        <ele>38</ele>
        <time>2013-09-15T09:54:14Z</time>
      </trkpt>
      <trkpt lat="46.52084" lon="-0.58797">
        <ele>38</ele>
        <time>2013-09-15T09:54:16Z</time>
      </trkpt>
      <trkpt lat="46.52085" lon="-0.58789">
        <ele>38</ele>
        <time>2013-09-15T09:54:18Z</time>
      </trkpt>
      <trkpt lat="46.52087" lon="-0.58782">
        <ele>38</ele>
        <time>2013-09-15T09:54:20Z</time>
      </trkpt>
      <trkpt lat="46.52089" lon="-0.58773">
        <ele>39</ele>
        <time>2013-09-15T09:54:22Z</time>
      </trkpt>
      <trkpt lat="46.5209" lon="-0.58764">
        <ele>39</ele>
        <time>2013-09-15T09:54:24Z</time>
      </trkpt>
      <trkpt lat="46.52092" lon="-0.58756">
        <ele>40</ele>
        <time>2013-09-15T09:54:26Z</time>
      </trkpt>
      <trkpt lat="46.52096" lon="-0.58748">
        <ele>40</ele>
        <time>2013-09-15T09:54:28Z</time>
      </trkpt>
      <trkpt lat="46.52101" lon="-0.58743">
        <ele>40</ele>
        <time>2013-09-15T09:54:30Z</time>
      </trkpt>
      <trkpt lat="46.52108" lon="-0.58741">
        <ele>40</ele>
        <time>2013-09-15T09:54:32Z</time>
      </trkpt>
      <trkpt lat="46.52114" lon="-0.58737">
        <ele>40</ele>
        <time>2013-09-15T09:54:34Z</time>
      </trkpt>
      <trkpt lat="46.52119" lon="-0.5873">
        <ele>40</ele>
        <time>2013-09-15T09:54:36Z</time>
      </trkpt>
      <trkpt lat="46.52121" lon="-0.58716">
        <ele>41</ele>
        <time>2013-09-15T09:54:39Z</time>
      </trkpt>
      <trkpt lat="46.52123" lon="-0.58703">
        <ele>41</ele>
        <time>2013-09-15T09:54:42Z</time>
      </trkpt>
      <trkpt lat="46.52125" lon="-0.58694">
        <ele>41</ele>
        <time>2013-09-15T09:54:44Z</time>
      </trkpt>
      <trkpt lat="46.52127" lon="-0.58684">
        <ele>41</ele>
        <time>2013-09-15T09:54:46Z</time>
      </trkpt>
      <trkpt lat="46.52129" lon="-0.58676">
        <ele>41</ele>
        <time>2013-09-15T09:54:48Z</time>
      </trkpt>
      <trkpt lat="46.52131" lon="-0.58668">
        <ele>41</ele>
        <time>2013-09-15T09:54:50Z</time>
      </trkpt>
      <trkpt lat="46.52132" lon="-0.58659">
        <ele>41</ele>
        <time>2013-09-15T09:54:52Z</time>
      </trkpt>
      <trkpt lat="46.52136" lon="-0.58653">
        <ele>41</ele>
        <time>2013-09-15T09:54:55Z</time>
      </trkpt>
      <trkpt lat="46.52135" lon="-0.58657">
        <ele>41</ele>
        <time>2013-09-15T09:54:57Z</time>
      </trkpt>
      <trkpt lat="46.52137" lon="-0.58647">
        <ele>41</ele>
        <time>2013-09-15T09:55:00Z</time>
      </trkpt>
      <trkpt lat="46.52145" lon="-0.58632">
        <ele>41</ele>
        <time>2013-09-15T09:55:03Z</time>
      </trkpt>
      <trkpt lat="46.5215" lon="-0.58621">
        <ele>42</ele>
        <time>2013-09-15T09:55:05Z</time>
      </trkpt>
      <trkpt lat="46.52158" lon="-0.58604">
        <ele>42</ele>
        <time>2013-09-15T09:55:08Z</time>
      </trkpt>
      <trkpt lat="46.52164" lon="-0.58593">
        <ele>42</ele>
        <time>2013-09-15T09:55:10Z</time>
      </trkpt>
      <trkpt lat="46.52172" lon="-0.58576">
        <ele>42</ele>
        <time>2013-09-15T09:55:13Z</time>
      </trkpt>
      <trkpt lat="46.52182" lon="-0.58559">
        <ele>42</ele>
        <time>2013-09-15T09:55:16Z</time>
      </trkpt>
      <trkpt lat="46.52187" lon="-0.58549">
        <ele>43</ele>
        <time>2013-09-15T09:55:18Z</time>
      </trkpt>
      <trkpt lat="46.52193" lon="-0.58539">
        <ele>43</ele>
        <time>2013-09-15T09:55:20Z</time>
      </trkpt>
      <trkpt lat="46.52198" lon="-0.5853">
        <ele>43</ele>
        <time>2013-09-15T09:55:22Z</time>
      </trkpt>
      <trkpt lat="46.52197" lon="-0.58513">
        <ele>43</ele>
        <time>2013-09-15T09:55:25Z</time>
      </trkpt>
      <trkpt lat="46.52193" lon="-0.585">
        <ele>43</ele>
        <time>2013-09-15T09:55:27Z</time>
      </trkpt>
      <trkpt lat="46.5219" lon="-0.58485">
        <ele>43</ele>
        <time>2013-09-15T09:55:29Z</time>
      </trkpt>
      <trkpt lat="46.52187" lon="-0.58467">
        <ele>42</ele>
        <time>2013-09-15T09:55:31Z</time>
      </trkpt>
      <trkpt lat="46.52184" lon="-0.58448">
        <ele>42</ele>
        <time>2013-09-15T09:55:33Z</time>
      </trkpt>
      <trkpt lat="46.52182" lon="-0.58427">
        <ele>41</ele>
        <time>2013-09-15T09:55:35Z</time>
      </trkpt>
      <trkpt lat="46.52181" lon="-0.58406">
        <ele>40</ele>
        <time>2013-09-15T09:55:37Z</time>
      </trkpt>
      <trkpt lat="46.52181" lon="-0.58383">
        <ele>40</ele>
        <time>2013-09-15T09:55:39Z</time>
      </trkpt>
      <trkpt lat="46.5218" lon="-0.5835">
        <ele>38</ele>
        <time>2013-09-15T09:55:42Z</time>
      </trkpt>
      <trkpt lat="46.52176" lon="-0.58331">
        <ele>38</ele>
        <time>2013-09-15T09:55:44Z</time>
      </trkpt>
      <trkpt lat="46.52167" lon="-0.58314">
        <ele>37</ele>
        <time>2013-09-15T09:55:46Z</time>
      </trkpt>
      <trkpt lat="46.5215" lon="-0.5829">
        <ele>36</ele>
        <time>2013-09-15T09:55:49Z</time>
      </trkpt>
      <trkpt lat="46.52137" lon="-0.58274">
        <ele>35</ele>
        <time>2013-09-15T09:55:51Z</time>
      </trkpt>
      <trkpt lat="46.52119" lon="-0.58249">
        <ele>34</ele>
        <time>2013-09-15T09:55:54Z</time>
      </trkpt>
      <trkpt lat="46.52101" lon="-0.58218">
        <ele>33</ele>
        <time>2013-09-15T09:55:57Z</time>
      </trkpt>
      <trkpt lat="46.52086" lon="-0.58198">
        <ele>31</ele>
        <time>2013-09-15T09:55:59Z</time>
      </trkpt>
      <trkpt lat="46.52066" lon="-0.5817">
        <ele>28</ele>
        <time>2013-09-15T09:56:02Z</time>
      </trkpt>
      <trkpt lat="46.52057" lon="-0.58151">
        <ele>26</ele>
        <time>2013-09-15T09:56:04Z</time>
      </trkpt>
      <trkpt lat="46.5205" lon="-0.58132">
        <ele>25</ele>
        <time>2013-09-15T09:56:06Z</time>
      </trkpt>
      <trkpt lat="46.5204" lon="-0.58108">
        <ele>21</ele>
        <time>2013-09-15T09:56:09Z</time>
      </trkpt>
      <trkpt lat="46.52035" lon="-0.58093">
        <ele>20</ele>
        <time>2013-09-15T09:56:12Z</time>
      </trkpt>
      <trkpt lat="46.52035" lon="-0.58085">
        <ele>20</ele>
        <time>2013-09-15T09:56:14Z</time>
      </trkpt>
      <trkpt lat="46.52042" lon="-0.58074">
        <ele>20</ele>
        <time>2013-09-15T09:56:17Z</time>
      </trkpt>
      <trkpt lat="46.52044" lon="-0.58066">
        <ele>20</ele>
        <time>2013-09-15T09:56:20Z</time>
      </trkpt>
      <trkpt lat="46.52045" lon="-0.5806">
        <ele>19</ele>
        <time>2013-09-15T09:56:22Z</time>
      </trkpt>
      <trkpt lat="46.52045" lon="-0.58058">
        <ele>19</ele>
        <time>2013-09-15T09:56:25Z</time>
      </trkpt>
      <trkpt lat="46.52045" lon="-0.58058">
        <ele>19</ele>
        <time>2013-09-15T09:56:28Z</time>
      </trkpt>
      <trkpt lat="46.52046" lon="-0.58057">
        <ele>19</ele>
        <time>2013-09-15T09:56:30Z</time>
      </trkpt>
      <trkpt lat="46.52046" lon="-0.58057">
        <ele>19</ele>
        <time>2013-09-15T09:56:32Z</time>
      </trkpt>
      <trkpt lat="46.52047" lon="-0.58058">
        <ele>19</ele>
        <time>2013-09-15T09:56:34Z</time>
      </trkpt>
      <trkpt lat="46.52046" lon="-0.58055">
        <ele>19</ele>
        <time>2013-09-15T09:56:37Z</time>
      </trkpt>
      <trkpt lat="46.52046" lon="-0.58052">
        <ele>18</ele>
        <time>2013-09-15T09:56:39Z</time>
      </trkpt>
      <trkpt lat="46.52048" lon="-0.58052">
        <ele>18</ele>
        <time>2013-09-15T09:56:42Z</time>
      </trkpt>
      <trkpt lat="46.52058" lon="-0.58036">
        <ele>19</ele>
        <time>2013-09-15T09:56:50Z</time>
      </trkpt>
      <trkpt lat="46.52061" lon="-0.58031">
        <ele>18</ele>
        <time>2013-09-15T09:56:52Z</time>
      </trkpt>
      <trkpt lat="46.52064" lon="-0.58023">
        <ele>18</ele>
        <time>2013-09-15T09:56:55Z</time>
      </trkpt>
      <trkpt lat="46.52066" lon="-0.5802">
        <ele>18</ele>
        <time>2013-09-15T09:56:57Z</time>
      </trkpt>
      <trkpt lat="46.52069" lon="-0.58016">
        <ele>18</ele>
        <time>2013-09-15T09:57:00Z</time>
      </trkpt>
      <trkpt lat="46.52072" lon="-0.58012">
        <ele>18</ele>
        <time>2013-09-15T09:57:03Z</time>
      </trkpt>
      <trkpt lat="46.52074" lon="-0.58011">
        <ele>18</ele>
        <time>2013-09-15T09:57:05Z</time>
      </trkpt>
      <trkpt lat="46.52075" lon="-0.58009">
        <ele>18</ele>
        <time>2013-09-15T09:57:07Z</time>
      </trkpt>
      <trkpt lat="46.52077" lon="-0.58008">
        <ele>18</ele>
        <time>2013-09-15T09:57:09Z</time>
      </trkpt>
      <trkpt lat="46.52079" lon="-0.58007">
        <ele>18</ele>
        <time>2013-09-15T09:57:12Z</time>
      </trkpt>
      <trkpt lat="46.52081" lon="-0.58006">
        <ele>18</ele>
        <time>2013-09-15T09:57:14Z</time>
      </trkpt>
      <trkpt lat="46.52082" lon="-0.58005">
        <ele>18</ele>
        <time>2013-09-15T09:57:17Z</time>
      </trkpt>
      <trkpt lat="46.52084" lon="-0.58004">
        <ele>18</ele>
        <time>2013-09-15T09:57:19Z</time>
      </trkpt>
      <trkpt lat="46.52085" lon="-0.58003">
        <ele>18</ele>
        <time>2013-09-15T09:57:21Z</time>
      </trkpt>
      <trkpt lat="46.52086" lon="-0.58003">
        <ele>18</ele>
        <time>2013-09-15T09:57:24Z</time>
      </trkpt>
      <trkpt lat="46.52086" lon="-0.58002">
        <ele>18</ele>
        <time>2013-09-15T09:57:27Z</time>
      </trkpt>
      <trkpt lat="46.52086" lon="-0.58">
        <ele>18</ele>
        <time>2013-09-15T09:57:30Z</time>
      </trkpt>
      <trkpt lat="46.52087" lon="-0.57999">
        <ele>18</ele>
        <time>2013-09-15T09:57:32Z</time>
      </trkpt>
      <trkpt lat="46.52087" lon="-0.57999">
        <ele>18</ele>
        <time>2013-09-15T09:57:35Z</time>
      </trkpt>
      <trkpt lat="46.52087" lon="-0.57998">
        <ele>18</ele>
        <time>2013-09-15T09:57:38Z</time>
      </trkpt>
      <trkpt lat="46.52088" lon="-0.57996">
        <ele>18</ele>
        <time>2013-09-15T09:57:41Z</time>
      </trkpt>
      <trkpt lat="46.52088" lon="-0.57996">
        <ele>19</ele>
        <time>2013-09-15T09:57:44Z</time>
      </trkpt>
      <trkpt lat="46.52089" lon="-0.57995">
        <ele>19</ele>
        <time>2013-09-15T09:57:46Z</time>
      </trkpt>
      <trkpt lat="46.5209" lon="-0.57995">
        <ele>19</ele>
        <time>2013-09-15T09:57:49Z</time>
      </trkpt>
      <trkpt lat="46.52091" lon="-0.57995">
        <ele>18</ele>
        <time>2013-09-15T09:57:51Z</time>
      </trkpt>
      <trkpt lat="46.52092" lon="-0.57995">
        <ele>18</ele>
        <time>2013-09-15T09:57:53Z</time>
      </trkpt>
      <trkpt lat="46.52094" lon="-0.57995">
        <ele>18</ele>
        <time>2013-09-15T09:57:56Z</time>
      </trkpt>
      <trkpt lat="46.52097" lon="-0.57996">
        <ele>18</ele>
        <time>2013-09-15T09:57:59Z</time>
      </trkpt>
      <trkpt lat="46.52098" lon="-0.57996">
        <ele>18</ele>
        <time>2013-09-15T09:58:01Z</time>
      </trkpt>
      <trkpt lat="46.52099" lon="-0.57996">
        <ele>18</ele>
        <time>2013-09-15T09:58:04Z</time>
      </trkpt>
      <trkpt lat="46.521" lon="-0.57996">
        <ele>18</ele>
        <time>2013-09-15T09:58:07Z</time>
      </trkpt>
      <trkpt lat="46.521" lon="-0.57996">
        <ele>18</ele>
        <time>2013-09-15T09:58:10Z</time>
      </trkpt>
      <trkpt lat="46.52101" lon="-0.57997">
        <ele>18</ele>
        <time>2013-09-15T09:58:13Z</time>
      </trkpt>
      <trkpt lat="46.521" lon="-0.57997">
        <ele>18</ele>
        <time>2013-09-15T09:58:15Z</time>
      </trkpt>
      <trkpt lat="46.521" lon="-0.57997">
        <ele>18</ele>
        <time>2013-09-15T09:58:20Z</time>
      </trkpt>
      <trkpt lat="46.52102" lon="-0.57999">
        <ele>18</ele>
        <time>2013-09-15T09:58:22Z</time>
      </trkpt>
      <trkpt lat="46.52104" lon="-0.58002">
        <ele>18</ele>
        <time>2013-09-15T09:58:25Z</time>
      </trkpt>
      <trkpt lat="46.52105" lon="-0.58003">
        <ele>19</ele>
        <time>2013-09-15T09:58:27Z</time>
      </trkpt>
      <trkpt lat="46.52108" lon="-0.58005">
        <ele>19</ele>
        <time>2013-09-15T09:58:29Z</time>
      </trkpt>
      <trkpt lat="46.52115" lon="-0.58005">
        <ele>19</ele>
        <time>2013-09-15T09:58:31Z</time>
      </trkpt>
      <trkpt lat="46.52123" lon="-0.58013">
        <ele>20</ele>
        <time>2013-09-15T09:58:34Z</time>
      </trkpt>
      <trkpt lat="46.5213" lon="-0.58024">
        <ele>20</ele>
        <time>2013-09-15T09:58:37Z</time>
      </trkpt>
      <trkpt lat="46.5214" lon="-0.58033">
        <ele>21</ele>
        <time>2013-09-15T09:58:40Z</time>
      </trkpt>
      <trkpt lat="46.52147" lon="-0.58039">
        <ele>21</ele>
        <time>2013-09-15T09:58:42Z</time>
      </trkpt>
      <trkpt lat="46.52153" lon="-0.58045">
        <ele>22</ele>
        <time>2013-09-15T09:58:44Z</time>
      </trkpt>
      <trkpt lat="46.52159" lon="-0.5805">
        <ele>22</ele>
        <time>2013-09-15T09:58:46Z</time>
      </trkpt>
      <trkpt lat="46.52164" lon="-0.58056">
        <ele>23</ele>
        <time>2013-09-15T09:58:48Z</time>
      </trkpt>
      <trkpt lat="46.52171" lon="-0.58061">
        <ele>23</ele>
        <time>2013-09-15T09:58:50Z</time>
      </trkpt>
      <trkpt lat="46.52176" lon="-0.58066">
        <ele>24</ele>
        <time>2013-09-15T09:58:52Z</time>
      </trkpt>
      <trkpt lat="46.52185" lon="-0.58074">
        <ele>25</ele>
        <time>2013-09-15T09:58:55Z</time>
      </trkpt>
      <trkpt lat="46.52195" lon="-0.58083">
        <ele>25</ele>
        <time>2013-09-15T09:58:58Z</time>
      </trkpt>
      <trkpt lat="46.52201" lon="-0.58088">
        <ele>25</ele>
        <time>2013-09-15T09:59:00Z</time>
      </trkpt>
      <trkpt lat="46.52207" lon="-0.58094">
        <ele>26</ele>
        <time>2013-09-15T09:59:02Z</time>
      </trkpt>
      <trkpt lat="46.52213" lon="-0.58099">
        <ele>26</ele>
        <time>2013-09-15T09:59:04Z</time>
      </trkpt>
      <trkpt lat="46.52217" lon="-0.58104">
        <ele>27</ele>
        <time>2013-09-15T09:59:06Z</time>
      </trkpt>
      <trkpt lat="46.52224" lon="-0.5811">
        <ele>27</ele>
        <time>2013-09-15T09:59:09Z</time>
      </trkpt>
      <trkpt lat="46.5223" lon="-0.58116">
        <ele>27</ele>
        <time>2013-09-15T09:59:12Z</time>
      </trkpt>
      <trkpt lat="46.52234" lon="-0.5812">
        <ele>28</ele>
        <time>2013-09-15T09:59:14Z</time>
      </trkpt>
      <trkpt lat="46.52238" lon="-0.58125">
        <ele>28</ele>
        <time>2013-09-15T09:59:16Z</time>
      </trkpt>
      <trkpt lat="46.52243" lon="-0.5813">
        <ele>28</ele>
        <time>2013-09-15T09:59:18Z</time>
      </trkpt>
      <trkpt lat="46.52247" lon="-0.58134">
        <ele>29</ele>
        <time>2013-09-15T09:59:20Z</time>
      </trkpt>
      <trkpt lat="46.52253" lon="-0.58138">
        <ele>29</ele>
        <time>2013-09-15T09:59:22Z</time>
      </trkpt>
      <trkpt lat="46.52261" lon="-0.58145">
        <ele>30</ele>
        <time>2013-09-15T09:59:25Z</time>
      </trkpt>
      <trkpt lat="46.52267" lon="-0.58149">
        <ele>31</ele>
        <time>2013-09-15T09:59:27Z</time>
      </trkpt>
      <trkpt lat="46.52277" lon="-0.58155">
        <ele>31</ele>
        <time>2013-09-15T09:59:30Z</time>
      </trkpt>
      <trkpt lat="46.52285" lon="-0.58163">
        <ele>32</ele>
        <time>2013-09-15T09:59:33Z</time>
      </trkpt>
      <trkpt lat="46.52293" lon="-0.58169">
        <ele>32</ele>
        <time>2013-09-15T09:59:36Z</time>
      </trkpt>
      <trkpt lat="46.52301" lon="-0.58174">
        <ele>32</ele>
        <time>2013-09-15T09:59:39Z</time>
      </trkpt>
      <trkpt lat="46.52308" lon="-0.58179">
        <ele>32</ele>
        <time>2013-09-15T09:59:41Z</time>
      </trkpt>
      <trkpt lat="46.52318" lon="-0.58183">
        <ele>31</ele>
        <time>2013-09-15T09:59:44Z</time>
      </trkpt>
      <trkpt lat="46.52326" lon="-0.58187">
        <ele>32</ele>
        <time>2013-09-15T09:59:46Z</time>
      </trkpt>
      <trkpt lat="46.52333" lon="-0.58192">
        <ele>32</ele>
        <time>2013-09-15T09:59:48Z</time>
      </trkpt>
      <trkpt lat="46.52343" lon="-0.58199">
        <ele>33</ele>
        <time>2013-09-15T09:59:51Z</time>
      </trkpt>
      <trkpt lat="46.52353" lon="-0.58207">
        <ele>33</ele>
        <time>2013-09-15T09:59:54Z</time>
      </trkpt>
      <trkpt lat="46.5236" lon="-0.58211">
        <ele>33</ele>
        <time>2013-09-15T09:59:56Z</time>
      </trkpt>
      <trkpt lat="46.52369" lon="-0.58217">
        <ele>34</ele>
        <time>2013-09-15T09:59:59Z</time>
      </trkpt>
      <trkpt lat="46.52375" lon="-0.5822">
        <ele>34</ele>
        <time>2013-09-15T10:00:01Z</time>
      </trkpt>
      <trkpt lat="46.52385" lon="-0.58227">
        <ele>34</ele>
        <time>2013-09-15T10:00:04Z</time>
      </trkpt>
      <trkpt lat="46.52391" lon="-0.58231">
        <ele>35</ele>
        <time>2013-09-15T10:00:06Z</time>
      </trkpt>
      <trkpt lat="46.52401" lon="-0.58238">
        <ele>36</ele>
        <time>2013-09-15T10:00:09Z</time>
      </trkpt>
      <trkpt lat="46.52411" lon="-0.58245">
        <ele>36</ele>
        <time>2013-09-15T10:00:12Z</time>
      </trkpt>
      <trkpt lat="46.52422" lon="-0.58252">
        <ele>36</ele>
        <time>2013-09-15T10:00:15Z</time>
      </trkpt>
      <trkpt lat="46.52429" lon="-0.58255">
        <ele>37</ele>
        <time>2013-09-15T10:00:17Z</time>
      </trkpt>
      <trkpt lat="46.52441" lon="-0.5826">
        <ele>37</ele>
        <time>2013-09-15T10:00:20Z</time>
      </trkpt>
      <trkpt lat="46.52449" lon="-0.58264">
        <ele>37</ele>
        <time>2013-09-15T10:00:22Z</time>
      </trkpt>
      <trkpt lat="46.52459" lon="-0.58271">
        <ele>38</ele>
        <time>2013-09-15T10:00:25Z</time>
      </trkpt>
      <trkpt lat="46.5247" lon="-0.58278">
        <ele>38</ele>
        <time>2013-09-15T10:00:28Z</time>
      </trkpt>
      <trkpt lat="46.52478" lon="-0.58281">
        <ele>38</ele>
        <time>2013-09-15T10:00:30Z</time>
      </trkpt>
      <trkpt lat="46.52485" lon="-0.58284">
        <ele>39</ele>
        <time>2013-09-15T10:00:32Z</time>
      </trkpt>
      <trkpt lat="46.52493" lon="-0.58287">
        <ele>39</ele>
        <time>2013-09-15T10:00:34Z</time>
      </trkpt>
      <trkpt lat="46.52502" lon="-0.58293">
        <ele>39</ele>
        <time>2013-09-15T10:00:37Z</time>
      </trkpt>
      <trkpt lat="46.52508" lon="-0.58296">
        <ele>40</ele>
        <time>2013-09-15T10:00:39Z</time>
      </trkpt>
      <trkpt lat="46.52519" lon="-0.58299">
        <ele>41</ele>
        <time>2013-09-15T10:00:42Z</time>
      </trkpt>
      <trkpt lat="46.52526" lon="-0.58301">
        <ele>41</ele>
        <time>2013-09-15T10:00:44Z</time>
      </trkpt>
      <trkpt lat="46.52536" lon="-0.58308">
        <ele>41</ele>
        <time>2013-09-15T10:00:47Z</time>
      </trkpt>
      <trkpt lat="46.52542" lon="-0.58313">
        <ele>41</ele>
        <time>2013-09-15T10:00:49Z</time>
      </trkpt>
      <trkpt lat="46.5255" lon="-0.58323">
        <ele>41</ele>
        <time>2013-09-15T10:00:52Z</time>
      </trkpt>
      <trkpt lat="46.52557" lon="-0.58331">
        <ele>41</ele>
        <time>2013-09-15T10:00:55Z</time>
      </trkpt>
      <trkpt lat="46.52564" lon="-0.58336">
        <ele>42</ele>
        <time>2013-09-15T10:00:58Z</time>
      </trkpt>
      <trkpt lat="46.5257" lon="-0.58341">
        <ele>42</ele>
        <time>2013-09-15T10:01:00Z</time>
      </trkpt>
      <trkpt lat="46.52576" lon="-0.58345">
        <ele>42</ele>
        <time>2013-09-15T10:01:02Z</time>
      </trkpt>
      <trkpt lat="46.52584" lon="-0.5835">
        <ele>42</ele>
        <time>2013-09-15T10:01:05Z</time>
      </trkpt>
      <trkpt lat="46.52591" lon="-0.58354">
        <ele>42</ele>
        <time>2013-09-15T10:01:08Z</time>
      </trkpt>
      <trkpt lat="46.52599" lon="-0.58359">
        <ele>42</ele>
        <time>2013-09-15T10:01:11Z</time>
      </trkpt>
      <trkpt lat="46.52607" lon="-0.58364">
        <ele>42</ele>
        <time>2013-09-15T10:01:14Z</time>
      </trkpt>
      <trkpt lat="46.52612" lon="-0.58368">
        <ele>42</ele>
        <time>2013-09-15T10:01:17Z</time>
      </trkpt>
      <trkpt lat="46.52614" lon="-0.58374">
        <ele>41</ele>
        <time>2013-09-15T10:01:20Z</time>
      </trkpt>
      <trkpt lat="46.52615" lon="-0.58376">
        <ele>41</ele>
        <time>2013-09-15T10:01:22Z</time>
      </trkpt>
      <trkpt lat="46.52616" lon="-0.58377">
        <ele>41</ele>
        <time>2013-09-15T10:01:25Z</time>
      </trkpt>
      <trkpt lat="46.52618" lon="-0.58378">
        <ele>41</ele>
        <time>2013-09-15T10:01:27Z</time>
      </trkpt>
      <trkpt lat="46.52621" lon="-0.58381">
        <ele>41</ele>
        <time>2013-09-15T10:01:30Z</time>
      </trkpt>
      <trkpt lat="46.52623" lon="-0.58381">
        <ele>41</ele>
        <time>2013-09-15T10:01:32Z</time>
      </trkpt>
      <trkpt lat="46.52627" lon="-0.58383">
        <ele>41</ele>
        <time>2013-09-15T10:01:35Z</time>
      </trkpt>
      <trkpt lat="46.52634" lon="-0.58389">
        <ele>41</ele>
        <time>2013-09-15T10:01:38Z</time>
      </trkpt>
      <trkpt lat="46.52642" lon="-0.58394">
        <ele>41</ele>
        <time>2013-09-15T10:01:41Z</time>
      </trkpt>
      <trkpt lat="46.52649" lon="-0.58401">
        <ele>41</ele>
        <time>2013-09-15T10:01:44Z</time>
      </trkpt>
      <trkpt lat="46.52658" lon="-0.58407">
        <ele>40</ele>
        <time>2013-09-15T10:01:47Z</time>
      </trkpt>
      <trkpt lat="46.52663" lon="-0.58411">
        <ele>40</ele>
        <time>2013-09-15T10:01:49Z</time>
      </trkpt>
      <trkpt lat="46.5267" lon="-0.58417">
        <ele>40</ele>
        <time>2013-09-15T10:01:52Z</time>
      </trkpt>
      <trkpt lat="46.52673" lon="-0.5842">
        <ele>39</ele>
        <time>2013-09-15T10:01:54Z</time>
      </trkpt>
      <trkpt lat="46.5268" lon="-0.58425">
        <ele>39</ele>
        <time>2013-09-15T10:01:57Z</time>
      </trkpt>
      <trkpt lat="46.52684" lon="-0.5843">
        <ele>39</ele>
        <time>2013-09-15T10:01:59Z</time>
      </trkpt>
      <trkpt lat="46.52692" lon="-0.58434">
        <ele>38</ele>
        <time>2013-09-15T10:02:02Z</time>
      </trkpt>
      <trkpt lat="46.52697" lon="-0.58437">
        <ele>38</ele>
        <time>2013-09-15T10:02:04Z</time>
      </trkpt>
      <trkpt lat="46.52705" lon="-0.58444">
        <ele>37</ele>
        <time>2013-09-15T10:02:07Z</time>
      </trkpt>
      <trkpt lat="46.52711" lon="-0.5845">
        <ele>37</ele>
        <time>2013-09-15T10:02:10Z</time>
      </trkpt>
      <trkpt lat="46.52716" lon="-0.58453">
        <ele>37</ele>
        <time>2013-09-15T10:02:12Z</time>
      </trkpt>
      <trkpt lat="46.52722" lon="-0.58459">
        <ele>37</ele>
        <time>2013-09-15T10:02:15Z</time>
      </trkpt>
      <trkpt lat="46.52729" lon="-0.5846">
        <ele>36</ele>
        <time>2013-09-15T10:02:18Z</time>
      </trkpt>
      <trkpt lat="46.52731" lon="-0.58464">
        <ele>36</ele>
        <time>2013-09-15T10:02:20Z</time>
      </trkpt>
      <trkpt lat="46.52737" lon="-0.58468">
        <ele>36</ele>
        <time>2013-09-15T10:02:23Z</time>
      </trkpt>
      <trkpt lat="46.52746" lon="-0.58472">
        <ele>36</ele>
        <time>2013-09-15T10:02:26Z</time>
      </trkpt>
      <trkpt lat="46.52753" lon="-0.5848">
        <ele>35</ele>
        <time>2013-09-15T10:02:29Z</time>
      </trkpt>
      <trkpt lat="46.52764" lon="-0.58488">
        <ele>35</ele>
        <time>2013-09-15T10:02:32Z</time>
      </trkpt>
      <trkpt lat="46.52772" lon="-0.58495">
        <ele>34</ele>
        <time>2013-09-15T10:02:35Z</time>
      </trkpt>
      <trkpt lat="46.52777" lon="-0.58505">
        <ele>33</ele>
        <time>2013-09-15T10:02:38Z</time>
      </trkpt>
      <trkpt lat="46.52783" lon="-0.5851">
        <ele>33</ele>
        <time>2013-09-15T10:02:40Z</time>
      </trkpt>
      <trkpt lat="46.5279" lon="-0.58514">
        <ele>33</ele>
        <time>2013-09-15T10:02:43Z</time>
      </trkpt>
      <trkpt lat="46.52799" lon="-0.5852">
        <ele>33</ele>
        <time>2013-09-15T10:02:46Z</time>
      </trkpt>
      <trkpt lat="46.52807" lon="-0.58525">
        <ele>32</ele>
        <time>2013-09-15T10:02:49Z</time>
      </trkpt>
      <trkpt lat="46.52812" lon="-0.5853">
        <ele>32</ele>
        <time>2013-09-15T10:02:51Z</time>
      </trkpt>
      <trkpt lat="46.52819" lon="-0.58535">
        <ele>32</ele>
        <time>2013-09-15T10:02:54Z</time>
      </trkpt>
      <trkpt lat="46.52826" lon="-0.5854">
        <ele>32</ele>
        <time>2013-09-15T10:02:56Z</time>
      </trkpt>
      <trkpt lat="46.52832" lon="-0.58545">
        <ele>32</ele>
        <time>2013-09-15T10:02:58Z</time>
      </trkpt>
      <trkpt lat="46.52839" lon="-0.58552">
        <ele>32</ele>
        <time>2013-09-15T10:03:00Z</time>
      </trkpt>
      <trkpt lat="46.52851" lon="-0.58561">
        <ele>32</ele>
        <time>2013-09-15T10:03:03Z</time>
      </trkpt>
      <trkpt lat="46.52863" lon="-0.58568">
        <ele>33</ele>
        <time>2013-09-15T10:03:06Z</time>
      </trkpt>
      <trkpt lat="46.52874" lon="-0.58576">
        <ele>32</ele>
        <time>2013-09-15T10:03:09Z</time>
      </trkpt>
      <trkpt lat="46.52882" lon="-0.58582">
        <ele>32</ele>
        <time>2013-09-15T10:03:11Z</time>
      </trkpt>
      <trkpt lat="46.52892" lon="-0.5859">
        <ele>32</ele>
        <time>2013-09-15T10:03:14Z</time>
      </trkpt>
      <trkpt lat="46.52899" lon="-0.58595">
        <ele>32</ele>
        <time>2013-09-15T10:03:16Z</time>
      </trkpt>
      <trkpt lat="46.52906" lon="-0.58599">
        <ele>32</ele>
        <time>2013-09-15T10:03:18Z</time>
      </trkpt>
      <trkpt lat="46.52912" lon="-0.58602">
        <ele>33</ele>
        <time>2013-09-15T10:03:20Z</time>
      </trkpt>
      <trkpt lat="46.52917" lon="-0.58598">
        <ele>33</ele>
        <time>2013-09-15T10:03:22Z</time>
      </trkpt>
      <trkpt lat="46.52919" lon="-0.58587">
        <ele>33</ele>
        <time>2013-09-15T10:03:25Z</time>
      </trkpt>
      <trkpt lat="46.52917" lon="-0.58578">
        <ele>33</ele>
        <time>2013-09-15T10:03:27Z</time>
      </trkpt>
      <trkpt lat="46.52921" lon="-0.58558">
        <ele>32</ele>
        <time>2013-09-15T10:03:30Z</time>
      </trkpt>
      <trkpt lat="46.52928" lon="-0.58544">
        <ele>31</ele>
        <time>2013-09-15T10:03:32Z</time>
      </trkpt>
      <trkpt lat="46.52941" lon="-0.58522">
        <ele>29</ele>
        <time>2013-09-15T10:03:35Z</time>
      </trkpt>
      <trkpt lat="46.52951" lon="-0.58503">
        <ele>28</ele>
        <time>2013-09-15T10:03:38Z</time>
      </trkpt>
      <trkpt lat="46.52953" lon="-0.58485">
        <ele>26</ele>
        <time>2013-09-15T10:03:41Z</time>
      </trkpt>
      <trkpt lat="46.52955" lon="-0.58472">
        <ele>26</ele>
        <time>2013-09-15T10:03:43Z</time>
      </trkpt>
      <trkpt lat="46.52957" lon="-0.5846">
        <ele>26</ele>
        <time>2013-09-15T10:03:45Z</time>
      </trkpt>
      <trkpt lat="46.52958" lon="-0.58448">
        <ele>26</ele>
        <time>2013-09-15T10:03:47Z</time>
      </trkpt>
      <trkpt lat="46.52958" lon="-0.58437">
        <ele>26</ele>
        <time>2013-09-15T10:03:49Z</time>
      </trkpt>
      <trkpt lat="46.52957" lon="-0.58425">
        <ele>26</ele>
        <time>2013-09-15T10:03:51Z</time>
      </trkpt>
      <trkpt lat="46.52957" lon="-0.58407">
        <ele>26</ele>
        <time>2013-09-15T10:03:54Z</time>
      </trkpt>
      <trkpt lat="46.52957" lon="-0.58388">
        <ele>27</ele>
        <time>2013-09-15T10:03:57Z</time>
      </trkpt>
      <trkpt lat="46.52957" lon="-0.58375">
        <ele>27</ele>
        <time>2013-09-15T10:03:59Z</time>
      </trkpt>
      <trkpt lat="46.52957" lon="-0.58363">
        <ele>27</ele>
        <time>2013-09-15T10:04:01Z</time>
      </trkpt>
      <trkpt lat="46.52958" lon="-0.58351">
        <ele>27</ele>
        <time>2013-09-15T10:04:03Z</time>
      </trkpt>
      <trkpt lat="46.52958" lon="-0.58339">
        <ele>27</ele>
        <time>2013-09-15T10:04:05Z</time>
      </trkpt>
      <trkpt lat="46.52958" lon="-0.58328">
        <ele>28</ele>
        <time>2013-09-15T10:04:07Z</time>
      </trkpt>
      <trkpt lat="46.52958" lon="-0.58317">
        <ele>28</ele>
        <time>2013-09-15T10:04:09Z</time>
      </trkpt>
      <trkpt lat="46.52959" lon="-0.583">
        <ele>29</ele>
        <time>2013-09-15T10:04:12Z</time>
      </trkpt>
      <trkpt lat="46.5296" lon="-0.58291">
        <ele>29</ele>
        <time>2013-09-15T10:04:14Z</time>
      </trkpt>
      <trkpt lat="46.52962" lon="-0.58279">
        <ele>30</ele>
        <time>2013-09-15T10:04:17Z</time>
      </trkpt>
      <trkpt lat="46.52961" lon="-0.58265">
        <ele>31</ele>
        <time>2013-09-15T10:04:20Z</time>
      </trkpt>
      <trkpt lat="46.52961" lon="-0.58254">
        <ele>31</ele>
        <time>2013-09-15T10:04:22Z</time>
      </trkpt>
      <trkpt lat="46.52961" lon="-0.58242">
        <ele>31</ele>
        <time>2013-09-15T10:04:24Z</time>
      </trkpt>
      <trkpt lat="46.5296" lon="-0.58224">
        <ele>32</ele>
        <time>2013-09-15T10:04:27Z</time>
      </trkpt>
      <trkpt lat="46.52959" lon="-0.58204">
        <ele>32</ele>
        <time>2013-09-15T10:04:30Z</time>
      </trkpt>
      <trkpt lat="46.52958" lon="-0.58191">
        <ele>32</ele>
        <time>2013-09-15T10:04:32Z</time>
      </trkpt>
      <trkpt lat="46.52957" lon="-0.58179">
        <ele>32</ele>
        <time>2013-09-15T10:04:34Z</time>
      </trkpt>
      <trkpt lat="46.52955" lon="-0.58161">
        <ele>32</ele>
        <time>2013-09-15T10:04:37Z</time>
      </trkpt>
      <trkpt lat="46.52951" lon="-0.5815">
        <ele>33</ele>
        <time>2013-09-15T10:04:39Z</time>
      </trkpt>
      <trkpt lat="46.52945" lon="-0.58134">
        <ele>33</ele>
        <time>2013-09-15T10:04:42Z</time>
      </trkpt>
      <trkpt lat="46.52939" lon="-0.5812">
        <ele>34</ele>
        <time>2013-09-15T10:04:45Z</time>
      </trkpt>
      <trkpt lat="46.52934" lon="-0.58112">
        <ele>34</ele>
        <time>2013-09-15T10:04:47Z</time>
      </trkpt>
      <trkpt lat="46.52932" lon="-0.58097">
        <ele>35</ele>
        <time>2013-09-15T10:04:50Z</time>
      </trkpt>
      <trkpt lat="46.52937" lon="-0.58081">
        <ele>35</ele>
        <time>2013-09-15T10:04:54Z</time>
      </trkpt>
      <trkpt lat="46.5294" lon="-0.58072">
        <ele>36</ele>
        <time>2013-09-15T10:04:56Z</time>
      </trkpt>
      <trkpt lat="46.52944" lon="-0.58064">
        <ele>37</ele>
        <time>2013-09-15T10:04:58Z</time>
      </trkpt>
      <trkpt lat="46.52951" lon="-0.58053">
        <ele>37</ele>
        <time>2013-09-15T10:05:01Z</time>
      </trkpt>
      <trkpt lat="46.52955" lon="-0.58047">
        <ele>37</ele>
        <time>2013-09-15T10:05:03Z</time>
      </trkpt>
      <trkpt lat="46.5296" lon="-0.5804">
        <ele>37</ele>
        <time>2013-09-15T10:05:05Z</time>
      </trkpt>
      <trkpt lat="46.52966" lon="-0.58035">
        <ele>38</ele>
        <time>2013-09-15T10:05:07Z</time>
      </trkpt>
      <trkpt lat="46.52971" lon="-0.58031">
        <ele>38</ele>
        <time>2013-09-15T10:05:09Z</time>
      </trkpt>
      <trkpt lat="46.52976" lon="-0.58026">
        <ele>39</ele>
        <time>2013-09-15T10:05:11Z</time>
      </trkpt>
      <trkpt lat="46.52981" lon="-0.58021">
        <ele>39</ele>
        <time>2013-09-15T10:05:13Z</time>
      </trkpt>
      <trkpt lat="46.52987" lon="-0.58017">
        <ele>40</ele>
        <time>2013-09-15T10:05:15Z</time>
      </trkpt>
      <trkpt lat="46.52996" lon="-0.58011">
        <ele>41</ele>
        <time>2013-09-15T10:05:18Z</time>
      </trkpt>
      <trkpt lat="46.53001" lon="-0.58006">
        <ele>41</ele>
        <time>2013-09-15T10:05:20Z</time>
      </trkpt>
      <trkpt lat="46.53007" lon="-0.58">
        <ele>41</ele>
        <time>2013-09-15T10:05:22Z</time>
      </trkpt>
      <trkpt lat="46.53015" lon="-0.57994">
        <ele>42</ele>
        <time>2013-09-15T10:05:25Z</time>
      </trkpt>
      <trkpt lat="46.53021" lon="-0.57989">
        <ele>42</ele>
        <time>2013-09-15T10:05:27Z</time>
      </trkpt>
      <trkpt lat="46.53029" lon="-0.5798">
        <ele>42</ele>
        <time>2013-09-15T10:05:30Z</time>
      </trkpt>
      <trkpt lat="46.53035" lon="-0.57975">
        <ele>43</ele>
        <time>2013-09-15T10:05:32Z</time>
      </trkpt>
      <trkpt lat="46.53043" lon="-0.57964">
        <ele>43</ele>
        <time>2013-09-15T10:05:35Z</time>
      </trkpt>
      <trkpt lat="46.5305" lon="-0.57959">
        <ele>43</ele>
        <time>2013-09-15T10:05:37Z</time>
      </trkpt>
      <trkpt lat="46.53059" lon="-0.57951">
        <ele>43</ele>
        <time>2013-09-15T10:05:40Z</time>
      </trkpt>
      <trkpt lat="46.53065" lon="-0.57946">
        <ele>43</ele>
        <time>2013-09-15T10:05:42Z</time>
      </trkpt>
      <trkpt lat="46.53071" lon="-0.5794">
        <ele>43</ele>
        <time>2013-09-15T10:05:44Z</time>
      </trkpt>
      <trkpt lat="46.53077" lon="-0.57934">
        <ele>43</ele>
        <time>2013-09-15T10:05:46Z</time>
      </trkpt>
      <trkpt lat="46.53083" lon="-0.57928">
        <ele>43</ele>
        <time>2013-09-15T10:05:48Z</time>
      </trkpt>
      <trkpt lat="46.53088" lon="-0.57921">
        <ele>43</ele>
        <time>2013-09-15T10:05:50Z</time>
      </trkpt>
      <trkpt lat="46.53093" lon="-0.57915">
        <ele>43</ele>
        <time>2013-09-15T10:05:52Z</time>
      </trkpt>
      <trkpt lat="46.53101" lon="-0.57903">
        <ele>44</ele>
        <time>2013-09-15T10:05:55Z</time>
      </trkpt>
      <trkpt lat="46.53106" lon="-0.57894">
        <ele>44</ele>
        <time>2013-09-15T10:05:57Z</time>
      </trkpt>
      <trkpt lat="46.53111" lon="-0.57884">
        <ele>44</ele>
        <time>2013-09-15T10:05:59Z</time>
      </trkpt>
      <trkpt lat="46.53117" lon="-0.57875">
        <ele>44</ele>
        <time>2013-09-15T10:06:01Z</time>
      </trkpt>
      <trkpt lat="46.53122" lon="-0.57865">
        <ele>44</ele>
        <time>2013-09-15T10:06:03Z</time>
      </trkpt>
      <trkpt lat="46.53128" lon="-0.57855">
        <ele>44</ele>
        <time>2013-09-15T10:06:05Z</time>
      </trkpt>
      <trkpt lat="46.53136" lon="-0.57841">
        <ele>45</ele>
        <time>2013-09-15T10:06:08Z</time>
      </trkpt>
      <trkpt lat="46.53141" lon="-0.5783">
        <ele>45</ele>
        <time>2013-09-15T10:06:10Z</time>
      </trkpt>
      <trkpt lat="46.5315" lon="-0.57814">
        <ele>45</ele>
        <time>2013-09-15T10:06:13Z</time>
      </trkpt>
      <trkpt lat="46.53155" lon="-0.57804">
        <ele>45</ele>
        <time>2013-09-15T10:06:15Z</time>
      </trkpt>
      <trkpt lat="46.53164" lon="-0.57789">
        <ele>46</ele>
        <time>2013-09-15T10:06:18Z</time>
      </trkpt>
      <trkpt lat="46.53168" lon="-0.57778">
        <ele>45</ele>
        <time>2013-09-15T10:06:20Z</time>
      </trkpt>
      <trkpt lat="46.53171" lon="-0.57765">
        <ele>45</ele>
        <time>2013-09-15T10:06:22Z</time>
      </trkpt>
      <trkpt lat="46.53174" lon="-0.57746">
        <ele>45</ele>
        <time>2013-09-15T10:06:25Z</time>
      </trkpt>
      <trkpt lat="46.53177" lon="-0.57733">
        <ele>45</ele>
        <time>2013-09-15T10:06:27Z</time>
      </trkpt>
      <trkpt lat="46.53181" lon="-0.57712">
        <ele>45</ele>
        <time>2013-09-15T10:06:30Z</time>
      </trkpt>
      <trkpt lat="46.53183" lon="-0.57697">
        <ele>44</ele>
        <time>2013-09-15T10:06:32Z</time>
      </trkpt>
      <trkpt lat="46.53186" lon="-0.57681">
        <ele>44</ele>
        <time>2013-09-15T10:06:34Z</time>
      </trkpt>
      <trkpt lat="46.5319" lon="-0.57657">
        <ele>44</ele>
        <time>2013-09-15T10:06:37Z</time>
      </trkpt>
      <trkpt lat="46.53192" lon="-0.57641">
        <ele>44</ele>
        <time>2013-09-15T10:06:39Z</time>
      </trkpt>
      <trkpt lat="46.53191" lon="-0.57626">
        <ele>44</ele>
        <time>2013-09-15T10:06:41Z</time>
      </trkpt>
      <trkpt lat="46.53186" lon="-0.57613">
        <ele>44</ele>
        <time>2013-09-15T10:06:43Z</time>
      </trkpt>
      <trkpt lat="46.53181" lon="-0.576">
        <ele>44</ele>
        <time>2013-09-15T10:06:45Z</time>
      </trkpt>
      <trkpt lat="46.53175" lon="-0.57586">
        <ele>44</ele>
        <time>2013-09-15T10:06:47Z</time>
      </trkpt>
      <trkpt lat="46.53169" lon="-0.57572">
        <ele>44</ele>
        <time>2013-09-15T10:06:49Z</time>
      </trkpt>
      <trkpt lat="46.53159" lon="-0.5755">
        <ele>44</ele>
        <time>2013-09-15T10:06:52Z</time>
      </trkpt>
      <trkpt lat="46.53152" lon="-0.57536">
        <ele>43</ele>
        <time>2013-09-15T10:06:54Z</time>
      </trkpt>
      <trkpt lat="46.53145" lon="-0.57522">
        <ele>43</ele>
        <time>2013-09-15T10:06:56Z</time>
      </trkpt>
      <trkpt lat="46.53137" lon="-0.57509">
        <ele>43</ele>
        <time>2013-09-15T10:06:58Z</time>
      </trkpt>
      <trkpt lat="46.53124" lon="-0.57495">
        <ele>43</ele>
        <time>2013-09-15T10:07:01Z</time>
      </trkpt>
      <trkpt lat="46.53108" lon="-0.57494">
        <ele>43</ele>
        <time>2013-09-15T10:07:04Z</time>
      </trkpt>
      <trkpt lat="46.53091" lon="-0.57496">
        <ele>43</ele>
        <time>2013-09-15T10:07:07Z</time>
      </trkpt>
      <trkpt lat="46.53081" lon="-0.57497">
        <ele>43</ele>
        <time>2013-09-15T10:07:09Z</time>
      </trkpt>
      <trkpt lat="46.53071" lon="-0.57497">
        <ele>43</ele>
        <time>2013-09-15T10:07:11Z</time>
      </trkpt>
      <trkpt lat="46.53056" lon="-0.57498">
        <ele>43</ele>
        <time>2013-09-15T10:07:14Z</time>
      </trkpt>
      <trkpt lat="46.53043" lon="-0.57496">
        <ele>44</ele>
        <time>2013-09-15T10:07:17Z</time>
      </trkpt>
      <trkpt lat="46.53034" lon="-0.57495">
        <ele>44</ele>
        <time>2013-09-15T10:07:19Z</time>
      </trkpt>
      <trkpt lat="46.53025" lon="-0.57494">
        <ele>44</ele>
        <time>2013-09-15T10:07:21Z</time>
      </trkpt>
      <trkpt lat="46.53012" lon="-0.57491">
        <ele>45</ele>
        <time>2013-09-15T10:07:24Z</time>
      </trkpt>
      <trkpt lat="46.53003" lon="-0.5749">
        <ele>45</ele>
        <time>2013-09-15T10:07:26Z</time>
      </trkpt>
      <trkpt lat="46.52992" lon="-0.57487">
        <ele>45</ele>
        <time>2013-09-15T10:07:29Z</time>
      </trkpt>
      <trkpt lat="46.52984" lon="-0.57486">
        <ele>46</ele>
        <time>2013-09-15T10:07:31Z</time>
      </trkpt>
      <trkpt lat="46.52972" lon="-0.57482">
        <ele>46</ele>
        <time>2013-09-15T10:07:34Z</time>
      </trkpt>
      <trkpt lat="46.52964" lon="-0.57479">
        <ele>47</ele>
        <time>2013-09-15T10:07:36Z</time>
      </trkpt>
      <trkpt lat="46.52953" lon="-0.57474">
        <ele>47</ele>
        <time>2013-09-15T10:07:39Z</time>
      </trkpt>
      <trkpt lat="46.52941" lon="-0.57468">
        <ele>48</ele>
        <time>2013-09-15T10:07:42Z</time>
      </trkpt>
      <trkpt lat="46.52933" lon="-0.57464">
        <ele>48</ele>
        <time>2013-09-15T10:07:44Z</time>
      </trkpt>
      <trkpt lat="46.52925" lon="-0.5746">
        <ele>48</ele>
        <time>2013-09-15T10:07:46Z</time>
      </trkpt>
      <trkpt lat="46.52914" lon="-0.57453">
        <ele>49</ele>
        <time>2013-09-15T10:07:49Z</time>
      </trkpt>
      <trkpt lat="46.52906" lon="-0.57449">
        <ele>49</ele>
        <time>2013-09-15T10:07:51Z</time>
      </trkpt>
      <trkpt lat="46.52894" lon="-0.57442">
        <ele>50</ele>
        <time>2013-09-15T10:07:54Z</time>
      </trkpt>
      <trkpt lat="46.52885" lon="-0.57437">
        <ele>50</ele>
        <time>2013-09-15T10:07:56Z</time>
      </trkpt>
      <trkpt lat="46.52871" lon="-0.57433">
        <ele>51</ele>
        <time>2013-09-15T10:07:59Z</time>
      </trkpt>
      <trkpt lat="46.52861" lon="-0.57431">
        <ele>51</ele>
        <time>2013-09-15T10:08:01Z</time>
      </trkpt>
      <trkpt lat="46.52851" lon="-0.5743">
        <ele>51</ele>
        <time>2013-09-15T10:08:03Z</time>
      </trkpt>
      <trkpt lat="46.52841" lon="-0.57427">
        <ele>51</ele>
        <time>2013-09-15T10:08:05Z</time>
      </trkpt>
      <trkpt lat="46.5283" lon="-0.57425">
        <ele>50</ele>
        <time>2013-09-15T10:08:07Z</time>
      </trkpt>
      <trkpt lat="46.52819" lon="-0.57422">
        <ele>49</ele>
        <time>2013-09-15T10:08:09Z</time>
      </trkpt>
      <trkpt lat="46.52806" lon="-0.57419">
        <ele>49</ele>
        <time>2013-09-15T10:08:11Z</time>
      </trkpt>
      <trkpt lat="46.52794" lon="-0.57416">
        <ele>49</ele>
        <time>2013-09-15T10:08:13Z</time>
      </trkpt>
      <trkpt lat="46.52775" lon="-0.57411">
        <ele>48</ele>
        <time>2013-09-15T10:08:16Z</time>
      </trkpt>
      <trkpt lat="46.52763" lon="-0.57407">
        <ele>48</ele>
        <time>2013-09-15T10:08:18Z</time>
      </trkpt>
      <trkpt lat="46.5275" lon="-0.57403">
        <ele>47</ele>
        <time>2013-09-15T10:08:20Z</time>
      </trkpt>
      <trkpt lat="46.52729" lon="-0.57398">
        <ele>47</ele>
        <time>2013-09-15T10:08:23Z</time>
      </trkpt>
      <trkpt lat="46.52708" lon="-0.57392">
        <ele>47</ele>
        <time>2013-09-15T10:08:26Z</time>
      </trkpt>
      <trkpt lat="46.52688" lon="-0.57385">
        <ele>46</ele>
        <time>2013-09-15T10:08:29Z</time>
      </trkpt>
      <trkpt lat="46.52675" lon="-0.57381">
        <ele>46</ele>
        <time>2013-09-15T10:08:31Z</time>
      </trkpt>
      <trkpt lat="46.52663" lon="-0.57376">
        <ele>45</ele>
        <time>2013-09-15T10:08:33Z</time>
      </trkpt>
      <trkpt lat="46.52646" lon="-0.57371">
        <ele>45</ele>
        <time>2013-09-15T10:08:36Z</time>
      </trkpt>
      <trkpt lat="46.52635" lon="-0.57367">
        <ele>45</ele>
        <time>2013-09-15T10:08:38Z</time>
      </trkpt>
      <trkpt lat="46.52623" lon="-0.57364">
        <ele>45</ele>
        <time>2013-09-15T10:08:40Z</time>
      </trkpt>
      <trkpt lat="46.52605" lon="-0.57366">
        <ele>44</ele>
        <time>2013-09-15T10:08:43Z</time>
      </trkpt>
      <trkpt lat="46.52587" lon="-0.5737">
        <ele>44</ele>
        <time>2013-09-15T10:08:46Z</time>
      </trkpt>
      <trkpt lat="46.52574" lon="-0.57373">
        <ele>43</ele>
        <time>2013-09-15T10:08:48Z</time>
      </trkpt>
      <trkpt lat="46.52555" lon="-0.57379">
        <ele>44</ele>
        <time>2013-09-15T10:08:51Z</time>
      </trkpt>
      <trkpt lat="46.52542" lon="-0.57383">
        <ele>43</ele>
        <time>2013-09-15T10:08:53Z</time>
      </trkpt>
      <trkpt lat="46.52524" lon="-0.57394">
        <ele>43</ele>
        <time>2013-09-15T10:08:56Z</time>
      </trkpt>
      <trkpt lat="46.52513" lon="-0.57403">
        <ele>43</ele>
        <time>2013-09-15T10:08:58Z</time>
      </trkpt>
      <trkpt lat="46.52496" lon="-0.57415">
        <ele>43</ele>
        <time>2013-09-15T10:09:01Z</time>
      </trkpt>
      <trkpt lat="46.52485" lon="-0.57424">
        <ele>43</ele>
        <time>2013-09-15T10:09:03Z</time>
      </trkpt>
      <trkpt lat="46.52475" lon="-0.57433">
        <ele>43</ele>
        <time>2013-09-15T10:09:05Z</time>
      </trkpt>
      <trkpt lat="46.52465" lon="-0.57441">
        <ele>43</ele>
        <time>2013-09-15T10:09:07Z</time>
      </trkpt>
      <trkpt lat="46.52451" lon="-0.57452">
        <ele>43</ele>
        <time>2013-09-15T10:09:10Z</time>
      </trkpt>
      <trkpt lat="46.52442" lon="-0.57458">
        <ele>43</ele>
        <time>2013-09-15T10:09:12Z</time>
      </trkpt>
      <trkpt lat="46.52436" lon="-0.57465">
        <ele>44</ele>
        <time>2013-09-15T10:09:14Z</time>
      </trkpt>
      <trkpt lat="46.52433" lon="-0.57474">
        <ele>43</ele>
        <time>2013-09-15T10:09:16Z</time>
      </trkpt>
      <trkpt lat="46.52433" lon="-0.57486">
        <ele>43</ele>
        <time>2013-09-15T10:09:19Z</time>
      </trkpt>
      <trkpt lat="46.52436" lon="-0.57495">
        <ele>43</ele>
        <time>2013-09-15T10:09:22Z</time>
      </trkpt>
      <trkpt lat="46.52439" lon="-0.57502">
        <ele>42</ele>
        <time>2013-09-15T10:09:25Z</time>
      </trkpt>
      <trkpt lat="46.5244" lon="-0.57507">
        <ele>42</ele>
        <time>2013-09-15T10:09:27Z</time>
      </trkpt>
      <trkpt lat="46.52441" lon="-0.57513">
        <ele>42</ele>
        <time>2013-09-15T10:09:30Z</time>
      </trkpt>
      <trkpt lat="46.52441" lon="-0.57517">
        <ele>42</ele>
        <time>2013-09-15T10:09:32Z</time>
      </trkpt>
      <trkpt lat="46.52442" lon="-0.57522">
        <ele>42</ele>
        <time>2013-09-15T10:09:34Z</time>
      </trkpt>
      <trkpt lat="46.52444" lon="-0.57525">
        <ele>42</ele>
        <time>2013-09-15T10:09:36Z</time>
      </trkpt>
      <trkpt lat="46.52446" lon="-0.57526">
        <ele>42</ele>
        <time>2013-09-15T10:09:38Z</time>
      </trkpt>
      <trkpt lat="46.52446" lon="-0.57526">
        <ele>42</ele>
        <time>2013-09-15T10:09:40Z</time>
      </trkpt>
      <trkpt lat="46.52446" lon="-0.57526">
        <ele>43</ele>
        <time>2013-09-15T10:09:43Z</time>
      </trkpt>
      <trkpt lat="46.52446" lon="-0.57526">
        <ele>43</ele>
        <time>2013-09-15T10:09:46Z</time>
      </trkpt>
      <trkpt lat="46.52446" lon="-0.57526">
        <ele>43</ele>
        <time>2013-09-15T10:09:49Z</time>
      </trkpt>
    </trkseg>
  </trk>
</gpx>